<?xml version="1.0" encoding="UTF-8" standalone="no" ?>
<gpx xmlns="http://www.topografix.com/GPX/1/1" xmlns:xsi="http://www.w3.org/2001/XMLSchema-instance" xsi:schemaLocation="http://www.topografix.com/GPX/1/1 http://www.topografix.com/GPX/1/1/gpx.xsd" version="1.1" creator="VisuGPX - https://www.visugpx.com">
  <metadata>
    <name>Cascade de la Brive / Cascade de Haute Roche</name>
    <desc><![CDATA[Trace AlpineQuest 25/05/2026 08:58:04]]></desc>
  </metadata>
  <trk>
    <name><![CDATA[Cascade de la Brive / Cascade de Haute Roche_1]]></name>
    <trkseg>
      <trkpt lat="45.78445" lon="5.4932">
        <ele>365.601</ele>
        <time>2026-05-25T06:58:03Z</time>
      </trkpt>
      <trkpt lat="45.78436" lon="5.49336">
        <ele>372.901</ele>
        <time>2026-05-25T06:58:06Z</time>
      </trkpt>
      <trkpt lat="45.78437" lon="5.49343">
        <ele>371.601</ele>
        <time>2026-05-25T06:58:09Z</time>
      </trkpt>
      <trkpt lat="45.78437" lon="5.4935">
        <ele>370.701</ele>
        <time>2026-05-25T06:58:13Z</time>
      </trkpt>
      <trkpt lat="45.78437" lon="5.49358">
        <ele>370.501</ele>
        <time>2026-05-25T06:58:17Z</time>
      </trkpt>
      <trkpt lat="45.78437" lon="5.49366">
        <ele>370.401</ele>
        <time>2026-05-25T06:58:21Z</time>
      </trkpt>
      <trkpt lat="45.78439" lon="5.49373">
        <ele>369.901</ele>
        <time>2026-05-25T06:58:25Z</time>
      </trkpt>
      <trkpt lat="45.7844" lon="5.4938">
        <ele>369.401</ele>
        <time>2026-05-25T06:58:28Z</time>
      </trkpt>
      <trkpt lat="45.78441" lon="5.49388">
        <ele>369.301</ele>
        <time>2026-05-25T06:58:31Z</time>
      </trkpt>
      <trkpt lat="45.78439" lon="5.49395">
        <ele>369.901</ele>
        <time>2026-05-25T06:58:35Z</time>
      </trkpt>
      <trkpt lat="45.78439" lon="5.49401">
        <ele>369.801</ele>
        <time>2026-05-25T06:58:39Z</time>
      </trkpt>
      <trkpt lat="45.78439" lon="5.49409">
        <ele>369.601</ele>
        <time>2026-05-25T06:58:43Z</time>
      </trkpt>
      <trkpt lat="45.7844" lon="5.49415">
        <ele>369.201</ele>
        <time>2026-05-25T06:58:47Z</time>
      </trkpt>
      <trkpt lat="45.7844" lon="5.49422">
        <ele>368.601</ele>
        <time>2026-05-25T06:58:51Z</time>
      </trkpt>
      <trkpt lat="45.7844" lon="5.4943">
        <ele>368.501</ele>
        <time>2026-05-25T06:58:55Z</time>
      </trkpt>
      <trkpt lat="45.78439" lon="5.49436">
        <ele>368.501</ele>
        <time>2026-05-25T06:58:58Z</time>
      </trkpt>
      <trkpt lat="45.7844" lon="5.49444">
        <ele>368.401</ele>
        <time>2026-05-25T06:59:02Z</time>
      </trkpt>
      <trkpt lat="45.7844" lon="5.49452">
        <ele>368.201</ele>
        <time>2026-05-25T06:59:06Z</time>
      </trkpt>
      <trkpt lat="45.78438" lon="5.49458">
        <ele>367.601</ele>
        <time>2026-05-25T06:59:11Z</time>
      </trkpt>
      <trkpt lat="45.78437" lon="5.49465">
        <ele>367.101</ele>
        <time>2026-05-25T06:59:15Z</time>
      </trkpt>
      <trkpt lat="45.78436" lon="5.49473">
        <ele>366.501</ele>
        <time>2026-05-25T06:59:19Z</time>
      </trkpt>
      <trkpt lat="45.78435" lon="5.4948">
        <ele>365.901</ele>
        <time>2026-05-25T06:59:23Z</time>
      </trkpt>
      <trkpt lat="45.78433" lon="5.49488">
        <ele>365.701</ele>
        <time>2026-05-25T06:59:28Z</time>
      </trkpt>
      <trkpt lat="45.7843" lon="5.49493">
        <ele>366.001</ele>
        <time>2026-05-25T06:59:31Z</time>
      </trkpt>
      <trkpt lat="45.78428" lon="5.49499">
        <ele>366.901</ele>
        <time>2026-05-25T06:59:36Z</time>
      </trkpt>
      <trkpt lat="45.78425" lon="5.49505">
        <ele>367.501</ele>
        <time>2026-05-25T06:59:42Z</time>
      </trkpt>
      <trkpt lat="45.78423" lon="5.49511">
        <ele>367.801</ele>
        <time>2026-05-25T06:59:45Z</time>
      </trkpt>
      <trkpt lat="45.78421" lon="5.49517">
        <ele>368.101</ele>
        <time>2026-05-25T06:59:50Z</time>
      </trkpt>
      <trkpt lat="45.78418" lon="5.49523">
        <ele>368.201</ele>
        <time>2026-05-25T06:59:54Z</time>
      </trkpt>
      <trkpt lat="45.78416" lon="5.49529">
        <ele>368.501</ele>
        <time>2026-05-25T06:59:57Z</time>
      </trkpt>
      <trkpt lat="45.78415" lon="5.49536">
        <ele>368.401</ele>
        <time>2026-05-25T07:00:02Z</time>
      </trkpt>
      <trkpt lat="45.78413" lon="5.49543">
        <ele>368.401</ele>
        <time>2026-05-25T07:00:06Z</time>
      </trkpt>
      <trkpt lat="45.78411" lon="5.49549">
        <ele>368.101</ele>
        <time>2026-05-25T07:00:10Z</time>
      </trkpt>
      <trkpt lat="45.78409" lon="5.49557">
        <ele>368.101</ele>
        <time>2026-05-25T07:00:15Z</time>
      </trkpt>
      <trkpt lat="45.78407" lon="5.49563">
        <ele>368.201</ele>
        <time>2026-05-25T07:00:20Z</time>
      </trkpt>
      <trkpt lat="45.78405" lon="5.49571">
        <ele>367.901</ele>
        <time>2026-05-25T07:00:24Z</time>
      </trkpt>
      <trkpt lat="45.78403" lon="5.49578">
        <ele>368.301</ele>
        <time>2026-05-25T07:00:28Z</time>
      </trkpt>
      <trkpt lat="45.78401" lon="5.49585">
        <ele>368.201</ele>
        <time>2026-05-25T07:00:32Z</time>
      </trkpt>
      <trkpt lat="45.78399" lon="5.49592">
        <ele>367.901</ele>
        <time>2026-05-25T07:00:37Z</time>
      </trkpt>
      <trkpt lat="45.78397" lon="5.49598">
        <ele>367.901</ele>
        <time>2026-05-25T07:00:41Z</time>
      </trkpt>
      <trkpt lat="45.78395" lon="5.49605">
        <ele>368.001</ele>
        <time>2026-05-25T07:00:46Z</time>
      </trkpt>
      <trkpt lat="45.78392" lon="5.49611">
        <ele>367.901</ele>
        <time>2026-05-25T07:00:50Z</time>
      </trkpt>
      <trkpt lat="45.7839" lon="5.49617">
        <ele>367.801</ele>
        <time>2026-05-25T07:00:54Z</time>
      </trkpt>
      <trkpt lat="45.78388" lon="5.49623">
        <ele>367.801</ele>
        <time>2026-05-25T07:00:58Z</time>
      </trkpt>
      <trkpt lat="45.78386" lon="5.4963">
        <ele>367.301</ele>
        <time>2026-05-25T07:01:02Z</time>
      </trkpt>
      <trkpt lat="45.78383" lon="5.49637">
        <ele>367.601</ele>
        <time>2026-05-25T07:01:06Z</time>
      </trkpt>
      <trkpt lat="45.7838" lon="5.49645">
        <ele>368.301</ele>
        <time>2026-05-25T07:01:09Z</time>
      </trkpt>
      <trkpt lat="45.78377" lon="5.49652">
        <ele>368.701</ele>
        <time>2026-05-25T07:01:13Z</time>
      </trkpt>
      <trkpt lat="45.78374" lon="5.49658">
        <ele>368.901</ele>
        <time>2026-05-25T07:01:17Z</time>
      </trkpt>
      <trkpt lat="45.78373" lon="5.49664">
        <ele>369.201</ele>
        <time>2026-05-25T07:01:21Z</time>
      </trkpt>
      <trkpt lat="45.7837" lon="5.4967">
        <ele>369.301</ele>
        <time>2026-05-25T07:01:25Z</time>
      </trkpt>
      <trkpt lat="45.78367" lon="5.49677">
        <ele>369.501</ele>
        <time>2026-05-25T07:01:29Z</time>
      </trkpt>
      <trkpt lat="45.78364" lon="5.49685">
        <ele>369.601</ele>
        <time>2026-05-25T07:01:33Z</time>
      </trkpt>
      <trkpt lat="45.78361" lon="5.49691">
        <ele>369.301</ele>
        <time>2026-05-25T07:01:38Z</time>
      </trkpt>
      <trkpt lat="45.7836" lon="5.49699">
        <ele>368.501</ele>
        <time>2026-05-25T07:01:43Z</time>
      </trkpt>
      <trkpt lat="45.78358" lon="5.49706">
        <ele>368.001</ele>
        <time>2026-05-25T07:01:48Z</time>
      </trkpt>
      <trkpt lat="45.78357" lon="5.49712">
        <ele>367.301</ele>
        <time>2026-05-25T07:01:52Z</time>
      </trkpt>
      <trkpt lat="45.78355" lon="5.4972">
        <ele>366.901</ele>
        <time>2026-05-25T07:01:56Z</time>
      </trkpt>
      <trkpt lat="45.78353" lon="5.49725">
        <ele>366.601</ele>
        <time>2026-05-25T07:02:00Z</time>
      </trkpt>
      <trkpt lat="45.78352" lon="5.49733">
        <ele>366.501</ele>
        <time>2026-05-25T07:02:04Z</time>
      </trkpt>
      <trkpt lat="45.78353" lon="5.4974">
        <ele>366.301</ele>
        <time>2026-05-25T07:02:08Z</time>
      </trkpt>
      <trkpt lat="45.78353" lon="5.49746">
        <ele>366.201</ele>
        <time>2026-05-25T07:02:12Z</time>
      </trkpt>
      <trkpt lat="45.78352" lon="5.49753">
        <ele>365.501</ele>
        <time>2026-05-25T07:02:16Z</time>
      </trkpt>
      <trkpt lat="45.78351" lon="5.4976">
        <ele>364.201</ele>
        <time>2026-05-25T07:02:21Z</time>
      </trkpt>
      <trkpt lat="45.7835" lon="5.49767">
        <ele>363.701</ele>
        <time>2026-05-25T07:02:25Z</time>
      </trkpt>
      <trkpt lat="45.78351" lon="5.49774">
        <ele>363.801</ele>
        <time>2026-05-25T07:02:30Z</time>
      </trkpt>
      <trkpt lat="45.7835" lon="5.49782">
        <ele>363.901</ele>
        <time>2026-05-25T07:02:34Z</time>
      </trkpt>
      <trkpt lat="45.78349" lon="5.4979">
        <ele>365.001</ele>
        <time>2026-05-25T07:02:39Z</time>
      </trkpt>
      <trkpt lat="45.78349" lon="5.49797">
        <ele>366.001</ele>
        <time>2026-05-25T07:02:43Z</time>
      </trkpt>
      <trkpt lat="45.78347" lon="5.49805">
        <ele>367.901</ele>
        <time>2026-05-25T07:02:47Z</time>
      </trkpt>
      <trkpt lat="45.78346" lon="5.49811">
        <ele>369.101</ele>
        <time>2026-05-25T07:02:50Z</time>
      </trkpt>
      <trkpt lat="45.78345" lon="5.49818">
        <ele>370.301</ele>
        <time>2026-05-25T07:02:54Z</time>
      </trkpt>
      <trkpt lat="45.78344" lon="5.49824">
        <ele>371.301</ele>
        <time>2026-05-25T07:02:58Z</time>
      </trkpt>
      <trkpt lat="45.78343" lon="5.49831">
        <ele>372.201</ele>
        <time>2026-05-25T07:03:02Z</time>
      </trkpt>
      <trkpt lat="45.78342" lon="5.49838">
        <ele>373.001</ele>
        <time>2026-05-25T07:03:06Z</time>
      </trkpt>
      <trkpt lat="45.78341" lon="5.49845">
        <ele>373.601</ele>
        <time>2026-05-25T07:03:10Z</time>
      </trkpt>
      <trkpt lat="45.7834" lon="5.49852">
        <ele>374.401</ele>
        <time>2026-05-25T07:03:15Z</time>
      </trkpt>
      <trkpt lat="45.78339" lon="5.49859">
        <ele>374.901</ele>
        <time>2026-05-25T07:03:19Z</time>
      </trkpt>
      <trkpt lat="45.7834" lon="5.49866">
        <ele>375.101</ele>
        <time>2026-05-25T07:03:23Z</time>
      </trkpt>
      <trkpt lat="45.7834" lon="5.49873">
        <ele>375.401</ele>
        <time>2026-05-25T07:03:27Z</time>
      </trkpt>
      <trkpt lat="45.7834" lon="5.49879">
        <ele>375.201</ele>
        <time>2026-05-25T07:03:31Z</time>
      </trkpt>
      <trkpt lat="45.7834" lon="5.49886">
        <ele>375.001</ele>
        <time>2026-05-25T07:03:35Z</time>
      </trkpt>
      <trkpt lat="45.7834" lon="5.49894">
        <ele>375.301</ele>
        <time>2026-05-25T07:03:39Z</time>
      </trkpt>
      <trkpt lat="45.7834" lon="5.49902">
        <ele>375.601</ele>
        <time>2026-05-25T07:03:42Z</time>
      </trkpt>
      <trkpt lat="45.78341" lon="5.49909">
        <ele>376.101</ele>
        <time>2026-05-25T07:03:45Z</time>
      </trkpt>
      <trkpt lat="45.78342" lon="5.49916">
        <ele>376.801</ele>
        <time>2026-05-25T07:03:49Z</time>
      </trkpt>
      <trkpt lat="45.78342" lon="5.49924">
        <ele>377.601</ele>
        <time>2026-05-25T07:03:53Z</time>
      </trkpt>
      <trkpt lat="45.78343" lon="5.4993">
        <ele>377.901</ele>
        <time>2026-05-25T07:03:56Z</time>
      </trkpt>
      <trkpt lat="45.78346" lon="5.49937">
        <ele>378.101</ele>
        <time>2026-05-25T07:04:02Z</time>
      </trkpt>
      <trkpt lat="45.78348" lon="5.49944">
        <ele>378.001</ele>
        <time>2026-05-25T07:04:06Z</time>
      </trkpt>
      <trkpt lat="45.78349" lon="5.49951">
        <ele>377.601</ele>
        <time>2026-05-25T07:04:10Z</time>
      </trkpt>
      <trkpt lat="45.78351" lon="5.49958">
        <ele>377.101</ele>
        <time>2026-05-25T07:04:16Z</time>
      </trkpt>
      <trkpt lat="45.78352" lon="5.49965">
        <ele>377.001</ele>
        <time>2026-05-25T07:04:20Z</time>
      </trkpt>
      <trkpt lat="45.78355" lon="5.4997">
        <ele>377.101</ele>
        <time>2026-05-25T07:04:24Z</time>
      </trkpt>
      <trkpt lat="45.78357" lon="5.49977">
        <ele>377.001</ele>
        <time>2026-05-25T07:04:28Z</time>
      </trkpt>
      <trkpt lat="45.78359" lon="5.49983">
        <ele>377.701</ele>
        <time>2026-05-25T07:04:32Z</time>
      </trkpt>
      <trkpt lat="45.78361" lon="5.4999">
        <ele>377.601</ele>
        <time>2026-05-25T07:04:36Z</time>
      </trkpt>
      <trkpt lat="45.78364" lon="5.49996">
        <ele>377.901</ele>
        <time>2026-05-25T07:04:40Z</time>
      </trkpt>
      <trkpt lat="45.78367" lon="5.50001">
        <ele>378.201</ele>
        <time>2026-05-25T07:04:44Z</time>
      </trkpt>
      <trkpt lat="45.78371" lon="5.50007">
        <ele>378.501</ele>
        <time>2026-05-25T07:04:49Z</time>
      </trkpt>
      <trkpt lat="45.78373" lon="5.50012">
        <ele>378.501</ele>
        <time>2026-05-25T07:04:53Z</time>
      </trkpt>
      <trkpt lat="45.78378" lon="5.50017">
        <ele>378.101</ele>
        <time>2026-05-25T07:04:58Z</time>
      </trkpt>
      <trkpt lat="45.7838" lon="5.50023">
        <ele>378.401</ele>
        <time>2026-05-25T07:05:02Z</time>
      </trkpt>
      <trkpt lat="45.78383" lon="5.5003">
        <ele>379.301</ele>
        <time>2026-05-25T07:05:06Z</time>
      </trkpt>
      <trkpt lat="45.78386" lon="5.50036">
        <ele>380.001</ele>
        <time>2026-05-25T07:05:10Z</time>
      </trkpt>
      <trkpt lat="45.78388" lon="5.50042">
        <ele>380.401</ele>
        <time>2026-05-25T07:05:14Z</time>
      </trkpt>
      <trkpt lat="45.78391" lon="5.50048">
        <ele>381.001</ele>
        <time>2026-05-25T07:05:18Z</time>
      </trkpt>
      <trkpt lat="45.78393" lon="5.50053">
        <ele>382.201</ele>
        <time>2026-05-25T07:05:22Z</time>
      </trkpt>
      <trkpt lat="45.78396" lon="5.5006">
        <ele>383.301</ele>
        <time>2026-05-25T07:05:27Z</time>
      </trkpt>
      <trkpt lat="45.78398" lon="5.50067">
        <ele>383.601</ele>
        <time>2026-05-25T07:05:31Z</time>
      </trkpt>
      <trkpt lat="45.784" lon="5.50075">
        <ele>384.301</ele>
        <time>2026-05-25T07:05:36Z</time>
      </trkpt>
      <trkpt lat="45.78401" lon="5.50082">
        <ele>384.701</ele>
        <time>2026-05-25T07:05:41Z</time>
      </trkpt>
      <trkpt lat="45.78403" lon="5.50089">
        <ele>385.702</ele>
        <time>2026-05-25T07:05:46Z</time>
      </trkpt>
      <trkpt lat="45.78404" lon="5.50096">
        <ele>386.002</ele>
        <time>2026-05-25T07:05:50Z</time>
      </trkpt>
      <trkpt lat="45.78405" lon="5.50103">
        <ele>386.402</ele>
        <time>2026-05-25T07:05:54Z</time>
      </trkpt>
      <trkpt lat="45.78407" lon="5.50109">
        <ele>387.102</ele>
        <time>2026-05-25T07:05:58Z</time>
      </trkpt>
      <trkpt lat="45.78408" lon="5.50116">
        <ele>387.602</ele>
        <time>2026-05-25T07:06:02Z</time>
      </trkpt>
      <trkpt lat="45.78411" lon="5.50123">
        <ele>388.702</ele>
        <time>2026-05-25T07:06:07Z</time>
      </trkpt>
      <trkpt lat="45.78414" lon="5.50128">
        <ele>389.102</ele>
        <time>2026-05-25T07:06:11Z</time>
      </trkpt>
      <trkpt lat="45.78417" lon="5.50133">
        <ele>389.502</ele>
        <time>2026-05-25T07:06:15Z</time>
      </trkpt>
      <trkpt lat="45.7842" lon="5.50138">
        <ele>389.902</ele>
        <time>2026-05-25T07:06:19Z</time>
      </trkpt>
      <trkpt lat="45.78422" lon="5.50144">
        <ele>390.102</ele>
        <time>2026-05-25T07:06:23Z</time>
      </trkpt>
      <trkpt lat="45.78424" lon="5.5015">
        <ele>390.302</ele>
        <time>2026-05-25T07:06:27Z</time>
      </trkpt>
      <trkpt lat="45.78426" lon="5.50156">
        <ele>390.502</ele>
        <time>2026-05-25T07:06:32Z</time>
      </trkpt>
      <trkpt lat="45.78428" lon="5.50163">
        <ele>390.602</ele>
        <time>2026-05-25T07:06:37Z</time>
      </trkpt>
      <trkpt lat="45.7843" lon="5.50171">
        <ele>390.702</ele>
        <time>2026-05-25T07:06:42Z</time>
      </trkpt>
      <trkpt lat="45.78433" lon="5.50178">
        <ele>390.502</ele>
        <time>2026-05-25T07:06:47Z</time>
      </trkpt>
      <trkpt lat="45.78434" lon="5.50185">
        <ele>390.402</ele>
        <time>2026-05-25T07:06:51Z</time>
      </trkpt>
      <trkpt lat="45.78433" lon="5.50192">
        <ele>390.802</ele>
        <time>2026-05-25T07:06:55Z</time>
      </trkpt>
      <trkpt lat="45.78431" lon="5.50199">
        <ele>391.002</ele>
        <time>2026-05-25T07:06:59Z</time>
      </trkpt>
      <trkpt lat="45.78429" lon="5.50205">
        <ele>391.202</ele>
        <time>2026-05-25T07:07:03Z</time>
      </trkpt>
      <trkpt lat="45.78427" lon="5.50211">
        <ele>391.802</ele>
        <time>2026-05-25T07:07:07Z</time>
      </trkpt>
      <trkpt lat="45.78424" lon="5.50217">
        <ele>392.002</ele>
        <time>2026-05-25T07:07:11Z</time>
      </trkpt>
      <trkpt lat="45.78423" lon="5.50225">
        <ele>391.802</ele>
        <time>2026-05-25T07:07:16Z</time>
      </trkpt>
      <trkpt lat="45.78421" lon="5.50233">
        <ele>391.902</ele>
        <time>2026-05-25T07:07:21Z</time>
      </trkpt>
      <trkpt lat="45.7842" lon="5.50239">
        <ele>392.502</ele>
        <time>2026-05-25T07:07:25Z</time>
      </trkpt>
      <trkpt lat="45.7842" lon="5.50246">
        <ele>392.902</ele>
        <time>2026-05-25T07:07:29Z</time>
      </trkpt>
      <trkpt lat="45.7842" lon="5.50253">
        <ele>393.602</ele>
        <time>2026-05-25T07:07:34Z</time>
      </trkpt>
      <trkpt lat="45.78422" lon="5.5026">
        <ele>394.702</ele>
        <time>2026-05-25T07:07:39Z</time>
      </trkpt>
      <trkpt lat="45.78423" lon="5.50266">
        <ele>395.302</ele>
        <time>2026-05-25T07:07:44Z</time>
      </trkpt>
      <trkpt lat="45.78426" lon="5.50272">
        <ele>395.902</ele>
        <time>2026-05-25T07:07:50Z</time>
      </trkpt>
      <trkpt lat="45.78428" lon="5.50279">
        <ele>396.402</ele>
        <time>2026-05-25T07:07:55Z</time>
      </trkpt>
      <trkpt lat="45.78431" lon="5.50285">
        <ele>397.002</ele>
        <time>2026-05-25T07:08:00Z</time>
      </trkpt>
      <trkpt lat="45.78434" lon="5.5029">
        <ele>397.602</ele>
        <time>2026-05-25T07:08:04Z</time>
      </trkpt>
      <trkpt lat="45.78436" lon="5.50296">
        <ele>398.902</ele>
        <time>2026-05-25T07:08:09Z</time>
      </trkpt>
      <trkpt lat="45.78439" lon="5.50302">
        <ele>400.002</ele>
        <time>2026-05-25T07:08:14Z</time>
      </trkpt>
      <trkpt lat="45.7844" lon="5.50309">
        <ele>400.802</ele>
        <time>2026-05-25T07:08:19Z</time>
      </trkpt>
      <trkpt lat="45.78441" lon="5.50316">
        <ele>400.802</ele>
        <time>2026-05-25T07:08:23Z</time>
      </trkpt>
      <trkpt lat="45.78442" lon="5.50323">
        <ele>400.902</ele>
        <time>2026-05-25T07:08:27Z</time>
      </trkpt>
      <trkpt lat="45.78443" lon="5.50329">
        <ele>400.702</ele>
        <time>2026-05-25T07:08:31Z</time>
      </trkpt>
      <trkpt lat="45.78443" lon="5.50336">
        <ele>400.602</ele>
        <time>2026-05-25T07:08:35Z</time>
      </trkpt>
      <trkpt lat="45.78444" lon="5.50342">
        <ele>400.702</ele>
        <time>2026-05-25T07:08:39Z</time>
      </trkpt>
      <trkpt lat="45.78445" lon="5.5035">
        <ele>400.402</ele>
        <time>2026-05-25T07:08:43Z</time>
      </trkpt>
      <trkpt lat="45.78446" lon="5.50356">
        <ele>400.602</ele>
        <time>2026-05-25T07:08:47Z</time>
      </trkpt>
      <trkpt lat="45.78448" lon="5.50363">
        <ele>400.702</ele>
        <time>2026-05-25T07:08:52Z</time>
      </trkpt>
      <trkpt lat="45.78448" lon="5.5037">
        <ele>400.502</ele>
        <time>2026-05-25T07:08:56Z</time>
      </trkpt>
      <trkpt lat="45.78448" lon="5.50376">
        <ele>400.302</ele>
        <time>2026-05-25T07:09:00Z</time>
      </trkpt>
      <trkpt lat="45.78448" lon="5.50383">
        <ele>399.802</ele>
        <time>2026-05-25T07:09:04Z</time>
      </trkpt>
      <trkpt lat="45.78448" lon="5.50391">
        <ele>400.002</ele>
        <time>2026-05-25T07:09:09Z</time>
      </trkpt>
      <trkpt lat="45.78447" lon="5.50398">
        <ele>400.302</ele>
        <time>2026-05-25T07:09:14Z</time>
      </trkpt>
      <trkpt lat="45.78448" lon="5.50406">
        <ele>400.702</ele>
        <time>2026-05-25T07:09:19Z</time>
      </trkpt>
      <trkpt lat="45.78448" lon="5.50412">
        <ele>400.902</ele>
        <time>2026-05-25T07:09:23Z</time>
      </trkpt>
      <trkpt lat="45.78448" lon="5.5042">
        <ele>400.902</ele>
        <time>2026-05-25T07:09:27Z</time>
      </trkpt>
      <trkpt lat="45.78447" lon="5.50426">
        <ele>400.702</ele>
        <time>2026-05-25T07:09:31Z</time>
      </trkpt>
      <trkpt lat="45.78446" lon="5.50434">
        <ele>400.602</ele>
        <time>2026-05-25T07:09:35Z</time>
      </trkpt>
      <trkpt lat="45.78445" lon="5.50441">
        <ele>399.602</ele>
        <time>2026-05-25T07:09:40Z</time>
      </trkpt>
      <trkpt lat="45.78444" lon="5.50449">
        <ele>398.202</ele>
        <time>2026-05-25T07:09:45Z</time>
      </trkpt>
      <trkpt lat="45.78443" lon="5.50457">
        <ele>397.402</ele>
        <time>2026-05-25T07:09:50Z</time>
      </trkpt>
      <trkpt lat="45.78442" lon="5.50464">
        <ele>396.702</ele>
        <time>2026-05-25T07:09:54Z</time>
      </trkpt>
      <trkpt lat="45.7844" lon="5.50471">
        <ele>396.102</ele>
        <time>2026-05-25T07:09:58Z</time>
      </trkpt>
      <trkpt lat="45.78439" lon="5.50478">
        <ele>396.002</ele>
        <time>2026-05-25T07:10:02Z</time>
      </trkpt>
      <trkpt lat="45.78437" lon="5.50484">
        <ele>395.602</ele>
        <time>2026-05-25T07:10:06Z</time>
      </trkpt>
      <trkpt lat="45.78436" lon="5.50491">
        <ele>395.202</ele>
        <time>2026-05-25T07:10:10Z</time>
      </trkpt>
      <trkpt lat="45.78433" lon="5.50498">
        <ele>395.202</ele>
        <time>2026-05-25T07:10:14Z</time>
      </trkpt>
      <trkpt lat="45.78431" lon="5.50504">
        <ele>395.202</ele>
        <time>2026-05-25T07:10:18Z</time>
      </trkpt>
      <trkpt lat="45.78428" lon="5.50511">
        <ele>395.102</ele>
        <time>2026-05-25T07:10:23Z</time>
      </trkpt>
      <trkpt lat="45.78424" lon="5.50516">
        <ele>394.602</ele>
        <time>2026-05-25T07:10:27Z</time>
      </trkpt>
      <trkpt lat="45.78421" lon="5.50521">
        <ele>394.502</ele>
        <time>2026-05-25T07:10:31Z</time>
      </trkpt>
      <trkpt lat="45.78418" lon="5.50526">
        <ele>394.502</ele>
        <time>2026-05-25T07:10:35Z</time>
      </trkpt>
      <trkpt lat="45.78414" lon="5.50531">
        <ele>393.902</ele>
        <time>2026-05-25T07:10:40Z</time>
      </trkpt>
      <trkpt lat="45.7841" lon="5.50535">
        <ele>392.802</ele>
        <time>2026-05-25T07:10:44Z</time>
      </trkpt>
      <trkpt lat="45.78406" lon="5.50539">
        <ele>392.202</ele>
        <time>2026-05-25T07:10:48Z</time>
      </trkpt>
      <trkpt lat="45.78401" lon="5.50545">
        <ele>392.102</ele>
        <time>2026-05-25T07:10:53Z</time>
      </trkpt>
      <trkpt lat="45.78398" lon="5.5055">
        <ele>392.702</ele>
        <time>2026-05-25T07:10:58Z</time>
      </trkpt>
      <trkpt lat="45.78394" lon="5.50556">
        <ele>393.402</ele>
        <time>2026-05-25T07:11:03Z</time>
      </trkpt>
      <trkpt lat="45.78391" lon="5.50562">
        <ele>394.002</ele>
        <time>2026-05-25T07:11:08Z</time>
      </trkpt>
      <trkpt lat="45.78388" lon="5.50568">
        <ele>394.002</ele>
        <time>2026-05-25T07:11:12Z</time>
      </trkpt>
      <trkpt lat="45.78386" lon="5.50573">
        <ele>393.602</ele>
        <time>2026-05-25T07:11:17Z</time>
      </trkpt>
      <trkpt lat="45.78385" lon="5.5058">
        <ele>392.602</ele>
        <time>2026-05-25T07:11:23Z</time>
      </trkpt>
      <trkpt lat="45.78383" lon="5.50588">
        <ele>391.802</ele>
        <time>2026-05-25T07:11:28Z</time>
      </trkpt>
      <trkpt lat="45.78382" lon="5.50596">
        <ele>391.302</ele>
        <time>2026-05-25T07:11:32Z</time>
      </trkpt>
      <trkpt lat="45.78382" lon="5.50604">
        <ele>390.802</ele>
        <time>2026-05-25T07:11:36Z</time>
      </trkpt>
      <trkpt lat="45.78382" lon="5.50611">
        <ele>390.902</ele>
        <time>2026-05-25T07:11:39Z</time>
      </trkpt>
      <trkpt lat="45.78381" lon="5.50618">
        <ele>391.502</ele>
        <time>2026-05-25T07:11:42Z</time>
      </trkpt>
      <trkpt lat="45.78381" lon="5.50625">
        <ele>392.202</ele>
        <time>2026-05-25T07:11:46Z</time>
      </trkpt>
      <trkpt lat="45.78381" lon="5.50632">
        <ele>392.702</ele>
        <time>2026-05-25T07:11:50Z</time>
      </trkpt>
      <trkpt lat="45.7838" lon="5.5064">
        <ele>393.702</ele>
        <time>2026-05-25T07:11:53Z</time>
      </trkpt>
      <trkpt lat="45.78378" lon="5.50649">
        <ele>395.802</ele>
        <time>2026-05-25T07:11:56Z</time>
      </trkpt>
      <trkpt lat="45.78379" lon="5.50656">
        <ele>397.302</ele>
        <time>2026-05-25T07:12:00Z</time>
      </trkpt>
      <trkpt lat="45.7838" lon="5.50663">
        <ele>398.402</ele>
        <time>2026-05-25T07:12:05Z</time>
      </trkpt>
      <trkpt lat="45.78381" lon="5.50671">
        <ele>399.402</ele>
        <time>2026-05-25T07:12:16Z</time>
      </trkpt>
      <trkpt lat="45.78382" lon="5.50677">
        <ele>398.802</ele>
        <time>2026-05-25T07:12:21Z</time>
      </trkpt>
      <trkpt lat="45.78382" lon="5.50684">
        <ele>398.002</ele>
        <time>2026-05-25T07:12:25Z</time>
      </trkpt>
      <trkpt lat="45.78382" lon="5.50692">
        <ele>397.502</ele>
        <time>2026-05-25T07:12:30Z</time>
      </trkpt>
      <trkpt lat="45.78382" lon="5.50698">
        <ele>395.902</ele>
        <time>2026-05-25T07:12:35Z</time>
      </trkpt>
      <trkpt lat="45.78383" lon="5.50705">
        <ele>395.102</ele>
        <time>2026-05-25T07:12:40Z</time>
      </trkpt>
      <trkpt lat="45.78383" lon="5.50712">
        <ele>393.502</ele>
        <time>2026-05-25T07:12:45Z</time>
      </trkpt>
      <trkpt lat="45.78383" lon="5.50718">
        <ele>390.502</ele>
        <time>2026-05-25T07:12:51Z</time>
      </trkpt>
      <trkpt lat="45.78382" lon="5.50724">
        <ele>388.502</ele>
        <time>2026-05-25T07:12:55Z</time>
      </trkpt>
      <trkpt lat="45.78383" lon="5.5073">
        <ele>386.002</ele>
        <time>2026-05-25T07:13:00Z</time>
      </trkpt>
      <trkpt lat="45.78383" lon="5.50737">
        <ele>384.402</ele>
        <time>2026-05-25T07:13:04Z</time>
      </trkpt>
      <trkpt lat="45.78382" lon="5.50745">
        <ele>382.702</ele>
        <time>2026-05-25T07:13:08Z</time>
      </trkpt>
      <trkpt lat="45.7838" lon="5.50751">
        <ele>381.602</ele>
        <time>2026-05-25T07:13:11Z</time>
      </trkpt>
      <trkpt lat="45.78378" lon="5.50756">
        <ele>380.202</ele>
        <time>2026-05-25T07:13:15Z</time>
      </trkpt>
      <trkpt lat="45.78377" lon="5.50764">
        <ele>378.302</ele>
        <time>2026-05-25T07:13:20Z</time>
      </trkpt>
      <trkpt lat="45.78376" lon="5.5077">
        <ele>376.902</ele>
        <time>2026-05-25T07:13:24Z</time>
      </trkpt>
      <trkpt lat="45.78374" lon="5.50776">
        <ele>375.902</ele>
        <time>2026-05-25T07:13:28Z</time>
      </trkpt>
      <trkpt lat="45.78373" lon="5.50782">
        <ele>373.802</ele>
        <time>2026-05-25T07:13:33Z</time>
      </trkpt>
      <trkpt lat="45.78373" lon="5.50789">
        <ele>372.302</ele>
        <time>2026-05-25T07:13:37Z</time>
      </trkpt>
      <trkpt lat="45.78375" lon="5.50795">
        <ele>370.802</ele>
        <time>2026-05-25T07:13:41Z</time>
      </trkpt>
      <trkpt lat="45.78376" lon="5.50802">
        <ele>369.102</ele>
        <time>2026-05-25T07:13:45Z</time>
      </trkpt>
      <trkpt lat="45.78378" lon="5.50808">
        <ele>367.802</ele>
        <time>2026-05-25T07:13:48Z</time>
      </trkpt>
      <trkpt lat="45.78379" lon="5.50814">
        <ele>366.102</ele>
        <time>2026-05-25T07:13:52Z</time>
      </trkpt>
      <trkpt lat="45.78381" lon="5.5082">
        <ele>363.902</ele>
        <time>2026-05-25T07:13:56Z</time>
      </trkpt>
      <trkpt lat="45.78382" lon="5.50826">
        <ele>362.402</ele>
        <time>2026-05-25T07:13:59Z</time>
      </trkpt>
      <trkpt lat="45.78383" lon="5.50834">
        <ele>360.802</ele>
        <time>2026-05-25T07:14:03Z</time>
      </trkpt>
      <trkpt lat="45.78384" lon="5.5084">
        <ele>359.002</ele>
        <time>2026-05-25T07:14:07Z</time>
      </trkpt>
      <trkpt lat="45.78383" lon="5.50847">
        <ele>357.402</ele>
        <time>2026-05-25T07:14:13Z</time>
      </trkpt>
      <trkpt lat="45.7838" lon="5.50852">
        <ele>356.302</ele>
        <time>2026-05-25T07:14:18Z</time>
      </trkpt>
      <trkpt lat="45.78376" lon="5.50855">
        <ele>355.502</ele>
        <time>2026-05-25T07:14:24Z</time>
      </trkpt>
      <trkpt lat="45.78374" lon="5.50861">
        <ele>355.802</ele>
        <time>2026-05-25T07:14:32Z</time>
      </trkpt>
      <trkpt lat="45.78368" lon="5.50861">
        <ele>356.402</ele>
        <time>2026-05-25T07:14:40Z</time>
      </trkpt>
      <trkpt lat="45.78363" lon="5.50862">
        <ele>358.002</ele>
        <time>2026-05-25T07:14:44Z</time>
      </trkpt>
      <trkpt lat="45.78359" lon="5.50862">
        <ele>359.402</ele>
        <time>2026-05-25T07:14:49Z</time>
      </trkpt>
      <trkpt lat="45.78355" lon="5.50862">
        <ele>361.002</ele>
        <time>2026-05-25T07:14:54Z</time>
      </trkpt>
      <trkpt lat="45.7835" lon="5.50865">
        <ele>361.302</ele>
        <time>2026-05-25T07:14:58Z</time>
      </trkpt>
      <trkpt lat="45.78345" lon="5.50867">
        <ele>361.102</ele>
        <time>2026-05-25T07:15:02Z</time>
      </trkpt>
      <trkpt lat="45.78341" lon="5.5087">
        <ele>362.202</ele>
        <time>2026-05-25T07:15:06Z</time>
      </trkpt>
      <trkpt lat="45.78336" lon="5.50873">
        <ele>363.302</ele>
        <time>2026-05-25T07:15:10Z</time>
      </trkpt>
      <trkpt lat="45.78333" lon="5.50878">
        <ele>364.002</ele>
        <time>2026-05-25T07:15:14Z</time>
      </trkpt>
      <trkpt lat="45.78331" lon="5.50885">
        <ele>365.002</ele>
        <time>2026-05-25T07:15:19Z</time>
      </trkpt>
      <trkpt lat="45.78328" lon="5.50891">
        <ele>365.402</ele>
        <time>2026-05-25T07:15:24Z</time>
      </trkpt>
      <trkpt lat="45.78326" lon="5.50899">
        <ele>366.002</ele>
        <time>2026-05-25T07:15:29Z</time>
      </trkpt>
      <trkpt lat="45.78324" lon="5.50905">
        <ele>366.802</ele>
        <time>2026-05-25T07:15:33Z</time>
      </trkpt>
      <trkpt lat="45.78322" lon="5.50911">
        <ele>367.502</ele>
        <time>2026-05-25T07:15:37Z</time>
      </trkpt>
      <trkpt lat="45.7832" lon="5.50919">
        <ele>368.002</ele>
        <time>2026-05-25T07:15:42Z</time>
      </trkpt>
      <trkpt lat="45.7832" lon="5.50925">
        <ele>367.802</ele>
        <time>2026-05-25T07:15:46Z</time>
      </trkpt>
      <trkpt lat="45.78319" lon="5.50933">
        <ele>368.002</ele>
        <time>2026-05-25T07:15:52Z</time>
      </trkpt>
      <trkpt lat="45.78318" lon="5.50941">
        <ele>368.202</ele>
        <time>2026-05-25T07:15:56Z</time>
      </trkpt>
      <trkpt lat="45.78316" lon="5.50949">
        <ele>368.502</ele>
        <time>2026-05-25T07:16:01Z</time>
      </trkpt>
      <trkpt lat="45.78314" lon="5.50955">
        <ele>368.702</ele>
        <time>2026-05-25T07:16:04Z</time>
      </trkpt>
      <trkpt lat="45.78314" lon="5.50962">
        <ele>368.802</ele>
        <time>2026-05-25T07:16:08Z</time>
      </trkpt>
      <trkpt lat="45.78314" lon="5.50968">
        <ele>369.002</ele>
        <time>2026-05-25T07:16:13Z</time>
      </trkpt>
      <trkpt lat="45.78313" lon="5.50975">
        <ele>369.202</ele>
        <time>2026-05-25T07:16:18Z</time>
      </trkpt>
      <trkpt lat="45.78313" lon="5.50982">
        <ele>369.302</ele>
        <time>2026-05-25T07:16:23Z</time>
      </trkpt>
      <trkpt lat="45.78311" lon="5.50989">
        <ele>370.102</ele>
        <time>2026-05-25T07:16:28Z</time>
      </trkpt>
      <trkpt lat="45.7831" lon="5.50995">
        <ele>370.302</ele>
        <time>2026-05-25T07:16:32Z</time>
      </trkpt>
      <trkpt lat="45.7831" lon="5.51003">
        <ele>371.102</ele>
        <time>2026-05-25T07:16:37Z</time>
      </trkpt>
      <trkpt lat="45.7831" lon="5.51011">
        <ele>371.302</ele>
        <time>2026-05-25T07:16:41Z</time>
      </trkpt>
      <trkpt lat="45.7831" lon="5.51019">
        <ele>371.702</ele>
        <time>2026-05-25T07:16:45Z</time>
      </trkpt>
      <trkpt lat="45.78311" lon="5.51025">
        <ele>372.202</ele>
        <time>2026-05-25T07:16:48Z</time>
      </trkpt>
      <trkpt lat="45.78311" lon="5.51035">
        <ele>373.302</ele>
        <time>2026-05-25T07:16:51Z</time>
      </trkpt>
      <trkpt lat="45.78309" lon="5.51042">
        <ele>373.702</ele>
        <time>2026-05-25T07:16:54Z</time>
      </trkpt>
      <trkpt lat="45.78308" lon="5.51051">
        <ele>374.102</ele>
        <time>2026-05-25T07:16:58Z</time>
      </trkpt>
      <trkpt lat="45.78306" lon="5.51059">
        <ele>374.902</ele>
        <time>2026-05-25T07:17:02Z</time>
      </trkpt>
      <trkpt lat="45.78305" lon="5.51065">
        <ele>375.702</ele>
        <time>2026-05-25T07:17:05Z</time>
      </trkpt>
      <trkpt lat="45.78303" lon="5.51072">
        <ele>376.702</ele>
        <time>2026-05-25T07:17:10Z</time>
      </trkpt>
      <trkpt lat="45.78303" lon="5.5108">
        <ele>378.402</ele>
        <time>2026-05-25T07:17:14Z</time>
      </trkpt>
      <trkpt lat="45.78302" lon="5.51087">
        <ele>378.802</ele>
        <time>2026-05-25T07:17:18Z</time>
      </trkpt>
      <trkpt lat="45.78302" lon="5.51094">
        <ele>378.602</ele>
        <time>2026-05-25T07:17:22Z</time>
      </trkpt>
      <trkpt lat="45.78302" lon="5.51101">
        <ele>378.402</ele>
        <time>2026-05-25T07:17:26Z</time>
      </trkpt>
      <trkpt lat="45.78301" lon="5.51108">
        <ele>378.502</ele>
        <time>2026-05-25T07:17:30Z</time>
      </trkpt>
      <trkpt lat="45.78299" lon="5.51114">
        <ele>378.002</ele>
        <time>2026-05-25T07:17:35Z</time>
      </trkpt>
      <trkpt lat="45.78298" lon="5.5112">
        <ele>377.402</ele>
        <time>2026-05-25T07:17:38Z</time>
      </trkpt>
      <trkpt lat="45.78294" lon="5.51125">
        <ele>377.202</ele>
        <time>2026-05-25T07:17:41Z</time>
      </trkpt>
      <trkpt lat="45.78291" lon="5.51131">
        <ele>377.202</ele>
        <time>2026-05-25T07:17:44Z</time>
      </trkpt>
      <trkpt lat="45.78288" lon="5.51135">
        <ele>377.502</ele>
        <time>2026-05-25T07:17:49Z</time>
      </trkpt>
      <trkpt lat="45.78285" lon="5.51141">
        <ele>378.302</ele>
        <time>2026-05-25T07:17:53Z</time>
      </trkpt>
      <trkpt lat="45.78282" lon="5.51147">
        <ele>378.002</ele>
        <time>2026-05-25T07:17:58Z</time>
      </trkpt>
      <trkpt lat="45.78278" lon="5.51152">
        <ele>377.002</ele>
        <time>2026-05-25T07:18:03Z</time>
      </trkpt>
      <trkpt lat="45.78274" lon="5.51157">
        <ele>375.602</ele>
        <time>2026-05-25T07:18:07Z</time>
      </trkpt>
      <trkpt lat="45.78271" lon="5.51163">
        <ele>374.702</ele>
        <time>2026-05-25T07:18:12Z</time>
      </trkpt>
      <trkpt lat="45.78268" lon="5.5117">
        <ele>374.002</ele>
        <time>2026-05-25T07:18:17Z</time>
      </trkpt>
      <trkpt lat="45.78267" lon="5.51178">
        <ele>374.102</ele>
        <time>2026-05-25T07:18:21Z</time>
      </trkpt>
      <trkpt lat="45.78264" lon="5.51184">
        <ele>374.402</ele>
        <time>2026-05-25T07:18:25Z</time>
      </trkpt>
      <trkpt lat="45.78263" lon="5.51192">
        <ele>374.302</ele>
        <time>2026-05-25T07:18:30Z</time>
      </trkpt>
      <trkpt lat="45.78263" lon="5.51199">
        <ele>374.002</ele>
        <time>2026-05-25T07:18:34Z</time>
      </trkpt>
      <trkpt lat="45.78264" lon="5.51207">
        <ele>373.602</ele>
        <time>2026-05-25T07:18:38Z</time>
      </trkpt>
      <trkpt lat="45.78264" lon="5.51214">
        <ele>372.002</ele>
        <time>2026-05-25T07:18:44Z</time>
      </trkpt>
      <trkpt lat="45.78263" lon="5.51221">
        <ele>371.002</ele>
        <time>2026-05-25T07:18:48Z</time>
      </trkpt>
      <trkpt lat="45.78261" lon="5.51227">
        <ele>369.902</ele>
        <time>2026-05-25T07:18:52Z</time>
      </trkpt>
      <trkpt lat="45.78259" lon="5.51233">
        <ele>369.002</ele>
        <time>2026-05-25T07:18:56Z</time>
      </trkpt>
      <trkpt lat="45.78257" lon="5.5124">
        <ele>368.502</ele>
        <time>2026-05-25T07:19:01Z</time>
      </trkpt>
      <trkpt lat="45.78255" lon="5.51247">
        <ele>368.202</ele>
        <time>2026-05-25T07:19:06Z</time>
      </trkpt>
      <trkpt lat="45.78253" lon="5.51253">
        <ele>368.202</ele>
        <time>2026-05-25T07:19:10Z</time>
      </trkpt>
      <trkpt lat="45.7825" lon="5.51258">
        <ele>367.802</ele>
        <time>2026-05-25T07:19:14Z</time>
      </trkpt>
      <trkpt lat="45.78248" lon="5.51264">
        <ele>367.502</ele>
        <time>2026-05-25T07:19:17Z</time>
      </trkpt>
      <trkpt lat="45.78246" lon="5.5127">
        <ele>366.702</ele>
        <time>2026-05-25T07:19:21Z</time>
      </trkpt>
      <trkpt lat="45.78244" lon="5.51276">
        <ele>366.402</ele>
        <time>2026-05-25T07:19:23Z</time>
      </trkpt>
      <trkpt lat="45.78242" lon="5.51283">
        <ele>365.202</ele>
        <time>2026-05-25T07:19:26Z</time>
      </trkpt>
      <trkpt lat="45.7824" lon="5.51288">
        <ele>364.502</ele>
        <time>2026-05-25T07:19:30Z</time>
      </trkpt>
      <trkpt lat="45.78236" lon="5.51294">
        <ele>364.802</ele>
        <time>2026-05-25T07:19:34Z</time>
      </trkpt>
      <trkpt lat="45.78234" lon="5.51299">
        <ele>365.002</ele>
        <time>2026-05-25T07:19:38Z</time>
      </trkpt>
      <trkpt lat="45.78231" lon="5.51304">
        <ele>364.602</ele>
        <time>2026-05-25T07:19:42Z</time>
      </trkpt>
      <trkpt lat="45.78227" lon="5.51309">
        <ele>365.002</ele>
        <time>2026-05-25T07:19:47Z</time>
      </trkpt>
      <trkpt lat="45.78224" lon="5.51315">
        <ele>365.602</ele>
        <time>2026-05-25T07:19:51Z</time>
      </trkpt>
      <trkpt lat="45.78221" lon="5.51322">
        <ele>366.202</ele>
        <time>2026-05-25T07:19:55Z</time>
      </trkpt>
      <trkpt lat="45.7822" lon="5.51328">
        <ele>366.502</ele>
        <time>2026-05-25T07:19:59Z</time>
      </trkpt>
      <trkpt lat="45.7822" lon="5.51336">
        <ele>367.502</ele>
        <time>2026-05-25T07:20:03Z</time>
      </trkpt>
      <trkpt lat="45.7822" lon="5.51343">
        <ele>368.302</ele>
        <time>2026-05-25T07:20:07Z</time>
      </trkpt>
      <trkpt lat="45.7822" lon="5.5135">
        <ele>368.502</ele>
        <time>2026-05-25T07:20:11Z</time>
      </trkpt>
      <trkpt lat="45.78219" lon="5.51358">
        <ele>368.902</ele>
        <time>2026-05-25T07:20:15Z</time>
      </trkpt>
      <trkpt lat="45.78218" lon="5.51365">
        <ele>369.103</ele>
        <time>2026-05-25T07:20:19Z</time>
      </trkpt>
      <trkpt lat="45.78215" lon="5.51371">
        <ele>368.603</ele>
        <time>2026-05-25T07:20:24Z</time>
      </trkpt>
      <trkpt lat="45.78214" lon="5.51378">
        <ele>367.503</ele>
        <time>2026-05-25T07:20:29Z</time>
      </trkpt>
      <trkpt lat="45.78213" lon="5.51386">
        <ele>366.803</ele>
        <time>2026-05-25T07:20:34Z</time>
      </trkpt>
      <trkpt lat="45.78214" lon="5.51392">
        <ele>366.303</ele>
        <time>2026-05-25T07:20:38Z</time>
      </trkpt>
      <trkpt lat="45.78215" lon="5.51398">
        <ele>366.103</ele>
        <time>2026-05-25T07:20:42Z</time>
      </trkpt>
      <trkpt lat="45.78218" lon="5.51405">
        <ele>365.303</ele>
        <time>2026-05-25T07:20:48Z</time>
      </trkpt>
      <trkpt lat="45.7822" lon="5.51411">
        <ele>364.803</ele>
        <time>2026-05-25T07:20:54Z</time>
      </trkpt>
      <trkpt lat="45.78223" lon="5.51417">
        <ele>364.003</ele>
        <time>2026-05-25T07:20:59Z</time>
      </trkpt>
      <trkpt lat="45.78226" lon="5.51423">
        <ele>363.903</ele>
        <time>2026-05-25T07:21:05Z</time>
      </trkpt>
      <trkpt lat="45.78226" lon="5.51431">
        <ele>365.603</ele>
        <time>2026-05-25T07:21:11Z</time>
      </trkpt>
      <trkpt lat="45.78228" lon="5.51437">
        <ele>366.803</ele>
        <time>2026-05-25T07:21:16Z</time>
      </trkpt>
      <trkpt lat="45.78229" lon="5.51444">
        <ele>368.003</ele>
        <time>2026-05-25T07:21:21Z</time>
      </trkpt>
      <trkpt lat="45.78231" lon="5.51452">
        <ele>368.903</ele>
        <time>2026-05-25T07:21:26Z</time>
      </trkpt>
      <trkpt lat="45.78232" lon="5.51459">
        <ele>369.703</ele>
        <time>2026-05-25T07:21:30Z</time>
      </trkpt>
      <trkpt lat="45.78234" lon="5.51465">
        <ele>370.103</ele>
        <time>2026-05-25T07:21:34Z</time>
      </trkpt>
      <trkpt lat="45.78236" lon="5.51471">
        <ele>370.603</ele>
        <time>2026-05-25T07:21:39Z</time>
      </trkpt>
      <trkpt lat="45.78238" lon="5.51478">
        <ele>370.403</ele>
        <time>2026-05-25T07:21:44Z</time>
      </trkpt>
      <trkpt lat="45.78241" lon="5.51484">
        <ele>370.003</ele>
        <time>2026-05-25T07:21:49Z</time>
      </trkpt>
      <trkpt lat="45.78244" lon="5.51491">
        <ele>370.103</ele>
        <time>2026-05-25T07:21:54Z</time>
      </trkpt>
      <trkpt lat="45.78246" lon="5.51497">
        <ele>370.003</ele>
        <time>2026-05-25T07:21:59Z</time>
      </trkpt>
      <trkpt lat="45.78249" lon="5.51502">
        <ele>370.703</ele>
        <time>2026-05-25T07:22:03Z</time>
      </trkpt>
      <trkpt lat="45.78252" lon="5.51507">
        <ele>371.703</ele>
        <time>2026-05-25T07:22:07Z</time>
      </trkpt>
      <trkpt lat="45.78255" lon="5.51513">
        <ele>372.503</ele>
        <time>2026-05-25T07:22:11Z</time>
      </trkpt>
      <trkpt lat="45.78257" lon="5.51519">
        <ele>373.003</ele>
        <time>2026-05-25T07:22:15Z</time>
      </trkpt>
      <trkpt lat="45.7826" lon="5.51525">
        <ele>372.903</ele>
        <time>2026-05-25T07:22:19Z</time>
      </trkpt>
      <trkpt lat="45.78263" lon="5.5153">
        <ele>373.503</ele>
        <time>2026-05-25T07:22:23Z</time>
      </trkpt>
      <trkpt lat="45.78266" lon="5.51536">
        <ele>373.703</ele>
        <time>2026-05-25T07:22:27Z</time>
      </trkpt>
      <trkpt lat="45.78269" lon="5.51541">
        <ele>373.903</ele>
        <time>2026-05-25T07:22:31Z</time>
      </trkpt>
      <trkpt lat="45.78274" lon="5.51546">
        <ele>374.203</ele>
        <time>2026-05-25T07:22:35Z</time>
      </trkpt>
      <trkpt lat="45.78277" lon="5.5155">
        <ele>373.403</ele>
        <time>2026-05-25T07:22:39Z</time>
      </trkpt>
      <trkpt lat="45.78282" lon="5.51554">
        <ele>372.703</ele>
        <time>2026-05-25T07:22:43Z</time>
      </trkpt>
      <trkpt lat="45.78287" lon="5.51557">
        <ele>372.003</ele>
        <time>2026-05-25T07:22:47Z</time>
      </trkpt>
      <trkpt lat="45.78292" lon="5.5156">
        <ele>371.303</ele>
        <time>2026-05-25T07:22:52Z</time>
      </trkpt>
      <trkpt lat="45.78296" lon="5.51564">
        <ele>370.803</ele>
        <time>2026-05-25T07:22:56Z</time>
      </trkpt>
      <trkpt lat="45.783" lon="5.51566">
        <ele>370.203</ele>
        <time>2026-05-25T07:23:01Z</time>
      </trkpt>
      <trkpt lat="45.78305" lon="5.51568">
        <ele>369.803</ele>
        <time>2026-05-25T07:23:05Z</time>
      </trkpt>
      <trkpt lat="45.7831" lon="5.51572">
        <ele>369.503</ele>
        <time>2026-05-25T07:23:09Z</time>
      </trkpt>
      <trkpt lat="45.78314" lon="5.51576">
        <ele>368.903</ele>
        <time>2026-05-25T07:23:13Z</time>
      </trkpt>
      <trkpt lat="45.78318" lon="5.5158">
        <ele>369.003</ele>
        <time>2026-05-25T07:23:17Z</time>
      </trkpt>
      <trkpt lat="45.78321" lon="5.51587">
        <ele>370.403</ele>
        <time>2026-05-25T07:23:21Z</time>
      </trkpt>
      <trkpt lat="45.78324" lon="5.51593">
        <ele>372.403</ele>
        <time>2026-05-25T07:23:25Z</time>
      </trkpt>
      <trkpt lat="45.78328" lon="5.51598">
        <ele>374.403</ele>
        <time>2026-05-25T07:23:29Z</time>
      </trkpt>
      <trkpt lat="45.78332" lon="5.51602">
        <ele>376.003</ele>
        <time>2026-05-25T07:23:33Z</time>
      </trkpt>
      <trkpt lat="45.78335" lon="5.51608">
        <ele>376.503</ele>
        <time>2026-05-25T07:23:36Z</time>
      </trkpt>
      <trkpt lat="45.78339" lon="5.51612">
        <ele>376.703</ele>
        <time>2026-05-25T07:23:40Z</time>
      </trkpt>
      <trkpt lat="45.78344" lon="5.51612">
        <ele>376.603</ele>
        <time>2026-05-25T07:23:44Z</time>
      </trkpt>
      <trkpt lat="45.78349" lon="5.51615">
        <ele>376.203</ele>
        <time>2026-05-25T07:23:50Z</time>
      </trkpt>
      <trkpt lat="45.78354" lon="5.51616">
        <ele>375.603</ele>
        <time>2026-05-25T07:23:54Z</time>
      </trkpt>
      <trkpt lat="45.78359" lon="5.51617">
        <ele>375.103</ele>
        <time>2026-05-25T07:23:58Z</time>
      </trkpt>
      <trkpt lat="45.78364" lon="5.5162">
        <ele>374.703</ele>
        <time>2026-05-25T07:24:02Z</time>
      </trkpt>
      <trkpt lat="45.78369" lon="5.5162">
        <ele>373.703</ele>
        <time>2026-05-25T07:24:07Z</time>
      </trkpt>
      <trkpt lat="45.78374" lon="5.51623">
        <ele>372.203</ele>
        <time>2026-05-25T07:24:11Z</time>
      </trkpt>
      <trkpt lat="45.78378" lon="5.51628">
        <ele>370.803</ele>
        <time>2026-05-25T07:24:15Z</time>
      </trkpt>
      <trkpt lat="45.78382" lon="5.51635">
        <ele>370.003</ele>
        <time>2026-05-25T07:24:19Z</time>
      </trkpt>
      <trkpt lat="45.78384" lon="5.51642">
        <ele>369.603</ele>
        <time>2026-05-25T07:24:23Z</time>
      </trkpt>
      <trkpt lat="45.78386" lon="5.51649">
        <ele>369.003</ele>
        <time>2026-05-25T07:24:27Z</time>
      </trkpt>
      <trkpt lat="45.78388" lon="5.51655">
        <ele>368.403</ele>
        <time>2026-05-25T07:24:31Z</time>
      </trkpt>
      <trkpt lat="45.7839" lon="5.51661">
        <ele>368.403</ele>
        <time>2026-05-25T07:24:35Z</time>
      </trkpt>
      <trkpt lat="45.78393" lon="5.51669">
        <ele>368.303</ele>
        <time>2026-05-25T07:24:40Z</time>
      </trkpt>
      <trkpt lat="45.78395" lon="5.51674">
        <ele>368.603</ele>
        <time>2026-05-25T07:24:44Z</time>
      </trkpt>
      <trkpt lat="45.78398" lon="5.51681">
        <ele>368.603</ele>
        <time>2026-05-25T07:24:48Z</time>
      </trkpt>
      <trkpt lat="45.78401" lon="5.51687">
        <ele>368.403</ele>
        <time>2026-05-25T07:24:52Z</time>
      </trkpt>
      <trkpt lat="45.78404" lon="5.51692">
        <ele>367.703</ele>
        <time>2026-05-25T07:24:56Z</time>
      </trkpt>
      <trkpt lat="45.78406" lon="5.51699">
        <ele>367.803</ele>
        <time>2026-05-25T07:25:00Z</time>
      </trkpt>
      <trkpt lat="45.78409" lon="5.51705">
        <ele>367.003</ele>
        <time>2026-05-25T07:25:05Z</time>
      </trkpt>
      <trkpt lat="45.78412" lon="5.51712">
        <ele>366.303</ele>
        <time>2026-05-25T07:25:09Z</time>
      </trkpt>
      <trkpt lat="45.78414" lon="5.51719">
        <ele>366.303</ele>
        <time>2026-05-25T07:25:13Z</time>
      </trkpt>
      <trkpt lat="45.78416" lon="5.51726">
        <ele>366.003</ele>
        <time>2026-05-25T07:25:18Z</time>
      </trkpt>
      <trkpt lat="45.78417" lon="5.51733">
        <ele>366.103</ele>
        <time>2026-05-25T07:25:22Z</time>
      </trkpt>
      <trkpt lat="45.7842" lon="5.51741">
        <ele>366.603</ele>
        <time>2026-05-25T07:25:26Z</time>
      </trkpt>
      <trkpt lat="45.78423" lon="5.51747">
        <ele>367.503</ele>
        <time>2026-05-25T07:25:31Z</time>
      </trkpt>
      <trkpt lat="45.78426" lon="5.51753">
        <ele>368.103</ele>
        <time>2026-05-25T07:25:35Z</time>
      </trkpt>
      <trkpt lat="45.78431" lon="5.51757">
        <ele>368.903</ele>
        <time>2026-05-25T07:25:40Z</time>
      </trkpt>
      <trkpt lat="45.78436" lon="5.5176">
        <ele>370.203</ele>
        <time>2026-05-25T07:25:45Z</time>
      </trkpt>
      <trkpt lat="45.7844" lon="5.51764">
        <ele>371.303</ele>
        <time>2026-05-25T07:25:49Z</time>
      </trkpt>
      <trkpt lat="45.78444" lon="5.51766">
        <ele>373.003</ele>
        <time>2026-05-25T07:25:53Z</time>
      </trkpt>
      <trkpt lat="45.78449" lon="5.51769">
        <ele>374.003</ele>
        <time>2026-05-25T07:25:57Z</time>
      </trkpt>
      <trkpt lat="45.78453" lon="5.51772">
        <ele>375.003</ele>
        <time>2026-05-25T07:26:01Z</time>
      </trkpt>
      <trkpt lat="45.78457" lon="5.51775">
        <ele>376.403</ele>
        <time>2026-05-25T07:26:06Z</time>
      </trkpt>
      <trkpt lat="45.78461" lon="5.51779">
        <ele>377.204</ele>
        <time>2026-05-25T07:26:11Z</time>
      </trkpt>
      <trkpt lat="45.78466" lon="5.5178">
        <ele>378.004</ele>
        <time>2026-05-25T07:26:15Z</time>
      </trkpt>
      <trkpt lat="45.7847" lon="5.51782">
        <ele>379.304</ele>
        <time>2026-05-25T07:26:19Z</time>
      </trkpt>
      <trkpt lat="45.78475" lon="5.51782">
        <ele>380.304</ele>
        <time>2026-05-25T07:26:23Z</time>
      </trkpt>
      <trkpt lat="45.78479" lon="5.51783">
        <ele>380.804</ele>
        <time>2026-05-25T07:26:27Z</time>
      </trkpt>
      <trkpt lat="45.78485" lon="5.51784">
        <ele>381.204</ele>
        <time>2026-05-25T07:26:32Z</time>
      </trkpt>
      <trkpt lat="45.7849" lon="5.51784">
        <ele>381.704</ele>
        <time>2026-05-25T07:26:36Z</time>
      </trkpt>
      <trkpt lat="45.78495" lon="5.51783">
        <ele>382.504</ele>
        <time>2026-05-25T07:26:41Z</time>
      </trkpt>
      <trkpt lat="45.785" lon="5.51782">
        <ele>382.904</ele>
        <time>2026-05-25T07:26:45Z</time>
      </trkpt>
      <trkpt lat="45.78505" lon="5.5178">
        <ele>382.904</ele>
        <time>2026-05-25T07:26:49Z</time>
      </trkpt>
      <trkpt lat="45.78509" lon="5.51778">
        <ele>383.204</ele>
        <time>2026-05-25T07:26:53Z</time>
      </trkpt>
      <trkpt lat="45.78513" lon="5.51775">
        <ele>383.804</ele>
        <time>2026-05-25T07:26:58Z</time>
      </trkpt>
      <trkpt lat="45.78518" lon="5.51771">
        <ele>384.204</ele>
        <time>2026-05-25T07:27:03Z</time>
      </trkpt>
      <trkpt lat="45.78523" lon="5.5177">
        <ele>384.304</ele>
        <time>2026-05-25T07:27:08Z</time>
      </trkpt>
      <trkpt lat="45.78528" lon="5.51768">
        <ele>384.704</ele>
        <time>2026-05-25T07:27:13Z</time>
      </trkpt>
      <trkpt lat="45.78533" lon="5.51767">
        <ele>384.904</ele>
        <time>2026-05-25T07:27:17Z</time>
      </trkpt>
      <trkpt lat="45.78538" lon="5.51767">
        <ele>384.704</ele>
        <time>2026-05-25T07:27:22Z</time>
      </trkpt>
      <trkpt lat="45.78543" lon="5.51767">
        <ele>384.504</ele>
        <time>2026-05-25T07:27:27Z</time>
      </trkpt>
      <trkpt lat="45.78548" lon="5.51768">
        <ele>384.804</ele>
        <time>2026-05-25T07:27:32Z</time>
      </trkpt>
      <trkpt lat="45.78552" lon="5.51768">
        <ele>385.004</ele>
        <time>2026-05-25T07:27:38Z</time>
      </trkpt>
      <trkpt lat="45.78557" lon="5.51768">
        <ele>385.504</ele>
        <time>2026-05-25T07:27:44Z</time>
      </trkpt>
      <trkpt lat="45.78562" lon="5.51768">
        <ele>386.104</ele>
        <time>2026-05-25T07:27:48Z</time>
      </trkpt>
      <trkpt lat="45.78567" lon="5.51768">
        <ele>386.204</ele>
        <time>2026-05-25T07:27:53Z</time>
      </trkpt>
      <trkpt lat="45.78572" lon="5.51767">
        <ele>386.004</ele>
        <time>2026-05-25T07:27:58Z</time>
      </trkpt>
      <trkpt lat="45.78577" lon="5.51765">
        <ele>385.304</ele>
        <time>2026-05-25T07:28:05Z</time>
      </trkpt>
      <trkpt lat="45.78581" lon="5.51762">
        <ele>384.804</ele>
        <time>2026-05-25T07:28:11Z</time>
      </trkpt>
      <trkpt lat="45.78586" lon="5.51761">
        <ele>384.704</ele>
        <time>2026-05-25T07:28:18Z</time>
      </trkpt>
      <trkpt lat="45.78591" lon="5.5176">
        <ele>384.504</ele>
        <time>2026-05-25T07:28:23Z</time>
      </trkpt>
      <trkpt lat="45.78597" lon="5.51759">
        <ele>384.304</ele>
        <time>2026-05-25T07:28:28Z</time>
      </trkpt>
      <trkpt lat="45.78601" lon="5.51758">
        <ele>384.004</ele>
        <time>2026-05-25T07:28:32Z</time>
      </trkpt>
      <trkpt lat="45.78606" lon="5.51757">
        <ele>383.404</ele>
        <time>2026-05-25T07:28:36Z</time>
      </trkpt>
      <trkpt lat="45.78611" lon="5.51754">
        <ele>383.404</ele>
        <time>2026-05-25T07:28:40Z</time>
      </trkpt>
      <trkpt lat="45.78615" lon="5.51752">
        <ele>383.904</ele>
        <time>2026-05-25T07:28:44Z</time>
      </trkpt>
      <trkpt lat="45.7862" lon="5.5175">
        <ele>384.904</ele>
        <time>2026-05-25T07:28:49Z</time>
      </trkpt>
      <trkpt lat="45.78625" lon="5.51749">
        <ele>385.504</ele>
        <time>2026-05-25T07:28:53Z</time>
      </trkpt>
      <trkpt lat="45.7863" lon="5.51746">
        <ele>386.004</ele>
        <time>2026-05-25T07:28:58Z</time>
      </trkpt>
      <trkpt lat="45.78635" lon="5.51745">
        <ele>385.104</ele>
        <time>2026-05-25T07:29:03Z</time>
      </trkpt>
      <trkpt lat="45.7864" lon="5.51743">
        <ele>384.204</ele>
        <time>2026-05-25T07:29:08Z</time>
      </trkpt>
      <trkpt lat="45.78645" lon="5.5174">
        <ele>383.404</ele>
        <time>2026-05-25T07:29:13Z</time>
      </trkpt>
      <trkpt lat="45.7865" lon="5.51737">
        <ele>382.204</ele>
        <time>2026-05-25T07:29:18Z</time>
      </trkpt>
      <trkpt lat="45.78655" lon="5.51736">
        <ele>381.204</ele>
        <time>2026-05-25T07:29:22Z</time>
      </trkpt>
      <trkpt lat="45.78659" lon="5.51733">
        <ele>380.204</ele>
        <time>2026-05-25T07:29:27Z</time>
      </trkpt>
      <trkpt lat="45.78664" lon="5.51731">
        <ele>378.704</ele>
        <time>2026-05-25T07:29:33Z</time>
      </trkpt>
      <trkpt lat="45.78668" lon="5.51728">
        <ele>376.904</ele>
        <time>2026-05-25T07:29:38Z</time>
      </trkpt>
      <trkpt lat="45.78671" lon="5.51724">
        <ele>376.204</ele>
        <time>2026-05-25T07:29:46Z</time>
      </trkpt>
      <trkpt lat="45.78671" lon="5.5172">
        <ele>376.004</ele>
        <time>2026-05-25T07:30:06Z</time>
      </trkpt>
      <trkpt lat="45.78671" lon="5.5172">
        <ele>376.004</ele>
        <time>2026-05-25T07:30:26Z</time>
      </trkpt>
      <trkpt lat="45.78671" lon="5.5172">
        <ele>376.004</ele>
        <time>2026-05-25T07:30:47Z</time>
      </trkpt>
      <trkpt lat="45.78678" lon="5.51728">
        <ele>377.304</ele>
        <time>2026-05-25T07:30:49Z</time>
      </trkpt>
      <trkpt lat="45.78682" lon="5.51725">
        <ele>379.104</ele>
        <time>2026-05-25T07:31:05Z</time>
      </trkpt>
      <trkpt lat="45.78686" lon="5.5172">
        <ele>380.704</ele>
        <time>2026-05-25T07:31:12Z</time>
      </trkpt>
      <trkpt lat="45.78689" lon="5.51714">
        <ele>381.204</ele>
        <time>2026-05-25T07:31:17Z</time>
      </trkpt>
      <trkpt lat="45.78692" lon="5.51708">
        <ele>381.404</ele>
        <time>2026-05-25T07:31:24Z</time>
      </trkpt>
      <trkpt lat="45.78695" lon="5.51701">
        <ele>382.104</ele>
        <time>2026-05-25T07:31:30Z</time>
      </trkpt>
      <trkpt lat="45.78699" lon="5.51697">
        <ele>382.004</ele>
        <time>2026-05-25T07:31:41Z</time>
      </trkpt>
      <trkpt lat="45.78702" lon="5.51693">
        <ele>382.504</ele>
        <time>2026-05-25T07:31:48Z</time>
      </trkpt>
      <trkpt lat="45.78706" lon="5.51688">
        <ele>382.504</ele>
        <time>2026-05-25T07:31:54Z</time>
      </trkpt>
      <trkpt lat="45.7871" lon="5.51683">
        <ele>382.104</ele>
        <time>2026-05-25T07:32:00Z</time>
      </trkpt>
      <trkpt lat="45.78714" lon="5.51677">
        <ele>382.404</ele>
        <time>2026-05-25T07:32:04Z</time>
      </trkpt>
      <trkpt lat="45.78718" lon="5.51671">
        <ele>382.704</ele>
        <time>2026-05-25T07:32:08Z</time>
      </trkpt>
      <trkpt lat="45.78721" lon="5.51666">
        <ele>383.104</ele>
        <time>2026-05-25T07:32:11Z</time>
      </trkpt>
      <trkpt lat="45.78725" lon="5.51662">
        <ele>383.704</ele>
        <time>2026-05-25T07:32:15Z</time>
      </trkpt>
      <trkpt lat="45.78729" lon="5.51658">
        <ele>384.204</ele>
        <time>2026-05-25T07:32:22Z</time>
      </trkpt>
      <trkpt lat="45.78732" lon="5.51652">
        <ele>385.204</ele>
        <time>2026-05-25T07:32:29Z</time>
      </trkpt>
      <trkpt lat="45.78734" lon="5.51647">
        <ele>386.804</ele>
        <time>2026-05-25T07:32:33Z</time>
      </trkpt>
      <trkpt lat="45.78738" lon="5.51642">
        <ele>388.204</ele>
        <time>2026-05-25T07:32:39Z</time>
      </trkpt>
      <trkpt lat="45.78742" lon="5.51641">
        <ele>388.704</ele>
        <time>2026-05-25T07:32:46Z</time>
      </trkpt>
      <trkpt lat="45.78747" lon="5.51638">
        <ele>389.604</ele>
        <time>2026-05-25T07:32:49Z</time>
      </trkpt>
      <trkpt lat="45.78752" lon="5.51637">
        <ele>390.004</ele>
        <time>2026-05-25T07:32:53Z</time>
      </trkpt>
      <trkpt lat="45.78756" lon="5.51637">
        <ele>390.104</ele>
        <time>2026-05-25T07:32:58Z</time>
      </trkpt>
      <trkpt lat="45.78761" lon="5.51637">
        <ele>389.304</ele>
        <time>2026-05-25T07:33:04Z</time>
      </trkpt>
      <trkpt lat="45.78766" lon="5.51635">
        <ele>389.204</ele>
        <time>2026-05-25T07:33:11Z</time>
      </trkpt>
      <trkpt lat="45.78771" lon="5.51632">
        <ele>388.704</ele>
        <time>2026-05-25T07:33:15Z</time>
      </trkpt>
      <trkpt lat="45.78776" lon="5.51632">
        <ele>388.004</ele>
        <time>2026-05-25T07:33:19Z</time>
      </trkpt>
      <trkpt lat="45.78781" lon="5.51629">
        <ele>387.604</ele>
        <time>2026-05-25T07:33:22Z</time>
      </trkpt>
      <trkpt lat="45.78787" lon="5.51627">
        <ele>387.604</ele>
        <time>2026-05-25T07:33:25Z</time>
      </trkpt>
      <trkpt lat="45.78793" lon="5.51624">
        <ele>388.204</ele>
        <time>2026-05-25T07:33:28Z</time>
      </trkpt>
      <trkpt lat="45.78795" lon="5.51618">
        <ele>388.904</ele>
        <time>2026-05-25T07:33:32Z</time>
      </trkpt>
      <trkpt lat="45.78799" lon="5.51615">
        <ele>389.304</ele>
        <time>2026-05-25T07:33:38Z</time>
      </trkpt>
      <trkpt lat="45.78804" lon="5.51613">
        <ele>389.804</ele>
        <time>2026-05-25T07:33:44Z</time>
      </trkpt>
      <trkpt lat="45.78808" lon="5.51618">
        <ele>390.604</ele>
        <time>2026-05-25T07:33:49Z</time>
      </trkpt>
      <trkpt lat="45.78811" lon="5.51624">
        <ele>392.804</ele>
        <time>2026-05-25T07:33:55Z</time>
      </trkpt>
      <trkpt lat="45.7881" lon="5.5163">
        <ele>394.304</ele>
        <time>2026-05-25T07:34:01Z</time>
      </trkpt>
      <trkpt lat="45.78808" lon="5.51635">
        <ele>397.204</ele>
        <time>2026-05-25T07:34:06Z</time>
      </trkpt>
      <trkpt lat="45.78807" lon="5.51643">
        <ele>399.504</ele>
        <time>2026-05-25T07:34:10Z</time>
      </trkpt>
      <trkpt lat="45.78804" lon="5.51648">
        <ele>401.104</ele>
        <time>2026-05-25T07:34:13Z</time>
      </trkpt>
      <trkpt lat="45.78802" lon="5.51654">
        <ele>403.804</ele>
        <time>2026-05-25T07:34:17Z</time>
      </trkpt>
      <trkpt lat="45.78799" lon="5.5166">
        <ele>405.304</ele>
        <time>2026-05-25T07:34:21Z</time>
      </trkpt>
      <trkpt lat="45.78796" lon="5.51666">
        <ele>406.204</ele>
        <time>2026-05-25T07:34:25Z</time>
      </trkpt>
      <trkpt lat="45.78793" lon="5.51673">
        <ele>407.304</ele>
        <time>2026-05-25T07:34:29Z</time>
      </trkpt>
      <trkpt lat="45.78791" lon="5.51679">
        <ele>408.604</ele>
        <time>2026-05-25T07:34:32Z</time>
      </trkpt>
      <trkpt lat="45.78788" lon="5.51685">
        <ele>409.704</ele>
        <time>2026-05-25T07:34:35Z</time>
      </trkpt>
      <trkpt lat="45.78784" lon="5.5169">
        <ele>411.104</ele>
        <time>2026-05-25T07:34:38Z</time>
      </trkpt>
      <trkpt lat="45.78782" lon="5.51696">
        <ele>413.804</ele>
        <time>2026-05-25T07:34:44Z</time>
      </trkpt>
      <trkpt lat="45.78781" lon="5.51703">
        <ele>414.804</ele>
        <time>2026-05-25T07:34:50Z</time>
      </trkpt>
      <trkpt lat="45.7878" lon="5.5171">
        <ele>416.404</ele>
        <time>2026-05-25T07:34:55Z</time>
      </trkpt>
      <trkpt lat="45.78777" lon="5.51715">
        <ele>418.504</ele>
        <time>2026-05-25T07:34:59Z</time>
      </trkpt>
      <trkpt lat="45.78775" lon="5.51722">
        <ele>420.004</ele>
        <time>2026-05-25T07:35:03Z</time>
      </trkpt>
      <trkpt lat="45.78771" lon="5.51727">
        <ele>420.604</ele>
        <time>2026-05-25T07:35:07Z</time>
      </trkpt>
      <trkpt lat="45.78767" lon="5.51731">
        <ele>420.704</ele>
        <time>2026-05-25T07:35:10Z</time>
      </trkpt>
      <trkpt lat="45.78763" lon="5.51736">
        <ele>421.104</ele>
        <time>2026-05-25T07:35:14Z</time>
      </trkpt>
      <trkpt lat="45.78759" lon="5.51742">
        <ele>421.904</ele>
        <time>2026-05-25T07:35:18Z</time>
      </trkpt>
      <trkpt lat="45.78755" lon="5.51747">
        <ele>422.204</ele>
        <time>2026-05-25T07:35:22Z</time>
      </trkpt>
      <trkpt lat="45.78751" lon="5.5175">
        <ele>421.404</ele>
        <time>2026-05-25T07:35:29Z</time>
      </trkpt>
      <trkpt lat="45.78748" lon="5.51756">
        <ele>419.604</ele>
        <time>2026-05-25T07:35:35Z</time>
      </trkpt>
      <trkpt lat="45.78744" lon="5.51762">
        <ele>418.504</ele>
        <time>2026-05-25T07:35:39Z</time>
      </trkpt>
      <trkpt lat="45.78739" lon="5.51767">
        <ele>417.304</ele>
        <time>2026-05-25T07:35:43Z</time>
      </trkpt>
      <trkpt lat="45.78736" lon="5.51772">
        <ele>415.804</ele>
        <time>2026-05-25T07:35:47Z</time>
      </trkpt>
      <trkpt lat="45.78733" lon="5.51777">
        <ele>413.504</ele>
        <time>2026-05-25T07:35:52Z</time>
      </trkpt>
      <trkpt lat="45.78729" lon="5.5178">
        <ele>411.804</ele>
        <time>2026-05-25T07:35:56Z</time>
      </trkpt>
      <trkpt lat="45.78725" lon="5.51784">
        <ele>411.104</ele>
        <time>2026-05-25T07:35:59Z</time>
      </trkpt>
      <trkpt lat="45.78721" lon="5.51788">
        <ele>410.204</ele>
        <time>2026-05-25T07:36:04Z</time>
      </trkpt>
      <trkpt lat="45.78717" lon="5.51794">
        <ele>409.304</ele>
        <time>2026-05-25T07:36:08Z</time>
      </trkpt>
      <trkpt lat="45.78714" lon="5.51798">
        <ele>408.104</ele>
        <time>2026-05-25T07:36:12Z</time>
      </trkpt>
      <trkpt lat="45.7871" lon="5.51801">
        <ele>406.604</ele>
        <time>2026-05-25T07:36:16Z</time>
      </trkpt>
      <trkpt lat="45.78705" lon="5.51805">
        <ele>405.204</ele>
        <time>2026-05-25T07:36:20Z</time>
      </trkpt>
      <trkpt lat="45.787" lon="5.51809">
        <ele>403.504</ele>
        <time>2026-05-25T07:36:24Z</time>
      </trkpt>
      <trkpt lat="45.78697" lon="5.51814">
        <ele>401.804</ele>
        <time>2026-05-25T07:36:28Z</time>
      </trkpt>
      <trkpt lat="45.78693" lon="5.51819">
        <ele>400.904</ele>
        <time>2026-05-25T07:36:33Z</time>
      </trkpt>
      <trkpt lat="45.78689" lon="5.51824">
        <ele>400.804</ele>
        <time>2026-05-25T07:36:37Z</time>
      </trkpt>
      <trkpt lat="45.78684" lon="5.51829">
        <ele>400.804</ele>
        <time>2026-05-25T07:36:41Z</time>
      </trkpt>
      <trkpt lat="45.7868" lon="5.51834">
        <ele>400.404</ele>
        <time>2026-05-25T07:36:45Z</time>
      </trkpt>
      <trkpt lat="45.78675" lon="5.51838">
        <ele>400.504</ele>
        <time>2026-05-25T07:36:50Z</time>
      </trkpt>
      <trkpt lat="45.7867" lon="5.5184">
        <ele>400.104</ele>
        <time>2026-05-25T07:36:54Z</time>
      </trkpt>
      <trkpt lat="45.78665" lon="5.51842">
        <ele>400.004</ele>
        <time>2026-05-25T07:36:58Z</time>
      </trkpt>
      <trkpt lat="45.7866" lon="5.51845">
        <ele>400.104</ele>
        <time>2026-05-25T07:37:01Z</time>
      </trkpt>
      <trkpt lat="45.78656" lon="5.51847">
        <ele>399.704</ele>
        <time>2026-05-25T07:37:04Z</time>
      </trkpt>
      <trkpt lat="45.78652" lon="5.5185">
        <ele>399.304</ele>
        <time>2026-05-25T07:37:08Z</time>
      </trkpt>
      <trkpt lat="45.78647" lon="5.51854">
        <ele>400.004</ele>
        <time>2026-05-25T07:37:12Z</time>
      </trkpt>
      <trkpt lat="45.78643" lon="5.51858">
        <ele>400.204</ele>
        <time>2026-05-25T07:37:16Z</time>
      </trkpt>
      <trkpt lat="45.78638" lon="5.51862">
        <ele>401.004</ele>
        <time>2026-05-25T07:37:21Z</time>
      </trkpt>
      <trkpt lat="45.78634" lon="5.51866">
        <ele>402.004</ele>
        <time>2026-05-25T07:37:25Z</time>
      </trkpt>
      <trkpt lat="45.78631" lon="5.5187">
        <ele>403.204</ele>
        <time>2026-05-25T07:37:29Z</time>
      </trkpt>
      <trkpt lat="45.7863" lon="5.51878">
        <ele>403.804</ele>
        <time>2026-05-25T07:37:33Z</time>
      </trkpt>
      <trkpt lat="45.78629" lon="5.51884">
        <ele>404.204</ele>
        <time>2026-05-25T07:37:36Z</time>
      </trkpt>
      <trkpt lat="45.78627" lon="5.51892">
        <ele>404.504</ele>
        <time>2026-05-25T07:37:40Z</time>
      </trkpt>
      <trkpt lat="45.78626" lon="5.51899">
        <ele>404.704</ele>
        <time>2026-05-25T07:37:44Z</time>
      </trkpt>
      <trkpt lat="45.78626" lon="5.51906">
        <ele>404.004</ele>
        <time>2026-05-25T07:37:48Z</time>
      </trkpt>
      <trkpt lat="45.78625" lon="5.51913">
        <ele>403.204</ele>
        <time>2026-05-25T07:37:52Z</time>
      </trkpt>
      <trkpt lat="45.78624" lon="5.51921">
        <ele>402.304</ele>
        <time>2026-05-25T07:37:56Z</time>
      </trkpt>
      <trkpt lat="45.78625" lon="5.51928">
        <ele>401.804</ele>
        <time>2026-05-25T07:38:00Z</time>
      </trkpt>
      <trkpt lat="45.78627" lon="5.51934">
        <ele>401.104</ele>
        <time>2026-05-25T07:38:04Z</time>
      </trkpt>
      <trkpt lat="45.78628" lon="5.51942">
        <ele>400.804</ele>
        <time>2026-05-25T07:38:08Z</time>
      </trkpt>
      <trkpt lat="45.78631" lon="5.51949">
        <ele>401.204</ele>
        <time>2026-05-25T07:38:12Z</time>
      </trkpt>
      <trkpt lat="45.78633" lon="5.51956">
        <ele>401.304</ele>
        <time>2026-05-25T07:38:16Z</time>
      </trkpt>
      <trkpt lat="45.78635" lon="5.51962">
        <ele>400.704</ele>
        <time>2026-05-25T07:38:20Z</time>
      </trkpt>
      <trkpt lat="45.78638" lon="5.51969">
        <ele>400.004</ele>
        <time>2026-05-25T07:38:24Z</time>
      </trkpt>
      <trkpt lat="45.78641" lon="5.51976">
        <ele>399.904</ele>
        <time>2026-05-25T07:38:30Z</time>
      </trkpt>
      <trkpt lat="45.78643" lon="5.51983">
        <ele>399.404</ele>
        <time>2026-05-25T07:38:34Z</time>
      </trkpt>
      <trkpt lat="45.78646" lon="5.51989">
        <ele>398.904</ele>
        <time>2026-05-25T07:38:38Z</time>
      </trkpt>
      <trkpt lat="45.78649" lon="5.51994">
        <ele>397.704</ele>
        <time>2026-05-25T07:38:44Z</time>
      </trkpt>
      <trkpt lat="45.78652" lon="5.52">
        <ele>396.504</ele>
        <time>2026-05-25T07:38:49Z</time>
      </trkpt>
      <trkpt lat="45.7865" lon="5.52003">
        <ele>395.404</ele>
        <time>2026-05-25T07:39:09Z</time>
      </trkpt>
      <trkpt lat="45.7865" lon="5.52003">
        <ele>395.404</ele>
        <time>2026-05-25T07:39:30Z</time>
      </trkpt>
      <trkpt lat="45.7865" lon="5.52003">
        <ele>395.404</ele>
        <time>2026-05-25T07:39:51Z</time>
      </trkpt>
      <trkpt lat="45.7865" lon="5.52003">
        <ele>395.404</ele>
        <time>2026-05-25T07:40:11Z</time>
      </trkpt>
      <trkpt lat="45.7865" lon="5.52003">
        <ele>395.404</ele>
        <time>2026-05-25T07:40:32Z</time>
      </trkpt>
      <trkpt lat="45.7865" lon="5.52003">
        <ele>395.404</ele>
        <time>2026-05-25T07:40:52Z</time>
      </trkpt>
      <trkpt lat="45.78656" lon="5.52006">
        <ele>393.904</ele>
        <time>2026-05-25T07:40:54Z</time>
      </trkpt>
      <trkpt lat="45.7866" lon="5.52009">
        <ele>393.604</ele>
        <time>2026-05-25T07:41:00Z</time>
      </trkpt>
      <trkpt lat="45.78664" lon="5.52014">
        <ele>393.304</ele>
        <time>2026-05-25T07:41:04Z</time>
      </trkpt>
      <trkpt lat="45.78665" lon="5.52022">
        <ele>393.204</ele>
        <time>2026-05-25T07:41:08Z</time>
      </trkpt>
      <trkpt lat="45.78665" lon="5.52029">
        <ele>393.304</ele>
        <time>2026-05-25T07:41:12Z</time>
      </trkpt>
      <trkpt lat="45.78665" lon="5.52036">
        <ele>392.504</ele>
        <time>2026-05-25T07:41:17Z</time>
      </trkpt>
      <trkpt lat="45.78664" lon="5.52042">
        <ele>391.904</ele>
        <time>2026-05-25T07:41:21Z</time>
      </trkpt>
      <trkpt lat="45.78662" lon="5.5205">
        <ele>392.204</ele>
        <time>2026-05-25T07:41:25Z</time>
      </trkpt>
      <trkpt lat="45.78658" lon="5.52056">
        <ele>392.204</ele>
        <time>2026-05-25T07:41:29Z</time>
      </trkpt>
      <trkpt lat="45.78656" lon="5.52061">
        <ele>392.704</ele>
        <time>2026-05-25T07:41:32Z</time>
      </trkpt>
      <trkpt lat="45.78652" lon="5.52066">
        <ele>393.104</ele>
        <time>2026-05-25T07:41:37Z</time>
      </trkpt>
      <trkpt lat="45.78648" lon="5.5207">
        <ele>392.704</ele>
        <time>2026-05-25T07:41:41Z</time>
      </trkpt>
      <trkpt lat="45.78644" lon="5.52074">
        <ele>392.804</ele>
        <time>2026-05-25T07:41:45Z</time>
      </trkpt>
      <trkpt lat="45.78641" lon="5.52079">
        <ele>392.604</ele>
        <time>2026-05-25T07:41:49Z</time>
      </trkpt>
      <trkpt lat="45.78638" lon="5.52086">
        <ele>392.904</ele>
        <time>2026-05-25T07:41:53Z</time>
      </trkpt>
      <trkpt lat="45.78635" lon="5.52092">
        <ele>393.604</ele>
        <time>2026-05-25T07:41:57Z</time>
      </trkpt>
      <trkpt lat="45.78634" lon="5.52099">
        <ele>394.604</ele>
        <time>2026-05-25T07:42:01Z</time>
      </trkpt>
      <trkpt lat="45.78635" lon="5.52106">
        <ele>394.904</ele>
        <time>2026-05-25T07:42:05Z</time>
      </trkpt>
      <trkpt lat="45.78636" lon="5.52113">
        <ele>394.804</ele>
        <time>2026-05-25T07:42:09Z</time>
      </trkpt>
      <trkpt lat="45.78637" lon="5.5212">
        <ele>394.604</ele>
        <time>2026-05-25T07:42:13Z</time>
      </trkpt>
      <trkpt lat="45.78638" lon="5.52127">
        <ele>394.904</ele>
        <time>2026-05-25T07:42:16Z</time>
      </trkpt>
      <trkpt lat="45.78639" lon="5.52134">
        <ele>394.304</ele>
        <time>2026-05-25T07:42:20Z</time>
      </trkpt>
      <trkpt lat="45.78641" lon="5.52141">
        <ele>394.404</ele>
        <time>2026-05-25T07:42:24Z</time>
      </trkpt>
      <trkpt lat="45.78642" lon="5.52148">
        <ele>393.804</ele>
        <time>2026-05-25T07:42:29Z</time>
      </trkpt>
      <trkpt lat="45.78644" lon="5.52155">
        <ele>392.804</ele>
        <time>2026-05-25T07:42:34Z</time>
      </trkpt>
      <trkpt lat="45.78646" lon="5.52162">
        <ele>392.604</ele>
        <time>2026-05-25T07:42:38Z</time>
      </trkpt>
      <trkpt lat="45.78648" lon="5.52169">
        <ele>392.904</ele>
        <time>2026-05-25T07:42:41Z</time>
      </trkpt>
      <trkpt lat="45.78649" lon="5.52177">
        <ele>393.704</ele>
        <time>2026-05-25T07:42:45Z</time>
      </trkpt>
      <trkpt lat="45.78651" lon="5.52185">
        <ele>394.704</ele>
        <time>2026-05-25T07:42:49Z</time>
      </trkpt>
      <trkpt lat="45.78652" lon="5.52191">
        <ele>395.404</ele>
        <time>2026-05-25T07:42:52Z</time>
      </trkpt>
      <trkpt lat="45.78653" lon="5.52197">
        <ele>395.404</ele>
        <time>2026-05-25T07:42:55Z</time>
      </trkpt>
      <trkpt lat="45.78653" lon="5.52205">
        <ele>396.404</ele>
        <time>2026-05-25T07:42:59Z</time>
      </trkpt>
      <trkpt lat="45.78655" lon="5.52213">
        <ele>397.204</ele>
        <time>2026-05-25T07:43:03Z</time>
      </trkpt>
      <trkpt lat="45.78655" lon="5.52221">
        <ele>397.604</ele>
        <time>2026-05-25T07:43:07Z</time>
      </trkpt>
      <trkpt lat="45.78656" lon="5.52227">
        <ele>398.104</ele>
        <time>2026-05-25T07:43:10Z</time>
      </trkpt>
      <trkpt lat="45.78655" lon="5.52235">
        <ele>398.504</ele>
        <time>2026-05-25T07:43:14Z</time>
      </trkpt>
      <trkpt lat="45.78654" lon="5.52242">
        <ele>399.804</ele>
        <time>2026-05-25T07:43:20Z</time>
      </trkpt>
      <trkpt lat="45.78655" lon="5.52249">
        <ele>400.704</ele>
        <time>2026-05-25T07:43:24Z</time>
      </trkpt>
      <trkpt lat="45.78655" lon="5.52256">
        <ele>401.304</ele>
        <time>2026-05-25T07:43:27Z</time>
      </trkpt>
      <trkpt lat="45.78655" lon="5.52263">
        <ele>401.504</ele>
        <time>2026-05-25T07:43:30Z</time>
      </trkpt>
      <trkpt lat="45.78656" lon="5.52271">
        <ele>402.104</ele>
        <time>2026-05-25T07:43:35Z</time>
      </trkpt>
      <trkpt lat="45.78656" lon="5.52278">
        <ele>402.204</ele>
        <time>2026-05-25T07:43:39Z</time>
      </trkpt>
      <trkpt lat="45.78657" lon="5.52286">
        <ele>402.205</ele>
        <time>2026-05-25T07:43:43Z</time>
      </trkpt>
      <trkpt lat="45.78658" lon="5.52293">
        <ele>402.705</ele>
        <time>2026-05-25T07:43:47Z</time>
      </trkpt>
      <trkpt lat="45.78658" lon="5.523">
        <ele>403.005</ele>
        <time>2026-05-25T07:43:51Z</time>
      </trkpt>
      <trkpt lat="45.78657" lon="5.52307">
        <ele>403.305</ele>
        <time>2026-05-25T07:43:56Z</time>
      </trkpt>
      <trkpt lat="45.78657" lon="5.52314">
        <ele>403.805</ele>
        <time>2026-05-25T07:44:02Z</time>
      </trkpt>
      <trkpt lat="45.78658" lon="5.52322">
        <ele>403.505</ele>
        <time>2026-05-25T07:44:06Z</time>
      </trkpt>
      <trkpt lat="45.78658" lon="5.5233">
        <ele>403.405</ele>
        <time>2026-05-25T07:44:12Z</time>
      </trkpt>
      <trkpt lat="45.78658" lon="5.52337">
        <ele>403.305</ele>
        <time>2026-05-25T07:44:16Z</time>
      </trkpt>
      <trkpt lat="45.78658" lon="5.52344">
        <ele>402.905</ele>
        <time>2026-05-25T07:44:20Z</time>
      </trkpt>
      <trkpt lat="45.78658" lon="5.52351">
        <ele>402.805</ele>
        <time>2026-05-25T07:44:24Z</time>
      </trkpt>
      <trkpt lat="45.78659" lon="5.52358">
        <ele>402.405</ele>
        <time>2026-05-25T07:44:28Z</time>
      </trkpt>
      <trkpt lat="45.78661" lon="5.52365">
        <ele>401.505</ele>
        <time>2026-05-25T07:44:32Z</time>
      </trkpt>
      <trkpt lat="45.78662" lon="5.52372">
        <ele>401.005</ele>
        <time>2026-05-25T07:44:36Z</time>
      </trkpt>
      <trkpt lat="45.78665" lon="5.52378">
        <ele>400.105</ele>
        <time>2026-05-25T07:44:41Z</time>
      </trkpt>
      <trkpt lat="45.7867" lon="5.52382">
        <ele>399.505</ele>
        <time>2026-05-25T07:44:46Z</time>
      </trkpt>
      <trkpt lat="45.78674" lon="5.52386">
        <ele>399.205</ele>
        <time>2026-05-25T07:44:50Z</time>
      </trkpt>
      <trkpt lat="45.78678" lon="5.5239">
        <ele>398.705</ele>
        <time>2026-05-25T07:44:54Z</time>
      </trkpt>
      <trkpt lat="45.78682" lon="5.52395">
        <ele>398.405</ele>
        <time>2026-05-25T07:44:58Z</time>
      </trkpt>
      <trkpt lat="45.78687" lon="5.52396">
        <ele>397.905</ele>
        <time>2026-05-25T07:45:02Z</time>
      </trkpt>
      <trkpt lat="45.78692" lon="5.52396">
        <ele>397.505</ele>
        <time>2026-05-25T07:45:06Z</time>
      </trkpt>
      <trkpt lat="45.78692" lon="5.52403">
        <ele>396.805</ele>
        <time>2026-05-25T07:45:11Z</time>
      </trkpt>
      <trkpt lat="45.78692" lon="5.5241">
        <ele>396.305</ele>
        <time>2026-05-25T07:45:15Z</time>
      </trkpt>
      <trkpt lat="45.78692" lon="5.52416">
        <ele>396.005</ele>
        <time>2026-05-25T07:45:19Z</time>
      </trkpt>
      <trkpt lat="45.78692" lon="5.52424">
        <ele>395.405</ele>
        <time>2026-05-25T07:45:24Z</time>
      </trkpt>
      <trkpt lat="45.78689" lon="5.52429">
        <ele>394.705</ele>
        <time>2026-05-25T07:45:29Z</time>
      </trkpt>
      <trkpt lat="45.78687" lon="5.52435">
        <ele>393.605</ele>
        <time>2026-05-25T07:45:33Z</time>
      </trkpt>
      <trkpt lat="45.78685" lon="5.52441">
        <ele>392.105</ele>
        <time>2026-05-25T07:45:38Z</time>
      </trkpt>
      <trkpt lat="45.78683" lon="5.52448">
        <ele>391.205</ele>
        <time>2026-05-25T07:45:44Z</time>
      </trkpt>
      <trkpt lat="45.78681" lon="5.52454">
        <ele>391.205</ele>
        <time>2026-05-25T07:45:51Z</time>
      </trkpt>
      <trkpt lat="45.78678" lon="5.5246">
        <ele>391.505</ele>
        <time>2026-05-25T07:45:56Z</time>
      </trkpt>
      <trkpt lat="45.78674" lon="5.52465">
        <ele>391.905</ele>
        <time>2026-05-25T07:46:01Z</time>
      </trkpt>
      <trkpt lat="45.7867" lon="5.5247">
        <ele>392.405</ele>
        <time>2026-05-25T07:46:06Z</time>
      </trkpt>
      <trkpt lat="45.78667" lon="5.52475">
        <ele>392.505</ele>
        <time>2026-05-25T07:46:11Z</time>
      </trkpt>
      <trkpt lat="45.78664" lon="5.52479">
        <ele>392.005</ele>
        <time>2026-05-25T07:46:16Z</time>
      </trkpt>
      <trkpt lat="45.78661" lon="5.52487">
        <ele>390.805</ele>
        <time>2026-05-25T07:46:21Z</time>
      </trkpt>
      <trkpt lat="45.78661" lon="5.52493">
        <ele>389.505</ele>
        <time>2026-05-25T07:46:25Z</time>
      </trkpt>
      <trkpt lat="45.78662" lon="5.52501">
        <ele>388.205</ele>
        <time>2026-05-25T07:46:29Z</time>
      </trkpt>
      <trkpt lat="45.78664" lon="5.52508">
        <ele>387.105</ele>
        <time>2026-05-25T07:46:33Z</time>
      </trkpt>
      <trkpt lat="45.78666" lon="5.52515">
        <ele>386.005</ele>
        <time>2026-05-25T07:46:37Z</time>
      </trkpt>
      <trkpt lat="45.78668" lon="5.52522">
        <ele>385.805</ele>
        <time>2026-05-25T07:46:41Z</time>
      </trkpt>
      <trkpt lat="45.7867" lon="5.52528">
        <ele>385.605</ele>
        <time>2026-05-25T07:46:45Z</time>
      </trkpt>
      <trkpt lat="45.78671" lon="5.52535">
        <ele>385.305</ele>
        <time>2026-05-25T07:46:49Z</time>
      </trkpt>
      <trkpt lat="45.78672" lon="5.52541">
        <ele>385.505</ele>
        <time>2026-05-25T07:46:53Z</time>
      </trkpt>
      <trkpt lat="45.78673" lon="5.52549">
        <ele>385.205</ele>
        <time>2026-05-25T07:46:58Z</time>
      </trkpt>
      <trkpt lat="45.78675" lon="5.52554">
        <ele>385.005</ele>
        <time>2026-05-25T07:47:04Z</time>
      </trkpt>
      <trkpt lat="45.78676" lon="5.52561">
        <ele>384.205</ele>
        <time>2026-05-25T07:47:08Z</time>
      </trkpt>
      <trkpt lat="45.78676" lon="5.52569">
        <ele>383.605</ele>
        <time>2026-05-25T07:47:12Z</time>
      </trkpt>
      <trkpt lat="45.78676" lon="5.52576">
        <ele>383.305</ele>
        <time>2026-05-25T07:47:16Z</time>
      </trkpt>
      <trkpt lat="45.78676" lon="5.52583">
        <ele>382.505</ele>
        <time>2026-05-25T07:47:21Z</time>
      </trkpt>
      <trkpt lat="45.78677" lon="5.52591">
        <ele>381.805</ele>
        <time>2026-05-25T07:47:25Z</time>
      </trkpt>
      <trkpt lat="45.78679" lon="5.52598">
        <ele>380.805</ele>
        <time>2026-05-25T07:47:30Z</time>
      </trkpt>
      <trkpt lat="45.7868" lon="5.52604">
        <ele>380.205</ele>
        <time>2026-05-25T07:47:34Z</time>
      </trkpt>
      <trkpt lat="45.7868" lon="5.52611">
        <ele>379.605</ele>
        <time>2026-05-25T07:47:38Z</time>
      </trkpt>
      <trkpt lat="45.78681" lon="5.52618">
        <ele>379.305</ele>
        <time>2026-05-25T07:47:43Z</time>
      </trkpt>
      <trkpt lat="45.78683" lon="5.52624">
        <ele>378.805</ele>
        <time>2026-05-25T07:47:48Z</time>
      </trkpt>
      <trkpt lat="45.78687" lon="5.52627">
        <ele>378.105</ele>
        <time>2026-05-25T07:47:52Z</time>
      </trkpt>
      <trkpt lat="45.78689" lon="5.52634">
        <ele>377.105</ele>
        <time>2026-05-25T07:47:57Z</time>
      </trkpt>
      <trkpt lat="45.78692" lon="5.5264">
        <ele>376.205</ele>
        <time>2026-05-25T07:48:02Z</time>
      </trkpt>
      <trkpt lat="45.78692" lon="5.52647">
        <ele>375.805</ele>
        <time>2026-05-25T07:48:08Z</time>
      </trkpt>
      <trkpt lat="45.78691" lon="5.52655">
        <ele>375.805</ele>
        <time>2026-05-25T07:48:13Z</time>
      </trkpt>
      <trkpt lat="45.7869" lon="5.52662">
        <ele>375.605</ele>
        <time>2026-05-25T07:48:18Z</time>
      </trkpt>
      <trkpt lat="45.78688" lon="5.52668">
        <ele>374.705</ele>
        <time>2026-05-25T07:48:23Z</time>
      </trkpt>
      <trkpt lat="45.78687" lon="5.52675">
        <ele>374.505</ele>
        <time>2026-05-25T07:48:27Z</time>
      </trkpt>
      <trkpt lat="45.78686" lon="5.52683">
        <ele>375.005</ele>
        <time>2026-05-25T07:48:32Z</time>
      </trkpt>
      <trkpt lat="45.78685" lon="5.5269">
        <ele>374.505</ele>
        <time>2026-05-25T07:48:38Z</time>
      </trkpt>
      <trkpt lat="45.78684" lon="5.52697">
        <ele>373.905</ele>
        <time>2026-05-25T07:48:43Z</time>
      </trkpt>
      <trkpt lat="45.78683" lon="5.52703">
        <ele>372.605</ele>
        <time>2026-05-25T07:48:48Z</time>
      </trkpt>
      <trkpt lat="45.78682" lon="5.52709">
        <ele>371.805</ele>
        <time>2026-05-25T07:48:52Z</time>
      </trkpt>
      <trkpt lat="45.78682" lon="5.52717">
        <ele>370.605</ele>
        <time>2026-05-25T07:48:57Z</time>
      </trkpt>
      <trkpt lat="45.78683" lon="5.52725">
        <ele>369.605</ele>
        <time>2026-05-25T07:49:02Z</time>
      </trkpt>
      <trkpt lat="45.78682" lon="5.52732">
        <ele>369.305</ele>
        <time>2026-05-25T07:49:06Z</time>
      </trkpt>
      <trkpt lat="45.7868" lon="5.52739">
        <ele>369.105</ele>
        <time>2026-05-25T07:49:10Z</time>
      </trkpt>
      <trkpt lat="45.78678" lon="5.52746">
        <ele>368.605</ele>
        <time>2026-05-25T07:49:15Z</time>
      </trkpt>
      <trkpt lat="45.78676" lon="5.52753">
        <ele>368.605</ele>
        <time>2026-05-25T07:49:19Z</time>
      </trkpt>
      <trkpt lat="45.78675" lon="5.52761">
        <ele>369.305</ele>
        <time>2026-05-25T07:49:24Z</time>
      </trkpt>
      <trkpt lat="45.78674" lon="5.52768">
        <ele>369.905</ele>
        <time>2026-05-25T07:49:28Z</time>
      </trkpt>
      <trkpt lat="45.78674" lon="5.52774">
        <ele>370.605</ele>
        <time>2026-05-25T07:49:31Z</time>
      </trkpt>
      <trkpt lat="45.78676" lon="5.52781">
        <ele>371.205</ele>
        <time>2026-05-25T07:49:34Z</time>
      </trkpt>
      <trkpt lat="45.78677" lon="5.52788">
        <ele>372.405</ele>
        <time>2026-05-25T07:49:41Z</time>
      </trkpt>
      <trkpt lat="45.78681" lon="5.52792">
        <ele>372.605</ele>
        <time>2026-05-25T07:49:46Z</time>
      </trkpt>
      <trkpt lat="45.78684" lon="5.52798">
        <ele>373.005</ele>
        <time>2026-05-25T07:49:51Z</time>
      </trkpt>
      <trkpt lat="45.78688" lon="5.52804">
        <ele>373.305</ele>
        <time>2026-05-25T07:49:56Z</time>
      </trkpt>
      <trkpt lat="45.78692" lon="5.52807">
        <ele>373.705</ele>
        <time>2026-05-25T07:50:01Z</time>
      </trkpt>
      <trkpt lat="45.78696" lon="5.52812">
        <ele>373.505</ele>
        <time>2026-05-25T07:50:06Z</time>
      </trkpt>
      <trkpt lat="45.78701" lon="5.52814">
        <ele>373.605</ele>
        <time>2026-05-25T07:50:10Z</time>
      </trkpt>
      <trkpt lat="45.78705" lon="5.52818">
        <ele>373.705</ele>
        <time>2026-05-25T07:50:15Z</time>
      </trkpt>
      <trkpt lat="45.78709" lon="5.52823">
        <ele>373.805</ele>
        <time>2026-05-25T07:50:21Z</time>
      </trkpt>
      <trkpt lat="45.78713" lon="5.52828">
        <ele>373.805</ele>
        <time>2026-05-25T07:50:27Z</time>
      </trkpt>
      <trkpt lat="45.78718" lon="5.52832">
        <ele>373.205</ele>
        <time>2026-05-25T07:50:32Z</time>
      </trkpt>
      <trkpt lat="45.78722" lon="5.52835">
        <ele>372.205</ele>
        <time>2026-05-25T07:50:36Z</time>
      </trkpt>
      <trkpt lat="45.78727" lon="5.52839">
        <ele>371.705</ele>
        <time>2026-05-25T07:50:41Z</time>
      </trkpt>
      <trkpt lat="45.7873" lon="5.52844">
        <ele>370.905</ele>
        <time>2026-05-25T07:50:46Z</time>
      </trkpt>
      <trkpt lat="45.78732" lon="5.52851">
        <ele>369.705</ele>
        <time>2026-05-25T07:50:51Z</time>
      </trkpt>
      <trkpt lat="45.78735" lon="5.52856">
        <ele>369.105</ele>
        <time>2026-05-25T07:50:55Z</time>
      </trkpt>
      <trkpt lat="45.78737" lon="5.52862">
        <ele>368.105</ele>
        <time>2026-05-25T07:51:01Z</time>
      </trkpt>
      <trkpt lat="45.78739" lon="5.52869">
        <ele>367.805</ele>
        <time>2026-05-25T07:51:06Z</time>
      </trkpt>
      <trkpt lat="45.78741" lon="5.52876">
        <ele>367.005</ele>
        <time>2026-05-25T07:51:10Z</time>
      </trkpt>
      <trkpt lat="45.78744" lon="5.52881">
        <ele>366.605</ele>
        <time>2026-05-25T07:51:15Z</time>
      </trkpt>
      <trkpt lat="45.78746" lon="5.52887">
        <ele>366.005</ele>
        <time>2026-05-25T07:51:20Z</time>
      </trkpt>
      <trkpt lat="45.78749" lon="5.52893">
        <ele>364.905</ele>
        <time>2026-05-25T07:51:26Z</time>
      </trkpt>
      <trkpt lat="45.78752" lon="5.52898">
        <ele>364.405</ele>
        <time>2026-05-25T07:51:32Z</time>
      </trkpt>
      <trkpt lat="45.78756" lon="5.52902">
        <ele>364.305</ele>
        <time>2026-05-25T07:51:38Z</time>
      </trkpt>
      <trkpt lat="45.78758" lon="5.52908">
        <ele>364.005</ele>
        <time>2026-05-25T07:51:43Z</time>
      </trkpt>
      <trkpt lat="45.7876" lon="5.52915">
        <ele>363.405</ele>
        <time>2026-05-25T07:51:49Z</time>
      </trkpt>
      <trkpt lat="45.78763" lon="5.52921">
        <ele>363.005</ele>
        <time>2026-05-25T07:51:53Z</time>
      </trkpt>
      <trkpt lat="45.78764" lon="5.52928">
        <ele>362.905</ele>
        <time>2026-05-25T07:51:57Z</time>
      </trkpt>
      <trkpt lat="45.78766" lon="5.52935">
        <ele>362.305</ele>
        <time>2026-05-25T07:52:04Z</time>
      </trkpt>
      <trkpt lat="45.78767" lon="5.52941">
        <ele>362.305</ele>
        <time>2026-05-25T07:52:08Z</time>
      </trkpt>
      <trkpt lat="45.78771" lon="5.52946">
        <ele>362.005</ele>
        <time>2026-05-25T07:52:14Z</time>
      </trkpt>
      <trkpt lat="45.78775" lon="5.52951">
        <ele>361.406</ele>
        <time>2026-05-25T07:52:20Z</time>
      </trkpt>
      <trkpt lat="45.78778" lon="5.52955">
        <ele>360.906</ele>
        <time>2026-05-25T07:52:25Z</time>
      </trkpt>
      <trkpt lat="45.78779" lon="5.52961">
        <ele>360.706</ele>
        <time>2026-05-25T07:52:30Z</time>
      </trkpt>
      <trkpt lat="45.7878" lon="5.52969">
        <ele>359.806</ele>
        <time>2026-05-25T07:52:37Z</time>
      </trkpt>
      <trkpt lat="45.78783" lon="5.52974">
        <ele>359.406</ele>
        <time>2026-05-25T07:52:42Z</time>
      </trkpt>
      <trkpt lat="45.78785" lon="5.52981">
        <ele>359.106</ele>
        <time>2026-05-25T07:52:47Z</time>
      </trkpt>
      <trkpt lat="45.78787" lon="5.52987">
        <ele>358.906</ele>
        <time>2026-05-25T07:52:52Z</time>
      </trkpt>
      <trkpt lat="45.78791" lon="5.52993">
        <ele>358.706</ele>
        <time>2026-05-25T07:52:58Z</time>
      </trkpt>
      <trkpt lat="45.78796" lon="5.52994">
        <ele>358.806</ele>
        <time>2026-05-25T07:53:05Z</time>
      </trkpt>
      <trkpt lat="45.788" lon="5.52998">
        <ele>359.406</ele>
        <time>2026-05-25T07:53:11Z</time>
      </trkpt>
      <trkpt lat="45.78804" lon="5.53001">
        <ele>360.706</ele>
        <time>2026-05-25T07:53:20Z</time>
      </trkpt>
      <trkpt lat="45.78808" lon="5.53005">
        <ele>361.106</ele>
        <time>2026-05-25T07:53:24Z</time>
      </trkpt>
      <trkpt lat="45.78812" lon="5.53009">
        <ele>361.506</ele>
        <time>2026-05-25T07:53:29Z</time>
      </trkpt>
      <trkpt lat="45.78813" lon="5.53015">
        <ele>361.906</ele>
        <time>2026-05-25T07:53:34Z</time>
      </trkpt>
      <trkpt lat="45.78814" lon="5.53022">
        <ele>362.206</ele>
        <time>2026-05-25T07:53:38Z</time>
      </trkpt>
      <trkpt lat="45.78815" lon="5.53029">
        <ele>362.306</ele>
        <time>2026-05-25T07:53:42Z</time>
      </trkpt>
      <trkpt lat="45.78816" lon="5.53036">
        <ele>363.006</ele>
        <time>2026-05-25T07:53:46Z</time>
      </trkpt>
      <trkpt lat="45.78816" lon="5.53044">
        <ele>363.506</ele>
        <time>2026-05-25T07:53:50Z</time>
      </trkpt>
      <trkpt lat="45.78817" lon="5.53051">
        <ele>364.706</ele>
        <time>2026-05-25T07:53:54Z</time>
      </trkpt>
      <trkpt lat="45.78816" lon="5.53057">
        <ele>366.206</ele>
        <time>2026-05-25T07:53:59Z</time>
      </trkpt>
      <trkpt lat="45.78814" lon="5.53063">
        <ele>368.106</ele>
        <time>2026-05-25T07:54:05Z</time>
      </trkpt>
      <trkpt lat="45.78813" lon="5.53069">
        <ele>369.306</ele>
        <time>2026-05-25T07:54:10Z</time>
      </trkpt>
      <trkpt lat="45.78814" lon="5.53077">
        <ele>370.606</ele>
        <time>2026-05-25T07:54:18Z</time>
      </trkpt>
      <trkpt lat="45.78817" lon="5.53082">
        <ele>371.506</ele>
        <time>2026-05-25T07:54:25Z</time>
      </trkpt>
      <trkpt lat="45.78822" lon="5.53084">
        <ele>371.406</ele>
        <time>2026-05-25T07:54:30Z</time>
      </trkpt>
      <trkpt lat="45.78828" lon="5.53082">
        <ele>371.806</ele>
        <time>2026-05-25T07:54:35Z</time>
      </trkpt>
      <trkpt lat="45.78833" lon="5.53081">
        <ele>372.306</ele>
        <time>2026-05-25T07:54:39Z</time>
      </trkpt>
      <trkpt lat="45.78836" lon="5.53086">
        <ele>373.206</ele>
        <time>2026-05-25T07:54:47Z</time>
      </trkpt>
      <trkpt lat="45.78839" lon="5.53092">
        <ele>373.606</ele>
        <time>2026-05-25T07:54:53Z</time>
      </trkpt>
      <trkpt lat="45.78842" lon="5.53097">
        <ele>374.206</ele>
        <time>2026-05-25T07:54:57Z</time>
      </trkpt>
      <trkpt lat="45.78846" lon="5.53102">
        <ele>375.206</ele>
        <time>2026-05-25T07:55:03Z</time>
      </trkpt>
      <trkpt lat="45.7885" lon="5.53105">
        <ele>376.106</ele>
        <time>2026-05-25T07:55:08Z</time>
      </trkpt>
      <trkpt lat="45.78853" lon="5.5311">
        <ele>377.106</ele>
        <time>2026-05-25T07:55:14Z</time>
      </trkpt>
      <trkpt lat="45.78857" lon="5.53115">
        <ele>377.906</ele>
        <time>2026-05-25T07:55:23Z</time>
      </trkpt>
      <trkpt lat="45.78862" lon="5.53118">
        <ele>378.706</ele>
        <time>2026-05-25T07:55:31Z</time>
      </trkpt>
      <trkpt lat="45.78867" lon="5.5312">
        <ele>379.106</ele>
        <time>2026-05-25T07:55:34Z</time>
      </trkpt>
      <trkpt lat="45.78872" lon="5.53118">
        <ele>379.906</ele>
        <time>2026-05-25T07:55:42Z</time>
      </trkpt>
      <trkpt lat="45.78875" lon="5.53114">
        <ele>380.306</ele>
        <time>2026-05-25T07:55:48Z</time>
      </trkpt>
      <trkpt lat="45.78879" lon="5.53111">
        <ele>380.706</ele>
        <time>2026-05-25T07:56:09Z</time>
      </trkpt>
      <trkpt lat="45.78879" lon="5.53111">
        <ele>380.706</ele>
        <time>2026-05-25T07:56:29Z</time>
      </trkpt>
      <trkpt lat="45.78879" lon="5.53111">
        <ele>380.706</ele>
        <time>2026-05-25T07:56:49Z</time>
      </trkpt>
      <trkpt lat="45.78886" lon="5.53104">
        <ele>385.106</ele>
        <time>2026-05-25T07:56:56Z</time>
      </trkpt>
      <trkpt lat="45.78886" lon="5.53102">
        <ele>385.006</ele>
        <time>2026-05-25T07:57:16Z</time>
      </trkpt>
      <trkpt lat="45.78886" lon="5.53102">
        <ele>385.006</ele>
        <time>2026-05-25T07:57:37Z</time>
      </trkpt>
      <trkpt lat="45.78895" lon="5.531">
        <ele>379.206</ele>
        <time>2026-05-25T07:57:39Z</time>
      </trkpt>
      <trkpt lat="45.78896" lon="5.531">
        <ele>379.006</ele>
        <time>2026-05-25T07:57:59Z</time>
      </trkpt>
      <trkpt lat="45.78896" lon="5.531">
        <ele>379.006</ele>
        <time>2026-05-25T07:58:20Z</time>
      </trkpt>
      <trkpt lat="45.78889" lon="5.53093">
        <ele>380.706</ele>
        <time>2026-05-25T07:58:23Z</time>
      </trkpt>
      <trkpt lat="45.78882" lon="5.53097">
        <ele>380.706</ele>
        <time>2026-05-25T07:58:33Z</time>
      </trkpt>
      <trkpt lat="45.78877" lon="5.53098">
        <ele>380.906</ele>
        <time>2026-05-25T07:58:39Z</time>
      </trkpt>
      <trkpt lat="45.78877" lon="5.53098">
        <ele>379.606</ele>
        <time>2026-05-25T07:58:59Z</time>
      </trkpt>
      <trkpt lat="45.78877" lon="5.53098">
        <ele>379.506</ele>
        <time>2026-05-25T07:59:19Z</time>
      </trkpt>
      <trkpt lat="45.78886" lon="5.53098">
        <ele>379.706</ele>
        <time>2026-05-25T07:59:32Z</time>
      </trkpt>
      <trkpt lat="45.78891" lon="5.53095">
        <ele>380.006</ele>
        <time>2026-05-25T07:59:35Z</time>
      </trkpt>
      <trkpt lat="45.78896" lon="5.53095">
        <ele>380.306</ele>
        <time>2026-05-25T07:59:40Z</time>
      </trkpt>
      <trkpt lat="45.78896" lon="5.53095">
        <ele>380.106</ele>
        <time>2026-05-25T08:00:01Z</time>
      </trkpt>
      <trkpt lat="45.78896" lon="5.53095">
        <ele>380.106</ele>
        <time>2026-05-25T08:00:21Z</time>
      </trkpt>
      <trkpt lat="45.78898" lon="5.53097">
        <ele>381.606</ele>
        <time>2026-05-25T08:00:38Z</time>
      </trkpt>
      <trkpt lat="45.78902" lon="5.53093">
        <ele>382.006</ele>
        <time>2026-05-25T08:00:45Z</time>
      </trkpt>
      <trkpt lat="45.78903" lon="5.53087">
        <ele>382.506</ele>
        <time>2026-05-25T08:00:55Z</time>
      </trkpt>
      <trkpt lat="45.78907" lon="5.53083">
        <ele>382.806</ele>
        <time>2026-05-25T08:01:02Z</time>
      </trkpt>
      <trkpt lat="45.78912" lon="5.53082">
        <ele>382.906</ele>
        <time>2026-05-25T08:01:08Z</time>
      </trkpt>
      <trkpt lat="45.78916" lon="5.53079">
        <ele>383.106</ele>
        <time>2026-05-25T08:01:17Z</time>
      </trkpt>
      <trkpt lat="45.78921" lon="5.53077">
        <ele>383.506</ele>
        <time>2026-05-25T08:01:25Z</time>
      </trkpt>
      <trkpt lat="45.78926" lon="5.53078">
        <ele>384.506</ele>
        <time>2026-05-25T08:01:32Z</time>
      </trkpt>
      <trkpt lat="45.78931" lon="5.53077">
        <ele>385.506</ele>
        <time>2026-05-25T08:01:36Z</time>
      </trkpt>
      <trkpt lat="45.78936" lon="5.53074">
        <ele>387.006</ele>
        <time>2026-05-25T08:01:41Z</time>
      </trkpt>
      <trkpt lat="45.78941" lon="5.53073">
        <ele>388.606</ele>
        <time>2026-05-25T08:01:51Z</time>
      </trkpt>
      <trkpt lat="45.78946" lon="5.53072">
        <ele>389.306</ele>
        <time>2026-05-25T08:01:56Z</time>
      </trkpt>
      <trkpt lat="45.78951" lon="5.5307">
        <ele>389.706</ele>
        <time>2026-05-25T08:02:00Z</time>
      </trkpt>
      <trkpt lat="45.78955" lon="5.53069">
        <ele>390.006</ele>
        <time>2026-05-25T08:02:06Z</time>
      </trkpt>
      <trkpt lat="45.78961" lon="5.53072">
        <ele>390.206</ele>
        <time>2026-05-25T08:02:16Z</time>
      </trkpt>
      <trkpt lat="45.78965" lon="5.53076">
        <ele>390.606</ele>
        <time>2026-05-25T08:02:22Z</time>
      </trkpt>
      <trkpt lat="45.78969" lon="5.5308">
        <ele>391.506</ele>
        <time>2026-05-25T08:02:29Z</time>
      </trkpt>
      <trkpt lat="45.78973" lon="5.53084">
        <ele>392.806</ele>
        <time>2026-05-25T08:02:35Z</time>
      </trkpt>
      <trkpt lat="45.78977" lon="5.53087">
        <ele>393.806</ele>
        <time>2026-05-25T08:02:41Z</time>
      </trkpt>
      <trkpt lat="45.78981" lon="5.5309">
        <ele>395.306</ele>
        <time>2026-05-25T08:02:48Z</time>
      </trkpt>
      <trkpt lat="45.78985" lon="5.53093">
        <ele>397.806</ele>
        <time>2026-05-25T08:02:57Z</time>
      </trkpt>
      <trkpt lat="45.78987" lon="5.53099">
        <ele>398.206</ele>
        <time>2026-05-25T08:03:04Z</time>
      </trkpt>
      <trkpt lat="45.78992" lon="5.53099">
        <ele>398.006</ele>
        <time>2026-05-25T08:03:10Z</time>
      </trkpt>
      <trkpt lat="45.78993" lon="5.53099">
        <ele>398.106</ele>
        <time>2026-05-25T08:03:30Z</time>
      </trkpt>
      <trkpt lat="45.78999" lon="5.53109">
        <ele>399.906</ele>
        <time>2026-05-25T08:03:33Z</time>
      </trkpt>
      <trkpt lat="45.78995" lon="5.53113">
        <ele>402.306</ele>
        <time>2026-05-25T08:03:38Z</time>
      </trkpt>
      <trkpt lat="45.78991" lon="5.53116">
        <ele>403.606</ele>
        <time>2026-05-25T08:03:44Z</time>
      </trkpt>
      <trkpt lat="45.78987" lon="5.53122">
        <ele>405.606</ele>
        <time>2026-05-25T08:03:51Z</time>
      </trkpt>
      <trkpt lat="45.78984" lon="5.53126">
        <ele>406.706</ele>
        <time>2026-05-25T08:03:54Z</time>
      </trkpt>
      <trkpt lat="45.78984" lon="5.53134">
        <ele>407.006</ele>
        <time>2026-05-25T08:03:59Z</time>
      </trkpt>
      <trkpt lat="45.78987" lon="5.5314">
        <ele>407.306</ele>
        <time>2026-05-25T08:04:03Z</time>
      </trkpt>
      <trkpt lat="45.78988" lon="5.53148">
        <ele>407.206</ele>
        <time>2026-05-25T08:04:09Z</time>
      </trkpt>
      <trkpt lat="45.78988" lon="5.53154">
        <ele>406.306</ele>
        <time>2026-05-25T08:04:19Z</time>
      </trkpt>
      <trkpt lat="45.78987" lon="5.53162">
        <ele>405.906</ele>
        <time>2026-05-25T08:04:24Z</time>
      </trkpt>
      <trkpt lat="45.78987" lon="5.53169">
        <ele>405.706</ele>
        <time>2026-05-25T08:04:28Z</time>
      </trkpt>
      <trkpt lat="45.78987" lon="5.53177">
        <ele>405.906</ele>
        <time>2026-05-25T08:04:33Z</time>
      </trkpt>
      <trkpt lat="45.78988" lon="5.53184">
        <ele>405.506</ele>
        <time>2026-05-25T08:04:38Z</time>
      </trkpt>
      <trkpt lat="45.78987" lon="5.5319">
        <ele>405.506</ele>
        <time>2026-05-25T08:04:44Z</time>
      </trkpt>
      <trkpt lat="45.78989" lon="5.53189">
        <ele>404.606</ele>
        <time>2026-05-25T08:05:05Z</time>
      </trkpt>
      <trkpt lat="45.78992" lon="5.53196">
        <ele>401.706</ele>
        <time>2026-05-25T08:05:08Z</time>
      </trkpt>
      <trkpt lat="45.78993" lon="5.53204">
        <ele>401.206</ele>
        <time>2026-05-25T08:05:12Z</time>
      </trkpt>
      <trkpt lat="45.78994" lon="5.53211">
        <ele>400.706</ele>
        <time>2026-05-25T08:05:16Z</time>
      </trkpt>
      <trkpt lat="45.78995" lon="5.53218">
        <ele>400.306</ele>
        <time>2026-05-25T08:05:21Z</time>
      </trkpt>
      <trkpt lat="45.78998" lon="5.53224">
        <ele>400.106</ele>
        <time>2026-05-25T08:05:26Z</time>
      </trkpt>
      <trkpt lat="45.79002" lon="5.53228">
        <ele>399.306</ele>
        <time>2026-05-25T08:05:32Z</time>
      </trkpt>
      <trkpt lat="45.79005" lon="5.53235">
        <ele>399.206</ele>
        <time>2026-05-25T08:05:37Z</time>
      </trkpt>
      <trkpt lat="45.79008" lon="5.53241">
        <ele>399.106</ele>
        <time>2026-05-25T08:05:42Z</time>
      </trkpt>
      <trkpt lat="45.79012" lon="5.53247">
        <ele>398.406</ele>
        <time>2026-05-25T08:05:47Z</time>
      </trkpt>
      <trkpt lat="45.79014" lon="5.53253">
        <ele>397.906</ele>
        <time>2026-05-25T08:05:53Z</time>
      </trkpt>
      <trkpt lat="45.79019" lon="5.53256">
        <ele>397.206</ele>
        <time>2026-05-25T08:05:58Z</time>
      </trkpt>
      <trkpt lat="45.79021" lon="5.53262">
        <ele>396.606</ele>
        <time>2026-05-25T08:06:04Z</time>
      </trkpt>
      <trkpt lat="45.79022" lon="5.53269">
        <ele>396.206</ele>
        <time>2026-05-25T08:06:10Z</time>
      </trkpt>
      <trkpt lat="45.79021" lon="5.53277">
        <ele>395.906</ele>
        <time>2026-05-25T08:06:16Z</time>
      </trkpt>
      <trkpt lat="45.79021" lon="5.53283">
        <ele>395.806</ele>
        <time>2026-05-25T08:06:21Z</time>
      </trkpt>
      <trkpt lat="45.79023" lon="5.5329">
        <ele>395.506</ele>
        <time>2026-05-25T08:06:28Z</time>
      </trkpt>
      <trkpt lat="45.79025" lon="5.53296">
        <ele>395.706</ele>
        <time>2026-05-25T08:06:33Z</time>
      </trkpt>
      <trkpt lat="45.79029" lon="5.533">
        <ele>395.906</ele>
        <time>2026-05-25T08:06:40Z</time>
      </trkpt>
      <trkpt lat="45.79029" lon="5.53303">
        <ele>394.606</ele>
        <time>2026-05-25T08:07:00Z</time>
      </trkpt>
      <trkpt lat="45.79038" lon="5.53303">
        <ele>390.706</ele>
        <time>2026-05-25T08:07:13Z</time>
      </trkpt>
      <trkpt lat="45.7904" lon="5.53304">
        <ele>390.206</ele>
        <time>2026-05-25T08:07:33Z</time>
      </trkpt>
      <trkpt lat="45.7904" lon="5.53304">
        <ele>390.206</ele>
        <time>2026-05-25T08:07:53Z</time>
      </trkpt>
      <trkpt lat="45.7904" lon="5.53304">
        <ele>390.206</ele>
        <time>2026-05-25T08:08:14Z</time>
      </trkpt>
      <trkpt lat="45.7904" lon="5.53304">
        <ele>390.206</ele>
        <time>2026-05-25T08:08:35Z</time>
      </trkpt>
      <trkpt lat="45.7904" lon="5.53304">
        <ele>390.206</ele>
        <time>2026-05-25T08:08:56Z</time>
      </trkpt>
      <trkpt lat="45.7904" lon="5.53304">
        <ele>392.506</ele>
        <time>2026-05-25T08:09:01Z</time>
      </trkpt>
      <trkpt lat="45.7904" lon="5.53304">
        <ele>395.706</ele>
        <time>2026-05-25T08:09:21Z</time>
      </trkpt>
      <trkpt lat="45.7904" lon="5.53304">
        <ele>397.206</ele>
        <time>2026-05-25T08:09:28Z</time>
      </trkpt>
      <trkpt lat="45.7904" lon="5.53304">
        <ele>397.606</ele>
        <time>2026-05-25T08:09:35Z</time>
      </trkpt>
      <trkpt lat="45.79042" lon="5.53303">
        <ele>398.506</ele>
        <time>2026-05-25T08:09:40Z</time>
      </trkpt>
      <trkpt lat="45.79044" lon="5.5331">
        <ele>399.707</ele>
        <time>2026-05-25T08:09:45Z</time>
      </trkpt>
      <trkpt lat="45.79045" lon="5.53316">
        <ele>400.707</ele>
        <time>2026-05-25T08:09:50Z</time>
      </trkpt>
      <trkpt lat="45.79047" lon="5.53322">
        <ele>401.507</ele>
        <time>2026-05-25T08:09:55Z</time>
      </trkpt>
      <trkpt lat="45.79047" lon="5.53329">
        <ele>401.307</ele>
        <time>2026-05-25T08:10:01Z</time>
      </trkpt>
      <trkpt lat="45.7905" lon="5.53334">
        <ele>400.007</ele>
        <time>2026-05-25T08:10:10Z</time>
      </trkpt>
      <trkpt lat="45.7905" lon="5.53342">
        <ele>399.307</ele>
        <time>2026-05-25T08:10:16Z</time>
      </trkpt>
      <trkpt lat="45.79049" lon="5.53349">
        <ele>399.007</ele>
        <time>2026-05-25T08:10:21Z</time>
      </trkpt>
      <trkpt lat="45.79048" lon="5.53356">
        <ele>399.407</ele>
        <time>2026-05-25T08:10:25Z</time>
      </trkpt>
      <trkpt lat="45.79044" lon="5.53361">
        <ele>400.007</ele>
        <time>2026-05-25T08:10:30Z</time>
      </trkpt>
      <trkpt lat="45.7904" lon="5.53366">
        <ele>400.207</ele>
        <time>2026-05-25T08:10:34Z</time>
      </trkpt>
      <trkpt lat="45.79038" lon="5.53372">
        <ele>399.807</ele>
        <time>2026-05-25T08:10:40Z</time>
      </trkpt>
      <trkpt lat="45.7904" lon="5.53379">
        <ele>400.107</ele>
        <time>2026-05-25T08:10:47Z</time>
      </trkpt>
      <trkpt lat="45.79039" lon="5.53384">
        <ele>400.007</ele>
        <time>2026-05-25T08:11:07Z</time>
      </trkpt>
      <trkpt lat="45.79039" lon="5.53384">
        <ele>400.007</ele>
        <time>2026-05-25T08:11:27Z</time>
      </trkpt>
      <trkpt lat="45.79036" lon="5.53384">
        <ele>404.907</ele>
        <time>2026-05-25T08:11:38Z</time>
      </trkpt>
      <trkpt lat="45.79036" lon="5.53385">
        <ele>406.307</ele>
        <time>2026-05-25T08:11:59Z</time>
      </trkpt>
      <trkpt lat="45.79036" lon="5.53385">
        <ele>406.307</ele>
        <time>2026-05-25T08:12:19Z</time>
      </trkpt>
      <trkpt lat="45.79033" lon="5.53397">
        <ele>402.907</ele>
        <time>2026-05-25T08:12:37Z</time>
      </trkpt>
      <trkpt lat="45.79031" lon="5.53404">
        <ele>402.807</ele>
        <time>2026-05-25T08:12:42Z</time>
      </trkpt>
      <trkpt lat="45.79031" lon="5.53411">
        <ele>403.007</ele>
        <time>2026-05-25T08:12:45Z</time>
      </trkpt>
      <trkpt lat="45.79031" lon="5.53419">
        <ele>402.807</ele>
        <time>2026-05-25T08:12:51Z</time>
      </trkpt>
      <trkpt lat="45.79034" lon="5.53423">
        <ele>403.607</ele>
        <time>2026-05-25T08:12:57Z</time>
      </trkpt>
      <trkpt lat="45.79036" lon="5.53422">
        <ele>403.507</ele>
        <time>2026-05-25T08:13:18Z</time>
      </trkpt>
      <trkpt lat="45.79036" lon="5.53422">
        <ele>403.507</ele>
        <time>2026-05-25T08:13:38Z</time>
      </trkpt>
      <trkpt lat="45.79031" lon="5.53433">
        <ele>402.007</ele>
        <time>2026-05-25T08:13:43Z</time>
      </trkpt>
      <trkpt lat="45.79028" lon="5.53437">
        <ele>401.807</ele>
        <time>2026-05-25T08:13:47Z</time>
      </trkpt>
      <trkpt lat="45.79025" lon="5.53443">
        <ele>401.507</ele>
        <time>2026-05-25T08:13:53Z</time>
      </trkpt>
      <trkpt lat="45.79022" lon="5.53449">
        <ele>402.007</ele>
        <time>2026-05-25T08:13:59Z</time>
      </trkpt>
      <trkpt lat="45.7902" lon="5.53455">
        <ele>402.207</ele>
        <time>2026-05-25T08:14:04Z</time>
      </trkpt>
      <trkpt lat="45.79018" lon="5.53462">
        <ele>402.507</ele>
        <time>2026-05-25T08:14:09Z</time>
      </trkpt>
      <trkpt lat="45.79019" lon="5.53468">
        <ele>402.907</ele>
        <time>2026-05-25T08:14:14Z</time>
      </trkpt>
      <trkpt lat="45.79024" lon="5.53471">
        <ele>403.007</ele>
        <time>2026-05-25T08:14:20Z</time>
      </trkpt>
      <trkpt lat="45.79023" lon="5.53479">
        <ele>403.207</ele>
        <time>2026-05-25T08:14:30Z</time>
      </trkpt>
      <trkpt lat="45.79027" lon="5.53483">
        <ele>403.307</ele>
        <time>2026-05-25T08:14:37Z</time>
      </trkpt>
      <trkpt lat="45.79025" lon="5.53489">
        <ele>403.407</ele>
        <time>2026-05-25T08:14:44Z</time>
      </trkpt>
      <trkpt lat="45.79025" lon="5.53496">
        <ele>402.907</ele>
        <time>2026-05-25T08:14:51Z</time>
      </trkpt>
      <trkpt lat="45.79024" lon="5.53503">
        <ele>403.507</ele>
        <time>2026-05-25T08:14:56Z</time>
      </trkpt>
      <trkpt lat="45.79021" lon="5.53509">
        <ele>403.307</ele>
        <time>2026-05-25T08:15:01Z</time>
      </trkpt>
      <trkpt lat="45.7902" lon="5.53515">
        <ele>404.007</ele>
        <time>2026-05-25T08:15:06Z</time>
      </trkpt>
      <trkpt lat="45.79018" lon="5.53523">
        <ele>404.507</ele>
        <time>2026-05-25T08:15:11Z</time>
      </trkpt>
      <trkpt lat="45.79016" lon="5.5353">
        <ele>404.307</ele>
        <time>2026-05-25T08:15:17Z</time>
      </trkpt>
      <trkpt lat="45.79013" lon="5.53535">
        <ele>404.807</ele>
        <time>2026-05-25T08:15:24Z</time>
      </trkpt>
      <trkpt lat="45.79012" lon="5.53542">
        <ele>404.807</ele>
        <time>2026-05-25T08:15:30Z</time>
      </trkpt>
      <trkpt lat="45.7901" lon="5.53549">
        <ele>404.507</ele>
        <time>2026-05-25T08:15:34Z</time>
      </trkpt>
      <trkpt lat="45.7901" lon="5.53555">
        <ele>403.607</ele>
        <time>2026-05-25T08:15:39Z</time>
      </trkpt>
      <trkpt lat="45.79008" lon="5.53562">
        <ele>402.907</ele>
        <time>2026-05-25T08:15:44Z</time>
      </trkpt>
      <trkpt lat="45.79006" lon="5.53569">
        <ele>402.907</ele>
        <time>2026-05-25T08:15:49Z</time>
      </trkpt>
      <trkpt lat="45.79009" lon="5.53575">
        <ele>403.707</ele>
        <time>2026-05-25T08:15:56Z</time>
      </trkpt>
      <trkpt lat="45.79009" lon="5.53581">
        <ele>403.307</ele>
        <time>2026-05-25T08:16:02Z</time>
      </trkpt>
      <trkpt lat="45.79009" lon="5.53588">
        <ele>403.107</ele>
        <time>2026-05-25T08:16:07Z</time>
      </trkpt>
      <trkpt lat="45.79009" lon="5.53595">
        <ele>402.907</ele>
        <time>2026-05-25T08:16:11Z</time>
      </trkpt>
      <trkpt lat="45.79009" lon="5.53602">
        <ele>402.107</ele>
        <time>2026-05-25T08:16:16Z</time>
      </trkpt>
      <trkpt lat="45.7901" lon="5.53609">
        <ele>401.707</ele>
        <time>2026-05-25T08:16:23Z</time>
      </trkpt>
      <trkpt lat="45.79012" lon="5.53615">
        <ele>401.907</ele>
        <time>2026-05-25T08:16:28Z</time>
      </trkpt>
      <trkpt lat="45.79012" lon="5.53623">
        <ele>402.707</ele>
        <time>2026-05-25T08:16:34Z</time>
      </trkpt>
      <trkpt lat="45.79013" lon="5.53629">
        <ele>401.907</ele>
        <time>2026-05-25T08:16:38Z</time>
      </trkpt>
      <trkpt lat="45.79015" lon="5.53635">
        <ele>401.207</ele>
        <time>2026-05-25T08:16:42Z</time>
      </trkpt>
      <trkpt lat="45.79019" lon="5.5364">
        <ele>400.507</ele>
        <time>2026-05-25T08:16:47Z</time>
      </trkpt>
      <trkpt lat="45.79022" lon="5.53645">
        <ele>399.807</ele>
        <time>2026-05-25T08:16:51Z</time>
      </trkpt>
      <trkpt lat="45.79026" lon="5.5365">
        <ele>398.707</ele>
        <time>2026-05-25T08:16:56Z</time>
      </trkpt>
      <trkpt lat="45.7903" lon="5.53654">
        <ele>398.207</ele>
        <time>2026-05-25T08:17:02Z</time>
      </trkpt>
      <trkpt lat="45.79034" lon="5.53658">
        <ele>397.707</ele>
        <time>2026-05-25T08:17:12Z</time>
      </trkpt>
      <trkpt lat="45.79037" lon="5.53662">
        <ele>397.707</ele>
        <time>2026-05-25T08:17:20Z</time>
      </trkpt>
      <trkpt lat="45.79038" lon="5.53669">
        <ele>397.207</ele>
        <time>2026-05-25T08:17:29Z</time>
      </trkpt>
      <trkpt lat="45.7904" lon="5.53675">
        <ele>396.507</ele>
        <time>2026-05-25T08:17:36Z</time>
      </trkpt>
      <trkpt lat="45.79042" lon="5.53681">
        <ele>397.007</ele>
        <time>2026-05-25T08:17:42Z</time>
      </trkpt>
      <trkpt lat="45.79048" lon="5.53684">
        <ele>397.307</ele>
        <time>2026-05-25T08:17:47Z</time>
      </trkpt>
      <trkpt lat="45.79052" lon="5.53686">
        <ele>397.007</ele>
        <time>2026-05-25T08:17:51Z</time>
      </trkpt>
      <trkpt lat="45.79057" lon="5.53687">
        <ele>396.707</ele>
        <time>2026-05-25T08:17:54Z</time>
      </trkpt>
      <trkpt lat="45.79062" lon="5.5369">
        <ele>396.007</ele>
        <time>2026-05-25T08:17:58Z</time>
      </trkpt>
      <trkpt lat="45.79066" lon="5.53692">
        <ele>395.207</ele>
        <time>2026-05-25T08:18:01Z</time>
      </trkpt>
      <trkpt lat="45.79071" lon="5.53694">
        <ele>394.007</ele>
        <time>2026-05-25T08:18:06Z</time>
      </trkpt>
      <trkpt lat="45.79077" lon="5.53696">
        <ele>393.107</ele>
        <time>2026-05-25T08:18:10Z</time>
      </trkpt>
      <trkpt lat="45.79081" lon="5.53698">
        <ele>391.507</ele>
        <time>2026-05-25T08:18:15Z</time>
      </trkpt>
      <trkpt lat="45.79085" lon="5.53702">
        <ele>390.207</ele>
        <time>2026-05-25T08:18:20Z</time>
      </trkpt>
      <trkpt lat="45.79089" lon="5.53705">
        <ele>389.107</ele>
        <time>2026-05-25T08:18:25Z</time>
      </trkpt>
      <trkpt lat="45.79094" lon="5.53705">
        <ele>388.107</ele>
        <time>2026-05-25T08:18:31Z</time>
      </trkpt>
      <trkpt lat="45.79099" lon="5.53706">
        <ele>388.407</ele>
        <time>2026-05-25T08:18:37Z</time>
      </trkpt>
      <trkpt lat="45.79101" lon="5.5371">
        <ele>391.707</ele>
        <time>2026-05-25T08:18:45Z</time>
      </trkpt>
      <trkpt lat="45.79099" lon="5.53716">
        <ele>393.807</ele>
        <time>2026-05-25T08:18:50Z</time>
      </trkpt>
      <trkpt lat="45.79099" lon="5.53722">
        <ele>397.407</ele>
        <time>2026-05-25T08:19:00Z</time>
      </trkpt>
      <trkpt lat="45.79095" lon="5.53726">
        <ele>400.307</ele>
        <time>2026-05-25T08:19:06Z</time>
      </trkpt>
      <trkpt lat="45.79093" lon="5.53731">
        <ele>403.007</ele>
        <time>2026-05-25T08:19:17Z</time>
      </trkpt>
      <trkpt lat="45.7909" lon="5.53733">
        <ele>404.407</ele>
        <time>2026-05-25T08:19:37Z</time>
      </trkpt>
      <trkpt lat="45.79086" lon="5.53737">
        <ele>404.907</ele>
        <time>2026-05-25T08:19:43Z</time>
      </trkpt>
      <trkpt lat="45.79081" lon="5.5374">
        <ele>405.607</ele>
        <time>2026-05-25T08:19:46Z</time>
      </trkpt>
      <trkpt lat="45.79074" lon="5.53743">
        <ele>406.807</ele>
        <time>2026-05-25T08:19:49Z</time>
      </trkpt>
      <trkpt lat="45.7907" lon="5.53745">
        <ele>407.607</ele>
        <time>2026-05-25T08:19:52Z</time>
      </trkpt>
      <trkpt lat="45.79066" lon="5.53748">
        <ele>407.807</ele>
        <time>2026-05-25T08:19:56Z</time>
      </trkpt>
      <trkpt lat="45.79062" lon="5.53753">
        <ele>408.107</ele>
        <time>2026-05-25T08:19:59Z</time>
      </trkpt>
      <trkpt lat="45.79058" lon="5.53756">
        <ele>407.307</ele>
        <time>2026-05-25T08:20:04Z</time>
      </trkpt>
      <trkpt lat="45.79053" lon="5.53758">
        <ele>407.407</ele>
        <time>2026-05-25T08:20:09Z</time>
      </trkpt>
      <trkpt lat="45.79048" lon="5.53758">
        <ele>407.107</ele>
        <time>2026-05-25T08:20:13Z</time>
      </trkpt>
      <trkpt lat="45.79043" lon="5.53758">
        <ele>407.307</ele>
        <time>2026-05-25T08:20:18Z</time>
      </trkpt>
      <trkpt lat="45.79038" lon="5.53759">
        <ele>407.007</ele>
        <time>2026-05-25T08:20:23Z</time>
      </trkpt>
      <trkpt lat="45.79033" lon="5.5376">
        <ele>406.407</ele>
        <time>2026-05-25T08:20:28Z</time>
      </trkpt>
      <trkpt lat="45.79028" lon="5.53762">
        <ele>405.407</ele>
        <time>2026-05-25T08:20:33Z</time>
      </trkpt>
      <trkpt lat="45.79024" lon="5.53761">
        <ele>404.307</ele>
        <time>2026-05-25T08:20:38Z</time>
      </trkpt>
      <trkpt lat="45.79019" lon="5.53761">
        <ele>403.607</ele>
        <time>2026-05-25T08:20:43Z</time>
      </trkpt>
      <trkpt lat="45.79013" lon="5.5376">
        <ele>403.007</ele>
        <time>2026-05-25T08:20:49Z</time>
      </trkpt>
      <trkpt lat="45.79009" lon="5.53758">
        <ele>403.007</ele>
        <time>2026-05-25T08:20:54Z</time>
      </trkpt>
      <trkpt lat="45.79004" lon="5.53758">
        <ele>403.007</ele>
        <time>2026-05-25T08:20:59Z</time>
      </trkpt>
      <trkpt lat="45.78999" lon="5.53757">
        <ele>402.007</ele>
        <time>2026-05-25T08:21:03Z</time>
      </trkpt>
      <trkpt lat="45.78995" lon="5.5376">
        <ele>400.607</ele>
        <time>2026-05-25T08:21:08Z</time>
      </trkpt>
      <trkpt lat="45.78989" lon="5.53763">
        <ele>399.707</ele>
        <time>2026-05-25T08:21:13Z</time>
      </trkpt>
      <trkpt lat="45.78984" lon="5.53763">
        <ele>399.207</ele>
        <time>2026-05-25T08:21:17Z</time>
      </trkpt>
      <trkpt lat="45.78978" lon="5.53765">
        <ele>398.507</ele>
        <time>2026-05-25T08:21:21Z</time>
      </trkpt>
      <trkpt lat="45.78973" lon="5.53768">
        <ele>397.707</ele>
        <time>2026-05-25T08:21:25Z</time>
      </trkpt>
      <trkpt lat="45.78968" lon="5.53771">
        <ele>397.207</ele>
        <time>2026-05-25T08:21:28Z</time>
      </trkpt>
      <trkpt lat="45.78963" lon="5.53773">
        <ele>396.107</ele>
        <time>2026-05-25T08:21:32Z</time>
      </trkpt>
      <trkpt lat="45.78958" lon="5.53771">
        <ele>395.107</ele>
        <time>2026-05-25T08:21:36Z</time>
      </trkpt>
      <trkpt lat="45.78954" lon="5.5377">
        <ele>394.207</ele>
        <time>2026-05-25T08:21:40Z</time>
      </trkpt>
      <trkpt lat="45.7895" lon="5.53767">
        <ele>393.207</ele>
        <time>2026-05-25T08:21:44Z</time>
      </trkpt>
      <trkpt lat="45.78945" lon="5.53763">
        <ele>392.007</ele>
        <time>2026-05-25T08:21:50Z</time>
      </trkpt>
      <trkpt lat="45.78942" lon="5.53758">
        <ele>391.307</ele>
        <time>2026-05-25T08:21:57Z</time>
      </trkpt>
      <trkpt lat="45.7894" lon="5.5375">
        <ele>390.207</ele>
        <time>2026-05-25T08:22:03Z</time>
      </trkpt>
      <trkpt lat="45.78938" lon="5.53744">
        <ele>389.807</ele>
        <time>2026-05-25T08:22:08Z</time>
      </trkpt>
      <trkpt lat="45.78938" lon="5.53737">
        <ele>390.107</ele>
        <time>2026-05-25T08:22:15Z</time>
      </trkpt>
      <trkpt lat="45.78937" lon="5.5373">
        <ele>388.807</ele>
        <time>2026-05-25T08:22:21Z</time>
      </trkpt>
      <trkpt lat="45.78936" lon="5.53723">
        <ele>388.207</ele>
        <time>2026-05-25T08:22:27Z</time>
      </trkpt>
      <trkpt lat="45.78933" lon="5.53717">
        <ele>387.707</ele>
        <time>2026-05-25T08:22:31Z</time>
      </trkpt>
      <trkpt lat="45.7893" lon="5.53711">
        <ele>388.007</ele>
        <time>2026-05-25T08:22:36Z</time>
      </trkpt>
      <trkpt lat="45.78927" lon="5.53705">
        <ele>388.507</ele>
        <time>2026-05-25T08:22:40Z</time>
      </trkpt>
      <trkpt lat="45.78926" lon="5.53699">
        <ele>389.807</ele>
        <time>2026-05-25T08:22:44Z</time>
      </trkpt>
      <trkpt lat="45.78921" lon="5.53698">
        <ele>391.307</ele>
        <time>2026-05-25T08:22:52Z</time>
      </trkpt>
      <trkpt lat="45.78919" lon="5.53704">
        <ele>391.407</ele>
        <time>2026-05-25T08:22:55Z</time>
      </trkpt>
      <trkpt lat="45.7892" lon="5.53711">
        <ele>391.307</ele>
        <time>2026-05-25T08:22:59Z</time>
      </trkpt>
      <trkpt lat="45.78922" lon="5.53717">
        <ele>392.107</ele>
        <time>2026-05-25T08:23:05Z</time>
      </trkpt>
      <trkpt lat="45.78923" lon="5.53724">
        <ele>391.907</ele>
        <time>2026-05-25T08:23:10Z</time>
      </trkpt>
      <trkpt lat="45.78923" lon="5.5373">
        <ele>392.607</ele>
        <time>2026-05-25T08:23:15Z</time>
      </trkpt>
      <trkpt lat="45.78923" lon="5.53737">
        <ele>393.007</ele>
        <time>2026-05-25T08:23:20Z</time>
      </trkpt>
      <trkpt lat="45.78923" lon="5.53744">
        <ele>393.807</ele>
        <time>2026-05-25T08:23:25Z</time>
      </trkpt>
      <trkpt lat="45.78923" lon="5.53751">
        <ele>393.107</ele>
        <time>2026-05-25T08:23:30Z</time>
      </trkpt>
      <trkpt lat="45.78922" lon="5.53758">
        <ele>393.007</ele>
        <time>2026-05-25T08:23:37Z</time>
      </trkpt>
      <trkpt lat="45.78921" lon="5.53765">
        <ele>392.907</ele>
        <time>2026-05-25T08:23:42Z</time>
      </trkpt>
      <trkpt lat="45.7892" lon="5.53772">
        <ele>393.607</ele>
        <time>2026-05-25T08:23:47Z</time>
      </trkpt>
      <trkpt lat="45.78918" lon="5.53778">
        <ele>395.007</ele>
        <time>2026-05-25T08:23:51Z</time>
      </trkpt>
      <trkpt lat="45.78917" lon="5.53784">
        <ele>396.707</ele>
        <time>2026-05-25T08:23:55Z</time>
      </trkpt>
      <trkpt lat="45.78914" lon="5.5379">
        <ele>397.807</ele>
        <time>2026-05-25T08:24:00Z</time>
      </trkpt>
      <trkpt lat="45.78912" lon="5.53797">
        <ele>398.607</ele>
        <time>2026-05-25T08:24:04Z</time>
      </trkpt>
      <trkpt lat="45.78912" lon="5.53804">
        <ele>398.807</ele>
        <time>2026-05-25T08:24:08Z</time>
      </trkpt>
      <trkpt lat="45.78912" lon="5.5381">
        <ele>399.407</ele>
        <time>2026-05-25T08:24:12Z</time>
      </trkpt>
      <trkpt lat="45.78912" lon="5.53818">
        <ele>400.207</ele>
        <time>2026-05-25T08:24:16Z</time>
      </trkpt>
      <trkpt lat="45.78911" lon="5.53825">
        <ele>399.907</ele>
        <time>2026-05-25T08:24:23Z</time>
      </trkpt>
      <trkpt lat="45.78914" lon="5.5382">
        <ele>403.907</ele>
        <time>2026-05-25T08:24:30Z</time>
      </trkpt>
      <trkpt lat="45.78915" lon="5.53819">
        <ele>411.107</ele>
        <time>2026-05-25T08:24:44Z</time>
      </trkpt>
      <trkpt lat="45.78915" lon="5.53819">
        <ele>418.007</ele>
        <time>2026-05-25T08:25:00Z</time>
      </trkpt>
      <trkpt lat="45.78915" lon="5.53819">
        <ele>418.007</ele>
        <time>2026-05-25T08:25:21Z</time>
      </trkpt>
      <trkpt lat="45.78915" lon="5.53819">
        <ele>418.007</ele>
        <time>2026-05-25T08:25:42Z</time>
      </trkpt>
      <trkpt lat="45.78915" lon="5.53819">
        <ele>418.007</ele>
        <time>2026-05-25T08:26:02Z</time>
      </trkpt>
      <trkpt lat="45.78919" lon="5.53825">
        <ele>430.907</ele>
        <time>2026-05-25T08:26:17Z</time>
      </trkpt>
      <trkpt lat="45.78918" lon="5.53831">
        <ele>432.307</ele>
        <time>2026-05-25T08:26:21Z</time>
      </trkpt>
      <trkpt lat="45.78918" lon="5.53838">
        <ele>433.207</ele>
        <time>2026-05-25T08:26:26Z</time>
      </trkpt>
      <trkpt lat="45.78915" lon="5.53845">
        <ele>434.607</ele>
        <time>2026-05-25T08:26:32Z</time>
      </trkpt>
      <trkpt lat="45.78913" lon="5.53851">
        <ele>435.107</ele>
        <time>2026-05-25T08:26:36Z</time>
      </trkpt>
      <trkpt lat="45.78911" lon="5.53857">
        <ele>435.407</ele>
        <time>2026-05-25T08:26:40Z</time>
      </trkpt>
      <trkpt lat="45.78909" lon="5.53863">
        <ele>436.507</ele>
        <time>2026-05-25T08:26:44Z</time>
      </trkpt>
      <trkpt lat="45.78909" lon="5.5387">
        <ele>437.407</ele>
        <time>2026-05-25T08:26:50Z</time>
      </trkpt>
      <trkpt lat="45.78907" lon="5.53875">
        <ele>437.007</ele>
        <time>2026-05-25T08:26:57Z</time>
      </trkpt>
      <trkpt lat="45.78904" lon="5.53881">
        <ele>437.107</ele>
        <time>2026-05-25T08:27:01Z</time>
      </trkpt>
      <trkpt lat="45.78903" lon="5.53887">
        <ele>435.907</ele>
        <time>2026-05-25T08:27:07Z</time>
      </trkpt>
      <trkpt lat="45.78904" lon="5.53893">
        <ele>434.407</ele>
        <time>2026-05-25T08:27:12Z</time>
      </trkpt>
      <trkpt lat="45.78905" lon="5.539">
        <ele>432.707</ele>
        <time>2026-05-25T08:27:18Z</time>
      </trkpt>
      <trkpt lat="45.78909" lon="5.53904">
        <ele>429.807</ele>
        <time>2026-05-25T08:27:25Z</time>
      </trkpt>
      <trkpt lat="45.78914" lon="5.53906">
        <ele>428.807</ele>
        <time>2026-05-25T08:27:29Z</time>
      </trkpt>
      <trkpt lat="45.78918" lon="5.53912">
        <ele>427.807</ele>
        <time>2026-05-25T08:27:33Z</time>
      </trkpt>
      <trkpt lat="45.7892" lon="5.53919">
        <ele>427.107</ele>
        <time>2026-05-25T08:27:36Z</time>
      </trkpt>
      <trkpt lat="45.78923" lon="5.53925">
        <ele>426.407</ele>
        <time>2026-05-25T08:27:40Z</time>
      </trkpt>
      <trkpt lat="45.78924" lon="5.53932">
        <ele>425.107</ele>
        <time>2026-05-25T08:27:44Z</time>
      </trkpt>
      <trkpt lat="45.78924" lon="5.53938">
        <ele>424.007</ele>
        <time>2026-05-25T08:27:47Z</time>
      </trkpt>
      <trkpt lat="45.78926" lon="5.53944">
        <ele>422.707</ele>
        <time>2026-05-25T08:27:50Z</time>
      </trkpt>
      <trkpt lat="45.78931" lon="5.5395">
        <ele>422.107</ele>
        <time>2026-05-25T08:27:53Z</time>
      </trkpt>
      <trkpt lat="45.78933" lon="5.53956">
        <ele>420.707</ele>
        <time>2026-05-25T08:27:59Z</time>
      </trkpt>
      <trkpt lat="45.78936" lon="5.53962">
        <ele>420.307</ele>
        <time>2026-05-25T08:28:06Z</time>
      </trkpt>
      <trkpt lat="45.78938" lon="5.53968">
        <ele>419.007</ele>
        <time>2026-05-25T08:28:14Z</time>
      </trkpt>
      <trkpt lat="45.78939" lon="5.53975">
        <ele>418.307</ele>
        <time>2026-05-25T08:28:19Z</time>
      </trkpt>
      <trkpt lat="45.78941" lon="5.53982">
        <ele>416.807</ele>
        <time>2026-05-25T08:28:23Z</time>
      </trkpt>
      <trkpt lat="45.78942" lon="5.53989">
        <ele>416.107</ele>
        <time>2026-05-25T08:28:26Z</time>
      </trkpt>
      <trkpt lat="45.78943" lon="5.53995">
        <ele>415.307</ele>
        <time>2026-05-25T08:28:29Z</time>
      </trkpt>
      <trkpt lat="45.78945" lon="5.54002">
        <ele>414.207</ele>
        <time>2026-05-25T08:28:32Z</time>
      </trkpt>
      <trkpt lat="45.78947" lon="5.54008">
        <ele>412.307</ele>
        <time>2026-05-25T08:28:36Z</time>
      </trkpt>
      <trkpt lat="45.78949" lon="5.54013">
        <ele>410.107</ele>
        <time>2026-05-25T08:28:40Z</time>
      </trkpt>
      <trkpt lat="45.78952" lon="5.54019">
        <ele>407.507</ele>
        <time>2026-05-25T08:28:45Z</time>
      </trkpt>
      <trkpt lat="45.78955" lon="5.54025">
        <ele>405.907</ele>
        <time>2026-05-25T08:28:49Z</time>
      </trkpt>
      <trkpt lat="45.78958" lon="5.54031">
        <ele>404.507</ele>
        <time>2026-05-25T08:28:53Z</time>
      </trkpt>
      <trkpt lat="45.7896" lon="5.54036">
        <ele>402.807</ele>
        <time>2026-05-25T08:28:58Z</time>
      </trkpt>
      <trkpt lat="45.78963" lon="5.54042">
        <ele>401.807</ele>
        <time>2026-05-25T08:29:03Z</time>
      </trkpt>
      <trkpt lat="45.78965" lon="5.54048">
        <ele>400.507</ele>
        <time>2026-05-25T08:29:08Z</time>
      </trkpt>
      <trkpt lat="45.78966" lon="5.54054">
        <ele>400.107</ele>
        <time>2026-05-25T08:29:15Z</time>
      </trkpt>
      <trkpt lat="45.78964" lon="5.5406">
        <ele>401.007</ele>
        <time>2026-05-25T08:29:24Z</time>
      </trkpt>
      <trkpt lat="45.78959" lon="5.5406">
        <ele>400.907</ele>
        <time>2026-05-25T08:29:30Z</time>
      </trkpt>
      <trkpt lat="45.78954" lon="5.54059">
        <ele>400.607</ele>
        <time>2026-05-25T08:29:35Z</time>
      </trkpt>
      <trkpt lat="45.78949" lon="5.54057">
        <ele>400.607</ele>
        <time>2026-05-25T08:29:39Z</time>
      </trkpt>
      <trkpt lat="45.78945" lon="5.54058">
        <ele>399.607</ele>
        <time>2026-05-25T08:29:44Z</time>
      </trkpt>
      <trkpt lat="45.7894" lon="5.54057">
        <ele>399.507</ele>
        <time>2026-05-25T08:29:50Z</time>
      </trkpt>
      <trkpt lat="45.78935" lon="5.54055">
        <ele>398.607</ele>
        <time>2026-05-25T08:29:56Z</time>
      </trkpt>
      <trkpt lat="45.7893" lon="5.54054">
        <ele>398.507</ele>
        <time>2026-05-25T08:30:00Z</time>
      </trkpt>
      <trkpt lat="45.78926" lon="5.54053">
        <ele>398.707</ele>
        <time>2026-05-25T08:30:05Z</time>
      </trkpt>
      <trkpt lat="45.78921" lon="5.54052">
        <ele>398.907</ele>
        <time>2026-05-25T08:30:09Z</time>
      </trkpt>
      <trkpt lat="45.78916" lon="5.54052">
        <ele>398.707</ele>
        <time>2026-05-25T08:30:13Z</time>
      </trkpt>
      <trkpt lat="45.7891" lon="5.5405">
        <ele>398.907</ele>
        <time>2026-05-25T08:30:19Z</time>
      </trkpt>
      <trkpt lat="45.78906" lon="5.54051">
        <ele>399.307</ele>
        <time>2026-05-25T08:30:22Z</time>
      </trkpt>
      <trkpt lat="45.78901" lon="5.54051">
        <ele>398.907</ele>
        <time>2026-05-25T08:30:27Z</time>
      </trkpt>
      <trkpt lat="45.78895" lon="5.54049">
        <ele>397.907</ele>
        <time>2026-05-25T08:30:31Z</time>
      </trkpt>
      <trkpt lat="45.7889" lon="5.5405">
        <ele>398.207</ele>
        <time>2026-05-25T08:30:34Z</time>
      </trkpt>
      <trkpt lat="45.78886" lon="5.54045">
        <ele>397.607</ele>
        <time>2026-05-25T08:30:39Z</time>
      </trkpt>
      <trkpt lat="45.78882" lon="5.54042">
        <ele>396.707</ele>
        <time>2026-05-25T08:30:43Z</time>
      </trkpt>
      <trkpt lat="45.78881" lon="5.54036">
        <ele>398.207</ele>
        <time>2026-05-25T08:30:50Z</time>
      </trkpt>
      <trkpt lat="45.7888" lon="5.54029">
        <ele>398.607</ele>
        <time>2026-05-25T08:30:54Z</time>
      </trkpt>
      <trkpt lat="45.78877" lon="5.54024">
        <ele>397.907</ele>
        <time>2026-05-25T08:30:59Z</time>
      </trkpt>
      <trkpt lat="45.78872" lon="5.54022">
        <ele>398.007</ele>
        <time>2026-05-25T08:31:03Z</time>
      </trkpt>
      <trkpt lat="45.78868" lon="5.54021">
        <ele>398.507</ele>
        <time>2026-05-25T08:31:07Z</time>
      </trkpt>
      <trkpt lat="45.78864" lon="5.54016">
        <ele>398.907</ele>
        <time>2026-05-25T08:31:12Z</time>
      </trkpt>
      <trkpt lat="45.78861" lon="5.54011">
        <ele>399.007</ele>
        <time>2026-05-25T08:31:16Z</time>
      </trkpt>
      <trkpt lat="45.7886" lon="5.54005">
        <ele>401.807</ele>
        <time>2026-05-25T08:31:21Z</time>
      </trkpt>
      <trkpt lat="45.78858" lon="5.54">
        <ele>404.107</ele>
        <time>2026-05-25T08:31:27Z</time>
      </trkpt>
      <trkpt lat="45.78856" lon="5.53996">
        <ele>408.207</ele>
        <time>2026-05-25T08:31:32Z</time>
      </trkpt>
      <trkpt lat="45.78853" lon="5.53989">
        <ele>410.107</ele>
        <time>2026-05-25T08:31:38Z</time>
      </trkpt>
      <trkpt lat="45.78855" lon="5.53983">
        <ele>411.107</ele>
        <time>2026-05-25T08:31:43Z</time>
      </trkpt>
      <trkpt lat="45.78856" lon="5.53977">
        <ele>412.407</ele>
        <time>2026-05-25T08:31:47Z</time>
      </trkpt>
      <trkpt lat="45.78852" lon="5.53971">
        <ele>413.307</ele>
        <time>2026-05-25T08:31:54Z</time>
      </trkpt>
      <trkpt lat="45.78849" lon="5.53967">
        <ele>412.607</ele>
        <time>2026-05-25T08:32:04Z</time>
      </trkpt>
      <trkpt lat="45.78845" lon="5.53963">
        <ele>412.807</ele>
        <time>2026-05-25T08:32:13Z</time>
      </trkpt>
      <trkpt lat="45.7884" lon="5.53962">
        <ele>411.907</ele>
        <time>2026-05-25T08:32:22Z</time>
      </trkpt>
      <trkpt lat="45.78836" lon="5.53959">
        <ele>412.207</ele>
        <time>2026-05-25T08:32:31Z</time>
      </trkpt>
      <trkpt lat="45.78832" lon="5.53956">
        <ele>415.507</ele>
        <time>2026-05-25T08:32:38Z</time>
      </trkpt>
      <trkpt lat="45.78821" lon="5.53959">
        <ele>420.507</ele>
        <time>2026-05-25T08:32:56Z</time>
      </trkpt>
      <trkpt lat="45.78816" lon="5.53959">
        <ele>420.407</ele>
        <time>2026-05-25T08:33:15Z</time>
      </trkpt>
      <trkpt lat="45.78813" lon="5.53965">
        <ele>419.007</ele>
        <time>2026-05-25T08:33:23Z</time>
      </trkpt>
      <trkpt lat="45.78809" lon="5.53968">
        <ele>419.507</ele>
        <time>2026-05-25T08:33:30Z</time>
      </trkpt>
      <trkpt lat="45.78804" lon="5.5397">
        <ele>420.807</ele>
        <time>2026-05-25T08:33:40Z</time>
      </trkpt>
      <trkpt lat="45.788" lon="5.53971">
        <ele>424.507</ele>
        <time>2026-05-25T08:33:50Z</time>
      </trkpt>
      <trkpt lat="45.78795" lon="5.53973">
        <ele>427.307</ele>
        <time>2026-05-25T08:33:54Z</time>
      </trkpt>
      <trkpt lat="45.78791" lon="5.53979">
        <ele>428.607</ele>
        <time>2026-05-25T08:33:58Z</time>
      </trkpt>
      <trkpt lat="45.78787" lon="5.53986">
        <ele>431.107</ele>
        <time>2026-05-25T08:34:02Z</time>
      </trkpt>
      <trkpt lat="45.78786" lon="5.53993">
        <ele>433.007</ele>
        <time>2026-05-25T08:34:05Z</time>
      </trkpt>
      <trkpt lat="45.78785" lon="5.53999">
        <ele>435.907</ele>
        <time>2026-05-25T08:34:09Z</time>
      </trkpt>
      <trkpt lat="45.78787" lon="5.54006">
        <ele>438.407</ele>
        <time>2026-05-25T08:34:14Z</time>
      </trkpt>
      <trkpt lat="45.7879" lon="5.54011">
        <ele>440.307</ele>
        <time>2026-05-25T08:34:18Z</time>
      </trkpt>
      <trkpt lat="45.7879" lon="5.54018">
        <ele>443.807</ele>
        <time>2026-05-25T08:34:23Z</time>
      </trkpt>
      <trkpt lat="45.78793" lon="5.54023">
        <ele>446.407</ele>
        <time>2026-05-25T08:34:27Z</time>
      </trkpt>
      <trkpt lat="45.78796" lon="5.54024">
        <ele>449.707</ele>
        <time>2026-05-25T08:34:31Z</time>
      </trkpt>
      <trkpt lat="45.78798" lon="5.54029">
        <ele>452.307</ele>
        <time>2026-05-25T08:34:35Z</time>
      </trkpt>
      <trkpt lat="45.788" lon="5.54035">
        <ele>456.007</ele>
        <time>2026-05-25T08:34:40Z</time>
      </trkpt>
      <trkpt lat="45.78801" lon="5.54041">
        <ele>459.907</ele>
        <time>2026-05-25T08:34:45Z</time>
      </trkpt>
      <trkpt lat="45.788" lon="5.54047">
        <ele>463.207</ele>
        <time>2026-05-25T08:34:48Z</time>
      </trkpt>
      <trkpt lat="45.788" lon="5.54054">
        <ele>468.307</ele>
        <time>2026-05-25T08:34:52Z</time>
      </trkpt>
      <trkpt lat="45.788" lon="5.54059">
        <ele>473.107</ele>
        <time>2026-05-25T08:34:55Z</time>
      </trkpt>
      <trkpt lat="45.78801" lon="5.54064">
        <ele>477.107</ele>
        <time>2026-05-25T08:34:58Z</time>
      </trkpt>
      <trkpt lat="45.78801" lon="5.54071">
        <ele>481.407</ele>
        <time>2026-05-25T08:35:01Z</time>
      </trkpt>
      <trkpt lat="45.788" lon="5.54077">
        <ele>484.407</ele>
        <time>2026-05-25T08:35:04Z</time>
      </trkpt>
      <trkpt lat="45.788" lon="5.54082">
        <ele>488.407</ele>
        <time>2026-05-25T08:35:07Z</time>
      </trkpt>
      <trkpt lat="45.78798" lon="5.54087">
        <ele>492.107</ele>
        <time>2026-05-25T08:35:10Z</time>
      </trkpt>
      <trkpt lat="45.78796" lon="5.5409">
        <ele>496.707</ele>
        <time>2026-05-25T08:35:13Z</time>
      </trkpt>
      <trkpt lat="45.78792" lon="5.54092">
        <ele>500.407</ele>
        <time>2026-05-25T08:35:17Z</time>
      </trkpt>
      <trkpt lat="45.78788" lon="5.54096">
        <ele>504.307</ele>
        <time>2026-05-25T08:35:21Z</time>
      </trkpt>
      <trkpt lat="45.78785" lon="5.54099">
        <ele>507.607</ele>
        <time>2026-05-25T08:35:24Z</time>
      </trkpt>
      <trkpt lat="45.78782" lon="5.54101">
        <ele>511.707</ele>
        <time>2026-05-25T08:35:28Z</time>
      </trkpt>
      <trkpt lat="45.78779" lon="5.54104">
        <ele>516.207</ele>
        <time>2026-05-25T08:35:31Z</time>
      </trkpt>
      <trkpt lat="45.78775" lon="5.54107">
        <ele>520.407</ele>
        <time>2026-05-25T08:35:34Z</time>
      </trkpt>
      <trkpt lat="45.78772" lon="5.5411">
        <ele>524.407</ele>
        <time>2026-05-25T08:35:37Z</time>
      </trkpt>
      <trkpt lat="45.78768" lon="5.54112">
        <ele>527.807</ele>
        <time>2026-05-25T08:35:40Z</time>
      </trkpt>
      <trkpt lat="45.78764" lon="5.54114">
        <ele>530.407</ele>
        <time>2026-05-25T08:35:43Z</time>
      </trkpt>
      <trkpt lat="45.78761" lon="5.54117">
        <ele>533.507</ele>
        <time>2026-05-25T08:35:46Z</time>
      </trkpt>
      <trkpt lat="45.78757" lon="5.5412">
        <ele>537.207</ele>
        <time>2026-05-25T08:35:49Z</time>
      </trkpt>
      <trkpt lat="45.78753" lon="5.54123">
        <ele>540.807</ele>
        <time>2026-05-25T08:35:53Z</time>
      </trkpt>
      <trkpt lat="45.78749" lon="5.54126">
        <ele>544.107</ele>
        <time>2026-05-25T08:35:57Z</time>
      </trkpt>
      <trkpt lat="45.78745" lon="5.54129">
        <ele>547.307</ele>
        <time>2026-05-25T08:36:00Z</time>
      </trkpt>
      <trkpt lat="45.78742" lon="5.54132">
        <ele>550.007</ele>
        <time>2026-05-25T08:36:03Z</time>
      </trkpt>
      <trkpt lat="45.78738" lon="5.54134">
        <ele>552.107</ele>
        <time>2026-05-25T08:36:06Z</time>
      </trkpt>
      <trkpt lat="45.78733" lon="5.54137">
        <ele>554.507</ele>
        <time>2026-05-25T08:36:10Z</time>
      </trkpt>
      <trkpt lat="45.78729" lon="5.5414">
        <ele>556.107</ele>
        <time>2026-05-25T08:36:14Z</time>
      </trkpt>
      <trkpt lat="45.78725" lon="5.54144">
        <ele>557.207</ele>
        <time>2026-05-25T08:36:17Z</time>
      </trkpt>
      <trkpt lat="45.78721" lon="5.54149">
        <ele>558.507</ele>
        <time>2026-05-25T08:36:21Z</time>
      </trkpt>
      <trkpt lat="45.78717" lon="5.54152">
        <ele>559.507</ele>
        <time>2026-05-25T08:36:25Z</time>
      </trkpt>
      <trkpt lat="45.78713" lon="5.54157">
        <ele>560.407</ele>
        <time>2026-05-25T08:36:29Z</time>
      </trkpt>
      <trkpt lat="45.78708" lon="5.54161">
        <ele>561.507</ele>
        <time>2026-05-25T08:36:35Z</time>
      </trkpt>
      <trkpt lat="45.78705" lon="5.54165">
        <ele>562.407</ele>
        <time>2026-05-25T08:36:40Z</time>
      </trkpt>
      <trkpt lat="45.78703" lon="5.54172">
        <ele>562.707</ele>
        <time>2026-05-25T08:36:44Z</time>
      </trkpt>
      <trkpt lat="45.78699" lon="5.54177">
        <ele>563.107</ele>
        <time>2026-05-25T08:36:48Z</time>
      </trkpt>
      <trkpt lat="45.78695" lon="5.54182">
        <ele>563.407</ele>
        <time>2026-05-25T08:36:52Z</time>
      </trkpt>
      <trkpt lat="45.78691" lon="5.54187">
        <ele>564.207</ele>
        <time>2026-05-25T08:36:56Z</time>
      </trkpt>
      <trkpt lat="45.78689" lon="5.54193">
        <ele>564.007</ele>
        <time>2026-05-25T08:37:10Z</time>
      </trkpt>
      <trkpt lat="45.78688" lon="5.54199">
        <ele>564.907</ele>
        <time>2026-05-25T08:37:30Z</time>
      </trkpt>
      <trkpt lat="45.78688" lon="5.54199">
        <ele>568.007</ele>
        <time>2026-05-25T08:37:51Z</time>
      </trkpt>
      <trkpt lat="45.78688" lon="5.54199">
        <ele>571.107</ele>
        <time>2026-05-25T08:38:11Z</time>
      </trkpt>
      <trkpt lat="45.78688" lon="5.54199">
        <ele>571.107</ele>
        <time>2026-05-25T08:38:31Z</time>
      </trkpt>
      <trkpt lat="45.78688" lon="5.54199">
        <ele>571.107</ele>
        <time>2026-05-25T08:38:52Z</time>
      </trkpt>
      <trkpt lat="45.78688" lon="5.54199">
        <ele>571.107</ele>
        <time>2026-05-25T08:39:12Z</time>
      </trkpt>
      <trkpt lat="45.78688" lon="5.54199">
        <ele>571.107</ele>
        <time>2026-05-25T08:39:32Z</time>
      </trkpt>
      <trkpt lat="45.78688" lon="5.54199">
        <ele>571.107</ele>
        <time>2026-05-25T08:39:52Z</time>
      </trkpt>
      <trkpt lat="45.78688" lon="5.54199">
        <ele>571.107</ele>
        <time>2026-05-25T08:40:12Z</time>
      </trkpt>
      <trkpt lat="45.78688" lon="5.54199">
        <ele>571.107</ele>
        <time>2026-05-25T08:40:33Z</time>
      </trkpt>
      <trkpt lat="45.78688" lon="5.54199">
        <ele>571.107</ele>
        <time>2026-05-25T08:40:54Z</time>
      </trkpt>
      <trkpt lat="45.78688" lon="5.54199">
        <ele>571.107</ele>
        <time>2026-05-25T08:41:14Z</time>
      </trkpt>
      <trkpt lat="45.78688" lon="5.54199">
        <ele>571.107</ele>
        <time>2026-05-25T08:41:34Z</time>
      </trkpt>
      <trkpt lat="45.78688" lon="5.54199">
        <ele>571.107</ele>
        <time>2026-05-25T08:41:54Z</time>
      </trkpt>
      <trkpt lat="45.78688" lon="5.54199">
        <ele>571.107</ele>
        <time>2026-05-25T08:42:15Z</time>
      </trkpt>
      <trkpt lat="45.78688" lon="5.54199">
        <ele>571.107</ele>
        <time>2026-05-25T08:42:35Z</time>
      </trkpt>
      <trkpt lat="45.78688" lon="5.54199">
        <ele>571.107</ele>
        <time>2026-05-25T08:42:56Z</time>
      </trkpt>
      <trkpt lat="45.78688" lon="5.54199">
        <ele>568.007</ele>
        <time>2026-05-25T08:43:17Z</time>
      </trkpt>
      <trkpt lat="45.78688" lon="5.54199">
        <ele>568.007</ele>
        <time>2026-05-25T08:43:37Z</time>
      </trkpt>
      <trkpt lat="45.78688" lon="5.54199">
        <ele>568.007</ele>
        <time>2026-05-25T08:43:57Z</time>
      </trkpt>
      <trkpt lat="45.78688" lon="5.54199">
        <ele>568.007</ele>
        <time>2026-05-25T08:44:17Z</time>
      </trkpt>
      <trkpt lat="45.78683" lon="5.54197">
        <ele>567.807</ele>
        <time>2026-05-25T08:44:29Z</time>
      </trkpt>
      <trkpt lat="45.78678" lon="5.54198">
        <ele>567.507</ele>
        <time>2026-05-25T08:44:33Z</time>
      </trkpt>
      <trkpt lat="45.78673" lon="5.54201">
        <ele>567.307</ele>
        <time>2026-05-25T08:44:37Z</time>
      </trkpt>
      <trkpt lat="45.78668" lon="5.54205">
        <ele>567.107</ele>
        <time>2026-05-25T08:44:41Z</time>
      </trkpt>
      <trkpt lat="45.78664" lon="5.54209">
        <ele>566.607</ele>
        <time>2026-05-25T08:44:46Z</time>
      </trkpt>
      <trkpt lat="45.78659" lon="5.54212">
        <ele>566.707</ele>
        <time>2026-05-25T08:44:50Z</time>
      </trkpt>
      <trkpt lat="45.78655" lon="5.54216">
        <ele>567.007</ele>
        <time>2026-05-25T08:44:54Z</time>
      </trkpt>
      <trkpt lat="45.78651" lon="5.5422">
        <ele>567.707</ele>
        <time>2026-05-25T08:44:58Z</time>
      </trkpt>
      <trkpt lat="45.78647" lon="5.54224">
        <ele>568.307</ele>
        <time>2026-05-25T08:45:02Z</time>
      </trkpt>
      <trkpt lat="45.78644" lon="5.54229">
        <ele>568.607</ele>
        <time>2026-05-25T08:45:06Z</time>
      </trkpt>
      <trkpt lat="45.7864" lon="5.54233">
        <ele>569.107</ele>
        <time>2026-05-25T08:45:10Z</time>
      </trkpt>
      <trkpt lat="45.78635" lon="5.54235">
        <ele>569.907</ele>
        <time>2026-05-25T08:45:15Z</time>
      </trkpt>
      <trkpt lat="45.7863" lon="5.54236">
        <ele>569.807</ele>
        <time>2026-05-25T08:45:19Z</time>
      </trkpt>
      <trkpt lat="45.78626" lon="5.54239">
        <ele>570.507</ele>
        <time>2026-05-25T08:45:26Z</time>
      </trkpt>
      <trkpt lat="45.78622" lon="5.54243">
        <ele>570.807</ele>
        <time>2026-05-25T08:45:31Z</time>
      </trkpt>
      <trkpt lat="45.78618" lon="5.54247">
        <ele>571.507</ele>
        <time>2026-05-25T08:45:35Z</time>
      </trkpt>
      <trkpt lat="45.78613" lon="5.5425">
        <ele>572.407</ele>
        <time>2026-05-25T08:45:39Z</time>
      </trkpt>
      <trkpt lat="45.78609" lon="5.54252">
        <ele>572.407</ele>
        <time>2026-05-25T08:45:43Z</time>
      </trkpt>
      <trkpt lat="45.78604" lon="5.54254">
        <ele>572.307</ele>
        <time>2026-05-25T08:45:47Z</time>
      </trkpt>
      <trkpt lat="45.786" lon="5.54255">
        <ele>573.007</ele>
        <time>2026-05-25T08:45:52Z</time>
      </trkpt>
      <trkpt lat="45.78595" lon="5.54256">
        <ele>572.807</ele>
        <time>2026-05-25T08:45:56Z</time>
      </trkpt>
      <trkpt lat="45.7859" lon="5.54256">
        <ele>573.807</ele>
        <time>2026-05-25T08:46:00Z</time>
      </trkpt>
      <trkpt lat="45.78585" lon="5.54255">
        <ele>575.107</ele>
        <time>2026-05-25T08:46:04Z</time>
      </trkpt>
      <trkpt lat="45.7858" lon="5.54253">
        <ele>575.207</ele>
        <time>2026-05-25T08:46:08Z</time>
      </trkpt>
      <trkpt lat="45.78575" lon="5.5425">
        <ele>574.506</ele>
        <time>2026-05-25T08:46:13Z</time>
      </trkpt>
      <trkpt lat="45.78571" lon="5.54249">
        <ele>573.606</ele>
        <time>2026-05-25T08:46:17Z</time>
      </trkpt>
      <trkpt lat="45.78566" lon="5.54247">
        <ele>573.006</ele>
        <time>2026-05-25T08:46:22Z</time>
      </trkpt>
      <trkpt lat="45.7856" lon="5.54245">
        <ele>572.006</ele>
        <time>2026-05-25T08:46:27Z</time>
      </trkpt>
      <trkpt lat="45.78555" lon="5.54245">
        <ele>571.306</ele>
        <time>2026-05-25T08:46:31Z</time>
      </trkpt>
      <trkpt lat="45.7855" lon="5.54245">
        <ele>571.106</ele>
        <time>2026-05-25T08:46:36Z</time>
      </trkpt>
      <trkpt lat="45.78545" lon="5.54245">
        <ele>570.406</ele>
        <time>2026-05-25T08:46:40Z</time>
      </trkpt>
      <trkpt lat="45.78541" lon="5.54249">
        <ele>569.606</ele>
        <time>2026-05-25T08:46:45Z</time>
      </trkpt>
      <trkpt lat="45.78537" lon="5.54252">
        <ele>569.306</ele>
        <time>2026-05-25T08:46:49Z</time>
      </trkpt>
      <trkpt lat="45.78532" lon="5.54255">
        <ele>569.406</ele>
        <time>2026-05-25T08:46:53Z</time>
      </trkpt>
      <trkpt lat="45.78528" lon="5.54257">
        <ele>569.506</ele>
        <time>2026-05-25T08:46:57Z</time>
      </trkpt>
      <trkpt lat="45.78523" lon="5.54259">
        <ele>570.406</ele>
        <time>2026-05-25T08:47:02Z</time>
      </trkpt>
      <trkpt lat="45.78518" lon="5.54261">
        <ele>571.206</ele>
        <time>2026-05-25T08:47:05Z</time>
      </trkpt>
      <trkpt lat="45.78514" lon="5.54263">
        <ele>572.006</ele>
        <time>2026-05-25T08:47:09Z</time>
      </trkpt>
      <trkpt lat="45.78509" lon="5.54266">
        <ele>572.506</ele>
        <time>2026-05-25T08:47:14Z</time>
      </trkpt>
      <trkpt lat="45.78505" lon="5.54269">
        <ele>573.806</ele>
        <time>2026-05-25T08:47:18Z</time>
      </trkpt>
      <trkpt lat="45.785" lon="5.54273">
        <ele>574.606</ele>
        <time>2026-05-25T08:47:23Z</time>
      </trkpt>
      <trkpt lat="45.78496" lon="5.54276">
        <ele>574.906</ele>
        <time>2026-05-25T08:47:27Z</time>
      </trkpt>
      <trkpt lat="45.78493" lon="5.54282">
        <ele>576.306</ele>
        <time>2026-05-25T08:47:32Z</time>
      </trkpt>
      <trkpt lat="45.7849" lon="5.54287">
        <ele>577.806</ele>
        <time>2026-05-25T08:47:36Z</time>
      </trkpt>
      <trkpt lat="45.78486" lon="5.54291">
        <ele>579.606</ele>
        <time>2026-05-25T08:47:41Z</time>
      </trkpt>
      <trkpt lat="45.78482" lon="5.54296">
        <ele>581.506</ele>
        <time>2026-05-25T08:47:46Z</time>
      </trkpt>
      <trkpt lat="45.78478" lon="5.54301">
        <ele>583.006</ele>
        <time>2026-05-25T08:47:51Z</time>
      </trkpt>
      <trkpt lat="45.78474" lon="5.54305">
        <ele>584.706</ele>
        <time>2026-05-25T08:47:56Z</time>
      </trkpt>
      <trkpt lat="45.7847" lon="5.54308">
        <ele>586.206</ele>
        <time>2026-05-25T08:48:00Z</time>
      </trkpt>
      <trkpt lat="45.78466" lon="5.54312">
        <ele>587.506</ele>
        <time>2026-05-25T08:48:04Z</time>
      </trkpt>
      <trkpt lat="45.78462" lon="5.54316">
        <ele>588.806</ele>
        <time>2026-05-25T08:48:08Z</time>
      </trkpt>
      <trkpt lat="45.78458" lon="5.5432">
        <ele>589.506</ele>
        <time>2026-05-25T08:48:12Z</time>
      </trkpt>
      <trkpt lat="45.78454" lon="5.54324">
        <ele>590.206</ele>
        <time>2026-05-25T08:48:17Z</time>
      </trkpt>
      <trkpt lat="45.78449" lon="5.54327">
        <ele>590.706</ele>
        <time>2026-05-25T08:48:22Z</time>
      </trkpt>
      <trkpt lat="45.78447" lon="5.54333">
        <ele>589.406</ele>
        <time>2026-05-25T08:48:38Z</time>
      </trkpt>
      <trkpt lat="45.78443" lon="5.54338">
        <ele>589.306</ele>
        <time>2026-05-25T08:48:42Z</time>
      </trkpt>
      <trkpt lat="45.7844" lon="5.54343">
        <ele>589.306</ele>
        <time>2026-05-25T08:48:47Z</time>
      </trkpt>
      <trkpt lat="45.78436" lon="5.54347">
        <ele>589.206</ele>
        <time>2026-05-25T08:48:52Z</time>
      </trkpt>
      <trkpt lat="45.78433" lon="5.54352">
        <ele>588.906</ele>
        <time>2026-05-25T08:48:57Z</time>
      </trkpt>
      <trkpt lat="45.78429" lon="5.54357">
        <ele>588.906</ele>
        <time>2026-05-25T08:49:02Z</time>
      </trkpt>
      <trkpt lat="45.78427" lon="5.54363">
        <ele>589.206</ele>
        <time>2026-05-25T08:49:07Z</time>
      </trkpt>
      <trkpt lat="45.78423" lon="5.54369">
        <ele>590.106</ele>
        <time>2026-05-25T08:49:12Z</time>
      </trkpt>
      <trkpt lat="45.78421" lon="5.54375">
        <ele>591.006</ele>
        <time>2026-05-25T08:49:17Z</time>
      </trkpt>
      <trkpt lat="45.78418" lon="5.5438">
        <ele>591.706</ele>
        <time>2026-05-25T08:49:22Z</time>
      </trkpt>
      <trkpt lat="45.78414" lon="5.54385">
        <ele>592.606</ele>
        <time>2026-05-25T08:49:29Z</time>
      </trkpt>
      <trkpt lat="45.78411" lon="5.54389">
        <ele>593.606</ele>
        <time>2026-05-25T08:49:34Z</time>
      </trkpt>
      <trkpt lat="45.78409" lon="5.54395">
        <ele>594.706</ele>
        <time>2026-05-25T08:49:40Z</time>
      </trkpt>
      <trkpt lat="45.78407" lon="5.54402">
        <ele>595.706</ele>
        <time>2026-05-25T08:49:46Z</time>
      </trkpt>
      <trkpt lat="45.78405" lon="5.54408">
        <ele>596.606</ele>
        <time>2026-05-25T08:49:53Z</time>
      </trkpt>
      <trkpt lat="45.78404" lon="5.54414">
        <ele>597.706</ele>
        <time>2026-05-25T08:49:59Z</time>
      </trkpt>
      <trkpt lat="45.78401" lon="5.54421">
        <ele>598.706</ele>
        <time>2026-05-25T08:50:06Z</time>
      </trkpt>
      <trkpt lat="45.78401" lon="5.54428">
        <ele>599.106</ele>
        <time>2026-05-25T08:50:13Z</time>
      </trkpt>
      <trkpt lat="45.784" lon="5.54435">
        <ele>599.606</ele>
        <time>2026-05-25T08:50:19Z</time>
      </trkpt>
      <trkpt lat="45.78398" lon="5.54442">
        <ele>600.506</ele>
        <time>2026-05-25T08:50:25Z</time>
      </trkpt>
      <trkpt lat="45.78395" lon="5.54447">
        <ele>601.706</ele>
        <time>2026-05-25T08:50:32Z</time>
      </trkpt>
      <trkpt lat="45.78393" lon="5.54453">
        <ele>602.406</ele>
        <time>2026-05-25T08:50:38Z</time>
      </trkpt>
      <trkpt lat="45.78392" lon="5.5446">
        <ele>603.206</ele>
        <time>2026-05-25T08:50:44Z</time>
      </trkpt>
      <trkpt lat="45.7839" lon="5.54466">
        <ele>603.906</ele>
        <time>2026-05-25T08:50:49Z</time>
      </trkpt>
      <trkpt lat="45.78388" lon="5.54472">
        <ele>604.606</ele>
        <time>2026-05-25T08:50:55Z</time>
      </trkpt>
      <trkpt lat="45.78386" lon="5.54478">
        <ele>605.506</ele>
        <time>2026-05-25T08:51:01Z</time>
      </trkpt>
      <trkpt lat="45.78386" lon="5.54485">
        <ele>606.306</ele>
        <time>2026-05-25T08:51:07Z</time>
      </trkpt>
      <trkpt lat="45.78385" lon="5.54491">
        <ele>607.106</ele>
        <time>2026-05-25T08:51:12Z</time>
      </trkpt>
      <trkpt lat="45.78383" lon="5.54498">
        <ele>608.006</ele>
        <time>2026-05-25T08:51:17Z</time>
      </trkpt>
      <trkpt lat="45.78382" lon="5.54505">
        <ele>609.006</ele>
        <time>2026-05-25T08:51:23Z</time>
      </trkpt>
      <trkpt lat="45.78382" lon="5.54512">
        <ele>609.806</ele>
        <time>2026-05-25T08:51:29Z</time>
      </trkpt>
      <trkpt lat="45.78382" lon="5.5452">
        <ele>610.706</ele>
        <time>2026-05-25T08:51:35Z</time>
      </trkpt>
      <trkpt lat="45.78382" lon="5.54526">
        <ele>611.606</ele>
        <time>2026-05-25T08:51:41Z</time>
      </trkpt>
      <trkpt lat="45.78379" lon="5.54532">
        <ele>612.706</ele>
        <time>2026-05-25T08:51:48Z</time>
      </trkpt>
      <trkpt lat="45.7838" lon="5.54538">
        <ele>613.006</ele>
        <time>2026-05-25T08:51:53Z</time>
      </trkpt>
      <trkpt lat="45.7838" lon="5.54545">
        <ele>613.406</ele>
        <time>2026-05-25T08:51:59Z</time>
      </trkpt>
      <trkpt lat="45.78379" lon="5.54552">
        <ele>613.806</ele>
        <time>2026-05-25T08:52:07Z</time>
      </trkpt>
      <trkpt lat="45.78378" lon="5.54557">
        <ele>614.406</ele>
        <time>2026-05-25T08:52:28Z</time>
      </trkpt>
      <trkpt lat="45.78376" lon="5.5455">
        <ele>615.606</ele>
        <time>2026-05-25T08:52:32Z</time>
      </trkpt>
      <trkpt lat="45.78372" lon="5.54547">
        <ele>616.006</ele>
        <time>2026-05-25T08:52:37Z</time>
      </trkpt>
      <trkpt lat="45.78368" lon="5.54552">
        <ele>616.606</ele>
        <time>2026-05-25T08:52:42Z</time>
      </trkpt>
      <trkpt lat="45.78366" lon="5.54558">
        <ele>617.006</ele>
        <time>2026-05-25T08:52:46Z</time>
      </trkpt>
      <trkpt lat="45.78362" lon="5.54564">
        <ele>617.106</ele>
        <time>2026-05-25T08:52:50Z</time>
      </trkpt>
      <trkpt lat="45.78359" lon="5.54569">
        <ele>616.706</ele>
        <time>2026-05-25T08:52:55Z</time>
      </trkpt>
      <trkpt lat="45.78355" lon="5.54573">
        <ele>616.306</ele>
        <time>2026-05-25T08:53:00Z</time>
      </trkpt>
      <trkpt lat="45.7835" lon="5.54574">
        <ele>615.906</ele>
        <time>2026-05-25T08:53:04Z</time>
      </trkpt>
      <trkpt lat="45.78345" lon="5.54575">
        <ele>615.006</ele>
        <time>2026-05-25T08:53:10Z</time>
      </trkpt>
      <trkpt lat="45.7834" lon="5.54577">
        <ele>613.706</ele>
        <time>2026-05-25T08:53:16Z</time>
      </trkpt>
      <trkpt lat="45.78335" lon="5.54576">
        <ele>612.006</ele>
        <time>2026-05-25T08:53:22Z</time>
      </trkpt>
      <trkpt lat="45.7833" lon="5.54576">
        <ele>610.806</ele>
        <time>2026-05-25T08:53:28Z</time>
      </trkpt>
      <trkpt lat="45.78326" lon="5.54573">
        <ele>608.706</ele>
        <time>2026-05-25T08:53:33Z</time>
      </trkpt>
      <trkpt lat="45.78323" lon="5.54568">
        <ele>607.206</ele>
        <time>2026-05-25T08:53:37Z</time>
      </trkpt>
      <trkpt lat="45.78319" lon="5.54563">
        <ele>606.406</ele>
        <time>2026-05-25T08:53:41Z</time>
      </trkpt>
      <trkpt lat="45.78315" lon="5.54557">
        <ele>606.106</ele>
        <time>2026-05-25T08:53:45Z</time>
      </trkpt>
      <trkpt lat="45.78311" lon="5.54552">
        <ele>605.606</ele>
        <time>2026-05-25T08:53:49Z</time>
      </trkpt>
      <trkpt lat="45.78308" lon="5.54547">
        <ele>604.806</ele>
        <time>2026-05-25T08:53:53Z</time>
      </trkpt>
      <trkpt lat="45.78305" lon="5.54542">
        <ele>604.606</ele>
        <time>2026-05-25T08:53:57Z</time>
      </trkpt>
      <trkpt lat="45.78301" lon="5.54537">
        <ele>604.806</ele>
        <time>2026-05-25T08:54:01Z</time>
      </trkpt>
      <trkpt lat="45.78297" lon="5.54531">
        <ele>603.806</ele>
        <time>2026-05-25T08:54:07Z</time>
      </trkpt>
      <trkpt lat="45.78293" lon="5.54527">
        <ele>602.406</ele>
        <time>2026-05-25T08:54:11Z</time>
      </trkpt>
      <trkpt lat="45.7829" lon="5.54523">
        <ele>601.906</ele>
        <time>2026-05-25T08:54:15Z</time>
      </trkpt>
      <trkpt lat="45.78287" lon="5.54518">
        <ele>602.206</ele>
        <time>2026-05-25T08:54:19Z</time>
      </trkpt>
      <trkpt lat="45.78283" lon="5.54512">
        <ele>602.306</ele>
        <time>2026-05-25T08:54:23Z</time>
      </trkpt>
      <trkpt lat="45.78279" lon="5.54508">
        <ele>602.106</ele>
        <time>2026-05-25T08:54:29Z</time>
      </trkpt>
      <trkpt lat="45.78274" lon="5.54505">
        <ele>602.306</ele>
        <time>2026-05-25T08:54:33Z</time>
      </trkpt>
      <trkpt lat="45.78269" lon="5.54504">
        <ele>602.606</ele>
        <time>2026-05-25T08:54:36Z</time>
      </trkpt>
      <trkpt lat="45.78265" lon="5.54504">
        <ele>603.206</ele>
        <time>2026-05-25T08:54:42Z</time>
      </trkpt>
      <trkpt lat="45.7826" lon="5.54504">
        <ele>602.706</ele>
        <time>2026-05-25T08:54:46Z</time>
      </trkpt>
      <trkpt lat="45.78255" lon="5.54505">
        <ele>602.106</ele>
        <time>2026-05-25T08:54:51Z</time>
      </trkpt>
      <trkpt lat="45.78249" lon="5.54506">
        <ele>601.406</ele>
        <time>2026-05-25T08:54:56Z</time>
      </trkpt>
      <trkpt lat="45.78244" lon="5.54508">
        <ele>601.006</ele>
        <time>2026-05-25T08:55:00Z</time>
      </trkpt>
      <trkpt lat="45.78239" lon="5.54511">
        <ele>600.106</ele>
        <time>2026-05-25T08:55:05Z</time>
      </trkpt>
      <trkpt lat="45.78234" lon="5.54513">
        <ele>599.506</ele>
        <time>2026-05-25T08:55:09Z</time>
      </trkpt>
      <trkpt lat="45.78229" lon="5.54515">
        <ele>599.106</ele>
        <time>2026-05-25T08:55:13Z</time>
      </trkpt>
      <trkpt lat="45.78224" lon="5.54517">
        <ele>598.606</ele>
        <time>2026-05-25T08:55:17Z</time>
      </trkpt>
      <trkpt lat="45.7822" lon="5.54519">
        <ele>598.106</ele>
        <time>2026-05-25T08:55:21Z</time>
      </trkpt>
      <trkpt lat="45.78215" lon="5.54522">
        <ele>598.306</ele>
        <time>2026-05-25T08:55:25Z</time>
      </trkpt>
      <trkpt lat="45.78211" lon="5.54525">
        <ele>597.806</ele>
        <time>2026-05-25T08:55:29Z</time>
      </trkpt>
      <trkpt lat="45.78206" lon="5.54527">
        <ele>596.906</ele>
        <time>2026-05-25T08:55:33Z</time>
      </trkpt>
      <trkpt lat="45.78202" lon="5.5453">
        <ele>595.806</ele>
        <time>2026-05-25T08:55:37Z</time>
      </trkpt>
      <trkpt lat="45.78197" lon="5.54532">
        <ele>594.606</ele>
        <time>2026-05-25T08:55:42Z</time>
      </trkpt>
      <trkpt lat="45.78192" lon="5.54535">
        <ele>594.106</ele>
        <time>2026-05-25T08:55:46Z</time>
      </trkpt>
      <trkpt lat="45.78188" lon="5.54538">
        <ele>593.806</ele>
        <time>2026-05-25T08:55:50Z</time>
      </trkpt>
      <trkpt lat="45.78183" lon="5.5454">
        <ele>593.706</ele>
        <time>2026-05-25T08:55:55Z</time>
      </trkpt>
      <trkpt lat="45.78179" lon="5.54543">
        <ele>593.206</ele>
        <time>2026-05-25T08:55:59Z</time>
      </trkpt>
      <trkpt lat="45.78174" lon="5.54546">
        <ele>592.906</ele>
        <time>2026-05-25T08:56:03Z</time>
      </trkpt>
      <trkpt lat="45.78169" lon="5.54548">
        <ele>592.406</ele>
        <time>2026-05-25T08:56:07Z</time>
      </trkpt>
      <trkpt lat="45.78165" lon="5.54551">
        <ele>591.906</ele>
        <time>2026-05-25T08:56:11Z</time>
      </trkpt>
      <trkpt lat="45.7816" lon="5.54554">
        <ele>591.306</ele>
        <time>2026-05-25T08:56:15Z</time>
      </trkpt>
      <trkpt lat="45.78156" lon="5.54556">
        <ele>590.806</ele>
        <time>2026-05-25T08:56:19Z</time>
      </trkpt>
      <trkpt lat="45.78152" lon="5.54558">
        <ele>590.506</ele>
        <time>2026-05-25T08:56:23Z</time>
      </trkpt>
      <trkpt lat="45.78147" lon="5.54561">
        <ele>589.706</ele>
        <time>2026-05-25T08:56:27Z</time>
      </trkpt>
      <trkpt lat="45.78143" lon="5.54564">
        <ele>589.206</ele>
        <time>2026-05-25T08:56:31Z</time>
      </trkpt>
      <trkpt lat="45.78138" lon="5.54566">
        <ele>588.706</ele>
        <time>2026-05-25T08:56:35Z</time>
      </trkpt>
      <trkpt lat="45.78134" lon="5.54569">
        <ele>587.806</ele>
        <time>2026-05-25T08:56:39Z</time>
      </trkpt>
      <trkpt lat="45.78129" lon="5.54572">
        <ele>587.406</ele>
        <time>2026-05-25T08:56:43Z</time>
      </trkpt>
      <trkpt lat="45.78124" lon="5.54575">
        <ele>587.506</ele>
        <time>2026-05-25T08:56:47Z</time>
      </trkpt>
      <trkpt lat="45.7812" lon="5.54578">
        <ele>587.506</ele>
        <time>2026-05-25T08:56:51Z</time>
      </trkpt>
      <trkpt lat="45.78115" lon="5.5458">
        <ele>587.306</ele>
        <time>2026-05-25T08:56:55Z</time>
      </trkpt>
      <trkpt lat="45.7811" lon="5.54583">
        <ele>586.706</ele>
        <time>2026-05-25T08:57:00Z</time>
      </trkpt>
      <trkpt lat="45.78106" lon="5.54586">
        <ele>586.206</ele>
        <time>2026-05-25T08:57:04Z</time>
      </trkpt>
      <trkpt lat="45.78101" lon="5.54587">
        <ele>585.406</ele>
        <time>2026-05-25T08:57:08Z</time>
      </trkpt>
      <trkpt lat="45.78097" lon="5.5459">
        <ele>584.606</ele>
        <time>2026-05-25T08:57:12Z</time>
      </trkpt>
      <trkpt lat="45.78094" lon="5.54594">
        <ele>583.706</ele>
        <time>2026-05-25T08:57:16Z</time>
      </trkpt>
      <trkpt lat="45.7809" lon="5.54597">
        <ele>583.206</ele>
        <time>2026-05-25T08:57:20Z</time>
      </trkpt>
      <trkpt lat="45.78085" lon="5.546">
        <ele>582.406</ele>
        <time>2026-05-25T08:57:24Z</time>
      </trkpt>
      <trkpt lat="45.78082" lon="5.54603">
        <ele>580.906</ele>
        <time>2026-05-25T08:57:28Z</time>
      </trkpt>
      <trkpt lat="45.78078" lon="5.54607">
        <ele>580.306</ele>
        <time>2026-05-25T08:57:32Z</time>
      </trkpt>
      <trkpt lat="45.78073" lon="5.54611">
        <ele>581.006</ele>
        <time>2026-05-25T08:57:36Z</time>
      </trkpt>
      <trkpt lat="45.78068" lon="5.54614">
        <ele>581.606</ele>
        <time>2026-05-25T08:57:40Z</time>
      </trkpt>
      <trkpt lat="45.78064" lon="5.54617">
        <ele>582.006</ele>
        <time>2026-05-25T08:57:44Z</time>
      </trkpt>
      <trkpt lat="45.7806" lon="5.54621">
        <ele>582.606</ele>
        <time>2026-05-25T08:57:48Z</time>
      </trkpt>
      <trkpt lat="45.78058" lon="5.54625">
        <ele>584.006</ele>
        <time>2026-05-25T08:58:09Z</time>
      </trkpt>
      <trkpt lat="45.78054" lon="5.54631">
        <ele>585.006</ele>
        <time>2026-05-25T08:58:12Z</time>
      </trkpt>
      <trkpt lat="45.7805" lon="5.54636">
        <ele>585.206</ele>
        <time>2026-05-25T08:58:17Z</time>
      </trkpt>
      <trkpt lat="45.78046" lon="5.54641">
        <ele>585.006</ele>
        <time>2026-05-25T08:58:21Z</time>
      </trkpt>
      <trkpt lat="45.78042" lon="5.54646">
        <ele>584.406</ele>
        <time>2026-05-25T08:58:26Z</time>
      </trkpt>
      <trkpt lat="45.78039" lon="5.54651">
        <ele>584.206</ele>
        <time>2026-05-25T08:58:31Z</time>
      </trkpt>
      <trkpt lat="45.78036" lon="5.54659">
        <ele>584.406</ele>
        <time>2026-05-25T08:58:35Z</time>
      </trkpt>
      <trkpt lat="45.78033" lon="5.54665">
        <ele>584.106</ele>
        <time>2026-05-25T08:58:39Z</time>
      </trkpt>
      <trkpt lat="45.78031" lon="5.54671">
        <ele>583.906</ele>
        <time>2026-05-25T08:58:44Z</time>
      </trkpt>
      <trkpt lat="45.78029" lon="5.54678">
        <ele>583.906</ele>
        <time>2026-05-25T08:58:48Z</time>
      </trkpt>
      <trkpt lat="45.78026" lon="5.54684">
        <ele>583.406</ele>
        <time>2026-05-25T08:58:52Z</time>
      </trkpt>
      <trkpt lat="45.78023" lon="5.5469">
        <ele>582.406</ele>
        <time>2026-05-25T08:58:57Z</time>
      </trkpt>
      <trkpt lat="45.7802" lon="5.54697">
        <ele>582.206</ele>
        <time>2026-05-25T08:59:01Z</time>
      </trkpt>
      <trkpt lat="45.78019" lon="5.54704">
        <ele>581.306</ele>
        <time>2026-05-25T08:59:05Z</time>
      </trkpt>
      <trkpt lat="45.78017" lon="5.54711">
        <ele>580.806</ele>
        <time>2026-05-25T08:59:09Z</time>
      </trkpt>
      <trkpt lat="45.78015" lon="5.54717">
        <ele>580.706</ele>
        <time>2026-05-25T08:59:13Z</time>
      </trkpt>
      <trkpt lat="45.78013" lon="5.54724">
        <ele>581.606</ele>
        <time>2026-05-25T08:59:17Z</time>
      </trkpt>
      <trkpt lat="45.78011" lon="5.54732">
        <ele>582.006</ele>
        <time>2026-05-25T08:59:22Z</time>
      </trkpt>
      <trkpt lat="45.7801" lon="5.54738">
        <ele>582.306</ele>
        <time>2026-05-25T08:59:26Z</time>
      </trkpt>
      <trkpt lat="45.78008" lon="5.54745">
        <ele>582.406</ele>
        <time>2026-05-25T08:59:30Z</time>
      </trkpt>
      <trkpt lat="45.78005" lon="5.54752">
        <ele>582.506</ele>
        <time>2026-05-25T08:59:34Z</time>
      </trkpt>
      <trkpt lat="45.78003" lon="5.54759">
        <ele>582.706</ele>
        <time>2026-05-25T08:59:38Z</time>
      </trkpt>
      <trkpt lat="45.78" lon="5.54765">
        <ele>582.306</ele>
        <time>2026-05-25T08:59:42Z</time>
      </trkpt>
      <trkpt lat="45.77998" lon="5.54772">
        <ele>581.606</ele>
        <time>2026-05-25T08:59:46Z</time>
      </trkpt>
      <trkpt lat="45.77996" lon="5.5478">
        <ele>581.206</ele>
        <time>2026-05-25T08:59:50Z</time>
      </trkpt>
      <trkpt lat="45.77994" lon="5.54786">
        <ele>581.106</ele>
        <time>2026-05-25T08:59:54Z</time>
      </trkpt>
      <trkpt lat="45.77992" lon="5.54792">
        <ele>581.306</ele>
        <time>2026-05-25T08:59:58Z</time>
      </trkpt>
      <trkpt lat="45.7799" lon="5.54798">
        <ele>581.006</ele>
        <time>2026-05-25T09:00:02Z</time>
      </trkpt>
      <trkpt lat="45.77988" lon="5.54805">
        <ele>580.906</ele>
        <time>2026-05-25T09:00:06Z</time>
      </trkpt>
      <trkpt lat="45.77985" lon="5.54812">
        <ele>581.206</ele>
        <time>2026-05-25T09:00:10Z</time>
      </trkpt>
      <trkpt lat="45.77983" lon="5.54819">
        <ele>582.006</ele>
        <time>2026-05-25T09:00:14Z</time>
      </trkpt>
      <trkpt lat="45.7798" lon="5.54825">
        <ele>582.106</ele>
        <time>2026-05-25T09:00:18Z</time>
      </trkpt>
      <trkpt lat="45.77977" lon="5.5483">
        <ele>581.906</ele>
        <time>2026-05-25T09:00:22Z</time>
      </trkpt>
      <trkpt lat="45.77974" lon="5.54837">
        <ele>581.606</ele>
        <time>2026-05-25T09:00:26Z</time>
      </trkpt>
      <trkpt lat="45.77971" lon="5.54843">
        <ele>580.906</ele>
        <time>2026-05-25T09:00:30Z</time>
      </trkpt>
      <trkpt lat="45.77968" lon="5.54849">
        <ele>580.506</ele>
        <time>2026-05-25T09:00:34Z</time>
      </trkpt>
      <trkpt lat="45.77966" lon="5.54855">
        <ele>579.606</ele>
        <time>2026-05-25T09:00:39Z</time>
      </trkpt>
      <trkpt lat="45.77966" lon="5.54858">
        <ele>577.506</ele>
        <time>2026-05-25T09:00:59Z</time>
      </trkpt>
      <trkpt lat="45.77966" lon="5.54858">
        <ele>577.506</ele>
        <time>2026-05-25T09:01:20Z</time>
      </trkpt>
      <trkpt lat="45.77966" lon="5.54858">
        <ele>577.506</ele>
        <time>2026-05-25T09:01:41Z</time>
      </trkpt>
      <trkpt lat="45.77966" lon="5.54858">
        <ele>577.506</ele>
        <time>2026-05-25T09:02:02Z</time>
      </trkpt>
      <trkpt lat="45.77966" lon="5.54858">
        <ele>577.506</ele>
        <time>2026-05-25T09:02:22Z</time>
      </trkpt>
      <trkpt lat="45.77961" lon="5.54858">
        <ele>579.806</ele>
        <time>2026-05-25T09:02:34Z</time>
      </trkpt>
      <trkpt lat="45.77956" lon="5.54861">
        <ele>579.306</ele>
        <time>2026-05-25T09:02:39Z</time>
      </trkpt>
      <trkpt lat="45.77951" lon="5.54865">
        <ele>579.606</ele>
        <time>2026-05-25T09:02:44Z</time>
      </trkpt>
      <trkpt lat="45.77946" lon="5.54866">
        <ele>579.806</ele>
        <time>2026-05-25T09:02:49Z</time>
      </trkpt>
      <trkpt lat="45.77941" lon="5.5487">
        <ele>580.306</ele>
        <time>2026-05-25T09:02:53Z</time>
      </trkpt>
      <trkpt lat="45.77936" lon="5.54872">
        <ele>580.306</ele>
        <time>2026-05-25T09:02:57Z</time>
      </trkpt>
      <trkpt lat="45.77932" lon="5.54875">
        <ele>579.606</ele>
        <time>2026-05-25T09:03:02Z</time>
      </trkpt>
      <trkpt lat="45.77927" lon="5.54875">
        <ele>579.306</ele>
        <time>2026-05-25T09:03:06Z</time>
      </trkpt>
      <trkpt lat="45.77923" lon="5.54871">
        <ele>578.306</ele>
        <time>2026-05-25T09:03:11Z</time>
      </trkpt>
      <trkpt lat="45.77922" lon="5.54863">
        <ele>578.106</ele>
        <time>2026-05-25T09:03:15Z</time>
      </trkpt>
      <trkpt lat="45.77919" lon="5.54857">
        <ele>577.506</ele>
        <time>2026-05-25T09:03:20Z</time>
      </trkpt>
      <trkpt lat="45.77915" lon="5.54851">
        <ele>577.406</ele>
        <time>2026-05-25T09:03:24Z</time>
      </trkpt>
      <trkpt lat="45.77912" lon="5.54846">
        <ele>576.906</ele>
        <time>2026-05-25T09:03:28Z</time>
      </trkpt>
      <trkpt lat="45.77908" lon="5.54842">
        <ele>576.506</ele>
        <time>2026-05-25T09:03:33Z</time>
      </trkpt>
      <trkpt lat="45.77905" lon="5.54835">
        <ele>576.706</ele>
        <time>2026-05-25T09:03:38Z</time>
      </trkpt>
      <trkpt lat="45.77901" lon="5.5483">
        <ele>576.406</ele>
        <time>2026-05-25T09:03:42Z</time>
      </trkpt>
      <trkpt lat="45.77899" lon="5.54824">
        <ele>576.106</ele>
        <time>2026-05-25T09:03:46Z</time>
      </trkpt>
      <trkpt lat="45.77896" lon="5.54817">
        <ele>575.106</ele>
        <time>2026-05-25T09:03:51Z</time>
      </trkpt>
      <trkpt lat="45.77893" lon="5.54811">
        <ele>574.506</ele>
        <time>2026-05-25T09:03:55Z</time>
      </trkpt>
      <trkpt lat="45.77891" lon="5.54805">
        <ele>573.806</ele>
        <time>2026-05-25T09:03:59Z</time>
      </trkpt>
      <trkpt lat="45.77888" lon="5.54799">
        <ele>573.306</ele>
        <time>2026-05-25T09:04:03Z</time>
      </trkpt>
      <trkpt lat="45.77886" lon="5.54793">
        <ele>572.306</ele>
        <time>2026-05-25T09:04:07Z</time>
      </trkpt>
      <trkpt lat="45.77883" lon="5.54787">
        <ele>571.606</ele>
        <time>2026-05-25T09:04:11Z</time>
      </trkpt>
      <trkpt lat="45.77881" lon="5.54781">
        <ele>572.106</ele>
        <time>2026-05-25T09:04:15Z</time>
      </trkpt>
      <trkpt lat="45.77879" lon="5.54774">
        <ele>571.706</ele>
        <time>2026-05-25T09:04:19Z</time>
      </trkpt>
      <trkpt lat="45.77877" lon="5.54768">
        <ele>570.606</ele>
        <time>2026-05-25T09:04:23Z</time>
      </trkpt>
      <trkpt lat="45.77876" lon="5.54762">
        <ele>568.906</ele>
        <time>2026-05-25T09:04:27Z</time>
      </trkpt>
      <trkpt lat="45.77875" lon="5.54756">
        <ele>566.805</ele>
        <time>2026-05-25T09:04:31Z</time>
      </trkpt>
      <trkpt lat="45.77872" lon="5.5475">
        <ele>565.705</ele>
        <time>2026-05-25T09:04:35Z</time>
      </trkpt>
      <trkpt lat="45.77871" lon="5.54743">
        <ele>566.205</ele>
        <time>2026-05-25T09:04:40Z</time>
      </trkpt>
      <trkpt lat="45.77869" lon="5.54736">
        <ele>566.805</ele>
        <time>2026-05-25T09:04:44Z</time>
      </trkpt>
      <trkpt lat="45.77868" lon="5.54729">
        <ele>566.305</ele>
        <time>2026-05-25T09:04:48Z</time>
      </trkpt>
      <trkpt lat="45.77867" lon="5.54722">
        <ele>565.205</ele>
        <time>2026-05-25T09:04:52Z</time>
      </trkpt>
      <trkpt lat="45.77867" lon="5.54716">
        <ele>564.205</ele>
        <time>2026-05-25T09:04:56Z</time>
      </trkpt>
      <trkpt lat="45.77868" lon="5.54709">
        <ele>563.305</ele>
        <time>2026-05-25T09:05:00Z</time>
      </trkpt>
      <trkpt lat="45.77869" lon="5.54702">
        <ele>563.305</ele>
        <time>2026-05-25T09:05:04Z</time>
      </trkpt>
      <trkpt lat="45.77871" lon="5.54696">
        <ele>563.305</ele>
        <time>2026-05-25T09:05:08Z</time>
      </trkpt>
      <trkpt lat="45.77873" lon="5.5469">
        <ele>562.705</ele>
        <time>2026-05-25T09:05:12Z</time>
      </trkpt>
      <trkpt lat="45.77875" lon="5.54684">
        <ele>562.505</ele>
        <time>2026-05-25T09:05:17Z</time>
      </trkpt>
      <trkpt lat="45.77876" lon="5.54678">
        <ele>561.505</ele>
        <time>2026-05-25T09:05:21Z</time>
      </trkpt>
      <trkpt lat="45.77876" lon="5.5467">
        <ele>561.605</ele>
        <time>2026-05-25T09:05:26Z</time>
      </trkpt>
      <trkpt lat="45.77875" lon="5.54664">
        <ele>561.605</ele>
        <time>2026-05-25T09:05:30Z</time>
      </trkpt>
      <trkpt lat="45.77876" lon="5.54658">
        <ele>562.005</ele>
        <time>2026-05-25T09:05:33Z</time>
      </trkpt>
      <trkpt lat="45.77876" lon="5.5465">
        <ele>562.305</ele>
        <time>2026-05-25T09:05:36Z</time>
      </trkpt>
      <trkpt lat="45.77876" lon="5.54643">
        <ele>563.605</ele>
        <time>2026-05-25T09:05:40Z</time>
      </trkpt>
      <trkpt lat="45.77878" lon="5.54636">
        <ele>565.105</ele>
        <time>2026-05-25T09:05:44Z</time>
      </trkpt>
      <trkpt lat="45.7788" lon="5.54629">
        <ele>565.705</ele>
        <time>2026-05-25T09:05:48Z</time>
      </trkpt>
      <trkpt lat="45.77882" lon="5.54622">
        <ele>565.805</ele>
        <time>2026-05-25T09:05:52Z</time>
      </trkpt>
      <trkpt lat="45.77883" lon="5.54615">
        <ele>565.305</ele>
        <time>2026-05-25T09:05:56Z</time>
      </trkpt>
      <trkpt lat="45.77884" lon="5.54608">
        <ele>564.805</ele>
        <time>2026-05-25T09:06:00Z</time>
      </trkpt>
      <trkpt lat="45.77885" lon="5.54601">
        <ele>564.305</ele>
        <time>2026-05-25T09:06:04Z</time>
      </trkpt>
      <trkpt lat="45.77886" lon="5.54595">
        <ele>563.705</ele>
        <time>2026-05-25T09:06:08Z</time>
      </trkpt>
      <trkpt lat="45.77887" lon="5.54588">
        <ele>563.105</ele>
        <time>2026-05-25T09:06:13Z</time>
      </trkpt>
      <trkpt lat="45.77889" lon="5.54581">
        <ele>562.205</ele>
        <time>2026-05-25T09:06:18Z</time>
      </trkpt>
      <trkpt lat="45.77891" lon="5.54575">
        <ele>561.505</ele>
        <time>2026-05-25T09:06:22Z</time>
      </trkpt>
      <trkpt lat="45.77894" lon="5.5457">
        <ele>560.505</ele>
        <time>2026-05-25T09:06:26Z</time>
      </trkpt>
      <trkpt lat="45.77897" lon="5.54563">
        <ele>560.105</ele>
        <time>2026-05-25T09:06:30Z</time>
      </trkpt>
      <trkpt lat="45.77901" lon="5.54557">
        <ele>559.705</ele>
        <time>2026-05-25T09:06:35Z</time>
      </trkpt>
      <trkpt lat="45.77903" lon="5.54552">
        <ele>559.905</ele>
        <time>2026-05-25T09:06:39Z</time>
      </trkpt>
      <trkpt lat="45.77906" lon="5.54545">
        <ele>559.305</ele>
        <time>2026-05-25T09:06:43Z</time>
      </trkpt>
      <trkpt lat="45.77907" lon="5.54537">
        <ele>558.505</ele>
        <time>2026-05-25T09:06:47Z</time>
      </trkpt>
      <trkpt lat="45.77908" lon="5.5453">
        <ele>557.405</ele>
        <time>2026-05-25T09:06:51Z</time>
      </trkpt>
      <trkpt lat="45.77911" lon="5.54524">
        <ele>557.505</ele>
        <time>2026-05-25T09:06:55Z</time>
      </trkpt>
      <trkpt lat="45.77913" lon="5.54517">
        <ele>558.205</ele>
        <time>2026-05-25T09:06:59Z</time>
      </trkpt>
      <trkpt lat="45.77915" lon="5.54511">
        <ele>558.105</ele>
        <time>2026-05-25T09:07:03Z</time>
      </trkpt>
      <trkpt lat="45.77917" lon="5.54504">
        <ele>558.405</ele>
        <time>2026-05-25T09:07:07Z</time>
      </trkpt>
      <trkpt lat="45.77919" lon="5.54498">
        <ele>558.505</ele>
        <time>2026-05-25T09:07:11Z</time>
      </trkpt>
      <trkpt lat="45.77922" lon="5.54491">
        <ele>558.405</ele>
        <time>2026-05-25T09:07:15Z</time>
      </trkpt>
      <trkpt lat="45.77924" lon="5.54484">
        <ele>558.005</ele>
        <time>2026-05-25T09:07:19Z</time>
      </trkpt>
      <trkpt lat="45.77927" lon="5.54476">
        <ele>557.505</ele>
        <time>2026-05-25T09:07:23Z</time>
      </trkpt>
      <trkpt lat="45.77929" lon="5.54469">
        <ele>557.005</ele>
        <time>2026-05-25T09:07:27Z</time>
      </trkpt>
      <trkpt lat="45.77931" lon="5.54463">
        <ele>556.505</ele>
        <time>2026-05-25T09:07:31Z</time>
      </trkpt>
      <trkpt lat="45.77934" lon="5.54457">
        <ele>555.805</ele>
        <time>2026-05-25T09:07:35Z</time>
      </trkpt>
      <trkpt lat="45.77937" lon="5.5445">
        <ele>555.505</ele>
        <time>2026-05-25T09:07:39Z</time>
      </trkpt>
      <trkpt lat="45.7794" lon="5.54444">
        <ele>555.805</ele>
        <time>2026-05-25T09:07:43Z</time>
      </trkpt>
      <trkpt lat="45.77942" lon="5.54438">
        <ele>556.005</ele>
        <time>2026-05-25T09:07:47Z</time>
      </trkpt>
      <trkpt lat="45.77945" lon="5.54431">
        <ele>556.105</ele>
        <time>2026-05-25T09:07:51Z</time>
      </trkpt>
      <trkpt lat="45.77948" lon="5.54426">
        <ele>556.105</ele>
        <time>2026-05-25T09:07:55Z</time>
      </trkpt>
      <trkpt lat="45.7795" lon="5.54419">
        <ele>555.905</ele>
        <time>2026-05-25T09:08:00Z</time>
      </trkpt>
      <trkpt lat="45.77955" lon="5.54414">
        <ele>555.605</ele>
        <time>2026-05-25T09:08:05Z</time>
      </trkpt>
      <trkpt lat="45.77958" lon="5.54409">
        <ele>554.805</ele>
        <time>2026-05-25T09:08:08Z</time>
      </trkpt>
      <trkpt lat="45.77961" lon="5.54403">
        <ele>553.605</ele>
        <time>2026-05-25T09:08:12Z</time>
      </trkpt>
      <trkpt lat="45.77965" lon="5.54398">
        <ele>552.705</ele>
        <time>2026-05-25T09:08:16Z</time>
      </trkpt>
      <trkpt lat="45.77967" lon="5.54392">
        <ele>552.005</ele>
        <time>2026-05-25T09:08:20Z</time>
      </trkpt>
      <trkpt lat="45.77969" lon="5.54385">
        <ele>551.405</ele>
        <time>2026-05-25T09:08:24Z</time>
      </trkpt>
      <trkpt lat="45.77971" lon="5.54379">
        <ele>550.605</ele>
        <time>2026-05-25T09:08:28Z</time>
      </trkpt>
      <trkpt lat="45.77973" lon="5.54372">
        <ele>549.505</ele>
        <time>2026-05-25T09:08:32Z</time>
      </trkpt>
      <trkpt lat="45.77974" lon="5.54365">
        <ele>547.605</ele>
        <time>2026-05-25T09:08:36Z</time>
      </trkpt>
      <trkpt lat="45.77975" lon="5.54359">
        <ele>545.705</ele>
        <time>2026-05-25T09:08:39Z</time>
      </trkpt>
      <trkpt lat="45.77977" lon="5.54351">
        <ele>543.705</ele>
        <time>2026-05-25T09:08:43Z</time>
      </trkpt>
      <trkpt lat="45.77978" lon="5.54344">
        <ele>542.405</ele>
        <time>2026-05-25T09:08:47Z</time>
      </trkpt>
      <trkpt lat="45.77979" lon="5.54336">
        <ele>542.205</ele>
        <time>2026-05-25T09:08:51Z</time>
      </trkpt>
      <trkpt lat="45.77981" lon="5.5433">
        <ele>542.405</ele>
        <time>2026-05-25T09:08:55Z</time>
      </trkpt>
      <trkpt lat="45.77983" lon="5.54324">
        <ele>541.805</ele>
        <time>2026-05-25T09:08:59Z</time>
      </trkpt>
      <trkpt lat="45.77985" lon="5.54316">
        <ele>540.805</ele>
        <time>2026-05-25T09:09:03Z</time>
      </trkpt>
      <trkpt lat="45.77986" lon="5.54308">
        <ele>539.905</ele>
        <time>2026-05-25T09:09:07Z</time>
      </trkpt>
      <trkpt lat="45.77987" lon="5.54301">
        <ele>539.505</ele>
        <time>2026-05-25T09:09:11Z</time>
      </trkpt>
      <trkpt lat="45.77989" lon="5.54293">
        <ele>538.605</ele>
        <time>2026-05-25T09:09:16Z</time>
      </trkpt>
      <trkpt lat="45.77991" lon="5.54287">
        <ele>538.105</ele>
        <time>2026-05-25T09:09:20Z</time>
      </trkpt>
      <trkpt lat="45.77993" lon="5.54279">
        <ele>537.305</ele>
        <time>2026-05-25T09:09:25Z</time>
      </trkpt>
      <trkpt lat="45.77994" lon="5.54273">
        <ele>537.605</ele>
        <time>2026-05-25T09:09:29Z</time>
      </trkpt>
      <trkpt lat="45.77995" lon="5.54266">
        <ele>537.805</ele>
        <time>2026-05-25T09:09:33Z</time>
      </trkpt>
      <trkpt lat="45.77996" lon="5.54259">
        <ele>538.005</ele>
        <time>2026-05-25T09:09:37Z</time>
      </trkpt>
      <trkpt lat="45.77997" lon="5.54252">
        <ele>538.205</ele>
        <time>2026-05-25T09:09:41Z</time>
      </trkpt>
      <trkpt lat="45.77998" lon="5.54245">
        <ele>537.905</ele>
        <time>2026-05-25T09:09:45Z</time>
      </trkpt>
      <trkpt lat="45.78" lon="5.54239">
        <ele>537.805</ele>
        <time>2026-05-25T09:09:49Z</time>
      </trkpt>
      <trkpt lat="45.78002" lon="5.54232">
        <ele>537.305</ele>
        <time>2026-05-25T09:09:53Z</time>
      </trkpt>
      <trkpt lat="45.78005" lon="5.54227">
        <ele>536.805</ele>
        <time>2026-05-25T09:09:57Z</time>
      </trkpt>
      <trkpt lat="45.78008" lon="5.54221">
        <ele>537.105</ele>
        <time>2026-05-25T09:10:02Z</time>
      </trkpt>
      <trkpt lat="45.78011" lon="5.54214">
        <ele>537.105</ele>
        <time>2026-05-25T09:10:06Z</time>
      </trkpt>
      <trkpt lat="45.78014" lon="5.54207">
        <ele>536.005</ele>
        <time>2026-05-25T09:10:11Z</time>
      </trkpt>
      <trkpt lat="45.78016" lon="5.54202">
        <ele>533.005</ele>
        <time>2026-05-25T09:10:16Z</time>
      </trkpt>
      <trkpt lat="45.78019" lon="5.54197">
        <ele>531.205</ele>
        <time>2026-05-25T09:10:20Z</time>
      </trkpt>
      <trkpt lat="45.78022" lon="5.54191">
        <ele>528.705</ele>
        <time>2026-05-25T09:10:25Z</time>
      </trkpt>
      <trkpt lat="45.78025" lon="5.54187">
        <ele>527.005</ele>
        <time>2026-05-25T09:10:29Z</time>
      </trkpt>
      <trkpt lat="45.78028" lon="5.54182">
        <ele>525.105</ele>
        <time>2026-05-25T09:10:34Z</time>
      </trkpt>
      <trkpt lat="45.78031" lon="5.54177">
        <ele>523.805</ele>
        <time>2026-05-25T09:10:39Z</time>
      </trkpt>
      <trkpt lat="45.78033" lon="5.54171">
        <ele>523.205</ele>
        <time>2026-05-25T09:10:43Z</time>
      </trkpt>
      <trkpt lat="45.78036" lon="5.54164">
        <ele>522.605</ele>
        <time>2026-05-25T09:10:47Z</time>
      </trkpt>
      <trkpt lat="45.78038" lon="5.54157">
        <ele>521.805</ele>
        <time>2026-05-25T09:10:51Z</time>
      </trkpt>
      <trkpt lat="45.78038" lon="5.54149">
        <ele>520.305</ele>
        <time>2026-05-25T09:10:56Z</time>
      </trkpt>
      <trkpt lat="45.78037" lon="5.54143">
        <ele>518.605</ele>
        <time>2026-05-25T09:11:00Z</time>
      </trkpt>
      <trkpt lat="45.78036" lon="5.54136">
        <ele>517.105</ele>
        <time>2026-05-25T09:11:04Z</time>
      </trkpt>
      <trkpt lat="45.78035" lon="5.54129">
        <ele>515.605</ele>
        <time>2026-05-25T09:11:09Z</time>
      </trkpt>
      <trkpt lat="45.78033" lon="5.54122">
        <ele>513.705</ele>
        <time>2026-05-25T09:11:14Z</time>
      </trkpt>
      <trkpt lat="45.78032" lon="5.54116">
        <ele>511.705</ele>
        <time>2026-05-25T09:11:18Z</time>
      </trkpt>
      <trkpt lat="45.78031" lon="5.54109">
        <ele>510.205</ele>
        <time>2026-05-25T09:11:23Z</time>
      </trkpt>
      <trkpt lat="45.78033" lon="5.54103">
        <ele>509.205</ele>
        <time>2026-05-25T09:11:27Z</time>
      </trkpt>
      <trkpt lat="45.78036" lon="5.54098">
        <ele>508.505</ele>
        <time>2026-05-25T09:11:31Z</time>
      </trkpt>
      <trkpt lat="45.78041" lon="5.54094">
        <ele>507.705</ele>
        <time>2026-05-25T09:11:35Z</time>
      </trkpt>
      <trkpt lat="45.78046" lon="5.54091">
        <ele>507.205</ele>
        <time>2026-05-25T09:11:39Z</time>
      </trkpt>
      <trkpt lat="45.7805" lon="5.54087">
        <ele>506.005</ele>
        <time>2026-05-25T09:11:44Z</time>
      </trkpt>
      <trkpt lat="45.78052" lon="5.5408">
        <ele>505.305</ele>
        <time>2026-05-25T09:11:48Z</time>
      </trkpt>
      <trkpt lat="45.78052" lon="5.54072">
        <ele>504.205</ele>
        <time>2026-05-25T09:11:52Z</time>
      </trkpt>
      <trkpt lat="45.7805" lon="5.54066">
        <ele>503.105</ele>
        <time>2026-05-25T09:11:56Z</time>
      </trkpt>
      <trkpt lat="45.78045" lon="5.54062">
        <ele>501.605</ele>
        <time>2026-05-25T09:12:00Z</time>
      </trkpt>
      <trkpt lat="45.78041" lon="5.54059">
        <ele>500.405</ele>
        <time>2026-05-25T09:12:04Z</time>
      </trkpt>
      <trkpt lat="45.78038" lon="5.54054">
        <ele>499.305</ele>
        <time>2026-05-25T09:12:08Z</time>
      </trkpt>
      <trkpt lat="45.78036" lon="5.54048">
        <ele>498.305</ele>
        <time>2026-05-25T09:12:12Z</time>
      </trkpt>
      <trkpt lat="45.78035" lon="5.54041">
        <ele>497.505</ele>
        <time>2026-05-25T09:12:16Z</time>
      </trkpt>
      <trkpt lat="45.78036" lon="5.54034">
        <ele>497.005</ele>
        <time>2026-05-25T09:12:20Z</time>
      </trkpt>
      <trkpt lat="45.78036" lon="5.54028">
        <ele>496.105</ele>
        <time>2026-05-25T09:12:25Z</time>
      </trkpt>
      <trkpt lat="45.78036" lon="5.54021">
        <ele>495.205</ele>
        <time>2026-05-25T09:12:31Z</time>
      </trkpt>
      <trkpt lat="45.78036" lon="5.54015">
        <ele>494.305</ele>
        <time>2026-05-25T09:12:36Z</time>
      </trkpt>
      <trkpt lat="45.78034" lon="5.54008">
        <ele>493.605</ele>
        <time>2026-05-25T09:12:42Z</time>
      </trkpt>
      <trkpt lat="45.78034" lon="5.54001">
        <ele>493.705</ele>
        <time>2026-05-25T09:12:49Z</time>
      </trkpt>
      <trkpt lat="45.78037" lon="5.53996">
        <ele>494.805</ele>
        <time>2026-05-25T09:12:56Z</time>
      </trkpt>
      <trkpt lat="45.78042" lon="5.53994">
        <ele>495.005</ele>
        <time>2026-05-25T09:13:01Z</time>
      </trkpt>
      <trkpt lat="45.78046" lon="5.5399">
        <ele>495.405</ele>
        <time>2026-05-25T09:13:08Z</time>
      </trkpt>
      <trkpt lat="45.78051" lon="5.53988">
        <ele>495.305</ele>
        <time>2026-05-25T09:13:15Z</time>
      </trkpt>
      <trkpt lat="45.78055" lon="5.53986">
        <ele>496.005</ele>
        <time>2026-05-25T09:13:26Z</time>
      </trkpt>
      <trkpt lat="45.7806" lon="5.53985">
        <ele>496.405</ele>
        <time>2026-05-25T09:13:32Z</time>
      </trkpt>
      <trkpt lat="45.7806" lon="5.53978">
        <ele>498.105</ele>
        <time>2026-05-25T09:13:39Z</time>
      </trkpt>
      <trkpt lat="45.78058" lon="5.53971">
        <ele>499.005</ele>
        <time>2026-05-25T09:13:45Z</time>
      </trkpt>
      <trkpt lat="45.78054" lon="5.53967">
        <ele>500.005</ele>
        <time>2026-05-25T09:13:51Z</time>
      </trkpt>
      <trkpt lat="45.78051" lon="5.53963">
        <ele>501.105</ele>
        <time>2026-05-25T09:13:56Z</time>
      </trkpt>
      <trkpt lat="45.78046" lon="5.5396">
        <ele>502.305</ele>
        <time>2026-05-25T09:14:02Z</time>
      </trkpt>
      <trkpt lat="45.78044" lon="5.53954">
        <ele>502.705</ele>
        <time>2026-05-25T09:14:10Z</time>
      </trkpt>
      <trkpt lat="45.78042" lon="5.53948">
        <ele>502.405</ele>
        <time>2026-05-25T09:14:16Z</time>
      </trkpt>
      <trkpt lat="45.78039" lon="5.53944">
        <ele>502.505</ele>
        <time>2026-05-25T09:14:23Z</time>
      </trkpt>
      <trkpt lat="45.78034" lon="5.53941">
        <ele>503.305</ele>
        <time>2026-05-25T09:14:30Z</time>
      </trkpt>
      <trkpt lat="45.78031" lon="5.53936">
        <ele>504.005</ele>
        <time>2026-05-25T09:14:37Z</time>
      </trkpt>
      <trkpt lat="45.78027" lon="5.53933">
        <ele>505.805</ele>
        <time>2026-05-25T09:14:46Z</time>
      </trkpt>
      <trkpt lat="45.78023" lon="5.53928">
        <ele>506.605</ele>
        <time>2026-05-25T09:14:53Z</time>
      </trkpt>
      <trkpt lat="45.78026" lon="5.53922">
        <ele>508.305</ele>
        <time>2026-05-25T09:15:00Z</time>
      </trkpt>
      <trkpt lat="45.78029" lon="5.53916">
        <ele>509.305</ele>
        <time>2026-05-25T09:15:06Z</time>
      </trkpt>
      <trkpt lat="45.78032" lon="5.53912">
        <ele>510.005</ele>
        <time>2026-05-25T09:15:12Z</time>
      </trkpt>
      <trkpt lat="45.78034" lon="5.53906">
        <ele>511.605</ele>
        <time>2026-05-25T09:15:20Z</time>
      </trkpt>
      <trkpt lat="45.78035" lon="5.53899">
        <ele>513.405</ele>
        <time>2026-05-25T09:15:27Z</time>
      </trkpt>
      <trkpt lat="45.78035" lon="5.53893">
        <ele>515.305</ele>
        <time>2026-05-25T09:15:34Z</time>
      </trkpt>
      <trkpt lat="45.78035" lon="5.53886">
        <ele>517.305</ele>
        <time>2026-05-25T09:15:42Z</time>
      </trkpt>
      <trkpt lat="45.78032" lon="5.53882">
        <ele>520.105</ele>
        <time>2026-05-25T09:15:50Z</time>
      </trkpt>
      <trkpt lat="45.78029" lon="5.5388">
        <ele>522.705</ele>
        <time>2026-05-25T09:15:58Z</time>
      </trkpt>
      <trkpt lat="45.78025" lon="5.53878">
        <ele>524.905</ele>
        <time>2026-05-25T09:16:06Z</time>
      </trkpt>
      <trkpt lat="45.78023" lon="5.53873">
        <ele>528.205</ele>
        <time>2026-05-25T09:16:17Z</time>
      </trkpt>
      <trkpt lat="45.78023" lon="5.53867">
        <ele>531.905</ele>
        <time>2026-05-25T09:16:31Z</time>
      </trkpt>
      <trkpt lat="45.78024" lon="5.5386">
        <ele>533.305</ele>
        <time>2026-05-25T09:16:41Z</time>
      </trkpt>
      <trkpt lat="45.78025" lon="5.53854">
        <ele>534.405</ele>
        <time>2026-05-25T09:16:47Z</time>
      </trkpt>
      <trkpt lat="45.78027" lon="5.53848">
        <ele>536.805</ele>
        <time>2026-05-25T09:16:56Z</time>
      </trkpt>
      <trkpt lat="45.78025" lon="5.53843">
        <ele>538.905</ele>
        <time>2026-05-25T09:17:07Z</time>
      </trkpt>
      <trkpt lat="45.78022" lon="5.53837">
        <ele>540.005</ele>
        <time>2026-05-25T09:17:14Z</time>
      </trkpt>
      <trkpt lat="45.78019" lon="5.53833">
        <ele>541.005</ele>
        <time>2026-05-25T09:17:19Z</time>
      </trkpt>
      <trkpt lat="45.78017" lon="5.53827">
        <ele>542.105</ele>
        <time>2026-05-25T09:17:26Z</time>
      </trkpt>
      <trkpt lat="45.78013" lon="5.53821">
        <ele>543.005</ele>
        <time>2026-05-25T09:17:36Z</time>
      </trkpt>
      <trkpt lat="45.78013" lon="5.53815">
        <ele>544.205</ele>
        <time>2026-05-25T09:17:44Z</time>
      </trkpt>
      <trkpt lat="45.78012" lon="5.53808">
        <ele>545.205</ele>
        <time>2026-05-25T09:17:52Z</time>
      </trkpt>
      <trkpt lat="45.78009" lon="5.53802">
        <ele>546.205</ele>
        <time>2026-05-25T09:17:59Z</time>
      </trkpt>
      <trkpt lat="45.78006" lon="5.53798">
        <ele>547.605</ele>
        <time>2026-05-25T09:18:06Z</time>
      </trkpt>
      <trkpt lat="45.78002" lon="5.53795">
        <ele>550.005</ele>
        <time>2026-05-25T09:18:18Z</time>
      </trkpt>
      <trkpt lat="45.78" lon="5.53789">
        <ele>550.205</ele>
        <time>2026-05-25T09:18:31Z</time>
      </trkpt>
      <trkpt lat="45.77999" lon="5.53782">
        <ele>550.705</ele>
        <time>2026-05-25T09:18:39Z</time>
      </trkpt>
      <trkpt lat="45.77997" lon="5.53775">
        <ele>551.505</ele>
        <time>2026-05-25T09:18:47Z</time>
      </trkpt>
      <trkpt lat="45.77994" lon="5.5377">
        <ele>551.305</ele>
        <time>2026-05-25T09:18:56Z</time>
      </trkpt>
      <trkpt lat="45.7799" lon="5.53766">
        <ele>551.505</ele>
        <time>2026-05-25T09:19:02Z</time>
      </trkpt>
      <trkpt lat="45.77987" lon="5.53761">
        <ele>551.905</ele>
        <time>2026-05-25T09:19:09Z</time>
      </trkpt>
      <trkpt lat="45.77984" lon="5.53756">
        <ele>552.305</ele>
        <time>2026-05-25T09:19:19Z</time>
      </trkpt>
      <trkpt lat="45.77984" lon="5.53756">
        <ele>553.205</ele>
        <time>2026-05-25T09:19:40Z</time>
      </trkpt>
      <trkpt lat="45.77984" lon="5.53756">
        <ele>553.205</ele>
        <time>2026-05-25T09:20:00Z</time>
      </trkpt>
      <trkpt lat="45.77984" lon="5.53756">
        <ele>553.205</ele>
        <time>2026-05-25T09:20:21Z</time>
      </trkpt>
      <trkpt lat="45.77984" lon="5.53756">
        <ele>553.205</ele>
        <time>2026-05-25T09:20:42Z</time>
      </trkpt>
      <trkpt lat="45.77984" lon="5.53756">
        <ele>570.305</ele>
        <time>2026-05-25T09:20:44Z</time>
      </trkpt>
      <trkpt lat="45.77984" lon="5.53756">
        <ele>571.005</ele>
        <time>2026-05-25T09:21:04Z</time>
      </trkpt>
      <trkpt lat="45.77984" lon="5.53756">
        <ele>571.005</ele>
        <time>2026-05-25T09:21:24Z</time>
      </trkpt>
      <trkpt lat="45.77984" lon="5.53756">
        <ele>580.805</ele>
        <time>2026-05-25T09:21:39Z</time>
      </trkpt>
      <trkpt lat="45.77972" lon="5.53753">
        <ele>581.805</ele>
        <time>2026-05-25T09:21:46Z</time>
      </trkpt>
      <trkpt lat="45.77971" lon="5.53747">
        <ele>583.005</ele>
        <time>2026-05-25T09:21:58Z</time>
      </trkpt>
      <trkpt lat="45.77966" lon="5.53743">
        <ele>583.705</ele>
        <time>2026-05-25T09:22:07Z</time>
      </trkpt>
      <trkpt lat="45.77963" lon="5.53739">
        <ele>584.205</ele>
        <time>2026-05-25T09:22:16Z</time>
      </trkpt>
      <trkpt lat="45.7796" lon="5.53733">
        <ele>584.105</ele>
        <time>2026-05-25T09:22:23Z</time>
      </trkpt>
      <trkpt lat="45.77959" lon="5.53727">
        <ele>584.005</ele>
        <time>2026-05-25T09:22:30Z</time>
      </trkpt>
      <trkpt lat="45.77956" lon="5.53721">
        <ele>583.905</ele>
        <time>2026-05-25T09:22:35Z</time>
      </trkpt>
      <trkpt lat="45.77953" lon="5.53716">
        <ele>583.505</ele>
        <time>2026-05-25T09:22:41Z</time>
      </trkpt>
      <trkpt lat="45.7795" lon="5.53711">
        <ele>583.105</ele>
        <time>2026-05-25T09:22:48Z</time>
      </trkpt>
      <trkpt lat="45.77948" lon="5.53705">
        <ele>583.504</ele>
        <time>2026-05-25T09:22:57Z</time>
      </trkpt>
      <trkpt lat="45.77943" lon="5.53702">
        <ele>583.904</ele>
        <time>2026-05-25T09:23:05Z</time>
      </trkpt>
      <trkpt lat="45.77939" lon="5.53698">
        <ele>584.304</ele>
        <time>2026-05-25T09:23:12Z</time>
      </trkpt>
      <trkpt lat="45.77936" lon="5.53693">
        <ele>584.504</ele>
        <time>2026-05-25T09:23:20Z</time>
      </trkpt>
      <trkpt lat="45.77934" lon="5.53687">
        <ele>584.804</ele>
        <time>2026-05-25T09:23:28Z</time>
      </trkpt>
      <trkpt lat="45.77931" lon="5.53682">
        <ele>584.904</ele>
        <time>2026-05-25T09:23:35Z</time>
      </trkpt>
      <trkpt lat="45.77927" lon="5.53678">
        <ele>585.604</ele>
        <time>2026-05-25T09:23:44Z</time>
      </trkpt>
      <trkpt lat="45.77923" lon="5.53674">
        <ele>585.704</ele>
        <time>2026-05-25T09:23:51Z</time>
      </trkpt>
      <trkpt lat="45.7792" lon="5.53669">
        <ele>585.004</ele>
        <time>2026-05-25T09:24:00Z</time>
      </trkpt>
      <trkpt lat="45.77916" lon="5.53664">
        <ele>584.604</ele>
        <time>2026-05-25T09:24:05Z</time>
      </trkpt>
      <trkpt lat="45.77911" lon="5.5366">
        <ele>584.104</ele>
        <time>2026-05-25T09:24:11Z</time>
      </trkpt>
      <trkpt lat="45.77907" lon="5.53657">
        <ele>583.804</ele>
        <time>2026-05-25T09:24:22Z</time>
      </trkpt>
      <trkpt lat="45.77906" lon="5.53656">
        <ele>583.904</ele>
        <time>2026-05-25T09:24:42Z</time>
      </trkpt>
      <trkpt lat="45.77904" lon="5.53643">
        <ele>584.404</ele>
        <time>2026-05-25T09:24:47Z</time>
      </trkpt>
      <trkpt lat="45.77901" lon="5.53637">
        <ele>584.904</ele>
        <time>2026-05-25T09:24:57Z</time>
      </trkpt>
      <trkpt lat="45.77897" lon="5.53632">
        <ele>585.204</ele>
        <time>2026-05-25T09:25:06Z</time>
      </trkpt>
      <trkpt lat="45.77895" lon="5.53626">
        <ele>585.504</ele>
        <time>2026-05-25T09:25:14Z</time>
      </trkpt>
      <trkpt lat="45.77895" lon="5.53619">
        <ele>585.304</ele>
        <time>2026-05-25T09:25:19Z</time>
      </trkpt>
      <trkpt lat="45.77894" lon="5.53613">
        <ele>585.904</ele>
        <time>2026-05-25T09:25:34Z</time>
      </trkpt>
      <trkpt lat="45.77893" lon="5.53606">
        <ele>585.504</ele>
        <time>2026-05-25T09:25:42Z</time>
      </trkpt>
      <trkpt lat="45.77892" lon="5.536">
        <ele>585.404</ele>
        <time>2026-05-25T09:25:46Z</time>
      </trkpt>
      <trkpt lat="45.7789" lon="5.53594">
        <ele>585.504</ele>
        <time>2026-05-25T09:25:53Z</time>
      </trkpt>
      <trkpt lat="45.77892" lon="5.53587">
        <ele>585.304</ele>
        <time>2026-05-25T09:26:01Z</time>
      </trkpt>
      <trkpt lat="45.77895" lon="5.53582">
        <ele>584.704</ele>
        <time>2026-05-25T09:26:09Z</time>
      </trkpt>
      <trkpt lat="45.77896" lon="5.53575">
        <ele>584.004</ele>
        <time>2026-05-25T09:26:14Z</time>
      </trkpt>
      <trkpt lat="45.77897" lon="5.53568">
        <ele>583.104</ele>
        <time>2026-05-25T09:26:20Z</time>
      </trkpt>
      <trkpt lat="45.77898" lon="5.53562">
        <ele>583.004</ele>
        <time>2026-05-25T09:26:25Z</time>
      </trkpt>
      <trkpt lat="45.77901" lon="5.53556">
        <ele>582.904</ele>
        <time>2026-05-25T09:26:29Z</time>
      </trkpt>
      <trkpt lat="45.77903" lon="5.5355">
        <ele>582.704</ele>
        <time>2026-05-25T09:26:33Z</time>
      </trkpt>
      <trkpt lat="45.77905" lon="5.53542">
        <ele>582.804</ele>
        <time>2026-05-25T09:26:37Z</time>
      </trkpt>
      <trkpt lat="45.77908" lon="5.53536">
        <ele>582.504</ele>
        <time>2026-05-25T09:26:42Z</time>
      </trkpt>
      <trkpt lat="45.77911" lon="5.5353">
        <ele>582.704</ele>
        <time>2026-05-25T09:26:47Z</time>
      </trkpt>
      <trkpt lat="45.77915" lon="5.53525">
        <ele>582.704</ele>
        <time>2026-05-25T09:26:51Z</time>
      </trkpt>
      <trkpt lat="45.77918" lon="5.53519">
        <ele>582.704</ele>
        <time>2026-05-25T09:26:55Z</time>
      </trkpt>
      <trkpt lat="45.77922" lon="5.53514">
        <ele>582.604</ele>
        <time>2026-05-25T09:27:01Z</time>
      </trkpt>
      <trkpt lat="45.77926" lon="5.53509">
        <ele>582.304</ele>
        <time>2026-05-25T09:27:06Z</time>
      </trkpt>
      <trkpt lat="45.7793" lon="5.53505">
        <ele>581.804</ele>
        <time>2026-05-25T09:27:10Z</time>
      </trkpt>
      <trkpt lat="45.77933" lon="5.535">
        <ele>581.404</ele>
        <time>2026-05-25T09:27:15Z</time>
      </trkpt>
      <trkpt lat="45.77936" lon="5.53495">
        <ele>580.704</ele>
        <time>2026-05-25T09:27:20Z</time>
      </trkpt>
      <trkpt lat="45.7794" lon="5.53489">
        <ele>580.004</ele>
        <time>2026-05-25T09:27:25Z</time>
      </trkpt>
      <trkpt lat="45.77943" lon="5.53484">
        <ele>579.104</ele>
        <time>2026-05-25T09:27:29Z</time>
      </trkpt>
      <trkpt lat="45.77944" lon="5.53478">
        <ele>578.304</ele>
        <time>2026-05-25T09:27:34Z</time>
      </trkpt>
      <trkpt lat="45.77944" lon="5.53471">
        <ele>578.704</ele>
        <time>2026-05-25T09:27:38Z</time>
      </trkpt>
      <trkpt lat="45.77939" lon="5.53466">
        <ele>578.804</ele>
        <time>2026-05-25T09:27:43Z</time>
      </trkpt>
      <trkpt lat="45.77936" lon="5.53459">
        <ele>580.804</ele>
        <time>2026-05-25T09:27:46Z</time>
      </trkpt>
      <trkpt lat="45.77932" lon="5.53455">
        <ele>582.004</ele>
        <time>2026-05-25T09:27:50Z</time>
      </trkpt>
      <trkpt lat="45.77928" lon="5.5345">
        <ele>582.904</ele>
        <time>2026-05-25T09:27:55Z</time>
      </trkpt>
      <trkpt lat="45.77924" lon="5.53446">
        <ele>583.604</ele>
        <time>2026-05-25T09:28:00Z</time>
      </trkpt>
      <trkpt lat="45.7792" lon="5.53443">
        <ele>583.804</ele>
        <time>2026-05-25T09:28:10Z</time>
      </trkpt>
      <trkpt lat="45.77915" lon="5.53442">
        <ele>583.804</ele>
        <time>2026-05-25T09:28:16Z</time>
      </trkpt>
      <trkpt lat="45.7791" lon="5.5344">
        <ele>583.904</ele>
        <time>2026-05-25T09:28:21Z</time>
      </trkpt>
      <trkpt lat="45.77906" lon="5.53438">
        <ele>583.504</ele>
        <time>2026-05-25T09:28:25Z</time>
      </trkpt>
      <trkpt lat="45.77901" lon="5.53437">
        <ele>583.104</ele>
        <time>2026-05-25T09:28:30Z</time>
      </trkpt>
      <trkpt lat="45.77896" lon="5.53438">
        <ele>583.504</ele>
        <time>2026-05-25T09:28:34Z</time>
      </trkpt>
      <trkpt lat="45.77891" lon="5.53439">
        <ele>584.204</ele>
        <time>2026-05-25T09:28:39Z</time>
      </trkpt>
      <trkpt lat="45.77886" lon="5.5344">
        <ele>583.604</ele>
        <time>2026-05-25T09:28:44Z</time>
      </trkpt>
      <trkpt lat="45.77881" lon="5.53439">
        <ele>584.504</ele>
        <time>2026-05-25T09:28:48Z</time>
      </trkpt>
      <trkpt lat="45.77876" lon="5.53441">
        <ele>585.004</ele>
        <time>2026-05-25T09:28:53Z</time>
      </trkpt>
      <trkpt lat="45.77872" lon="5.53441">
        <ele>585.604</ele>
        <time>2026-05-25T09:28:57Z</time>
      </trkpt>
      <trkpt lat="45.77867" lon="5.53442">
        <ele>587.004</ele>
        <time>2026-05-25T09:29:02Z</time>
      </trkpt>
      <trkpt lat="45.77863" lon="5.53444">
        <ele>589.104</ele>
        <time>2026-05-25T09:29:07Z</time>
      </trkpt>
      <trkpt lat="45.77859" lon="5.53447">
        <ele>591.804</ele>
        <time>2026-05-25T09:29:16Z</time>
      </trkpt>
      <trkpt lat="45.77855" lon="5.53447">
        <ele>595.704</ele>
        <time>2026-05-25T09:29:26Z</time>
      </trkpt>
      <trkpt lat="45.77852" lon="5.53447">
        <ele>599.204</ele>
        <time>2026-05-25T09:29:33Z</time>
      </trkpt>
      <trkpt lat="45.77848" lon="5.53448">
        <ele>601.904</ele>
        <time>2026-05-25T09:29:37Z</time>
      </trkpt>
      <trkpt lat="45.77844" lon="5.53445">
        <ele>604.804</ele>
        <time>2026-05-25T09:29:42Z</time>
      </trkpt>
      <trkpt lat="45.77841" lon="5.53442">
        <ele>607.104</ele>
        <time>2026-05-25T09:29:47Z</time>
      </trkpt>
      <trkpt lat="45.77838" lon="5.53438">
        <ele>608.904</ele>
        <time>2026-05-25T09:29:52Z</time>
      </trkpt>
      <trkpt lat="45.77833" lon="5.53433">
        <ele>611.004</ele>
        <time>2026-05-25T09:29:56Z</time>
      </trkpt>
      <trkpt lat="45.77829" lon="5.53429">
        <ele>613.004</ele>
        <time>2026-05-25T09:30:00Z</time>
      </trkpt>
      <trkpt lat="45.77827" lon="5.53424">
        <ele>615.504</ele>
        <time>2026-05-25T09:30:04Z</time>
      </trkpt>
      <trkpt lat="45.77825" lon="5.53418">
        <ele>618.404</ele>
        <time>2026-05-25T09:30:09Z</time>
      </trkpt>
      <trkpt lat="45.77821" lon="5.53414">
        <ele>620.304</ele>
        <time>2026-05-25T09:30:13Z</time>
      </trkpt>
      <trkpt lat="45.77817" lon="5.53411">
        <ele>621.904</ele>
        <time>2026-05-25T09:30:16Z</time>
      </trkpt>
      <trkpt lat="45.77813" lon="5.53406">
        <ele>624.004</ele>
        <time>2026-05-25T09:30:20Z</time>
      </trkpt>
      <trkpt lat="45.77809" lon="5.53402">
        <ele>625.304</ele>
        <time>2026-05-25T09:30:24Z</time>
      </trkpt>
      <trkpt lat="45.77805" lon="5.53401">
        <ele>626.704</ele>
        <time>2026-05-25T09:30:29Z</time>
      </trkpt>
      <trkpt lat="45.77801" lon="5.534">
        <ele>627.604</ele>
        <time>2026-05-25T09:30:33Z</time>
      </trkpt>
      <trkpt lat="45.77795" lon="5.534">
        <ele>628.704</ele>
        <time>2026-05-25T09:30:37Z</time>
      </trkpt>
      <trkpt lat="45.77789" lon="5.53399">
        <ele>629.504</ele>
        <time>2026-05-25T09:30:41Z</time>
      </trkpt>
      <trkpt lat="45.77784" lon="5.53398">
        <ele>629.804</ele>
        <time>2026-05-25T09:30:45Z</time>
      </trkpt>
      <trkpt lat="45.77779" lon="5.53396">
        <ele>630.604</ele>
        <time>2026-05-25T09:30:51Z</time>
      </trkpt>
      <trkpt lat="45.77776" lon="5.5339">
        <ele>631.104</ele>
        <time>2026-05-25T09:30:57Z</time>
      </trkpt>
      <trkpt lat="45.77773" lon="5.53384">
        <ele>631.604</ele>
        <time>2026-05-25T09:31:02Z</time>
      </trkpt>
      <trkpt lat="45.7777" lon="5.53377">
        <ele>632.304</ele>
        <time>2026-05-25T09:31:06Z</time>
      </trkpt>
      <trkpt lat="45.77768" lon="5.53371">
        <ele>632.604</ele>
        <time>2026-05-25T09:31:10Z</time>
      </trkpt>
      <trkpt lat="45.77766" lon="5.53364">
        <ele>632.404</ele>
        <time>2026-05-25T09:31:16Z</time>
      </trkpt>
      <trkpt lat="45.77763" lon="5.53358">
        <ele>632.704</ele>
        <time>2026-05-25T09:31:22Z</time>
      </trkpt>
      <trkpt lat="45.77761" lon="5.53352">
        <ele>633.204</ele>
        <time>2026-05-25T09:31:29Z</time>
      </trkpt>
      <trkpt lat="45.77756" lon="5.5335">
        <ele>633.904</ele>
        <time>2026-05-25T09:31:36Z</time>
      </trkpt>
      <trkpt lat="45.77752" lon="5.53345">
        <ele>635.004</ele>
        <time>2026-05-25T09:31:42Z</time>
      </trkpt>
      <trkpt lat="45.7775" lon="5.53339">
        <ele>635.804</ele>
        <time>2026-05-25T09:31:49Z</time>
      </trkpt>
      <trkpt lat="45.77746" lon="5.53334">
        <ele>637.304</ele>
        <time>2026-05-25T09:31:56Z</time>
      </trkpt>
      <trkpt lat="45.77743" lon="5.53329">
        <ele>638.404</ele>
        <time>2026-05-25T09:32:01Z</time>
      </trkpt>
      <trkpt lat="45.77742" lon="5.53322">
        <ele>639.204</ele>
        <time>2026-05-25T09:32:08Z</time>
      </trkpt>
      <trkpt lat="45.77742" lon="5.53315">
        <ele>640.004</ele>
        <time>2026-05-25T09:32:15Z</time>
      </trkpt>
      <trkpt lat="45.77742" lon="5.53308">
        <ele>640.604</ele>
        <time>2026-05-25T09:32:22Z</time>
      </trkpt>
      <trkpt lat="45.77743" lon="5.53301">
        <ele>641.304</ele>
        <time>2026-05-25T09:32:30Z</time>
      </trkpt>
      <trkpt lat="45.7774" lon="5.53297">
        <ele>642.604</ele>
        <time>2026-05-25T09:32:38Z</time>
      </trkpt>
      <trkpt lat="45.77735" lon="5.53294">
        <ele>643.104</ele>
        <time>2026-05-25T09:32:47Z</time>
      </trkpt>
      <trkpt lat="45.7773" lon="5.53296">
        <ele>644.104</ele>
        <time>2026-05-25T09:32:58Z</time>
      </trkpt>
      <trkpt lat="45.7773" lon="5.53294">
        <ele>650.704</ele>
        <time>2026-05-25T09:33:16Z</time>
      </trkpt>
      <trkpt lat="45.77732" lon="5.5329">
        <ele>654.804</ele>
        <time>2026-05-25T09:33:23Z</time>
      </trkpt>
      <trkpt lat="45.77734" lon="5.53289">
        <ele>657.304</ele>
        <time>2026-05-25T09:33:43Z</time>
      </trkpt>
      <trkpt lat="45.77734" lon="5.53289">
        <ele>657.304</ele>
        <time>2026-05-25T09:34:03Z</time>
      </trkpt>
      <trkpt lat="45.77734" lon="5.53289">
        <ele>657.304</ele>
        <time>2026-05-25T09:34:23Z</time>
      </trkpt>
      <trkpt lat="45.77734" lon="5.53289">
        <ele>657.304</ele>
        <time>2026-05-25T09:34:43Z</time>
      </trkpt>
      <trkpt lat="45.77734" lon="5.53289">
        <ele>657.304</ele>
        <time>2026-05-25T09:35:04Z</time>
      </trkpt>
      <trkpt lat="45.77734" lon="5.53289">
        <ele>657.304</ele>
        <time>2026-05-25T09:35:25Z</time>
      </trkpt>
      <trkpt lat="45.77734" lon="5.53289">
        <ele>657.304</ele>
        <time>2026-05-25T09:35:45Z</time>
      </trkpt>
      <trkpt lat="45.77734" lon="5.53289">
        <ele>657.304</ele>
        <time>2026-05-25T09:36:06Z</time>
      </trkpt>
      <trkpt lat="45.77739" lon="5.53285">
        <ele>655.604</ele>
        <time>2026-05-25T09:36:25Z</time>
      </trkpt>
      <trkpt lat="45.77739" lon="5.53287">
        <ele>655.904</ele>
        <time>2026-05-25T09:36:46Z</time>
      </trkpt>
      <trkpt lat="45.77739" lon="5.53287">
        <ele>655.904</ele>
        <time>2026-05-25T09:37:06Z</time>
      </trkpt>
      <trkpt lat="45.77745" lon="5.53287">
        <ele>657.204</ele>
        <time>2026-05-25T09:37:09Z</time>
      </trkpt>
      <trkpt lat="45.7775" lon="5.53285">
        <ele>657.404</ele>
        <time>2026-05-25T09:37:13Z</time>
      </trkpt>
      <trkpt lat="45.77751" lon="5.53281">
        <ele>658.004</ele>
        <time>2026-05-25T09:37:34Z</time>
      </trkpt>
      <trkpt lat="45.77753" lon="5.53284">
        <ele>658.304</ele>
        <time>2026-05-25T09:37:55Z</time>
      </trkpt>
      <trkpt lat="45.77758" lon="5.53284">
        <ele>657.704</ele>
        <time>2026-05-25T09:38:08Z</time>
      </trkpt>
      <trkpt lat="45.77763" lon="5.53281">
        <ele>657.704</ele>
        <time>2026-05-25T09:38:13Z</time>
      </trkpt>
      <trkpt lat="45.77768" lon="5.53279">
        <ele>657.504</ele>
        <time>2026-05-25T09:38:18Z</time>
      </trkpt>
      <trkpt lat="45.77773" lon="5.53276">
        <ele>657.304</ele>
        <time>2026-05-25T09:38:23Z</time>
      </trkpt>
      <trkpt lat="45.77778" lon="5.53273">
        <ele>656.904</ele>
        <time>2026-05-25T09:38:28Z</time>
      </trkpt>
      <trkpt lat="45.77783" lon="5.53271">
        <ele>656.504</ele>
        <time>2026-05-25T09:38:32Z</time>
      </trkpt>
      <trkpt lat="45.77788" lon="5.53271">
        <ele>656.004</ele>
        <time>2026-05-25T09:38:37Z</time>
      </trkpt>
      <trkpt lat="45.77793" lon="5.5327">
        <ele>656.304</ele>
        <time>2026-05-25T09:38:42Z</time>
      </trkpt>
      <trkpt lat="45.77798" lon="5.5327">
        <ele>656.504</ele>
        <time>2026-05-25T09:38:47Z</time>
      </trkpt>
      <trkpt lat="45.77803" lon="5.53269">
        <ele>656.304</ele>
        <time>2026-05-25T09:38:52Z</time>
      </trkpt>
      <trkpt lat="45.77807" lon="5.53267">
        <ele>656.204</ele>
        <time>2026-05-25T09:38:57Z</time>
      </trkpt>
      <trkpt lat="45.77812" lon="5.53264">
        <ele>655.904</ele>
        <time>2026-05-25T09:39:02Z</time>
      </trkpt>
      <trkpt lat="45.77817" lon="5.5326">
        <ele>654.804</ele>
        <time>2026-05-25T09:39:08Z</time>
      </trkpt>
      <trkpt lat="45.77819" lon="5.53254">
        <ele>654.504</ele>
        <time>2026-05-25T09:39:12Z</time>
      </trkpt>
      <trkpt lat="45.77821" lon="5.53247">
        <ele>654.304</ele>
        <time>2026-05-25T09:39:17Z</time>
      </trkpt>
      <trkpt lat="45.77819" lon="5.5324">
        <ele>654.004</ele>
        <time>2026-05-25T09:39:23Z</time>
      </trkpt>
      <trkpt lat="45.77816" lon="5.53235">
        <ele>651.704</ele>
        <time>2026-05-25T09:39:36Z</time>
      </trkpt>
      <trkpt lat="45.77816" lon="5.53235">
        <ele>651.704</ele>
        <time>2026-05-25T09:39:57Z</time>
      </trkpt>
      <trkpt lat="45.77816" lon="5.53235">
        <ele>651.704</ele>
        <time>2026-05-25T09:40:17Z</time>
      </trkpt>
      <trkpt lat="45.77816" lon="5.53235">
        <ele>651.704</ele>
        <time>2026-05-25T09:40:38Z</time>
      </trkpt>
      <trkpt lat="45.77816" lon="5.53235">
        <ele>651.704</ele>
        <time>2026-05-25T09:40:59Z</time>
      </trkpt>
      <trkpt lat="45.77816" lon="5.53235">
        <ele>651.704</ele>
        <time>2026-05-25T09:41:19Z</time>
      </trkpt>
      <trkpt lat="45.77816" lon="5.53235">
        <ele>651.704</ele>
        <time>2026-05-25T09:41:39Z</time>
      </trkpt>
      <trkpt lat="45.77816" lon="5.53235">
        <ele>651.704</ele>
        <time>2026-05-25T09:42:00Z</time>
      </trkpt>
      <trkpt lat="45.77816" lon="5.53235">
        <ele>651.704</ele>
        <time>2026-05-25T09:42:20Z</time>
      </trkpt>
      <trkpt lat="45.77816" lon="5.53235">
        <ele>651.704</ele>
        <time>2026-05-25T09:42:41Z</time>
      </trkpt>
      <trkpt lat="45.77816" lon="5.53235">
        <ele>651.704</ele>
        <time>2026-05-25T09:43:01Z</time>
      </trkpt>
      <trkpt lat="45.77816" lon="5.53235">
        <ele>651.704</ele>
        <time>2026-05-25T09:43:22Z</time>
      </trkpt>
      <trkpt lat="45.77816" lon="5.53235">
        <ele>651.704</ele>
        <time>2026-05-25T09:43:42Z</time>
      </trkpt>
      <trkpt lat="45.77816" lon="5.53235">
        <ele>651.704</ele>
        <time>2026-05-25T09:44:02Z</time>
      </trkpt>
      <trkpt lat="45.77816" lon="5.53235">
        <ele>651.704</ele>
        <time>2026-05-25T09:44:23Z</time>
      </trkpt>
      <trkpt lat="45.77816" lon="5.53235">
        <ele>651.704</ele>
        <time>2026-05-25T09:44:44Z</time>
      </trkpt>
      <trkpt lat="45.77813" lon="5.53234">
        <ele>652.304</ele>
        <time>2026-05-25T09:45:04Z</time>
      </trkpt>
      <trkpt lat="45.77813" lon="5.53234">
        <ele>652.304</ele>
        <time>2026-05-25T09:45:25Z</time>
      </trkpt>
      <trkpt lat="45.77813" lon="5.53234">
        <ele>652.304</ele>
        <time>2026-05-25T09:45:46Z</time>
      </trkpt>
      <trkpt lat="45.77813" lon="5.53234">
        <ele>652.304</ele>
        <time>2026-05-25T09:46:06Z</time>
      </trkpt>
      <trkpt lat="45.77813" lon="5.53234">
        <ele>652.304</ele>
        <time>2026-05-25T09:46:27Z</time>
      </trkpt>
      <trkpt lat="45.77813" lon="5.53234">
        <ele>652.304</ele>
        <time>2026-05-25T09:46:48Z</time>
      </trkpt>
      <trkpt lat="45.77813" lon="5.53234">
        <ele>652.304</ele>
        <time>2026-05-25T09:47:09Z</time>
      </trkpt>
      <trkpt lat="45.77813" lon="5.53234">
        <ele>652.304</ele>
        <time>2026-05-25T09:47:30Z</time>
      </trkpt>
      <trkpt lat="45.77813" lon="5.53234">
        <ele>650.404</ele>
        <time>2026-05-25T09:47:51Z</time>
      </trkpt>
      <trkpt lat="45.77813" lon="5.53234">
        <ele>650.804</ele>
        <time>2026-05-25T09:48:12Z</time>
      </trkpt>
      <trkpt lat="45.77813" lon="5.53234">
        <ele>650.804</ele>
        <time>2026-05-25T09:48:32Z</time>
      </trkpt>
      <trkpt lat="45.77813" lon="5.53234">
        <ele>650.804</ele>
        <time>2026-05-25T09:48:53Z</time>
      </trkpt>
      <trkpt lat="45.77813" lon="5.53234">
        <ele>650.804</ele>
        <time>2026-05-25T09:49:13Z</time>
      </trkpt>
      <trkpt lat="45.77813" lon="5.53234">
        <ele>650.804</ele>
        <time>2026-05-25T09:49:34Z</time>
      </trkpt>
      <trkpt lat="45.77813" lon="5.53234">
        <ele>650.804</ele>
        <time>2026-05-25T09:49:54Z</time>
      </trkpt>
      <trkpt lat="45.77813" lon="5.53234">
        <ele>650.804</ele>
        <time>2026-05-25T09:50:15Z</time>
      </trkpt>
      <trkpt lat="45.77813" lon="5.53234">
        <ele>650.804</ele>
        <time>2026-05-25T09:50:36Z</time>
      </trkpt>
      <trkpt lat="45.77813" lon="5.53234">
        <ele>650.804</ele>
        <time>2026-05-25T09:50:57Z</time>
      </trkpt>
      <trkpt lat="45.77813" lon="5.53234">
        <ele>650.804</ele>
        <time>2026-05-25T09:51:17Z</time>
      </trkpt>
      <trkpt lat="45.77813" lon="5.53234">
        <ele>650.804</ele>
        <time>2026-05-25T09:51:37Z</time>
      </trkpt>
      <trkpt lat="45.77813" lon="5.53234">
        <ele>650.804</ele>
        <time>2026-05-25T09:51:58Z</time>
      </trkpt>
      <trkpt lat="45.77813" lon="5.53234">
        <ele>650.804</ele>
        <time>2026-05-25T09:52:18Z</time>
      </trkpt>
      <trkpt lat="45.77813" lon="5.53234">
        <ele>650.804</ele>
        <time>2026-05-25T09:52:38Z</time>
      </trkpt>
      <trkpt lat="45.77813" lon="5.53234">
        <ele>650.804</ele>
        <time>2026-05-25T09:52:58Z</time>
      </trkpt>
      <trkpt lat="45.77813" lon="5.53234">
        <ele>650.504</ele>
        <time>2026-05-25T09:53:13Z</time>
      </trkpt>
      <trkpt lat="45.77813" lon="5.53234">
        <ele>650.604</ele>
        <time>2026-05-25T09:53:33Z</time>
      </trkpt>
      <trkpt lat="45.77813" lon="5.53234">
        <ele>650.604</ele>
        <time>2026-05-25T09:53:53Z</time>
      </trkpt>
      <trkpt lat="45.77813" lon="5.53234">
        <ele>650.604</ele>
        <time>2026-05-25T09:54:13Z</time>
      </trkpt>
      <trkpt lat="45.77813" lon="5.53234">
        <ele>650.604</ele>
        <time>2026-05-25T09:54:33Z</time>
      </trkpt>
      <trkpt lat="45.77813" lon="5.53234">
        <ele>650.604</ele>
        <time>2026-05-25T09:54:54Z</time>
      </trkpt>
      <trkpt lat="45.77813" lon="5.53234">
        <ele>651.704</ele>
        <time>2026-05-25T09:55:00Z</time>
      </trkpt>
      <trkpt lat="45.77813" lon="5.53234">
        <ele>651.704</ele>
        <time>2026-05-25T09:55:21Z</time>
      </trkpt>
      <trkpt lat="45.77813" lon="5.53234">
        <ele>651.704</ele>
        <time>2026-05-25T09:55:42Z</time>
      </trkpt>
      <trkpt lat="45.77813" lon="5.53234">
        <ele>651.704</ele>
        <time>2026-05-25T09:56:02Z</time>
      </trkpt>
      <trkpt lat="45.77813" lon="5.53234">
        <ele>653.304</ele>
        <time>2026-05-25T09:56:06Z</time>
      </trkpt>
      <trkpt lat="45.77813" lon="5.53234">
        <ele>653.204</ele>
        <time>2026-05-25T09:56:26Z</time>
      </trkpt>
      <trkpt lat="45.77813" lon="5.53234">
        <ele>653.204</ele>
        <time>2026-05-25T09:56:47Z</time>
      </trkpt>
      <trkpt lat="45.77813" lon="5.53234">
        <ele>653.604</ele>
        <time>2026-05-25T09:56:59Z</time>
      </trkpt>
      <trkpt lat="45.77813" lon="5.53234">
        <ele>653.604</ele>
        <time>2026-05-25T09:57:20Z</time>
      </trkpt>
      <trkpt lat="45.77813" lon="5.53234">
        <ele>653.604</ele>
        <time>2026-05-25T09:57:40Z</time>
      </trkpt>
      <trkpt lat="45.77813" lon="5.53234">
        <ele>653.604</ele>
        <time>2026-05-25T09:58:01Z</time>
      </trkpt>
      <trkpt lat="45.77813" lon="5.53234">
        <ele>653.604</ele>
        <time>2026-05-25T09:58:22Z</time>
      </trkpt>
      <trkpt lat="45.77813" lon="5.53234">
        <ele>653.604</ele>
        <time>2026-05-25T09:58:42Z</time>
      </trkpt>
      <trkpt lat="45.77813" lon="5.53234">
        <ele>653.604</ele>
        <time>2026-05-25T09:59:03Z</time>
      </trkpt>
      <trkpt lat="45.77813" lon="5.53234">
        <ele>653.604</ele>
        <time>2026-05-25T09:59:23Z</time>
      </trkpt>
      <trkpt lat="45.77813" lon="5.53234">
        <ele>655.504</ele>
        <time>2026-05-25T09:59:43Z</time>
      </trkpt>
      <trkpt lat="45.77813" lon="5.53234">
        <ele>655.604</ele>
        <time>2026-05-25T10:00:03Z</time>
      </trkpt>
      <trkpt lat="45.77813" lon="5.53234">
        <ele>655.604</ele>
        <time>2026-05-25T10:00:24Z</time>
      </trkpt>
      <trkpt lat="45.77813" lon="5.53234">
        <ele>655.604</ele>
        <time>2026-05-25T10:00:44Z</time>
      </trkpt>
      <trkpt lat="45.77813" lon="5.53234">
        <ele>655.104</ele>
        <time>2026-05-25T10:00:53Z</time>
      </trkpt>
      <trkpt lat="45.77813" lon="5.53234">
        <ele>655.004</ele>
        <time>2026-05-25T10:01:13Z</time>
      </trkpt>
      <trkpt lat="45.77813" lon="5.53234">
        <ele>655.004</ele>
        <time>2026-05-25T10:01:33Z</time>
      </trkpt>
      <trkpt lat="45.77813" lon="5.53234">
        <ele>655.204</ele>
        <time>2026-05-25T10:01:54Z</time>
      </trkpt>
      <trkpt lat="45.77813" lon="5.53234">
        <ele>655.104</ele>
        <time>2026-05-25T10:02:15Z</time>
      </trkpt>
      <trkpt lat="45.77813" lon="5.53234">
        <ele>655.104</ele>
        <time>2026-05-25T10:02:36Z</time>
      </trkpt>
      <trkpt lat="45.77813" lon="5.53234">
        <ele>655.104</ele>
        <time>2026-05-25T10:02:57Z</time>
      </trkpt>
      <trkpt lat="45.77813" lon="5.53234">
        <ele>655.104</ele>
        <time>2026-05-25T10:03:18Z</time>
      </trkpt>
      <trkpt lat="45.77813" lon="5.53234">
        <ele>655.104</ele>
        <time>2026-05-25T10:03:39Z</time>
      </trkpt>
      <trkpt lat="45.77813" lon="5.53234">
        <ele>655.104</ele>
        <time>2026-05-25T10:03:59Z</time>
      </trkpt>
      <trkpt lat="45.77813" lon="5.53234">
        <ele>655.104</ele>
        <time>2026-05-25T10:04:19Z</time>
      </trkpt>
      <trkpt lat="45.77813" lon="5.53234">
        <ele>655.104</ele>
        <time>2026-05-25T10:04:39Z</time>
      </trkpt>
      <trkpt lat="45.77813" lon="5.53234">
        <ele>655.104</ele>
        <time>2026-05-25T10:05:00Z</time>
      </trkpt>
      <trkpt lat="45.77813" lon="5.53234">
        <ele>655.104</ele>
        <time>2026-05-25T10:05:20Z</time>
      </trkpt>
      <trkpt lat="45.77813" lon="5.53234">
        <ele>655.104</ele>
        <time>2026-05-25T10:05:40Z</time>
      </trkpt>
      <trkpt lat="45.77813" lon="5.53234">
        <ele>655.104</ele>
        <time>2026-05-25T10:06:01Z</time>
      </trkpt>
      <trkpt lat="45.77813" lon="5.53234">
        <ele>655.104</ele>
        <time>2026-05-25T10:06:21Z</time>
      </trkpt>
      <trkpt lat="45.77813" lon="5.53234">
        <ele>655.104</ele>
        <time>2026-05-25T10:06:42Z</time>
      </trkpt>
      <trkpt lat="45.77813" lon="5.53234">
        <ele>655.104</ele>
        <time>2026-05-25T10:07:02Z</time>
      </trkpt>
      <trkpt lat="45.77813" lon="5.53234">
        <ele>655.104</ele>
        <time>2026-05-25T10:07:23Z</time>
      </trkpt>
      <trkpt lat="45.77813" lon="5.53234">
        <ele>655.104</ele>
        <time>2026-05-25T10:07:43Z</time>
      </trkpt>
      <trkpt lat="45.77813" lon="5.53234">
        <ele>655.104</ele>
        <time>2026-05-25T10:08:04Z</time>
      </trkpt>
      <trkpt lat="45.77813" lon="5.53234">
        <ele>655.104</ele>
        <time>2026-05-25T10:08:24Z</time>
      </trkpt>
      <trkpt lat="45.77813" lon="5.53234">
        <ele>655.104</ele>
        <time>2026-05-25T10:08:44Z</time>
      </trkpt>
      <trkpt lat="45.77813" lon="5.53234">
        <ele>655.104</ele>
        <time>2026-05-25T10:09:05Z</time>
      </trkpt>
      <trkpt lat="45.77813" lon="5.53234">
        <ele>655.104</ele>
        <time>2026-05-25T10:09:25Z</time>
      </trkpt>
      <trkpt lat="45.77813" lon="5.53234">
        <ele>655.104</ele>
        <time>2026-05-25T10:09:46Z</time>
      </trkpt>
      <trkpt lat="45.77813" lon="5.53234">
        <ele>652.704</ele>
        <time>2026-05-25T10:09:55Z</time>
      </trkpt>
      <trkpt lat="45.77813" lon="5.53234">
        <ele>652.704</ele>
        <time>2026-05-25T10:10:15Z</time>
      </trkpt>
      <trkpt lat="45.77813" lon="5.53234">
        <ele>652.704</ele>
        <time>2026-05-25T10:10:36Z</time>
      </trkpt>
      <trkpt lat="45.77813" lon="5.53234">
        <ele>652.704</ele>
        <time>2026-05-25T10:10:56Z</time>
      </trkpt>
      <trkpt lat="45.77813" lon="5.53234">
        <ele>652.704</ele>
        <time>2026-05-25T10:11:17Z</time>
      </trkpt>
      <trkpt lat="45.77813" lon="5.53234">
        <ele>652.704</ele>
        <time>2026-05-25T10:11:38Z</time>
      </trkpt>
      <trkpt lat="45.77813" lon="5.53234">
        <ele>652.704</ele>
        <time>2026-05-25T10:11:58Z</time>
      </trkpt>
      <trkpt lat="45.77813" lon="5.53234">
        <ele>652.704</ele>
        <time>2026-05-25T10:12:18Z</time>
      </trkpt>
      <trkpt lat="45.77813" lon="5.53234">
        <ele>652.704</ele>
        <time>2026-05-25T10:12:39Z</time>
      </trkpt>
      <trkpt lat="45.77813" lon="5.53234">
        <ele>652.704</ele>
        <time>2026-05-25T10:12:59Z</time>
      </trkpt>
      <trkpt lat="45.77813" lon="5.53234">
        <ele>652.704</ele>
        <time>2026-05-25T10:13:20Z</time>
      </trkpt>
      <trkpt lat="45.77813" lon="5.53234">
        <ele>652.704</ele>
        <time>2026-05-25T10:13:41Z</time>
      </trkpt>
      <trkpt lat="45.77813" lon="5.53234">
        <ele>652.704</ele>
        <time>2026-05-25T10:14:02Z</time>
      </trkpt>
      <trkpt lat="45.77813" lon="5.53234">
        <ele>652.704</ele>
        <time>2026-05-25T10:14:22Z</time>
      </trkpt>
      <trkpt lat="45.77813" lon="5.53234">
        <ele>652.704</ele>
        <time>2026-05-25T10:14:43Z</time>
      </trkpt>
      <trkpt lat="45.77813" lon="5.53234">
        <ele>652.704</ele>
        <time>2026-05-25T10:15:04Z</time>
      </trkpt>
      <trkpt lat="45.77813" lon="5.53234">
        <ele>652.704</ele>
        <time>2026-05-25T10:15:25Z</time>
      </trkpt>
      <trkpt lat="45.77813" lon="5.53234">
        <ele>652.704</ele>
        <time>2026-05-25T10:15:46Z</time>
      </trkpt>
      <trkpt lat="45.77813" lon="5.53234">
        <ele>652.704</ele>
        <time>2026-05-25T10:16:06Z</time>
      </trkpt>
      <trkpt lat="45.77813" lon="5.53234">
        <ele>652.704</ele>
        <time>2026-05-25T10:16:27Z</time>
      </trkpt>
      <trkpt lat="45.77813" lon="5.53234">
        <ele>652.704</ele>
        <time>2026-05-25T10:16:48Z</time>
      </trkpt>
      <trkpt lat="45.77813" lon="5.53234">
        <ele>652.704</ele>
        <time>2026-05-25T10:17:08Z</time>
      </trkpt>
      <trkpt lat="45.77813" lon="5.53234">
        <ele>652.704</ele>
        <time>2026-05-25T10:17:29Z</time>
      </trkpt>
      <trkpt lat="45.77813" lon="5.53234">
        <ele>652.704</ele>
        <time>2026-05-25T10:17:49Z</time>
      </trkpt>
      <trkpt lat="45.77813" lon="5.53234">
        <ele>652.704</ele>
        <time>2026-05-25T10:18:09Z</time>
      </trkpt>
      <trkpt lat="45.77813" lon="5.53234">
        <ele>652.704</ele>
        <time>2026-05-25T10:18:30Z</time>
      </trkpt>
      <trkpt lat="45.77813" lon="5.53234">
        <ele>652.704</ele>
        <time>2026-05-25T10:18:50Z</time>
      </trkpt>
      <trkpt lat="45.77813" lon="5.53234">
        <ele>652.704</ele>
        <time>2026-05-25T10:19:11Z</time>
      </trkpt>
      <trkpt lat="45.77813" lon="5.53234">
        <ele>652.704</ele>
        <time>2026-05-25T10:19:32Z</time>
      </trkpt>
      <trkpt lat="45.77813" lon="5.53234">
        <ele>652.704</ele>
        <time>2026-05-25T10:19:53Z</time>
      </trkpt>
      <trkpt lat="45.77813" lon="5.53234">
        <ele>652.704</ele>
        <time>2026-05-25T10:20:13Z</time>
      </trkpt>
      <trkpt lat="45.77813" lon="5.53234">
        <ele>652.704</ele>
        <time>2026-05-25T10:20:34Z</time>
      </trkpt>
      <trkpt lat="45.77813" lon="5.53234">
        <ele>652.704</ele>
        <time>2026-05-25T10:20:55Z</time>
      </trkpt>
      <trkpt lat="45.77813" lon="5.53234">
        <ele>652.704</ele>
        <time>2026-05-25T10:21:15Z</time>
      </trkpt>
      <trkpt lat="45.77813" lon="5.53234">
        <ele>652.704</ele>
        <time>2026-05-25T10:21:36Z</time>
      </trkpt>
      <trkpt lat="45.77813" lon="5.53234">
        <ele>652.704</ele>
        <time>2026-05-25T10:21:56Z</time>
      </trkpt>
      <trkpt lat="45.77813" lon="5.53234">
        <ele>652.704</ele>
        <time>2026-05-25T10:22:16Z</time>
      </trkpt>
      <trkpt lat="45.77813" lon="5.53234">
        <ele>652.704</ele>
        <time>2026-05-25T10:22:37Z</time>
      </trkpt>
      <trkpt lat="45.77813" lon="5.53234">
        <ele>652.704</ele>
        <time>2026-05-25T10:22:57Z</time>
      </trkpt>
      <trkpt lat="45.77813" lon="5.53234">
        <ele>652.704</ele>
        <time>2026-05-25T10:23:17Z</time>
      </trkpt>
      <trkpt lat="45.77813" lon="5.53234">
        <ele>652.704</ele>
        <time>2026-05-25T10:23:38Z</time>
      </trkpt>
      <trkpt lat="45.77813" lon="5.53234">
        <ele>652.704</ele>
        <time>2026-05-25T10:23:58Z</time>
      </trkpt>
      <trkpt lat="45.77813" lon="5.53234">
        <ele>653.304</ele>
        <time>2026-05-25T10:24:15Z</time>
      </trkpt>
      <trkpt lat="45.77813" lon="5.53234">
        <ele>652.104</ele>
        <time>2026-05-25T10:24:36Z</time>
      </trkpt>
      <trkpt lat="45.77813" lon="5.53234">
        <ele>651.704</ele>
        <time>2026-05-25T10:24:48Z</time>
      </trkpt>
      <trkpt lat="45.77815" lon="5.53233">
        <ele>651.704</ele>
        <time>2026-05-25T10:24:55Z</time>
      </trkpt>
      <trkpt lat="45.77815" lon="5.53233">
        <ele>651.804</ele>
        <time>2026-05-25T10:25:15Z</time>
      </trkpt>
      <trkpt lat="45.77815" lon="5.53233">
        <ele>651.804</ele>
        <time>2026-05-25T10:25:35Z</time>
      </trkpt>
      <trkpt lat="45.77815" lon="5.53233">
        <ele>651.804</ele>
        <time>2026-05-25T10:25:56Z</time>
      </trkpt>
      <trkpt lat="45.77816" lon="5.5324">
        <ele>650.804</ele>
        <time>2026-05-25T10:26:04Z</time>
      </trkpt>
      <trkpt lat="45.7782" lon="5.53243">
        <ele>650.204</ele>
        <time>2026-05-25T10:26:10Z</time>
      </trkpt>
      <trkpt lat="45.77825" lon="5.53243">
        <ele>650.004</ele>
        <time>2026-05-25T10:26:15Z</time>
      </trkpt>
      <trkpt lat="45.77829" lon="5.53239">
        <ele>649.704</ele>
        <time>2026-05-25T10:26:20Z</time>
      </trkpt>
      <trkpt lat="45.77834" lon="5.53236">
        <ele>649.804</ele>
        <time>2026-05-25T10:26:24Z</time>
      </trkpt>
      <trkpt lat="45.7784" lon="5.53233">
        <ele>649.904</ele>
        <time>2026-05-25T10:26:28Z</time>
      </trkpt>
      <trkpt lat="45.77845" lon="5.53229">
        <ele>649.804</ele>
        <time>2026-05-25T10:26:32Z</time>
      </trkpt>
      <trkpt lat="45.77849" lon="5.53225">
        <ele>649.304</ele>
        <time>2026-05-25T10:26:36Z</time>
      </trkpt>
      <trkpt lat="45.77853" lon="5.53221">
        <ele>649.704</ele>
        <time>2026-05-25T10:26:40Z</time>
      </trkpt>
      <trkpt lat="45.77858" lon="5.53218">
        <ele>649.404</ele>
        <time>2026-05-25T10:26:44Z</time>
      </trkpt>
      <trkpt lat="45.77862" lon="5.53215">
        <ele>648.904</ele>
        <time>2026-05-25T10:26:48Z</time>
      </trkpt>
      <trkpt lat="45.77867" lon="5.53212">
        <ele>648.704</ele>
        <time>2026-05-25T10:26:52Z</time>
      </trkpt>
      <trkpt lat="45.77871" lon="5.53208">
        <ele>648.904</ele>
        <time>2026-05-25T10:26:56Z</time>
      </trkpt>
      <trkpt lat="45.77874" lon="5.53203">
        <ele>648.804</ele>
        <time>2026-05-25T10:27:00Z</time>
      </trkpt>
      <trkpt lat="45.77878" lon="5.53198">
        <ele>647.404</ele>
        <time>2026-05-25T10:27:05Z</time>
      </trkpt>
      <trkpt lat="45.7788" lon="5.53193">
        <ele>646.004</ele>
        <time>2026-05-25T10:27:09Z</time>
      </trkpt>
      <trkpt lat="45.77881" lon="5.53186">
        <ele>644.704</ele>
        <time>2026-05-25T10:27:14Z</time>
      </trkpt>
      <trkpt lat="45.77881" lon="5.53179">
        <ele>643.704</ele>
        <time>2026-05-25T10:27:19Z</time>
      </trkpt>
      <trkpt lat="45.7788" lon="5.53172">
        <ele>642.104</ele>
        <time>2026-05-25T10:27:24Z</time>
      </trkpt>
      <trkpt lat="45.77879" lon="5.53165">
        <ele>641.004</ele>
        <time>2026-05-25T10:27:28Z</time>
      </trkpt>
      <trkpt lat="45.77878" lon="5.53159">
        <ele>639.804</ele>
        <time>2026-05-25T10:27:32Z</time>
      </trkpt>
      <trkpt lat="45.77876" lon="5.53152">
        <ele>638.204</ele>
        <time>2026-05-25T10:27:37Z</time>
      </trkpt>
      <trkpt lat="45.77874" lon="5.53145">
        <ele>636.504</ele>
        <time>2026-05-25T10:27:42Z</time>
      </trkpt>
      <trkpt lat="45.77871" lon="5.53139">
        <ele>635.404</ele>
        <time>2026-05-25T10:27:46Z</time>
      </trkpt>
      <trkpt lat="45.7787" lon="5.53132">
        <ele>635.204</ele>
        <time>2026-05-25T10:27:50Z</time>
      </trkpt>
      <trkpt lat="45.77869" lon="5.53125">
        <ele>634.404</ele>
        <time>2026-05-25T10:27:54Z</time>
      </trkpt>
      <trkpt lat="45.77868" lon="5.53117">
        <ele>632.604</ele>
        <time>2026-05-25T10:27:59Z</time>
      </trkpt>
      <trkpt lat="45.77869" lon="5.53111">
        <ele>631.004</ele>
        <time>2026-05-25T10:28:03Z</time>
      </trkpt>
      <trkpt lat="45.7787" lon="5.53103">
        <ele>628.904</ele>
        <time>2026-05-25T10:28:07Z</time>
      </trkpt>
      <trkpt lat="45.77871" lon="5.53097">
        <ele>626.904</ele>
        <time>2026-05-25T10:28:11Z</time>
      </trkpt>
      <trkpt lat="45.77873" lon="5.53092">
        <ele>623.604</ele>
        <time>2026-05-25T10:28:16Z</time>
      </trkpt>
      <trkpt lat="45.77876" lon="5.53087">
        <ele>621.204</ele>
        <time>2026-05-25T10:28:21Z</time>
      </trkpt>
      <trkpt lat="45.77878" lon="5.53081">
        <ele>618.904</ele>
        <time>2026-05-25T10:28:26Z</time>
      </trkpt>
      <trkpt lat="45.7788" lon="5.53075">
        <ele>617.604</ele>
        <time>2026-05-25T10:28:30Z</time>
      </trkpt>
      <trkpt lat="45.77883" lon="5.53068">
        <ele>616.904</ele>
        <time>2026-05-25T10:28:34Z</time>
      </trkpt>
      <trkpt lat="45.77885" lon="5.53063">
        <ele>615.404</ele>
        <time>2026-05-25T10:28:38Z</time>
      </trkpt>
      <trkpt lat="45.77887" lon="5.53056">
        <ele>614.304</ele>
        <time>2026-05-25T10:28:42Z</time>
      </trkpt>
      <trkpt lat="45.7789" lon="5.53051">
        <ele>614.004</ele>
        <time>2026-05-25T10:28:45Z</time>
      </trkpt>
      <trkpt lat="45.77892" lon="5.53044">
        <ele>613.604</ele>
        <time>2026-05-25T10:28:49Z</time>
      </trkpt>
      <trkpt lat="45.77896" lon="5.5304">
        <ele>614.104</ele>
        <time>2026-05-25T10:28:53Z</time>
      </trkpt>
      <trkpt lat="45.77899" lon="5.53035">
        <ele>614.704</ele>
        <time>2026-05-25T10:28:57Z</time>
      </trkpt>
      <trkpt lat="45.77901" lon="5.53028">
        <ele>615.204</ele>
        <time>2026-05-25T10:29:01Z</time>
      </trkpt>
      <trkpt lat="45.77903" lon="5.53022">
        <ele>616.004</ele>
        <time>2026-05-25T10:29:04Z</time>
      </trkpt>
      <trkpt lat="45.77906" lon="5.53015">
        <ele>617.304</ele>
        <time>2026-05-25T10:29:07Z</time>
      </trkpt>
      <trkpt lat="45.77908" lon="5.53009">
        <ele>617.204</ele>
        <time>2026-05-25T10:29:10Z</time>
      </trkpt>
      <trkpt lat="45.77912" lon="5.53002">
        <ele>617.604</ele>
        <time>2026-05-25T10:29:13Z</time>
      </trkpt>
      <trkpt lat="45.77916" lon="5.52997">
        <ele>617.904</ele>
        <time>2026-05-25T10:29:17Z</time>
      </trkpt>
      <trkpt lat="45.7792" lon="5.52991">
        <ele>617.504</ele>
        <time>2026-05-25T10:29:21Z</time>
      </trkpt>
      <trkpt lat="45.77924" lon="5.52985">
        <ele>617.804</ele>
        <time>2026-05-25T10:29:25Z</time>
      </trkpt>
      <trkpt lat="45.77927" lon="5.5298">
        <ele>617.804</ele>
        <time>2026-05-25T10:29:28Z</time>
      </trkpt>
      <trkpt lat="45.77929" lon="5.52975">
        <ele>617.504</ele>
        <time>2026-05-25T10:29:31Z</time>
      </trkpt>
      <trkpt lat="45.77933" lon="5.52969">
        <ele>617.604</ele>
        <time>2026-05-25T10:29:35Z</time>
      </trkpt>
      <trkpt lat="45.77936" lon="5.52964">
        <ele>617.604</ele>
        <time>2026-05-25T10:29:39Z</time>
      </trkpt>
      <trkpt lat="45.77939" lon="5.52958">
        <ele>617.404</ele>
        <time>2026-05-25T10:29:43Z</time>
      </trkpt>
      <trkpt lat="45.77943" lon="5.52953">
        <ele>616.904</ele>
        <time>2026-05-25T10:29:47Z</time>
      </trkpt>
      <trkpt lat="45.77946" lon="5.52948">
        <ele>616.504</ele>
        <time>2026-05-25T10:29:51Z</time>
      </trkpt>
      <trkpt lat="45.77949" lon="5.52942">
        <ele>616.004</ele>
        <time>2026-05-25T10:29:56Z</time>
      </trkpt>
      <trkpt lat="45.77952" lon="5.52935">
        <ele>615.804</ele>
        <time>2026-05-25T10:30:01Z</time>
      </trkpt>
      <trkpt lat="45.77955" lon="5.5293">
        <ele>615.304</ele>
        <time>2026-05-25T10:30:05Z</time>
      </trkpt>
      <trkpt lat="45.77958" lon="5.52925">
        <ele>615.204</ele>
        <time>2026-05-25T10:30:09Z</time>
      </trkpt>
      <trkpt lat="45.77961" lon="5.52919">
        <ele>615.204</ele>
        <time>2026-05-25T10:30:13Z</time>
      </trkpt>
      <trkpt lat="45.77964" lon="5.52913">
        <ele>615.004</ele>
        <time>2026-05-25T10:30:17Z</time>
      </trkpt>
      <trkpt lat="45.77968" lon="5.52907">
        <ele>614.804</ele>
        <time>2026-05-25T10:30:21Z</time>
      </trkpt>
      <trkpt lat="45.7797" lon="5.52901">
        <ele>614.504</ele>
        <time>2026-05-25T10:30:25Z</time>
      </trkpt>
      <trkpt lat="45.77973" lon="5.52895">
        <ele>613.604</ele>
        <time>2026-05-25T10:30:29Z</time>
      </trkpt>
      <trkpt lat="45.77976" lon="5.52889">
        <ele>612.704</ele>
        <time>2026-05-25T10:30:33Z</time>
      </trkpt>
      <trkpt lat="45.7798" lon="5.52883">
        <ele>611.904</ele>
        <time>2026-05-25T10:30:37Z</time>
      </trkpt>
      <trkpt lat="45.77983" lon="5.52878">
        <ele>611.704</ele>
        <time>2026-05-25T10:30:41Z</time>
      </trkpt>
      <trkpt lat="45.77986" lon="5.52871">
        <ele>611.304</ele>
        <time>2026-05-25T10:30:46Z</time>
      </trkpt>
      <trkpt lat="45.77987" lon="5.52864">
        <ele>611.304</ele>
        <time>2026-05-25T10:30:50Z</time>
      </trkpt>
      <trkpt lat="45.77986" lon="5.52857">
        <ele>611.004</ele>
        <time>2026-05-25T10:30:54Z</time>
      </trkpt>
      <trkpt lat="45.77983" lon="5.5285">
        <ele>611.604</ele>
        <time>2026-05-25T10:30:58Z</time>
      </trkpt>
      <trkpt lat="45.7798" lon="5.52844">
        <ele>612.204</ele>
        <time>2026-05-25T10:31:02Z</time>
      </trkpt>
      <trkpt lat="45.77977" lon="5.5284">
        <ele>612.804</ele>
        <time>2026-05-25T10:31:06Z</time>
      </trkpt>
      <trkpt lat="45.77973" lon="5.52834">
        <ele>612.504</ele>
        <time>2026-05-25T10:31:11Z</time>
      </trkpt>
      <trkpt lat="45.7797" lon="5.52828">
        <ele>611.404</ele>
        <time>2026-05-25T10:31:16Z</time>
      </trkpt>
      <trkpt lat="45.77967" lon="5.52822">
        <ele>610.504</ele>
        <time>2026-05-25T10:31:20Z</time>
      </trkpt>
      <trkpt lat="45.77964" lon="5.52816">
        <ele>610.104</ele>
        <time>2026-05-25T10:31:24Z</time>
      </trkpt>
      <trkpt lat="45.7796" lon="5.5281">
        <ele>609.704</ele>
        <time>2026-05-25T10:31:28Z</time>
      </trkpt>
      <trkpt lat="45.77957" lon="5.52805">
        <ele>609.104</ele>
        <time>2026-05-25T10:31:32Z</time>
      </trkpt>
      <trkpt lat="45.77953" lon="5.52801">
        <ele>608.203</ele>
        <time>2026-05-25T10:31:37Z</time>
      </trkpt>
      <trkpt lat="45.77948" lon="5.52799">
        <ele>607.303</ele>
        <time>2026-05-25T10:31:42Z</time>
      </trkpt>
      <trkpt lat="45.77944" lon="5.52798">
        <ele>605.403</ele>
        <time>2026-05-25T10:31:47Z</time>
      </trkpt>
      <trkpt lat="45.77938" lon="5.52797">
        <ele>604.503</ele>
        <time>2026-05-25T10:31:52Z</time>
      </trkpt>
      <trkpt lat="45.77933" lon="5.52796">
        <ele>604.603</ele>
        <time>2026-05-25T10:31:56Z</time>
      </trkpt>
      <trkpt lat="45.77927" lon="5.52795">
        <ele>604.403</ele>
        <time>2026-05-25T10:32:00Z</time>
      </trkpt>
      <trkpt lat="45.77922" lon="5.5279">
        <ele>604.703</ele>
        <time>2026-05-25T10:32:04Z</time>
      </trkpt>
      <trkpt lat="45.77918" lon="5.52786">
        <ele>604.503</ele>
        <time>2026-05-25T10:32:07Z</time>
      </trkpt>
      <trkpt lat="45.77913" lon="5.52781">
        <ele>603.703</ele>
        <time>2026-05-25T10:32:11Z</time>
      </trkpt>
      <trkpt lat="45.77911" lon="5.52775">
        <ele>603.103</ele>
        <time>2026-05-25T10:32:15Z</time>
      </trkpt>
      <trkpt lat="45.77908" lon="5.5277">
        <ele>603.703</ele>
        <time>2026-05-25T10:32:18Z</time>
      </trkpt>
      <trkpt lat="45.77906" lon="5.52762">
        <ele>604.103</ele>
        <time>2026-05-25T10:32:22Z</time>
      </trkpt>
      <trkpt lat="45.77905" lon="5.52756">
        <ele>603.603</ele>
        <time>2026-05-25T10:32:26Z</time>
      </trkpt>
      <trkpt lat="45.77905" lon="5.52749">
        <ele>603.303</ele>
        <time>2026-05-25T10:32:30Z</time>
      </trkpt>
      <trkpt lat="45.77904" lon="5.52742">
        <ele>603.103</ele>
        <time>2026-05-25T10:32:34Z</time>
      </trkpt>
      <trkpt lat="45.77902" lon="5.52735">
        <ele>603.203</ele>
        <time>2026-05-25T10:32:38Z</time>
      </trkpt>
      <trkpt lat="45.77901" lon="5.52729">
        <ele>603.403</ele>
        <time>2026-05-25T10:32:43Z</time>
      </trkpt>
      <trkpt lat="45.77899" lon="5.52722">
        <ele>602.703</ele>
        <time>2026-05-25T10:32:50Z</time>
      </trkpt>
      <trkpt lat="45.77898" lon="5.52715">
        <ele>602.603</ele>
        <time>2026-05-25T10:32:54Z</time>
      </trkpt>
      <trkpt lat="45.77898" lon="5.52708">
        <ele>602.303</ele>
        <time>2026-05-25T10:32:58Z</time>
      </trkpt>
      <trkpt lat="45.77898" lon="5.527">
        <ele>602.203</ele>
        <time>2026-05-25T10:33:02Z</time>
      </trkpt>
      <trkpt lat="45.77897" lon="5.52693">
        <ele>601.003</ele>
        <time>2026-05-25T10:33:06Z</time>
      </trkpt>
      <trkpt lat="45.77897" lon="5.52686">
        <ele>599.603</ele>
        <time>2026-05-25T10:33:10Z</time>
      </trkpt>
      <trkpt lat="45.77896" lon="5.52679">
        <ele>598.903</ele>
        <time>2026-05-25T10:33:14Z</time>
      </trkpt>
      <trkpt lat="45.77895" lon="5.52672">
        <ele>598.503</ele>
        <time>2026-05-25T10:33:18Z</time>
      </trkpt>
      <trkpt lat="45.77894" lon="5.52665">
        <ele>598.003</ele>
        <time>2026-05-25T10:33:22Z</time>
      </trkpt>
      <trkpt lat="45.77893" lon="5.52657">
        <ele>597.003</ele>
        <time>2026-05-25T10:33:27Z</time>
      </trkpt>
      <trkpt lat="45.7789" lon="5.52652">
        <ele>597.003</ele>
        <time>2026-05-25T10:33:31Z</time>
      </trkpt>
      <trkpt lat="45.77886" lon="5.52646">
        <ele>596.803</ele>
        <time>2026-05-25T10:33:35Z</time>
      </trkpt>
      <trkpt lat="45.77883" lon="5.52641">
        <ele>596.603</ele>
        <time>2026-05-25T10:33:39Z</time>
      </trkpt>
      <trkpt lat="45.77879" lon="5.52637">
        <ele>596.503</ele>
        <time>2026-05-25T10:33:43Z</time>
      </trkpt>
      <trkpt lat="45.77875" lon="5.52633">
        <ele>596.103</ele>
        <time>2026-05-25T10:33:47Z</time>
      </trkpt>
      <trkpt lat="45.77869" lon="5.52632">
        <ele>596.103</ele>
        <time>2026-05-25T10:33:51Z</time>
      </trkpt>
      <trkpt lat="45.77864" lon="5.5263">
        <ele>596.603</ele>
        <time>2026-05-25T10:33:55Z</time>
      </trkpt>
      <trkpt lat="45.77859" lon="5.52628">
        <ele>597.203</ele>
        <time>2026-05-25T10:33:59Z</time>
      </trkpt>
      <trkpt lat="45.77853" lon="5.52627">
        <ele>597.603</ele>
        <time>2026-05-25T10:34:04Z</time>
      </trkpt>
      <trkpt lat="45.77848" lon="5.52624">
        <ele>597.203</ele>
        <time>2026-05-25T10:34:09Z</time>
      </trkpt>
      <trkpt lat="45.77844" lon="5.52621">
        <ele>596.603</ele>
        <time>2026-05-25T10:34:13Z</time>
      </trkpt>
      <trkpt lat="45.7784" lon="5.52618">
        <ele>595.403</ele>
        <time>2026-05-25T10:34:17Z</time>
      </trkpt>
      <trkpt lat="45.77836" lon="5.52616">
        <ele>593.003</ele>
        <time>2026-05-25T10:34:22Z</time>
      </trkpt>
      <trkpt lat="45.77831" lon="5.52618">
        <ele>591.703</ele>
        <time>2026-05-25T10:34:27Z</time>
      </trkpt>
      <trkpt lat="45.77828" lon="5.52622">
        <ele>589.803</ele>
        <time>2026-05-25T10:34:34Z</time>
      </trkpt>
      <trkpt lat="45.77825" lon="5.52629">
        <ele>588.503</ele>
        <time>2026-05-25T10:34:54Z</time>
      </trkpt>
      <trkpt lat="45.77823" lon="5.52634">
        <ele>588.003</ele>
        <time>2026-05-25T10:34:58Z</time>
      </trkpt>
      <trkpt lat="45.77822" lon="5.52641">
        <ele>586.803</ele>
        <time>2026-05-25T10:35:05Z</time>
      </trkpt>
      <trkpt lat="45.7782" lon="5.52648">
        <ele>586.803</ele>
        <time>2026-05-25T10:35:09Z</time>
      </trkpt>
      <trkpt lat="45.77819" lon="5.52654">
        <ele>587.003</ele>
        <time>2026-05-25T10:35:13Z</time>
      </trkpt>
      <trkpt lat="45.77817" lon="5.52661">
        <ele>587.103</ele>
        <time>2026-05-25T10:35:18Z</time>
      </trkpt>
      <trkpt lat="45.77813" lon="5.52667">
        <ele>587.003</ele>
        <time>2026-05-25T10:35:23Z</time>
      </trkpt>
      <trkpt lat="45.7781" lon="5.52672">
        <ele>586.503</ele>
        <time>2026-05-25T10:35:27Z</time>
      </trkpt>
      <trkpt lat="45.77805" lon="5.52675">
        <ele>586.203</ele>
        <time>2026-05-25T10:35:32Z</time>
      </trkpt>
      <trkpt lat="45.77799" lon="5.52677">
        <ele>586.003</ele>
        <time>2026-05-25T10:35:36Z</time>
      </trkpt>
      <trkpt lat="45.77795" lon="5.52679">
        <ele>586.203</ele>
        <time>2026-05-25T10:35:42Z</time>
      </trkpt>
      <trkpt lat="45.7779" lon="5.52682">
        <ele>586.303</ele>
        <time>2026-05-25T10:35:46Z</time>
      </trkpt>
      <trkpt lat="45.77786" lon="5.52685">
        <ele>586.303</ele>
        <time>2026-05-25T10:35:49Z</time>
      </trkpt>
      <trkpt lat="45.77781" lon="5.52688">
        <ele>586.403</ele>
        <time>2026-05-25T10:35:53Z</time>
      </trkpt>
      <trkpt lat="45.77777" lon="5.52693">
        <ele>586.503</ele>
        <time>2026-05-25T10:35:58Z</time>
      </trkpt>
      <trkpt lat="45.77772" lon="5.52697">
        <ele>586.403</ele>
        <time>2026-05-25T10:36:02Z</time>
      </trkpt>
      <trkpt lat="45.77769" lon="5.52702">
        <ele>585.803</ele>
        <time>2026-05-25T10:36:07Z</time>
      </trkpt>
      <trkpt lat="45.77765" lon="5.52707">
        <ele>584.803</ele>
        <time>2026-05-25T10:36:12Z</time>
      </trkpt>
      <trkpt lat="45.77761" lon="5.52711">
        <ele>584.003</ele>
        <time>2026-05-25T10:36:16Z</time>
      </trkpt>
      <trkpt lat="45.77756" lon="5.52715">
        <ele>582.803</ele>
        <time>2026-05-25T10:36:21Z</time>
      </trkpt>
      <trkpt lat="45.77752" lon="5.52719">
        <ele>581.403</ele>
        <time>2026-05-25T10:36:25Z</time>
      </trkpt>
      <trkpt lat="45.77746" lon="5.52722">
        <ele>580.203</ele>
        <time>2026-05-25T10:36:29Z</time>
      </trkpt>
      <trkpt lat="45.77741" lon="5.52724">
        <ele>579.403</ele>
        <time>2026-05-25T10:36:33Z</time>
      </trkpt>
      <trkpt lat="45.77737" lon="5.52726">
        <ele>578.503</ele>
        <time>2026-05-25T10:36:37Z</time>
      </trkpt>
      <trkpt lat="45.77732" lon="5.52729">
        <ele>577.603</ele>
        <time>2026-05-25T10:36:42Z</time>
      </trkpt>
      <trkpt lat="45.77727" lon="5.5273">
        <ele>576.303</ele>
        <time>2026-05-25T10:36:46Z</time>
      </trkpt>
      <trkpt lat="45.77723" lon="5.52733">
        <ele>576.203</ele>
        <time>2026-05-25T10:36:49Z</time>
      </trkpt>
      <trkpt lat="45.77718" lon="5.52735">
        <ele>576.403</ele>
        <time>2026-05-25T10:36:52Z</time>
      </trkpt>
      <trkpt lat="45.77713" lon="5.52736">
        <ele>576.603</ele>
        <time>2026-05-25T10:36:56Z</time>
      </trkpt>
      <trkpt lat="45.77709" lon="5.52736">
        <ele>576.203</ele>
        <time>2026-05-25T10:37:00Z</time>
      </trkpt>
      <trkpt lat="45.77704" lon="5.52738">
        <ele>575.503</ele>
        <time>2026-05-25T10:37:04Z</time>
      </trkpt>
      <trkpt lat="45.77698" lon="5.52737">
        <ele>575.203</ele>
        <time>2026-05-25T10:37:09Z</time>
      </trkpt>
      <trkpt lat="45.77698" lon="5.5273">
        <ele>574.803</ele>
        <time>2026-05-25T10:37:15Z</time>
      </trkpt>
      <trkpt lat="45.77701" lon="5.52725">
        <ele>574.103</ele>
        <time>2026-05-25T10:37:21Z</time>
      </trkpt>
      <trkpt lat="45.77703" lon="5.52719">
        <ele>574.103</ele>
        <time>2026-05-25T10:37:26Z</time>
      </trkpt>
      <trkpt lat="45.77705" lon="5.52712">
        <ele>573.703</ele>
        <time>2026-05-25T10:37:31Z</time>
      </trkpt>
      <trkpt lat="45.77707" lon="5.52706">
        <ele>573.203</ele>
        <time>2026-05-25T10:37:36Z</time>
      </trkpt>
      <trkpt lat="45.7771" lon="5.52699">
        <ele>572.403</ele>
        <time>2026-05-25T10:37:42Z</time>
      </trkpt>
      <trkpt lat="45.77712" lon="5.52693">
        <ele>571.503</ele>
        <time>2026-05-25T10:37:47Z</time>
      </trkpt>
      <trkpt lat="45.77715" lon="5.52687">
        <ele>571.003</ele>
        <time>2026-05-25T10:37:51Z</time>
      </trkpt>
      <trkpt lat="45.77718" lon="5.52681">
        <ele>571.603</ele>
        <time>2026-05-25T10:37:55Z</time>
      </trkpt>
      <trkpt lat="45.77721" lon="5.52675">
        <ele>572.203</ele>
        <time>2026-05-25T10:37:59Z</time>
      </trkpt>
      <trkpt lat="45.77724" lon="5.52669">
        <ele>572.003</ele>
        <time>2026-05-25T10:38:03Z</time>
      </trkpt>
      <trkpt lat="45.77726" lon="5.52662">
        <ele>570.703</ele>
        <time>2026-05-25T10:38:08Z</time>
      </trkpt>
      <trkpt lat="45.77729" lon="5.52656">
        <ele>569.703</ele>
        <time>2026-05-25T10:38:12Z</time>
      </trkpt>
      <trkpt lat="45.77732" lon="5.52649">
        <ele>568.603</ele>
        <time>2026-05-25T10:38:17Z</time>
      </trkpt>
      <trkpt lat="45.77734" lon="5.52643">
        <ele>567.903</ele>
        <time>2026-05-25T10:38:21Z</time>
      </trkpt>
      <trkpt lat="45.77737" lon="5.52638">
        <ele>567.003</ele>
        <time>2026-05-25T10:38:26Z</time>
      </trkpt>
      <trkpt lat="45.7774" lon="5.52632">
        <ele>566.903</ele>
        <time>2026-05-25T10:38:30Z</time>
      </trkpt>
      <trkpt lat="45.77742" lon="5.52626">
        <ele>566.603</ele>
        <time>2026-05-25T10:38:34Z</time>
      </trkpt>
      <trkpt lat="45.77745" lon="5.5262">
        <ele>565.303</ele>
        <time>2026-05-25T10:38:38Z</time>
      </trkpt>
      <trkpt lat="45.77748" lon="5.52615">
        <ele>564.403</ele>
        <time>2026-05-25T10:38:42Z</time>
      </trkpt>
      <trkpt lat="45.7775" lon="5.52608">
        <ele>563.503</ele>
        <time>2026-05-25T10:38:47Z</time>
      </trkpt>
      <trkpt lat="45.77751" lon="5.52601">
        <ele>562.703</ele>
        <time>2026-05-25T10:38:53Z</time>
      </trkpt>
      <trkpt lat="45.77751" lon="5.52593">
        <ele>562.003</ele>
        <time>2026-05-25T10:38:59Z</time>
      </trkpt>
      <trkpt lat="45.77751" lon="5.52585">
        <ele>561.303</ele>
        <time>2026-05-25T10:39:03Z</time>
      </trkpt>
      <trkpt lat="45.77751" lon="5.52578">
        <ele>560.503</ele>
        <time>2026-05-25T10:39:07Z</time>
      </trkpt>
      <trkpt lat="45.77752" lon="5.52571">
        <ele>559.603</ele>
        <time>2026-05-25T10:39:11Z</time>
      </trkpt>
      <trkpt lat="45.77753" lon="5.52563">
        <ele>558.703</ele>
        <time>2026-05-25T10:39:16Z</time>
      </trkpt>
      <trkpt lat="45.77752" lon="5.52555">
        <ele>558.203</ele>
        <time>2026-05-25T10:39:21Z</time>
      </trkpt>
      <trkpt lat="45.77753" lon="5.52547">
        <ele>558.403</ele>
        <time>2026-05-25T10:39:26Z</time>
      </trkpt>
      <trkpt lat="45.77753" lon="5.5254">
        <ele>558.503</ele>
        <time>2026-05-25T10:39:30Z</time>
      </trkpt>
      <trkpt lat="45.77752" lon="5.52532">
        <ele>558.903</ele>
        <time>2026-05-25T10:39:34Z</time>
      </trkpt>
      <trkpt lat="45.77751" lon="5.52525">
        <ele>559.503</ele>
        <time>2026-05-25T10:39:37Z</time>
      </trkpt>
      <trkpt lat="45.77751" lon="5.52517">
        <ele>558.803</ele>
        <time>2026-05-25T10:39:41Z</time>
      </trkpt>
      <trkpt lat="45.77751" lon="5.5251">
        <ele>558.003</ele>
        <time>2026-05-25T10:39:45Z</time>
      </trkpt>
      <trkpt lat="45.77751" lon="5.52504">
        <ele>557.103</ele>
        <time>2026-05-25T10:39:49Z</time>
      </trkpt>
      <trkpt lat="45.77752" lon="5.52497">
        <ele>556.903</ele>
        <time>2026-05-25T10:39:53Z</time>
      </trkpt>
      <trkpt lat="45.77755" lon="5.52491">
        <ele>557.503</ele>
        <time>2026-05-25T10:39:57Z</time>
      </trkpt>
      <trkpt lat="45.77758" lon="5.52484">
        <ele>557.803</ele>
        <time>2026-05-25T10:40:01Z</time>
      </trkpt>
      <trkpt lat="45.77762" lon="5.5248">
        <ele>558.103</ele>
        <time>2026-05-25T10:40:05Z</time>
      </trkpt>
      <trkpt lat="45.77766" lon="5.52476">
        <ele>557.903</ele>
        <time>2026-05-25T10:40:10Z</time>
      </trkpt>
      <trkpt lat="45.77772" lon="5.52475">
        <ele>556.903</ele>
        <time>2026-05-25T10:40:15Z</time>
      </trkpt>
      <trkpt lat="45.77777" lon="5.52474">
        <ele>555.903</ele>
        <time>2026-05-25T10:40:20Z</time>
      </trkpt>
      <trkpt lat="45.77782" lon="5.52474">
        <ele>555.003</ele>
        <time>2026-05-25T10:40:24Z</time>
      </trkpt>
      <trkpt lat="45.77787" lon="5.52474">
        <ele>554.203</ele>
        <time>2026-05-25T10:40:28Z</time>
      </trkpt>
      <trkpt lat="45.77793" lon="5.52473">
        <ele>552.903</ele>
        <time>2026-05-25T10:40:33Z</time>
      </trkpt>
      <trkpt lat="45.77798" lon="5.52473">
        <ele>551.503</ele>
        <time>2026-05-25T10:40:38Z</time>
      </trkpt>
      <trkpt lat="45.77803" lon="5.52473">
        <ele>550.403</ele>
        <time>2026-05-25T10:40:43Z</time>
      </trkpt>
      <trkpt lat="45.77808" lon="5.52473">
        <ele>550.503</ele>
        <time>2026-05-25T10:40:47Z</time>
      </trkpt>
      <trkpt lat="45.77812" lon="5.52474">
        <ele>549.803</ele>
        <time>2026-05-25T10:40:51Z</time>
      </trkpt>
      <trkpt lat="45.77818" lon="5.52475">
        <ele>549.203</ele>
        <time>2026-05-25T10:40:55Z</time>
      </trkpt>
      <trkpt lat="45.77823" lon="5.52475">
        <ele>548.503</ele>
        <time>2026-05-25T10:40:59Z</time>
      </trkpt>
      <trkpt lat="45.77829" lon="5.52475">
        <ele>547.703</ele>
        <time>2026-05-25T10:41:03Z</time>
      </trkpt>
      <trkpt lat="45.77834" lon="5.52474">
        <ele>546.703</ele>
        <time>2026-05-25T10:41:07Z</time>
      </trkpt>
      <trkpt lat="45.77838" lon="5.52472">
        <ele>545.503</ele>
        <time>2026-05-25T10:41:11Z</time>
      </trkpt>
      <trkpt lat="45.77843" lon="5.5247">
        <ele>544.703</ele>
        <time>2026-05-25T10:41:15Z</time>
      </trkpt>
      <trkpt lat="45.77847" lon="5.52468">
        <ele>544.103</ele>
        <time>2026-05-25T10:41:19Z</time>
      </trkpt>
      <trkpt lat="45.77852" lon="5.52466">
        <ele>543.403</ele>
        <time>2026-05-25T10:41:23Z</time>
      </trkpt>
      <trkpt lat="45.77854" lon="5.5246">
        <ele>542.303</ele>
        <time>2026-05-25T10:41:28Z</time>
      </trkpt>
      <trkpt lat="45.77852" lon="5.52453">
        <ele>540.703</ele>
        <time>2026-05-25T10:41:32Z</time>
      </trkpt>
      <trkpt lat="45.77848" lon="5.52449">
        <ele>539.403</ele>
        <time>2026-05-25T10:41:36Z</time>
      </trkpt>
      <trkpt lat="45.77843" lon="5.52446">
        <ele>538.303</ele>
        <time>2026-05-25T10:41:40Z</time>
      </trkpt>
      <trkpt lat="45.77839" lon="5.52442">
        <ele>536.603</ele>
        <time>2026-05-25T10:41:45Z</time>
      </trkpt>
      <trkpt lat="45.77834" lon="5.52437">
        <ele>535.703</ele>
        <time>2026-05-25T10:41:49Z</time>
      </trkpt>
      <trkpt lat="45.77831" lon="5.52432">
        <ele>535.003</ele>
        <time>2026-05-25T10:41:53Z</time>
      </trkpt>
      <trkpt lat="45.77828" lon="5.52426">
        <ele>534.603</ele>
        <time>2026-05-25T10:41:57Z</time>
      </trkpt>
      <trkpt lat="45.77825" lon="5.5242">
        <ele>534.603</ele>
        <time>2026-05-25T10:42:01Z</time>
      </trkpt>
      <trkpt lat="45.77822" lon="5.52414">
        <ele>535.003</ele>
        <time>2026-05-25T10:42:05Z</time>
      </trkpt>
      <trkpt lat="45.77819" lon="5.52408">
        <ele>535.003</ele>
        <time>2026-05-25T10:42:09Z</time>
      </trkpt>
      <trkpt lat="45.77817" lon="5.52403">
        <ele>534.303</ele>
        <time>2026-05-25T10:42:13Z</time>
      </trkpt>
      <trkpt lat="45.77813" lon="5.52398">
        <ele>534.003</ele>
        <time>2026-05-25T10:42:17Z</time>
      </trkpt>
      <trkpt lat="45.7781" lon="5.52393">
        <ele>533.203</ele>
        <time>2026-05-25T10:42:21Z</time>
      </trkpt>
      <trkpt lat="45.77807" lon="5.52387">
        <ele>532.403</ele>
        <time>2026-05-25T10:42:25Z</time>
      </trkpt>
      <trkpt lat="45.77803" lon="5.52382">
        <ele>531.603</ele>
        <time>2026-05-25T10:42:29Z</time>
      </trkpt>
      <trkpt lat="45.77799" lon="5.52377">
        <ele>530.203</ele>
        <time>2026-05-25T10:42:34Z</time>
      </trkpt>
      <trkpt lat="45.77796" lon="5.52372">
        <ele>528.603</ele>
        <time>2026-05-25T10:42:38Z</time>
      </trkpt>
      <trkpt lat="45.77793" lon="5.52368">
        <ele>527.003</ele>
        <time>2026-05-25T10:42:42Z</time>
      </trkpt>
      <trkpt lat="45.77789" lon="5.52363">
        <ele>525.503</ele>
        <time>2026-05-25T10:42:46Z</time>
      </trkpt>
      <trkpt lat="45.77787" lon="5.52358">
        <ele>524.503</ele>
        <time>2026-05-25T10:42:50Z</time>
      </trkpt>
      <trkpt lat="45.77783" lon="5.52353">
        <ele>523.103</ele>
        <time>2026-05-25T10:42:54Z</time>
      </trkpt>
      <trkpt lat="45.7778" lon="5.52348">
        <ele>521.303</ele>
        <time>2026-05-25T10:42:58Z</time>
      </trkpt>
      <trkpt lat="45.77777" lon="5.52342">
        <ele>520.203</ele>
        <time>2026-05-25T10:43:02Z</time>
      </trkpt>
      <trkpt lat="45.77773" lon="5.52337">
        <ele>518.603</ele>
        <time>2026-05-25T10:43:06Z</time>
      </trkpt>
      <trkpt lat="45.77772" lon="5.5233">
        <ele>518.903</ele>
        <time>2026-05-25T10:43:26Z</time>
      </trkpt>
      <trkpt lat="45.77771" lon="5.52322">
        <ele>518.503</ele>
        <time>2026-05-25T10:43:32Z</time>
      </trkpt>
      <trkpt lat="45.77766" lon="5.52317">
        <ele>517.603</ele>
        <time>2026-05-25T10:43:38Z</time>
      </trkpt>
      <trkpt lat="45.77762" lon="5.52312">
        <ele>516.603</ele>
        <time>2026-05-25T10:43:43Z</time>
      </trkpt>
      <trkpt lat="45.77758" lon="5.52305">
        <ele>515.903</ele>
        <time>2026-05-25T10:43:47Z</time>
      </trkpt>
      <trkpt lat="45.77755" lon="5.52299">
        <ele>515.203</ele>
        <time>2026-05-25T10:43:51Z</time>
      </trkpt>
      <trkpt lat="45.77752" lon="5.52293">
        <ele>514.502</ele>
        <time>2026-05-25T10:43:55Z</time>
      </trkpt>
      <trkpt lat="45.77749" lon="5.52286">
        <ele>513.902</ele>
        <time>2026-05-25T10:43:59Z</time>
      </trkpt>
      <trkpt lat="45.77746" lon="5.5228">
        <ele>512.702</ele>
        <time>2026-05-25T10:44:03Z</time>
      </trkpt>
      <trkpt lat="45.77744" lon="5.52273">
        <ele>511.202</ele>
        <time>2026-05-25T10:44:07Z</time>
      </trkpt>
      <trkpt lat="45.77742" lon="5.52266">
        <ele>509.802</ele>
        <time>2026-05-25T10:44:11Z</time>
      </trkpt>
      <trkpt lat="45.7774" lon="5.5226">
        <ele>508.102</ele>
        <time>2026-05-25T10:44:15Z</time>
      </trkpt>
      <trkpt lat="45.77739" lon="5.52253">
        <ele>505.702</ele>
        <time>2026-05-25T10:44:19Z</time>
      </trkpt>
      <trkpt lat="45.77737" lon="5.52245">
        <ele>503.802</ele>
        <time>2026-05-25T10:44:23Z</time>
      </trkpt>
      <trkpt lat="45.77736" lon="5.52239">
        <ele>502.502</ele>
        <time>2026-05-25T10:44:27Z</time>
      </trkpt>
      <trkpt lat="45.77735" lon="5.52232">
        <ele>501.302</ele>
        <time>2026-05-25T10:44:31Z</time>
      </trkpt>
      <trkpt lat="45.77735" lon="5.52226">
        <ele>499.202</ele>
        <time>2026-05-25T10:44:36Z</time>
      </trkpt>
      <trkpt lat="45.77734" lon="5.52219">
        <ele>498.002</ele>
        <time>2026-05-25T10:44:41Z</time>
      </trkpt>
      <trkpt lat="45.77733" lon="5.52212">
        <ele>497.602</ele>
        <time>2026-05-25T10:44:45Z</time>
      </trkpt>
      <trkpt lat="45.77732" lon="5.52205">
        <ele>496.802</ele>
        <time>2026-05-25T10:44:49Z</time>
      </trkpt>
      <trkpt lat="45.77732" lon="5.52199">
        <ele>496.602</ele>
        <time>2026-05-25T10:44:53Z</time>
      </trkpt>
      <trkpt lat="45.77732" lon="5.52192">
        <ele>495.802</ele>
        <time>2026-05-25T10:44:57Z</time>
      </trkpt>
      <trkpt lat="45.77732" lon="5.52186">
        <ele>494.902</ele>
        <time>2026-05-25T10:45:01Z</time>
      </trkpt>
      <trkpt lat="45.77732" lon="5.52179">
        <ele>494.402</ele>
        <time>2026-05-25T10:45:06Z</time>
      </trkpt>
      <trkpt lat="45.77732" lon="5.52172">
        <ele>493.602</ele>
        <time>2026-05-25T10:45:10Z</time>
      </trkpt>
      <trkpt lat="45.77732" lon="5.52165">
        <ele>492.702</ele>
        <time>2026-05-25T10:45:14Z</time>
      </trkpt>
      <trkpt lat="45.77731" lon="5.52158">
        <ele>492.302</ele>
        <time>2026-05-25T10:45:18Z</time>
      </trkpt>
      <trkpt lat="45.77731" lon="5.5215">
        <ele>491.502</ele>
        <time>2026-05-25T10:45:22Z</time>
      </trkpt>
      <trkpt lat="45.77731" lon="5.52144">
        <ele>490.002</ele>
        <time>2026-05-25T10:45:26Z</time>
      </trkpt>
      <trkpt lat="45.7773" lon="5.52137">
        <ele>488.002</ele>
        <time>2026-05-25T10:45:31Z</time>
      </trkpt>
      <trkpt lat="45.7773" lon="5.52129">
        <ele>486.802</ele>
        <time>2026-05-25T10:45:35Z</time>
      </trkpt>
      <trkpt lat="45.7773" lon="5.52122">
        <ele>486.102</ele>
        <time>2026-05-25T10:45:38Z</time>
      </trkpt>
      <trkpt lat="45.77731" lon="5.52115">
        <ele>485.202</ele>
        <time>2026-05-25T10:45:42Z</time>
      </trkpt>
      <trkpt lat="45.77733" lon="5.52108">
        <ele>484.502</ele>
        <time>2026-05-25T10:45:46Z</time>
      </trkpt>
      <trkpt lat="45.77735" lon="5.52102">
        <ele>483.802</ele>
        <time>2026-05-25T10:45:50Z</time>
      </trkpt>
      <trkpt lat="45.77738" lon="5.52097">
        <ele>483.302</ele>
        <time>2026-05-25T10:45:54Z</time>
      </trkpt>
      <trkpt lat="45.77742" lon="5.52091">
        <ele>482.702</ele>
        <time>2026-05-25T10:45:58Z</time>
      </trkpt>
      <trkpt lat="45.77745" lon="5.52086">
        <ele>482.302</ele>
        <time>2026-05-25T10:46:03Z</time>
      </trkpt>
      <trkpt lat="45.77749" lon="5.52081">
        <ele>481.302</ele>
        <time>2026-05-25T10:46:08Z</time>
      </trkpt>
      <trkpt lat="45.77754" lon="5.52077">
        <ele>480.602</ele>
        <time>2026-05-25T10:46:13Z</time>
      </trkpt>
      <trkpt lat="45.77759" lon="5.52075">
        <ele>480.102</ele>
        <time>2026-05-25T10:46:17Z</time>
      </trkpt>
      <trkpt lat="45.77764" lon="5.52071">
        <ele>480.202</ele>
        <time>2026-05-25T10:46:22Z</time>
      </trkpt>
      <trkpt lat="45.77768" lon="5.52069">
        <ele>480.602</ele>
        <time>2026-05-25T10:46:27Z</time>
      </trkpt>
      <trkpt lat="45.77773" lon="5.52069">
        <ele>480.702</ele>
        <time>2026-05-25T10:46:31Z</time>
      </trkpt>
      <trkpt lat="45.77778" lon="5.52066">
        <ele>481.002</ele>
        <time>2026-05-25T10:46:35Z</time>
      </trkpt>
      <trkpt lat="45.77783" lon="5.52063">
        <ele>480.702</ele>
        <time>2026-05-25T10:46:39Z</time>
      </trkpt>
      <trkpt lat="45.77787" lon="5.52058">
        <ele>480.602</ele>
        <time>2026-05-25T10:46:43Z</time>
      </trkpt>
      <trkpt lat="45.77791" lon="5.52054">
        <ele>480.402</ele>
        <time>2026-05-25T10:46:47Z</time>
      </trkpt>
      <trkpt lat="45.77796" lon="5.52051">
        <ele>480.002</ele>
        <time>2026-05-25T10:46:51Z</time>
      </trkpt>
      <trkpt lat="45.77801" lon="5.52049">
        <ele>479.602</ele>
        <time>2026-05-25T10:46:55Z</time>
      </trkpt>
      <trkpt lat="45.77806" lon="5.52046">
        <ele>479.702</ele>
        <time>2026-05-25T10:46:59Z</time>
      </trkpt>
      <trkpt lat="45.7781" lon="5.52043">
        <ele>479.302</ele>
        <time>2026-05-25T10:47:03Z</time>
      </trkpt>
      <trkpt lat="45.77815" lon="5.52039">
        <ele>479.402</ele>
        <time>2026-05-25T10:47:07Z</time>
      </trkpt>
      <trkpt lat="45.77819" lon="5.52036">
        <ele>479.202</ele>
        <time>2026-05-25T10:47:10Z</time>
      </trkpt>
      <trkpt lat="45.77824" lon="5.52031">
        <ele>479.002</ele>
        <time>2026-05-25T10:47:14Z</time>
      </trkpt>
      <trkpt lat="45.77828" lon="5.52026">
        <ele>479.002</ele>
        <time>2026-05-25T10:47:18Z</time>
      </trkpt>
      <trkpt lat="45.77831" lon="5.52021">
        <ele>478.702</ele>
        <time>2026-05-25T10:47:22Z</time>
      </trkpt>
      <trkpt lat="45.77836" lon="5.52016">
        <ele>478.602</ele>
        <time>2026-05-25T10:47:26Z</time>
      </trkpt>
      <trkpt lat="45.77839" lon="5.52011">
        <ele>479.002</ele>
        <time>2026-05-25T10:47:30Z</time>
      </trkpt>
      <trkpt lat="45.77842" lon="5.52006">
        <ele>479.102</ele>
        <time>2026-05-25T10:47:34Z</time>
      </trkpt>
      <trkpt lat="45.77845" lon="5.52">
        <ele>478.702</ele>
        <time>2026-05-25T10:47:39Z</time>
      </trkpt>
      <trkpt lat="45.7785" lon="5.51997">
        <ele>477.502</ele>
        <time>2026-05-25T10:47:44Z</time>
      </trkpt>
      <trkpt lat="45.77854" lon="5.51992">
        <ele>476.902</ele>
        <time>2026-05-25T10:47:48Z</time>
      </trkpt>
      <trkpt lat="45.77857" lon="5.51986">
        <ele>476.002</ele>
        <time>2026-05-25T10:47:52Z</time>
      </trkpt>
      <trkpt lat="45.77861" lon="5.5198">
        <ele>475.202</ele>
        <time>2026-05-25T10:47:56Z</time>
      </trkpt>
      <trkpt lat="45.77865" lon="5.51975">
        <ele>474.602</ele>
        <time>2026-05-25T10:48:00Z</time>
      </trkpt>
      <trkpt lat="45.77868" lon="5.51969">
        <ele>474.102</ele>
        <time>2026-05-25T10:48:04Z</time>
      </trkpt>
      <trkpt lat="45.7787" lon="5.51962">
        <ele>473.402</ele>
        <time>2026-05-25T10:48:09Z</time>
      </trkpt>
      <trkpt lat="45.77873" lon="5.51957">
        <ele>472.402</ele>
        <time>2026-05-25T10:48:13Z</time>
      </trkpt>
      <trkpt lat="45.77873" lon="5.51949">
        <ele>471.902</ele>
        <time>2026-05-25T10:48:17Z</time>
      </trkpt>
      <trkpt lat="45.77875" lon="5.51943">
        <ele>471.502</ele>
        <time>2026-05-25T10:48:21Z</time>
      </trkpt>
      <trkpt lat="45.77879" lon="5.51938">
        <ele>471.602</ele>
        <time>2026-05-25T10:48:25Z</time>
      </trkpt>
      <trkpt lat="45.77883" lon="5.51933">
        <ele>471.502</ele>
        <time>2026-05-25T10:48:30Z</time>
      </trkpt>
      <trkpt lat="45.77887" lon="5.51928">
        <ele>471.302</ele>
        <time>2026-05-25T10:48:35Z</time>
      </trkpt>
      <trkpt lat="45.7789" lon="5.51924">
        <ele>470.402</ele>
        <time>2026-05-25T10:48:39Z</time>
      </trkpt>
      <trkpt lat="45.77895" lon="5.5192">
        <ele>469.402</ele>
        <time>2026-05-25T10:48:44Z</time>
      </trkpt>
      <trkpt lat="45.77899" lon="5.51915">
        <ele>468.202</ele>
        <time>2026-05-25T10:48:48Z</time>
      </trkpt>
      <trkpt lat="45.77902" lon="5.51911">
        <ele>467.702</ele>
        <time>2026-05-25T10:48:52Z</time>
      </trkpt>
      <trkpt lat="45.77905" lon="5.51906">
        <ele>467.302</ele>
        <time>2026-05-25T10:48:56Z</time>
      </trkpt>
      <trkpt lat="45.77909" lon="5.51902">
        <ele>467.302</ele>
        <time>2026-05-25T10:49:01Z</time>
      </trkpt>
      <trkpt lat="45.77914" lon="5.51898">
        <ele>466.902</ele>
        <time>2026-05-25T10:49:06Z</time>
      </trkpt>
      <trkpt lat="45.77919" lon="5.51895">
        <ele>467.002</ele>
        <time>2026-05-25T10:49:12Z</time>
      </trkpt>
      <trkpt lat="45.77924" lon="5.51892">
        <ele>466.402</ele>
        <time>2026-05-25T10:49:18Z</time>
      </trkpt>
      <trkpt lat="45.77929" lon="5.51892">
        <ele>465.702</ele>
        <time>2026-05-25T10:49:23Z</time>
      </trkpt>
      <trkpt lat="45.77934" lon="5.51889">
        <ele>465.102</ele>
        <time>2026-05-25T10:49:28Z</time>
      </trkpt>
      <trkpt lat="45.77938" lon="5.51887">
        <ele>464.702</ele>
        <time>2026-05-25T10:49:32Z</time>
      </trkpt>
      <trkpt lat="45.77943" lon="5.51883">
        <ele>465.302</ele>
        <time>2026-05-25T10:49:36Z</time>
      </trkpt>
      <trkpt lat="45.77948" lon="5.51879">
        <ele>464.702</ele>
        <time>2026-05-25T10:49:40Z</time>
      </trkpt>
      <trkpt lat="45.77953" lon="5.51876">
        <ele>464.302</ele>
        <time>2026-05-25T10:49:44Z</time>
      </trkpt>
      <trkpt lat="45.77957" lon="5.51873">
        <ele>463.702</ele>
        <time>2026-05-25T10:49:48Z</time>
      </trkpt>
      <trkpt lat="45.7796" lon="5.51868">
        <ele>462.702</ele>
        <time>2026-05-25T10:49:52Z</time>
      </trkpt>
      <trkpt lat="45.77962" lon="5.51862">
        <ele>461.702</ele>
        <time>2026-05-25T10:49:57Z</time>
      </trkpt>
      <trkpt lat="45.77965" lon="5.51855">
        <ele>460.802</ele>
        <time>2026-05-25T10:50:02Z</time>
      </trkpt>
      <trkpt lat="45.77968" lon="5.51851">
        <ele>459.702</ele>
        <time>2026-05-25T10:50:05Z</time>
      </trkpt>
      <trkpt lat="45.77972" lon="5.51847">
        <ele>457.902</ele>
        <time>2026-05-25T10:50:09Z</time>
      </trkpt>
      <trkpt lat="45.77977" lon="5.51843">
        <ele>455.902</ele>
        <time>2026-05-25T10:50:14Z</time>
      </trkpt>
      <trkpt lat="45.77979" lon="5.51836">
        <ele>454.802</ele>
        <time>2026-05-25T10:50:18Z</time>
      </trkpt>
      <trkpt lat="45.7798" lon="5.51829">
        <ele>453.502</ele>
        <time>2026-05-25T10:50:22Z</time>
      </trkpt>
      <trkpt lat="45.77983" lon="5.51824">
        <ele>452.202</ele>
        <time>2026-05-25T10:50:26Z</time>
      </trkpt>
      <trkpt lat="45.77988" lon="5.51821">
        <ele>450.702</ele>
        <time>2026-05-25T10:50:31Z</time>
      </trkpt>
      <trkpt lat="45.77991" lon="5.51817">
        <ele>449.602</ele>
        <time>2026-05-25T10:50:36Z</time>
      </trkpt>
      <trkpt lat="45.77996" lon="5.51814">
        <ele>449.003</ele>
        <time>2026-05-25T10:50:43Z</time>
      </trkpt>
      <trkpt lat="45.77999" lon="5.51809">
        <ele>449.303</ele>
        <time>2026-05-25T10:50:52Z</time>
      </trkpt>
      <trkpt lat="45.77999" lon="5.51809">
        <ele>449.103</ele>
        <time>2026-05-25T10:51:13Z</time>
      </trkpt>
      <trkpt lat="45.77999" lon="5.51809">
        <ele>449.103</ele>
        <time>2026-05-25T10:51:34Z</time>
      </trkpt>
      <trkpt lat="45.77999" lon="5.51809">
        <ele>449.103</ele>
        <time>2026-05-25T10:51:54Z</time>
      </trkpt>
      <trkpt lat="45.77999" lon="5.51809">
        <ele>453.203</ele>
        <time>2026-05-25T10:52:15Z</time>
      </trkpt>
      <trkpt lat="45.77999" lon="5.51809">
        <ele>456.303</ele>
        <time>2026-05-25T10:52:35Z</time>
      </trkpt>
      <trkpt lat="45.77999" lon="5.51809">
        <ele>456.303</ele>
        <time>2026-05-25T10:52:55Z</time>
      </trkpt>
      <trkpt lat="45.77999" lon="5.51809">
        <ele>456.303</ele>
        <time>2026-05-25T10:53:16Z</time>
      </trkpt>
      <trkpt lat="45.77999" lon="5.51809">
        <ele>454.503</ele>
        <time>2026-05-25T10:53:22Z</time>
      </trkpt>
      <trkpt lat="45.77999" lon="5.51809">
        <ele>454.403</ele>
        <time>2026-05-25T10:53:42Z</time>
      </trkpt>
      <trkpt lat="45.77999" lon="5.51809">
        <ele>454.403</ele>
        <time>2026-05-25T10:54:03Z</time>
      </trkpt>
      <trkpt lat="45.77999" lon="5.51809">
        <ele>454.403</ele>
        <time>2026-05-25T10:54:24Z</time>
      </trkpt>
      <trkpt lat="45.77999" lon="5.51809">
        <ele>450.703</ele>
        <time>2026-05-25T10:54:32Z</time>
      </trkpt>
      <trkpt lat="45.77991" lon="5.51817">
        <ele>450.902</ele>
        <time>2026-05-25T10:54:52Z</time>
      </trkpt>
      <trkpt lat="45.77991" lon="5.51817">
        <ele>450.902</ele>
        <time>2026-05-25T10:55:13Z</time>
      </trkpt>
      <trkpt lat="45.77983" lon="5.51826">
        <ele>453.002</ele>
        <time>2026-05-25T10:55:19Z</time>
      </trkpt>
      <trkpt lat="45.7798" lon="5.51831">
        <ele>452.802</ele>
        <time>2026-05-25T10:55:24Z</time>
      </trkpt>
      <trkpt lat="45.77977" lon="5.51837">
        <ele>452.502</ele>
        <time>2026-05-25T10:55:31Z</time>
      </trkpt>
      <trkpt lat="45.77973" lon="5.51844">
        <ele>451.702</ele>
        <time>2026-05-25T10:55:38Z</time>
      </trkpt>
      <trkpt lat="45.77969" lon="5.51849">
        <ele>450.702</ele>
        <time>2026-05-25T10:55:42Z</time>
      </trkpt>
      <trkpt lat="45.77967" lon="5.51854">
        <ele>450.402</ele>
        <time>2026-05-25T10:55:46Z</time>
      </trkpt>
      <trkpt lat="45.77964" lon="5.5186">
        <ele>449.902</ele>
        <time>2026-05-25T10:55:51Z</time>
      </trkpt>
      <trkpt lat="45.77961" lon="5.51866">
        <ele>449.902</ele>
        <time>2026-05-25T10:55:57Z</time>
      </trkpt>
      <trkpt lat="45.77958" lon="5.51871">
        <ele>450.002</ele>
        <time>2026-05-25T10:56:03Z</time>
      </trkpt>
      <trkpt lat="45.77954" lon="5.51874">
        <ele>450.002</ele>
        <time>2026-05-25T10:56:07Z</time>
      </trkpt>
      <trkpt lat="45.7795" lon="5.51876">
        <ele>449.802</ele>
        <time>2026-05-25T10:56:11Z</time>
      </trkpt>
      <trkpt lat="45.77945" lon="5.51879">
        <ele>449.802</ele>
        <time>2026-05-25T10:56:16Z</time>
      </trkpt>
      <trkpt lat="45.77941" lon="5.51882">
        <ele>449.502</ele>
        <time>2026-05-25T10:56:21Z</time>
      </trkpt>
      <trkpt lat="45.77936" lon="5.51884">
        <ele>448.602</ele>
        <time>2026-05-25T10:56:26Z</time>
      </trkpt>
      <trkpt lat="45.77931" lon="5.51885">
        <ele>448.202</ele>
        <time>2026-05-25T10:56:32Z</time>
      </trkpt>
      <trkpt lat="45.77926" lon="5.51886">
        <ele>447.902</ele>
        <time>2026-05-25T10:56:38Z</time>
      </trkpt>
      <trkpt lat="45.77922" lon="5.51888">
        <ele>447.902</ele>
        <time>2026-05-25T10:56:44Z</time>
      </trkpt>
      <trkpt lat="45.77917" lon="5.51891">
        <ele>448.202</ele>
        <time>2026-05-25T10:56:53Z</time>
      </trkpt>
      <trkpt lat="45.77913" lon="5.51893">
        <ele>448.602</ele>
        <time>2026-05-25T10:57:00Z</time>
      </trkpt>
      <trkpt lat="45.77909" lon="5.51895">
        <ele>449.402</ele>
        <time>2026-05-25T10:57:05Z</time>
      </trkpt>
      <trkpt lat="45.77904" lon="5.51898">
        <ele>450.302</ele>
        <time>2026-05-25T10:57:10Z</time>
      </trkpt>
      <trkpt lat="45.77901" lon="5.51902">
        <ele>451.702</ele>
        <time>2026-05-25T10:57:17Z</time>
      </trkpt>
      <trkpt lat="45.77897" lon="5.51907">
        <ele>453.302</ele>
        <time>2026-05-25T10:57:24Z</time>
      </trkpt>
      <trkpt lat="45.77893" lon="5.51912">
        <ele>455.102</ele>
        <time>2026-05-25T10:57:32Z</time>
      </trkpt>
      <trkpt lat="45.7789" lon="5.51916">
        <ele>456.202</ele>
        <time>2026-05-25T10:57:37Z</time>
      </trkpt>
      <trkpt lat="45.77886" lon="5.51919">
        <ele>457.302</ele>
        <time>2026-05-25T10:57:42Z</time>
      </trkpt>
      <trkpt lat="45.77882" lon="5.51923">
        <ele>458.202</ele>
        <time>2026-05-25T10:57:46Z</time>
      </trkpt>
      <trkpt lat="45.77878" lon="5.51927">
        <ele>458.902</ele>
        <time>2026-05-25T10:57:50Z</time>
      </trkpt>
      <trkpt lat="45.77875" lon="5.51933">
        <ele>460.002</ele>
        <time>2026-05-25T10:57:54Z</time>
      </trkpt>
      <trkpt lat="45.77876" lon="5.5194">
        <ele>461.102</ele>
        <time>2026-05-25T10:57:58Z</time>
      </trkpt>
      <trkpt lat="45.7788" lon="5.51945">
        <ele>462.702</ele>
        <time>2026-05-25T10:58:03Z</time>
      </trkpt>
      <trkpt lat="45.77884" lon="5.51948">
        <ele>463.902</ele>
        <time>2026-05-25T10:58:09Z</time>
      </trkpt>
      <trkpt lat="45.77888" lon="5.51951">
        <ele>464.802</ele>
        <time>2026-05-25T10:58:14Z</time>
      </trkpt>
      <trkpt lat="45.77893" lon="5.51955">
        <ele>465.102</ele>
        <time>2026-05-25T10:58:20Z</time>
      </trkpt>
      <trkpt lat="45.77897" lon="5.51959">
        <ele>465.302</ele>
        <time>2026-05-25T10:58:25Z</time>
      </trkpt>
      <trkpt lat="45.77902" lon="5.51964">
        <ele>465.502</ele>
        <time>2026-05-25T10:58:31Z</time>
      </trkpt>
      <trkpt lat="45.77904" lon="5.5197">
        <ele>465.902</ele>
        <time>2026-05-25T10:58:35Z</time>
      </trkpt>
      <trkpt lat="45.77906" lon="5.51975">
        <ele>466.102</ele>
        <time>2026-05-25T10:58:39Z</time>
      </trkpt>
      <trkpt lat="45.77909" lon="5.51981">
        <ele>465.602</ele>
        <time>2026-05-25T10:58:43Z</time>
      </trkpt>
      <trkpt lat="45.77912" lon="5.51987">
        <ele>464.403</ele>
        <time>2026-05-25T10:58:48Z</time>
      </trkpt>
      <trkpt lat="45.77917" lon="5.51991">
        <ele>463.303</ele>
        <time>2026-05-25T10:58:52Z</time>
      </trkpt>
      <trkpt lat="45.77921" lon="5.51994">
        <ele>462.903</ele>
        <time>2026-05-25T10:58:55Z</time>
      </trkpt>
      <trkpt lat="45.77925" lon="5.51998">
        <ele>462.803</ele>
        <time>2026-05-25T10:58:59Z</time>
      </trkpt>
      <trkpt lat="45.77929" lon="5.52003">
        <ele>462.903</ele>
        <time>2026-05-25T10:59:03Z</time>
      </trkpt>
      <trkpt lat="45.77932" lon="5.52009">
        <ele>462.903</ele>
        <time>2026-05-25T10:59:07Z</time>
      </trkpt>
      <trkpt lat="45.77935" lon="5.52014">
        <ele>462.903</ele>
        <time>2026-05-25T10:59:11Z</time>
      </trkpt>
      <trkpt lat="45.77937" lon="5.5202">
        <ele>462.603</ele>
        <time>2026-05-25T10:59:15Z</time>
      </trkpt>
      <trkpt lat="45.77936" lon="5.52027">
        <ele>461.803</ele>
        <time>2026-05-25T10:59:20Z</time>
      </trkpt>
      <trkpt lat="45.77937" lon="5.52035">
        <ele>460.703</ele>
        <time>2026-05-25T10:59:26Z</time>
      </trkpt>
      <trkpt lat="45.77937" lon="5.52042">
        <ele>458.703</ele>
        <time>2026-05-25T10:59:32Z</time>
      </trkpt>
      <trkpt lat="45.77937" lon="5.52049">
        <ele>457.503</ele>
        <time>2026-05-25T10:59:36Z</time>
      </trkpt>
      <trkpt lat="45.77934" lon="5.52055">
        <ele>456.503</ele>
        <time>2026-05-25T10:59:40Z</time>
      </trkpt>
      <trkpt lat="45.77935" lon="5.52061">
        <ele>455.103</ele>
        <time>2026-05-25T10:59:46Z</time>
      </trkpt>
      <trkpt lat="45.77937" lon="5.52068">
        <ele>453.703</ele>
        <time>2026-05-25T10:59:50Z</time>
      </trkpt>
      <trkpt lat="45.7794" lon="5.52073">
        <ele>452.603</ele>
        <time>2026-05-25T10:59:53Z</time>
      </trkpt>
      <trkpt lat="45.77943" lon="5.52078">
        <ele>452.203</ele>
        <time>2026-05-25T10:59:56Z</time>
      </trkpt>
      <trkpt lat="45.77947" lon="5.52084">
        <ele>451.403</ele>
        <time>2026-05-25T11:00:01Z</time>
      </trkpt>
      <trkpt lat="45.7795" lon="5.52092">
        <ele>451.803</ele>
        <time>2026-05-25T11:00:05Z</time>
      </trkpt>
      <trkpt lat="45.77954" lon="5.52097">
        <ele>451.903</ele>
        <time>2026-05-25T11:00:08Z</time>
      </trkpt>
      <trkpt lat="45.77958" lon="5.52101">
        <ele>451.403</ele>
        <time>2026-05-25T11:00:12Z</time>
      </trkpt>
      <trkpt lat="45.77962" lon="5.52107">
        <ele>450.603</ele>
        <time>2026-05-25T11:00:16Z</time>
      </trkpt>
      <trkpt lat="45.77965" lon="5.52112">
        <ele>449.703</ele>
        <time>2026-05-25T11:00:20Z</time>
      </trkpt>
      <trkpt lat="45.77967" lon="5.52118">
        <ele>449.403</ele>
        <time>2026-05-25T11:00:24Z</time>
      </trkpt>
      <trkpt lat="45.77969" lon="5.52124">
        <ele>449.103</ele>
        <time>2026-05-25T11:00:28Z</time>
      </trkpt>
      <trkpt lat="45.77971" lon="5.52131">
        <ele>449.203</ele>
        <time>2026-05-25T11:00:33Z</time>
      </trkpt>
      <trkpt lat="45.77973" lon="5.52137">
        <ele>449.403</ele>
        <time>2026-05-25T11:00:37Z</time>
      </trkpt>
      <trkpt lat="45.77974" lon="5.52144">
        <ele>449.203</ele>
        <time>2026-05-25T11:00:41Z</time>
      </trkpt>
      <trkpt lat="45.77975" lon="5.5215">
        <ele>448.203</ele>
        <time>2026-05-25T11:00:46Z</time>
      </trkpt>
      <trkpt lat="45.77976" lon="5.52157">
        <ele>447.003</ele>
        <time>2026-05-25T11:00:51Z</time>
      </trkpt>
      <trkpt lat="45.77977" lon="5.52164">
        <ele>446.003</ele>
        <time>2026-05-25T11:00:55Z</time>
      </trkpt>
      <trkpt lat="45.77979" lon="5.52172">
        <ele>444.503</ele>
        <time>2026-05-25T11:00:59Z</time>
      </trkpt>
      <trkpt lat="45.77981" lon="5.52178">
        <ele>443.703</ele>
        <time>2026-05-25T11:01:02Z</time>
      </trkpt>
      <trkpt lat="45.77983" lon="5.52183">
        <ele>442.403</ele>
        <time>2026-05-25T11:01:06Z</time>
      </trkpt>
      <trkpt lat="45.77984" lon="5.5219">
        <ele>441.203</ele>
        <time>2026-05-25T11:01:11Z</time>
      </trkpt>
      <trkpt lat="45.77984" lon="5.52197">
        <ele>439.903</ele>
        <time>2026-05-25T11:01:15Z</time>
      </trkpt>
      <trkpt lat="45.77986" lon="5.52204">
        <ele>439.403</ele>
        <time>2026-05-25T11:01:19Z</time>
      </trkpt>
      <trkpt lat="45.77987" lon="5.5221">
        <ele>439.503</ele>
        <time>2026-05-25T11:01:23Z</time>
      </trkpt>
      <trkpt lat="45.77991" lon="5.52212">
        <ele>441.603</ele>
        <time>2026-05-25T11:01:29Z</time>
      </trkpt>
      <trkpt lat="45.77995" lon="5.52211">
        <ele>446.503</ele>
        <time>2026-05-25T11:01:35Z</time>
      </trkpt>
      <trkpt lat="45.77998" lon="5.52207">
        <ele>449.403</ele>
        <time>2026-05-25T11:01:41Z</time>
      </trkpt>
      <trkpt lat="45.78002" lon="5.52202">
        <ele>451.103</ele>
        <time>2026-05-25T11:01:46Z</time>
      </trkpt>
      <trkpt lat="45.78004" lon="5.52197">
        <ele>453.603</ele>
        <time>2026-05-25T11:01:51Z</time>
      </trkpt>
      <trkpt lat="45.78008" lon="5.52194">
        <ele>455.003</ele>
        <time>2026-05-25T11:01:57Z</time>
      </trkpt>
      <trkpt lat="45.78012" lon="5.52189">
        <ele>456.003</ele>
        <time>2026-05-25T11:02:02Z</time>
      </trkpt>
      <trkpt lat="45.78016" lon="5.52184">
        <ele>456.103</ele>
        <time>2026-05-25T11:02:08Z</time>
      </trkpt>
      <trkpt lat="45.78018" lon="5.52178">
        <ele>456.103</ele>
        <time>2026-05-25T11:02:14Z</time>
      </trkpt>
      <trkpt lat="45.78021" lon="5.52172">
        <ele>455.003</ele>
        <time>2026-05-25T11:02:19Z</time>
      </trkpt>
      <trkpt lat="45.78023" lon="5.52166">
        <ele>453.403</ele>
        <time>2026-05-25T11:02:24Z</time>
      </trkpt>
      <trkpt lat="45.78025" lon="5.52159">
        <ele>451.803</ele>
        <time>2026-05-25T11:02:29Z</time>
      </trkpt>
      <trkpt lat="45.78028" lon="5.52155">
        <ele>449.903</ele>
        <time>2026-05-25T11:02:34Z</time>
      </trkpt>
      <trkpt lat="45.78031" lon="5.52149">
        <ele>447.903</ele>
        <time>2026-05-25T11:02:40Z</time>
      </trkpt>
      <trkpt lat="45.78034" lon="5.52145">
        <ele>446.003</ele>
        <time>2026-05-25T11:02:45Z</time>
      </trkpt>
      <trkpt lat="45.78038" lon="5.52142">
        <ele>444.203</ele>
        <time>2026-05-25T11:02:50Z</time>
      </trkpt>
      <trkpt lat="45.78042" lon="5.52137">
        <ele>442.803</ele>
        <time>2026-05-25T11:02:54Z</time>
      </trkpt>
      <trkpt lat="45.78045" lon="5.52132">
        <ele>441.703</ele>
        <time>2026-05-25T11:02:58Z</time>
      </trkpt>
      <trkpt lat="45.78048" lon="5.52127">
        <ele>441.003</ele>
        <time>2026-05-25T11:03:03Z</time>
      </trkpt>
      <trkpt lat="45.78053" lon="5.52124">
        <ele>439.903</ele>
        <time>2026-05-25T11:03:08Z</time>
      </trkpt>
      <trkpt lat="45.78057" lon="5.52121">
        <ele>438.903</ele>
        <time>2026-05-25T11:03:12Z</time>
      </trkpt>
      <trkpt lat="45.78062" lon="5.52119">
        <ele>438.103</ele>
        <time>2026-05-25T11:03:15Z</time>
      </trkpt>
      <trkpt lat="45.78067" lon="5.52117">
        <ele>436.803</ele>
        <time>2026-05-25T11:03:19Z</time>
      </trkpt>
      <trkpt lat="45.78071" lon="5.52113">
        <ele>435.403</ele>
        <time>2026-05-25T11:03:24Z</time>
      </trkpt>
      <trkpt lat="45.78073" lon="5.52107">
        <ele>433.703</ele>
        <time>2026-05-25T11:03:29Z</time>
      </trkpt>
      <trkpt lat="45.78076" lon="5.52102">
        <ele>432.703</ele>
        <time>2026-05-25T11:03:33Z</time>
      </trkpt>
      <trkpt lat="45.7808" lon="5.52096">
        <ele>431.403</ele>
        <time>2026-05-25T11:03:38Z</time>
      </trkpt>
      <trkpt lat="45.78085" lon="5.52092">
        <ele>429.703</ele>
        <time>2026-05-25T11:03:43Z</time>
      </trkpt>
      <trkpt lat="45.78088" lon="5.52089">
        <ele>427.903</ele>
        <time>2026-05-25T11:03:48Z</time>
      </trkpt>
      <trkpt lat="45.78093" lon="5.52088">
        <ele>426.603</ele>
        <time>2026-05-25T11:03:53Z</time>
      </trkpt>
      <trkpt lat="45.78098" lon="5.52085">
        <ele>425.103</ele>
        <time>2026-05-25T11:03:58Z</time>
      </trkpt>
      <trkpt lat="45.78103" lon="5.52082">
        <ele>424.403</ele>
        <time>2026-05-25T11:04:03Z</time>
      </trkpt>
      <trkpt lat="45.78107" lon="5.52082">
        <ele>423.403</ele>
        <time>2026-05-25T11:04:08Z</time>
      </trkpt>
      <trkpt lat="45.78112" lon="5.52083">
        <ele>422.603</ele>
        <time>2026-05-25T11:04:13Z</time>
      </trkpt>
      <trkpt lat="45.78117" lon="5.52083">
        <ele>422.303</ele>
        <time>2026-05-25T11:04:20Z</time>
      </trkpt>
      <trkpt lat="45.78121" lon="5.52085">
        <ele>420.103</ele>
        <time>2026-05-25T11:04:29Z</time>
      </trkpt>
      <trkpt lat="45.78126" lon="5.52088">
        <ele>419.403</ele>
        <time>2026-05-25T11:04:35Z</time>
      </trkpt>
      <trkpt lat="45.78129" lon="5.52093">
        <ele>418.503</ele>
        <time>2026-05-25T11:04:40Z</time>
      </trkpt>
      <trkpt lat="45.78132" lon="5.52099">
        <ele>418.203</ele>
        <time>2026-05-25T11:04:46Z</time>
      </trkpt>
      <trkpt lat="45.78135" lon="5.52104">
        <ele>418.603</ele>
        <time>2026-05-25T11:04:51Z</time>
      </trkpt>
      <trkpt lat="45.7814" lon="5.52106">
        <ele>419.003</ele>
        <time>2026-05-25T11:04:55Z</time>
      </trkpt>
      <trkpt lat="45.78143" lon="5.52111">
        <ele>418.703</ele>
        <time>2026-05-25T11:05:00Z</time>
      </trkpt>
      <trkpt lat="45.78148" lon="5.52115">
        <ele>419.103</ele>
        <time>2026-05-25T11:05:04Z</time>
      </trkpt>
      <trkpt lat="45.78153" lon="5.52117">
        <ele>418.603</ele>
        <time>2026-05-25T11:05:10Z</time>
      </trkpt>
      <trkpt lat="45.78157" lon="5.52116">
        <ele>417.803</ele>
        <time>2026-05-25T11:05:16Z</time>
      </trkpt>
      <trkpt lat="45.78162" lon="5.52116">
        <ele>417.903</ele>
        <time>2026-05-25T11:05:20Z</time>
      </trkpt>
      <trkpt lat="45.78167" lon="5.52114">
        <ele>417.403</ele>
        <time>2026-05-25T11:05:24Z</time>
      </trkpt>
      <trkpt lat="45.78172" lon="5.52111">
        <ele>416.703</ele>
        <time>2026-05-25T11:05:28Z</time>
      </trkpt>
      <trkpt lat="45.78176" lon="5.52109">
        <ele>415.803</ele>
        <time>2026-05-25T11:05:32Z</time>
      </trkpt>
      <trkpt lat="45.7818" lon="5.52105">
        <ele>415.503</ele>
        <time>2026-05-25T11:05:35Z</time>
      </trkpt>
      <trkpt lat="45.78184" lon="5.521">
        <ele>414.903</ele>
        <time>2026-05-25T11:05:39Z</time>
      </trkpt>
      <trkpt lat="45.78187" lon="5.52094">
        <ele>414.403</ele>
        <time>2026-05-25T11:05:43Z</time>
      </trkpt>
      <trkpt lat="45.78191" lon="5.52091">
        <ele>414.103</ele>
        <time>2026-05-25T11:05:48Z</time>
      </trkpt>
      <trkpt lat="45.78195" lon="5.52087">
        <ele>412.703</ele>
        <time>2026-05-25T11:05:53Z</time>
      </trkpt>
      <trkpt lat="45.78197" lon="5.5208">
        <ele>411.603</ele>
        <time>2026-05-25T11:05:57Z</time>
      </trkpt>
      <trkpt lat="45.78199" lon="5.52074">
        <ele>410.903</ele>
        <time>2026-05-25T11:06:01Z</time>
      </trkpt>
      <trkpt lat="45.78203" lon="5.52069">
        <ele>409.803</ele>
        <time>2026-05-25T11:06:06Z</time>
      </trkpt>
      <trkpt lat="45.78207" lon="5.52066">
        <ele>409.303</ele>
        <time>2026-05-25T11:06:10Z</time>
      </trkpt>
      <trkpt lat="45.78213" lon="5.52062">
        <ele>409.303</ele>
        <time>2026-05-25T11:06:14Z</time>
      </trkpt>
      <trkpt lat="45.78217" lon="5.5206">
        <ele>409.203</ele>
        <time>2026-05-25T11:06:17Z</time>
      </trkpt>
      <trkpt lat="45.78222" lon="5.52059">
        <ele>408.703</ele>
        <time>2026-05-25T11:06:20Z</time>
      </trkpt>
      <trkpt lat="45.78228" lon="5.52056">
        <ele>408.703</ele>
        <time>2026-05-25T11:06:24Z</time>
      </trkpt>
      <trkpt lat="45.78232" lon="5.52056">
        <ele>408.603</ele>
        <time>2026-05-25T11:06:28Z</time>
      </trkpt>
      <trkpt lat="45.78236" lon="5.52053">
        <ele>408.303</ele>
        <time>2026-05-25T11:06:33Z</time>
      </trkpt>
      <trkpt lat="45.78242" lon="5.5205">
        <ele>408.003</ele>
        <time>2026-05-25T11:06:38Z</time>
      </trkpt>
      <trkpt lat="45.78247" lon="5.52049">
        <ele>407.203</ele>
        <time>2026-05-25T11:06:42Z</time>
      </trkpt>
      <trkpt lat="45.78252" lon="5.52045">
        <ele>407.603</ele>
        <time>2026-05-25T11:06:46Z</time>
      </trkpt>
      <trkpt lat="45.78256" lon="5.52044">
        <ele>407.803</ele>
        <time>2026-05-25T11:06:51Z</time>
      </trkpt>
      <trkpt lat="45.78261" lon="5.52044">
        <ele>408.203</ele>
        <time>2026-05-25T11:06:55Z</time>
      </trkpt>
      <trkpt lat="45.78265" lon="5.52044">
        <ele>409.303</ele>
        <time>2026-05-25T11:06:59Z</time>
      </trkpt>
      <trkpt lat="45.78271" lon="5.52042">
        <ele>410.103</ele>
        <time>2026-05-25T11:07:04Z</time>
      </trkpt>
      <trkpt lat="45.78275" lon="5.52039">
        <ele>411.403</ele>
        <time>2026-05-25T11:07:11Z</time>
      </trkpt>
      <trkpt lat="45.7828" lon="5.52036">
        <ele>412.203</ele>
        <time>2026-05-25T11:07:16Z</time>
      </trkpt>
      <trkpt lat="45.78285" lon="5.52035">
        <ele>412.603</ele>
        <time>2026-05-25T11:07:20Z</time>
      </trkpt>
      <trkpt lat="45.78289" lon="5.52033">
        <ele>412.603</ele>
        <time>2026-05-25T11:07:24Z</time>
      </trkpt>
      <trkpt lat="45.78294" lon="5.52032">
        <ele>412.503</ele>
        <time>2026-05-25T11:07:27Z</time>
      </trkpt>
      <trkpt lat="45.78298" lon="5.5203">
        <ele>411.803</ele>
        <time>2026-05-25T11:07:31Z</time>
      </trkpt>
      <trkpt lat="45.78303" lon="5.52029">
        <ele>411.503</ele>
        <time>2026-05-25T11:07:36Z</time>
      </trkpt>
      <trkpt lat="45.78308" lon="5.52031">
        <ele>411.103</ele>
        <time>2026-05-25T11:07:40Z</time>
      </trkpt>
      <trkpt lat="45.78312" lon="5.52036">
        <ele>410.203</ele>
        <time>2026-05-25T11:07:44Z</time>
      </trkpt>
      <trkpt lat="45.78314" lon="5.52043">
        <ele>408.803</ele>
        <time>2026-05-25T11:07:49Z</time>
      </trkpt>
      <trkpt lat="45.78316" lon="5.5205">
        <ele>407.803</ele>
        <time>2026-05-25T11:07:53Z</time>
      </trkpt>
      <trkpt lat="45.78317" lon="5.52057">
        <ele>406.703</ele>
        <time>2026-05-25T11:07:57Z</time>
      </trkpt>
      <trkpt lat="45.78318" lon="5.52063">
        <ele>405.003</ele>
        <time>2026-05-25T11:08:01Z</time>
      </trkpt>
      <trkpt lat="45.78319" lon="5.5207">
        <ele>403.204</ele>
        <time>2026-05-25T11:08:05Z</time>
      </trkpt>
      <trkpt lat="45.78322" lon="5.52077">
        <ele>401.704</ele>
        <time>2026-05-25T11:08:09Z</time>
      </trkpt>
      <trkpt lat="45.78325" lon="5.52083">
        <ele>400.204</ele>
        <time>2026-05-25T11:08:13Z</time>
      </trkpt>
      <trkpt lat="45.78329" lon="5.52088">
        <ele>398.804</ele>
        <time>2026-05-25T11:08:17Z</time>
      </trkpt>
      <trkpt lat="45.78333" lon="5.52093">
        <ele>398.304</ele>
        <time>2026-05-25T11:08:21Z</time>
      </trkpt>
      <trkpt lat="45.78337" lon="5.52096">
        <ele>397.604</ele>
        <time>2026-05-25T11:08:25Z</time>
      </trkpt>
      <trkpt lat="45.78342" lon="5.521">
        <ele>396.204</ele>
        <time>2026-05-25T11:08:30Z</time>
      </trkpt>
      <trkpt lat="45.78345" lon="5.52105">
        <ele>393.804</ele>
        <time>2026-05-25T11:08:35Z</time>
      </trkpt>
      <trkpt lat="45.78347" lon="5.52111">
        <ele>392.004</ele>
        <time>2026-05-25T11:08:39Z</time>
      </trkpt>
      <trkpt lat="45.78349" lon="5.52117">
        <ele>390.104</ele>
        <time>2026-05-25T11:08:43Z</time>
      </trkpt>
      <trkpt lat="45.78351" lon="5.52122">
        <ele>387.904</ele>
        <time>2026-05-25T11:08:48Z</time>
      </trkpt>
      <trkpt lat="45.78353" lon="5.52127">
        <ele>385.804</ele>
        <time>2026-05-25T11:08:52Z</time>
      </trkpt>
      <trkpt lat="45.78357" lon="5.52131">
        <ele>383.704</ele>
        <time>2026-05-25T11:08:56Z</time>
      </trkpt>
      <trkpt lat="45.78362" lon="5.52134">
        <ele>381.604</ele>
        <time>2026-05-25T11:09:00Z</time>
      </trkpt>
      <trkpt lat="45.78366" lon="5.52135">
        <ele>380.704</ele>
        <time>2026-05-25T11:09:04Z</time>
      </trkpt>
      <trkpt lat="45.78371" lon="5.52135">
        <ele>380.504</ele>
        <time>2026-05-25T11:09:09Z</time>
      </trkpt>
      <trkpt lat="45.78376" lon="5.52136">
        <ele>380.104</ele>
        <time>2026-05-25T11:09:15Z</time>
      </trkpt>
      <trkpt lat="45.7838" lon="5.5214">
        <ele>378.804</ele>
        <time>2026-05-25T11:09:22Z</time>
      </trkpt>
      <trkpt lat="45.78384" lon="5.52143">
        <ele>378.304</ele>
        <time>2026-05-25T11:09:27Z</time>
      </trkpt>
      <trkpt lat="45.78389" lon="5.52146">
        <ele>377.804</ele>
        <time>2026-05-25T11:09:32Z</time>
      </trkpt>
      <trkpt lat="45.78393" lon="5.52149">
        <ele>376.304</ele>
        <time>2026-05-25T11:09:37Z</time>
      </trkpt>
      <trkpt lat="45.78397" lon="5.52153">
        <ele>375.904</ele>
        <time>2026-05-25T11:09:43Z</time>
      </trkpt>
      <trkpt lat="45.78401" lon="5.52158">
        <ele>375.404</ele>
        <time>2026-05-25T11:09:48Z</time>
      </trkpt>
      <trkpt lat="45.78406" lon="5.52161">
        <ele>375.404</ele>
        <time>2026-05-25T11:09:54Z</time>
      </trkpt>
      <trkpt lat="45.7841" lon="5.52164">
        <ele>375.204</ele>
        <time>2026-05-25T11:09:59Z</time>
      </trkpt>
      <trkpt lat="45.78414" lon="5.52167">
        <ele>374.904</ele>
        <time>2026-05-25T11:10:04Z</time>
      </trkpt>
      <trkpt lat="45.78418" lon="5.5217">
        <ele>375.504</ele>
        <time>2026-05-25T11:10:09Z</time>
      </trkpt>
      <trkpt lat="45.78423" lon="5.52172">
        <ele>376.004</ele>
        <time>2026-05-25T11:10:14Z</time>
      </trkpt>
      <trkpt lat="45.78427" lon="5.52173">
        <ele>376.304</ele>
        <time>2026-05-25T11:10:19Z</time>
      </trkpt>
      <trkpt lat="45.78432" lon="5.52177">
        <ele>376.004</ele>
        <time>2026-05-25T11:10:26Z</time>
      </trkpt>
      <trkpt lat="45.78437" lon="5.52179">
        <ele>376.604</ele>
        <time>2026-05-25T11:10:31Z</time>
      </trkpt>
      <trkpt lat="45.78442" lon="5.5218">
        <ele>377.204</ele>
        <time>2026-05-25T11:10:36Z</time>
      </trkpt>
      <trkpt lat="45.78446" lon="5.52184">
        <ele>376.504</ele>
        <time>2026-05-25T11:10:42Z</time>
      </trkpt>
      <trkpt lat="45.78451" lon="5.52186">
        <ele>375.904</ele>
        <time>2026-05-25T11:10:49Z</time>
      </trkpt>
      <trkpt lat="45.78456" lon="5.52187">
        <ele>374.404</ele>
        <time>2026-05-25T11:10:55Z</time>
      </trkpt>
      <trkpt lat="45.7846" lon="5.52186">
        <ele>372.604</ele>
        <time>2026-05-25T11:11:00Z</time>
      </trkpt>
      <trkpt lat="45.78465" lon="5.52185">
        <ele>370.904</ele>
        <time>2026-05-25T11:11:05Z</time>
      </trkpt>
      <trkpt lat="45.78469" lon="5.52179">
        <ele>369.404</ele>
        <time>2026-05-25T11:11:10Z</time>
      </trkpt>
      <trkpt lat="45.78473" lon="5.52175">
        <ele>368.304</ele>
        <time>2026-05-25T11:11:14Z</time>
      </trkpt>
      <trkpt lat="45.78472" lon="5.52169">
        <ele>365.804</ele>
        <time>2026-05-25T11:11:21Z</time>
      </trkpt>
      <trkpt lat="45.78471" lon="5.52163">
        <ele>364.504</ele>
        <time>2026-05-25T11:11:26Z</time>
      </trkpt>
      <trkpt lat="45.78469" lon="5.52156">
        <ele>363.004</ele>
        <time>2026-05-25T11:11:31Z</time>
      </trkpt>
      <trkpt lat="45.78467" lon="5.52151">
        <ele>361.604</ele>
        <time>2026-05-25T11:11:36Z</time>
      </trkpt>
      <trkpt lat="45.78466" lon="5.52144">
        <ele>359.704</ele>
        <time>2026-05-25T11:11:42Z</time>
      </trkpt>
      <trkpt lat="45.78464" lon="5.52138">
        <ele>358.104</ele>
        <time>2026-05-25T11:11:48Z</time>
      </trkpt>
      <trkpt lat="45.78461" lon="5.52133">
        <ele>358.804</ele>
        <time>2026-05-25T11:12:02Z</time>
      </trkpt>
      <trkpt lat="45.7846" lon="5.52126">
        <ele>359.604</ele>
        <time>2026-05-25T11:12:21Z</time>
      </trkpt>
      <trkpt lat="45.78457" lon="5.5212">
        <ele>359.504</ele>
        <time>2026-05-25T11:12:26Z</time>
      </trkpt>
      <trkpt lat="45.78458" lon="5.52113">
        <ele>358.504</ele>
        <time>2026-05-25T11:12:31Z</time>
      </trkpt>
      <trkpt lat="45.78456" lon="5.52106">
        <ele>356.904</ele>
        <time>2026-05-25T11:12:35Z</time>
      </trkpt>
      <trkpt lat="45.78455" lon="5.52099">
        <ele>354.804</ele>
        <time>2026-05-25T11:12:40Z</time>
      </trkpt>
      <trkpt lat="45.78454" lon="5.52093">
        <ele>353.304</ele>
        <time>2026-05-25T11:12:44Z</time>
      </trkpt>
      <trkpt lat="45.78452" lon="5.52087">
        <ele>351.404</ele>
        <time>2026-05-25T11:12:49Z</time>
      </trkpt>
      <trkpt lat="45.78449" lon="5.52083">
        <ele>349.604</ele>
        <time>2026-05-25T11:12:53Z</time>
      </trkpt>
      <trkpt lat="45.78446" lon="5.52078">
        <ele>347.304</ele>
        <time>2026-05-25T11:12:58Z</time>
      </trkpt>
      <trkpt lat="45.78446" lon="5.52071">
        <ele>345.104</ele>
        <time>2026-05-25T11:13:04Z</time>
      </trkpt>
      <trkpt lat="45.78446" lon="5.52064">
        <ele>343.904</ele>
        <time>2026-05-25T11:13:09Z</time>
      </trkpt>
      <trkpt lat="45.78448" lon="5.52059">
        <ele>342.304</ele>
        <time>2026-05-25T11:13:14Z</time>
      </trkpt>
      <trkpt lat="45.78452" lon="5.52055">
        <ele>340.504</ele>
        <time>2026-05-25T11:13:20Z</time>
      </trkpt>
      <trkpt lat="45.78452" lon="5.52055">
        <ele>338.204</ele>
        <time>2026-05-25T11:13:40Z</time>
      </trkpt>
      <trkpt lat="45.78452" lon="5.52055">
        <ele>338.504</ele>
        <time>2026-05-25T11:13:49Z</time>
      </trkpt>
      <trkpt lat="45.78452" lon="5.52055">
        <ele>338.704</ele>
        <time>2026-05-25T11:14:09Z</time>
      </trkpt>
      <trkpt lat="45.78452" lon="5.52055">
        <ele>335.204</ele>
        <time>2026-05-25T11:14:15Z</time>
      </trkpt>
      <trkpt lat="45.78452" lon="5.52055">
        <ele>334.504</ele>
        <time>2026-05-25T11:14:19Z</time>
      </trkpt>
      <trkpt lat="45.78452" lon="5.52055">
        <ele>332.104</ele>
        <time>2026-05-25T11:14:39Z</time>
      </trkpt>
      <trkpt lat="45.78452" lon="5.52055">
        <ele>332.104</ele>
        <time>2026-05-25T11:14:59Z</time>
      </trkpt>
      <trkpt lat="45.78452" lon="5.52055">
        <ele>329.004</ele>
        <time>2026-05-25T11:15:05Z</time>
      </trkpt>
      <trkpt lat="45.78452" lon="5.52055">
        <ele>329.104</ele>
        <time>2026-05-25T11:15:25Z</time>
      </trkpt>
      <trkpt lat="45.78452" lon="5.52055">
        <ele>329.104</ele>
        <time>2026-05-25T11:15:46Z</time>
      </trkpt>
      <trkpt lat="45.78462" lon="5.52056">
        <ele>329.004</ele>
        <time>2026-05-25T11:16:07Z</time>
      </trkpt>
      <trkpt lat="45.78467" lon="5.52056">
        <ele>330.004</ele>
        <time>2026-05-25T11:16:11Z</time>
      </trkpt>
      <trkpt lat="45.7847" lon="5.52061">
        <ele>331.104</ele>
        <time>2026-05-25T11:16:18Z</time>
      </trkpt>
      <trkpt lat="45.78475" lon="5.52064">
        <ele>332.604</ele>
        <time>2026-05-25T11:16:23Z</time>
      </trkpt>
      <trkpt lat="45.78478" lon="5.52067">
        <ele>334.504</ele>
        <time>2026-05-25T11:16:28Z</time>
      </trkpt>
      <trkpt lat="45.78482" lon="5.52068">
        <ele>336.904</ele>
        <time>2026-05-25T11:16:36Z</time>
      </trkpt>
      <trkpt lat="45.78486" lon="5.52069">
        <ele>340.104</ele>
        <time>2026-05-25T11:16:43Z</time>
      </trkpt>
      <trkpt lat="45.7849" lon="5.52072">
        <ele>341.604</ele>
        <time>2026-05-25T11:16:50Z</time>
      </trkpt>
      <trkpt lat="45.78494" lon="5.52074">
        <ele>343.404</ele>
        <time>2026-05-25T11:16:57Z</time>
      </trkpt>
      <trkpt lat="45.78499" lon="5.52074">
        <ele>346.104</ele>
        <time>2026-05-25T11:17:03Z</time>
      </trkpt>
      <trkpt lat="45.78504" lon="5.52072">
        <ele>347.804</ele>
        <time>2026-05-25T11:17:07Z</time>
      </trkpt>
      <trkpt lat="45.78507" lon="5.52078">
        <ele>351.104</ele>
        <time>2026-05-25T11:17:16Z</time>
      </trkpt>
      <trkpt lat="45.78509" lon="5.52084">
        <ele>351.504</ele>
        <time>2026-05-25T11:17:22Z</time>
      </trkpt>
      <trkpt lat="45.78509" lon="5.52091">
        <ele>351.804</ele>
        <time>2026-05-25T11:17:26Z</time>
      </trkpt>
      <trkpt lat="45.78509" lon="5.52098">
        <ele>352.304</ele>
        <time>2026-05-25T11:17:32Z</time>
      </trkpt>
      <trkpt lat="45.78511" lon="5.52105">
        <ele>352.804</ele>
        <time>2026-05-25T11:17:37Z</time>
      </trkpt>
      <trkpt lat="45.78514" lon="5.52109">
        <ele>352.904</ele>
        <time>2026-05-25T11:17:41Z</time>
      </trkpt>
      <trkpt lat="45.78518" lon="5.52114">
        <ele>353.304</ele>
        <time>2026-05-25T11:17:46Z</time>
      </trkpt>
      <trkpt lat="45.78523" lon="5.52115">
        <ele>353.704</ele>
        <time>2026-05-25T11:17:57Z</time>
      </trkpt>
      <trkpt lat="45.78523" lon="5.52108">
        <ele>355.104</ele>
        <time>2026-05-25T11:18:08Z</time>
      </trkpt>
      <trkpt lat="45.78521" lon="5.52103">
        <ele>354.804</ele>
        <time>2026-05-25T11:18:14Z</time>
      </trkpt>
      <trkpt lat="45.78523" lon="5.52097">
        <ele>356.904</ele>
        <time>2026-05-25T11:18:20Z</time>
      </trkpt>
      <trkpt lat="45.78527" lon="5.52094">
        <ele>358.404</ele>
        <time>2026-05-25T11:18:25Z</time>
      </trkpt>
      <trkpt lat="45.7853" lon="5.5209">
        <ele>360.104</ele>
        <time>2026-05-25T11:18:31Z</time>
      </trkpt>
      <trkpt lat="45.78532" lon="5.52084">
        <ele>361.804</ele>
        <time>2026-05-25T11:18:37Z</time>
      </trkpt>
      <trkpt lat="45.78535" lon="5.5208">
        <ele>362.304</ele>
        <time>2026-05-25T11:18:43Z</time>
      </trkpt>
      <trkpt lat="45.7854" lon="5.52077">
        <ele>361.904</ele>
        <time>2026-05-25T11:18:52Z</time>
      </trkpt>
      <trkpt lat="45.78544" lon="5.52074">
        <ele>362.604</ele>
        <time>2026-05-25T11:18:57Z</time>
      </trkpt>
      <trkpt lat="45.78547" lon="5.5207">
        <ele>364.104</ele>
        <time>2026-05-25T11:19:01Z</time>
      </trkpt>
      <trkpt lat="45.78551" lon="5.52067">
        <ele>365.004</ele>
        <time>2026-05-25T11:19:06Z</time>
      </trkpt>
      <trkpt lat="45.78554" lon="5.52061">
        <ele>365.004</ele>
        <time>2026-05-25T11:19:11Z</time>
      </trkpt>
      <trkpt lat="45.78557" lon="5.52055">
        <ele>364.804</ele>
        <time>2026-05-25T11:19:18Z</time>
      </trkpt>
      <trkpt lat="45.7856" lon="5.52049">
        <ele>364.204</ele>
        <time>2026-05-25T11:19:24Z</time>
      </trkpt>
      <trkpt lat="45.78563" lon="5.52043">
        <ele>364.904</ele>
        <time>2026-05-25T11:19:29Z</time>
      </trkpt>
      <trkpt lat="45.78564" lon="5.52037">
        <ele>365.704</ele>
        <time>2026-05-25T11:19:37Z</time>
      </trkpt>
      <trkpt lat="45.7856" lon="5.52034">
        <ele>366.704</ele>
        <time>2026-05-25T11:19:45Z</time>
      </trkpt>
      <trkpt lat="45.78556" lon="5.52029">
        <ele>367.304</ele>
        <time>2026-05-25T11:19:54Z</time>
      </trkpt>
      <trkpt lat="45.78555" lon="5.52023">
        <ele>367.904</ele>
        <time>2026-05-25T11:19:59Z</time>
      </trkpt>
      <trkpt lat="45.78554" lon="5.52016">
        <ele>368.904</ele>
        <time>2026-05-25T11:20:04Z</time>
      </trkpt>
      <trkpt lat="45.78555" lon="5.5201">
        <ele>370.004</ele>
        <time>2026-05-25T11:20:09Z</time>
      </trkpt>
      <trkpt lat="45.78556" lon="5.52003">
        <ele>371.304</ele>
        <time>2026-05-25T11:20:16Z</time>
      </trkpt>
      <trkpt lat="45.78555" lon="5.51997">
        <ele>371.704</ele>
        <time>2026-05-25T11:20:23Z</time>
      </trkpt>
      <trkpt lat="45.78557" lon="5.51991">
        <ele>372.004</ele>
        <time>2026-05-25T11:20:30Z</time>
      </trkpt>
      <trkpt lat="45.7856" lon="5.51985">
        <ele>372.304</ele>
        <time>2026-05-25T11:20:36Z</time>
      </trkpt>
      <trkpt lat="45.78564" lon="5.51978">
        <ele>372.504</ele>
        <time>2026-05-25T11:20:41Z</time>
      </trkpt>
      <trkpt lat="45.78567" lon="5.51974">
        <ele>372.204</ele>
        <time>2026-05-25T11:20:45Z</time>
      </trkpt>
      <trkpt lat="45.78572" lon="5.51974">
        <ele>372.104</ele>
        <time>2026-05-25T11:20:52Z</time>
      </trkpt>
      <trkpt lat="45.78575" lon="5.5198">
        <ele>372.404</ele>
        <time>2026-05-25T11:20:58Z</time>
      </trkpt>
      <trkpt lat="45.78578" lon="5.51984">
        <ele>374.104</ele>
        <time>2026-05-25T11:21:04Z</time>
      </trkpt>
      <trkpt lat="45.78578" lon="5.51986">
        <ele>376.504</ele>
        <time>2026-05-25T11:21:25Z</time>
      </trkpt>
      <trkpt lat="45.78581" lon="5.51991">
        <ele>378.504</ele>
        <time>2026-05-25T11:21:31Z</time>
      </trkpt>
      <trkpt lat="45.78585" lon="5.51995">
        <ele>378.104</ele>
        <time>2026-05-25T11:21:36Z</time>
      </trkpt>
      <trkpt lat="45.78589" lon="5.51999">
        <ele>378.104</ele>
        <time>2026-05-25T11:21:40Z</time>
      </trkpt>
      <trkpt lat="45.78593" lon="5.52001">
        <ele>378.804</ele>
        <time>2026-05-25T11:21:46Z</time>
      </trkpt>
      <trkpt lat="45.78597" lon="5.52005">
        <ele>379.304</ele>
        <time>2026-05-25T11:21:50Z</time>
      </trkpt>
      <trkpt lat="45.78602" lon="5.52009">
        <ele>379.804</ele>
        <time>2026-05-25T11:21:55Z</time>
      </trkpt>
      <trkpt lat="45.78607" lon="5.52011">
        <ele>380.404</ele>
        <time>2026-05-25T11:22:00Z</time>
      </trkpt>
      <trkpt lat="45.78611" lon="5.52015">
        <ele>380.704</ele>
        <time>2026-05-25T11:22:05Z</time>
      </trkpt>
      <trkpt lat="45.78616" lon="5.52019">
        <ele>381.204</ele>
        <time>2026-05-25T11:22:10Z</time>
      </trkpt>
      <trkpt lat="45.7862" lon="5.52021">
        <ele>381.504</ele>
        <time>2026-05-25T11:22:15Z</time>
      </trkpt>
      <trkpt lat="45.78626" lon="5.52024">
        <ele>382.304</ele>
        <time>2026-05-25T11:22:20Z</time>
      </trkpt>
      <trkpt lat="45.78631" lon="5.52027">
        <ele>382.804</ele>
        <time>2026-05-25T11:22:25Z</time>
      </trkpt>
      <trkpt lat="45.78635" lon="5.52031">
        <ele>383.704</ele>
        <time>2026-05-25T11:22:30Z</time>
      </trkpt>
      <trkpt lat="45.7864" lon="5.52034">
        <ele>383.904</ele>
        <time>2026-05-25T11:22:34Z</time>
      </trkpt>
      <trkpt lat="45.78645" lon="5.52036">
        <ele>384.204</ele>
        <time>2026-05-25T11:22:39Z</time>
      </trkpt>
      <trkpt lat="45.78649" lon="5.52037">
        <ele>384.404</ele>
        <time>2026-05-25T11:22:42Z</time>
      </trkpt>
      <trkpt lat="45.78653" lon="5.52038">
        <ele>385.504</ele>
        <time>2026-05-25T11:22:46Z</time>
      </trkpt>
      <trkpt lat="45.78658" lon="5.52038">
        <ele>387.704</ele>
        <time>2026-05-25T11:22:51Z</time>
      </trkpt>
      <trkpt lat="45.78661" lon="5.52034">
        <ele>387.704</ele>
        <time>2026-05-25T11:22:57Z</time>
      </trkpt>
      <trkpt lat="45.78662" lon="5.52027">
        <ele>389.504</ele>
        <time>2026-05-25T11:23:10Z</time>
      </trkpt>
      <trkpt lat="45.78659" lon="5.52021">
        <ele>391.204</ele>
        <time>2026-05-25T11:23:15Z</time>
      </trkpt>
      <trkpt lat="45.78659" lon="5.52021">
        <ele>395.504</ele>
        <time>2026-05-25T11:23:36Z</time>
      </trkpt>
      <trkpt lat="45.78659" lon="5.52021">
        <ele>395.504</ele>
        <time>2026-05-25T11:23:56Z</time>
      </trkpt>
      <trkpt lat="45.78659" lon="5.52021">
        <ele>395.504</ele>
        <time>2026-05-25T11:24:17Z</time>
      </trkpt>
      <trkpt lat="45.78659" lon="5.52021">
        <ele>395.504</ele>
        <time>2026-05-25T11:24:38Z</time>
      </trkpt>
      <trkpt lat="45.78658" lon="5.52016">
        <ele>393.004</ele>
        <time>2026-05-25T11:24:42Z</time>
      </trkpt>
      <trkpt lat="45.78656" lon="5.52009">
        <ele>392.504</ele>
        <time>2026-05-25T11:24:46Z</time>
      </trkpt>
      <trkpt lat="45.78655" lon="5.52003">
        <ele>391.204</ele>
        <time>2026-05-25T11:24:52Z</time>
      </trkpt>
      <trkpt lat="45.78653" lon="5.51996">
        <ele>390.804</ele>
        <time>2026-05-25T11:24:56Z</time>
      </trkpt>
      <trkpt lat="45.78651" lon="5.5199">
        <ele>390.704</ele>
        <time>2026-05-25T11:25:00Z</time>
      </trkpt>
      <trkpt lat="45.78648" lon="5.51985">
        <ele>390.804</ele>
        <time>2026-05-25T11:25:05Z</time>
      </trkpt>
      <trkpt lat="45.78645" lon="5.51979">
        <ele>390.804</ele>
        <time>2026-05-25T11:25:08Z</time>
      </trkpt>
      <trkpt lat="45.78643" lon="5.51973">
        <ele>390.904</ele>
        <time>2026-05-25T11:25:12Z</time>
      </trkpt>
      <trkpt lat="45.78641" lon="5.51967">
        <ele>392.104</ele>
        <time>2026-05-25T11:25:17Z</time>
      </trkpt>
      <trkpt lat="45.78639" lon="5.51961">
        <ele>393.504</ele>
        <time>2026-05-25T11:25:21Z</time>
      </trkpt>
      <trkpt lat="45.78637" lon="5.51954">
        <ele>394.204</ele>
        <time>2026-05-25T11:25:26Z</time>
      </trkpt>
      <trkpt lat="45.78635" lon="5.51948">
        <ele>395.304</ele>
        <time>2026-05-25T11:25:30Z</time>
      </trkpt>
      <trkpt lat="45.78633" lon="5.51941">
        <ele>395.904</ele>
        <time>2026-05-25T11:25:34Z</time>
      </trkpt>
      <trkpt lat="45.78632" lon="5.51935">
        <ele>395.704</ele>
        <time>2026-05-25T11:25:38Z</time>
      </trkpt>
      <trkpt lat="45.78629" lon="5.51928">
        <ele>395.904</ele>
        <time>2026-05-25T11:25:43Z</time>
      </trkpt>
      <trkpt lat="45.78628" lon="5.51921">
        <ele>396.804</ele>
        <time>2026-05-25T11:25:47Z</time>
      </trkpt>
      <trkpt lat="45.78627" lon="5.51913">
        <ele>397.904</ele>
        <time>2026-05-25T11:25:52Z</time>
      </trkpt>
      <trkpt lat="45.78626" lon="5.51906">
        <ele>398.804</ele>
        <time>2026-05-25T11:25:56Z</time>
      </trkpt>
      <trkpt lat="45.78627" lon="5.51899">
        <ele>399.404</ele>
        <time>2026-05-25T11:25:59Z</time>
      </trkpt>
      <trkpt lat="45.78628" lon="5.51892">
        <ele>400.204</ele>
        <time>2026-05-25T11:26:03Z</time>
      </trkpt>
      <trkpt lat="45.78629" lon="5.51885">
        <ele>400.104</ele>
        <time>2026-05-25T11:26:08Z</time>
      </trkpt>
      <trkpt lat="45.78631" lon="5.51878">
        <ele>400.504</ele>
        <time>2026-05-25T11:26:12Z</time>
      </trkpt>
      <trkpt lat="45.78633" lon="5.51872">
        <ele>400.904</ele>
        <time>2026-05-25T11:26:16Z</time>
      </trkpt>
      <trkpt lat="45.78637" lon="5.51866">
        <ele>401.704</ele>
        <time>2026-05-25T11:26:21Z</time>
      </trkpt>
      <trkpt lat="45.78641" lon="5.51861">
        <ele>403.804</ele>
        <time>2026-05-25T11:26:26Z</time>
      </trkpt>
      <trkpt lat="45.78645" lon="5.51859">
        <ele>405.404</ele>
        <time>2026-05-25T11:26:30Z</time>
      </trkpt>
      <trkpt lat="45.7865" lon="5.51857">
        <ele>406.404</ele>
        <time>2026-05-25T11:26:35Z</time>
      </trkpt>
      <trkpt lat="45.78655" lon="5.51854">
        <ele>407.604</ele>
        <time>2026-05-25T11:26:40Z</time>
      </trkpt>
      <trkpt lat="45.78659" lon="5.5185">
        <ele>408.304</ele>
        <time>2026-05-25T11:26:47Z</time>
      </trkpt>
      <trkpt lat="45.78664" lon="5.51846">
        <ele>409.304</ele>
        <time>2026-05-25T11:26:53Z</time>
      </trkpt>
      <trkpt lat="45.78669" lon="5.51844">
        <ele>409.704</ele>
        <time>2026-05-25T11:26:58Z</time>
      </trkpt>
      <trkpt lat="45.78673" lon="5.51841">
        <ele>409.904</ele>
        <time>2026-05-25T11:27:02Z</time>
      </trkpt>
      <trkpt lat="45.78678" lon="5.5184">
        <ele>409.804</ele>
        <time>2026-05-25T11:27:06Z</time>
      </trkpt>
      <trkpt lat="45.78682" lon="5.51837">
        <ele>409.604</ele>
        <time>2026-05-25T11:27:11Z</time>
      </trkpt>
      <trkpt lat="45.78687" lon="5.51834">
        <ele>409.304</ele>
        <time>2026-05-25T11:27:16Z</time>
      </trkpt>
      <trkpt lat="45.78691" lon="5.51829">
        <ele>409.704</ele>
        <time>2026-05-25T11:27:21Z</time>
      </trkpt>
      <trkpt lat="45.78694" lon="5.51823">
        <ele>410.604</ele>
        <time>2026-05-25T11:27:25Z</time>
      </trkpt>
      <trkpt lat="45.78698" lon="5.51818">
        <ele>411.504</ele>
        <time>2026-05-25T11:27:30Z</time>
      </trkpt>
      <trkpt lat="45.78701" lon="5.51814">
        <ele>411.804</ele>
        <time>2026-05-25T11:27:34Z</time>
      </trkpt>
      <trkpt lat="45.78705" lon="5.5181">
        <ele>412.004</ele>
        <time>2026-05-25T11:27:39Z</time>
      </trkpt>
      <trkpt lat="45.78709" lon="5.51806">
        <ele>412.604</ele>
        <time>2026-05-25T11:27:43Z</time>
      </trkpt>
      <trkpt lat="45.78713" lon="5.51802">
        <ele>413.804</ele>
        <time>2026-05-25T11:27:48Z</time>
      </trkpt>
      <trkpt lat="45.78718" lon="5.51797">
        <ele>415.104</ele>
        <time>2026-05-25T11:27:53Z</time>
      </trkpt>
      <trkpt lat="45.78723" lon="5.51793">
        <ele>416.304</ele>
        <time>2026-05-25T11:27:58Z</time>
      </trkpt>
      <trkpt lat="45.78726" lon="5.51789">
        <ele>416.404</ele>
        <time>2026-05-25T11:28:02Z</time>
      </trkpt>
      <trkpt lat="45.7873" lon="5.51785">
        <ele>416.304</ele>
        <time>2026-05-25T11:28:06Z</time>
      </trkpt>
      <trkpt lat="45.78734" lon="5.5178">
        <ele>416.304</ele>
        <time>2026-05-25T11:28:10Z</time>
      </trkpt>
      <trkpt lat="45.78737" lon="5.51776">
        <ele>416.004</ele>
        <time>2026-05-25T11:28:14Z</time>
      </trkpt>
      <trkpt lat="45.78741" lon="5.51772">
        <ele>415.704</ele>
        <time>2026-05-25T11:28:18Z</time>
      </trkpt>
      <trkpt lat="45.78745" lon="5.51768">
        <ele>415.904</ele>
        <time>2026-05-25T11:28:22Z</time>
      </trkpt>
      <trkpt lat="45.78749" lon="5.51764">
        <ele>416.104</ele>
        <time>2026-05-25T11:28:26Z</time>
      </trkpt>
      <trkpt lat="45.78752" lon="5.51757">
        <ele>416.804</ele>
        <time>2026-05-25T11:28:31Z</time>
      </trkpt>
      <trkpt lat="45.78755" lon="5.51752">
        <ele>416.804</ele>
        <time>2026-05-25T11:28:35Z</time>
      </trkpt>
      <trkpt lat="45.78758" lon="5.51748">
        <ele>417.404</ele>
        <time>2026-05-25T11:28:40Z</time>
      </trkpt>
      <trkpt lat="45.78761" lon="5.51742">
        <ele>417.604</ele>
        <time>2026-05-25T11:28:45Z</time>
      </trkpt>
      <trkpt lat="45.78765" lon="5.51738">
        <ele>418.104</ele>
        <time>2026-05-25T11:28:50Z</time>
      </trkpt>
      <trkpt lat="45.78768" lon="5.51733">
        <ele>418.604</ele>
        <time>2026-05-25T11:28:55Z</time>
      </trkpt>
      <trkpt lat="45.78773" lon="5.51728">
        <ele>418.704</ele>
        <time>2026-05-25T11:29:00Z</time>
      </trkpt>
      <trkpt lat="45.78777" lon="5.51724">
        <ele>419.204</ele>
        <time>2026-05-25T11:29:05Z</time>
      </trkpt>
      <trkpt lat="45.78781" lon="5.5172">
        <ele>419.704</ele>
        <time>2026-05-25T11:29:10Z</time>
      </trkpt>
      <trkpt lat="45.78781" lon="5.51719">
        <ele>419.804</ele>
        <time>2026-05-25T11:29:30Z</time>
      </trkpt>
      <trkpt lat="45.78781" lon="5.51719">
        <ele>419.804</ele>
        <time>2026-05-25T11:29:50Z</time>
      </trkpt>
      <trkpt lat="45.78781" lon="5.51719">
        <ele>419.804</ele>
        <time>2026-05-25T11:30:11Z</time>
      </trkpt>
      <trkpt lat="45.78781" lon="5.51719">
        <ele>419.804</ele>
        <time>2026-05-25T11:30:31Z</time>
      </trkpt>
      <trkpt lat="45.78781" lon="5.51719">
        <ele>419.804</ele>
        <time>2026-05-25T11:30:52Z</time>
      </trkpt>
      <trkpt lat="45.78781" lon="5.51719">
        <ele>419.904</ele>
        <time>2026-05-25T11:31:01Z</time>
      </trkpt>
      <trkpt lat="45.78781" lon="5.51719">
        <ele>421.204</ele>
        <time>2026-05-25T11:31:21Z</time>
      </trkpt>
      <trkpt lat="45.78784" lon="5.51715">
        <ele>422.204</ele>
        <time>2026-05-25T11:31:41Z</time>
      </trkpt>
      <trkpt lat="45.78783" lon="5.51708">
        <ele>421.704</ele>
        <time>2026-05-25T11:31:50Z</time>
      </trkpt>
      <trkpt lat="45.78784" lon="5.51702">
        <ele>421.404</ele>
        <time>2026-05-25T11:31:56Z</time>
      </trkpt>
      <trkpt lat="45.78787" lon="5.51696">
        <ele>421.004</ele>
        <time>2026-05-25T11:32:00Z</time>
      </trkpt>
      <trkpt lat="45.7879" lon="5.5169">
        <ele>420.704</ele>
        <time>2026-05-25T11:32:04Z</time>
      </trkpt>
      <trkpt lat="45.78793" lon="5.51684">
        <ele>420.304</ele>
        <time>2026-05-25T11:32:08Z</time>
      </trkpt>
      <trkpt lat="45.78796" lon="5.51679">
        <ele>419.504</ele>
        <time>2026-05-25T11:32:13Z</time>
      </trkpt>
      <trkpt lat="45.78797" lon="5.51672">
        <ele>418.404</ele>
        <time>2026-05-25T11:32:18Z</time>
      </trkpt>
      <trkpt lat="45.78799" lon="5.51666">
        <ele>418.204</ele>
        <time>2026-05-25T11:32:22Z</time>
      </trkpt>
      <trkpt lat="45.78802" lon="5.51661">
        <ele>418.204</ele>
        <time>2026-05-25T11:32:25Z</time>
      </trkpt>
      <trkpt lat="45.78804" lon="5.51655">
        <ele>417.604</ele>
        <time>2026-05-25T11:32:29Z</time>
      </trkpt>
      <trkpt lat="45.78807" lon="5.51649">
        <ele>417.104</ele>
        <time>2026-05-25T11:32:33Z</time>
      </trkpt>
      <trkpt lat="45.7881" lon="5.51642">
        <ele>415.704</ele>
        <time>2026-05-25T11:32:39Z</time>
      </trkpt>
      <trkpt lat="45.78812" lon="5.51636">
        <ele>415.204</ele>
        <time>2026-05-25T11:32:43Z</time>
      </trkpt>
      <trkpt lat="45.78815" lon="5.5163">
        <ele>414.904</ele>
        <time>2026-05-25T11:32:47Z</time>
      </trkpt>
      <trkpt lat="45.78817" lon="5.51623">
        <ele>413.904</ele>
        <time>2026-05-25T11:32:52Z</time>
      </trkpt>
      <trkpt lat="45.78816" lon="5.51616">
        <ele>414.004</ele>
        <time>2026-05-25T11:32:56Z</time>
      </trkpt>
      <trkpt lat="45.78813" lon="5.5161">
        <ele>414.304</ele>
        <time>2026-05-25T11:33:00Z</time>
      </trkpt>
      <trkpt lat="45.78807" lon="5.5161">
        <ele>414.404</ele>
        <time>2026-05-25T11:33:04Z</time>
      </trkpt>
      <trkpt lat="45.78802" lon="5.5161">
        <ele>415.704</ele>
        <time>2026-05-25T11:33:08Z</time>
      </trkpt>
      <trkpt lat="45.78797" lon="5.51612">
        <ele>416.504</ele>
        <time>2026-05-25T11:33:12Z</time>
      </trkpt>
      <trkpt lat="45.78793" lon="5.51612">
        <ele>417.204</ele>
        <time>2026-05-25T11:33:16Z</time>
      </trkpt>
      <trkpt lat="45.78788" lon="5.51614">
        <ele>417.804</ele>
        <time>2026-05-25T11:33:21Z</time>
      </trkpt>
      <trkpt lat="45.78783" lon="5.51615">
        <ele>418.304</ele>
        <time>2026-05-25T11:33:26Z</time>
      </trkpt>
      <trkpt lat="45.78778" lon="5.51616">
        <ele>418.704</ele>
        <time>2026-05-25T11:33:32Z</time>
      </trkpt>
      <trkpt lat="45.78773" lon="5.51617">
        <ele>419.004</ele>
        <time>2026-05-25T11:33:36Z</time>
      </trkpt>
      <trkpt lat="45.78768" lon="5.5162">
        <ele>419.104</ele>
        <time>2026-05-25T11:33:42Z</time>
      </trkpt>
      <trkpt lat="45.78763" lon="5.5162">
        <ele>418.904</ele>
        <time>2026-05-25T11:33:45Z</time>
      </trkpt>
      <trkpt lat="45.78759" lon="5.51621">
        <ele>418.604</ele>
        <time>2026-05-25T11:33:48Z</time>
      </trkpt>
      <trkpt lat="45.78755" lon="5.51626">
        <ele>418.304</ele>
        <time>2026-05-25T11:33:52Z</time>
      </trkpt>
      <trkpt lat="45.78751" lon="5.51629">
        <ele>417.904</ele>
        <time>2026-05-25T11:33:56Z</time>
      </trkpt>
      <trkpt lat="45.78747" lon="5.51634">
        <ele>417.204</ele>
        <time>2026-05-25T11:34:00Z</time>
      </trkpt>
      <trkpt lat="45.78744" lon="5.5164">
        <ele>416.104</ele>
        <time>2026-05-25T11:34:04Z</time>
      </trkpt>
      <trkpt lat="45.78741" lon="5.51644">
        <ele>415.604</ele>
        <time>2026-05-25T11:34:07Z</time>
      </trkpt>
      <trkpt lat="45.78738" lon="5.5165">
        <ele>414.904</ele>
        <time>2026-05-25T11:34:12Z</time>
      </trkpt>
      <trkpt lat="45.78735" lon="5.51655">
        <ele>414.104</ele>
        <time>2026-05-25T11:34:17Z</time>
      </trkpt>
      <trkpt lat="45.78732" lon="5.5166">
        <ele>413.604</ele>
        <time>2026-05-25T11:34:21Z</time>
      </trkpt>
      <trkpt lat="45.78729" lon="5.51664">
        <ele>413.804</ele>
        <time>2026-05-25T11:34:24Z</time>
      </trkpt>
      <trkpt lat="45.78726" lon="5.5167">
        <ele>413.804</ele>
        <time>2026-05-25T11:34:29Z</time>
      </trkpt>
      <trkpt lat="45.78722" lon="5.51676">
        <ele>413.904</ele>
        <time>2026-05-25T11:34:33Z</time>
      </trkpt>
      <trkpt lat="45.78718" lon="5.51681">
        <ele>413.904</ele>
        <time>2026-05-25T11:34:37Z</time>
      </trkpt>
      <trkpt lat="45.78715" lon="5.51685">
        <ele>413.404</ele>
        <time>2026-05-25T11:34:41Z</time>
      </trkpt>
      <trkpt lat="45.78711" lon="5.51689">
        <ele>412.804</ele>
        <time>2026-05-25T11:34:45Z</time>
      </trkpt>
      <trkpt lat="45.78706" lon="5.51692">
        <ele>412.704</ele>
        <time>2026-05-25T11:34:50Z</time>
      </trkpt>
      <trkpt lat="45.78702" lon="5.51696">
        <ele>412.204</ele>
        <time>2026-05-25T11:34:54Z</time>
      </trkpt>
      <trkpt lat="45.78698" lon="5.517">
        <ele>411.304</ele>
        <time>2026-05-25T11:34:58Z</time>
      </trkpt>
      <trkpt lat="45.78693" lon="5.51705">
        <ele>410.404</ele>
        <time>2026-05-25T11:35:03Z</time>
      </trkpt>
      <trkpt lat="45.7869" lon="5.5171">
        <ele>409.904</ele>
        <time>2026-05-25T11:35:07Z</time>
      </trkpt>
      <trkpt lat="45.78686" lon="5.51715">
        <ele>408.404</ele>
        <time>2026-05-25T11:35:12Z</time>
      </trkpt>
      <trkpt lat="45.78681" lon="5.51718">
        <ele>407.004</ele>
        <time>2026-05-25T11:35:16Z</time>
      </trkpt>
      <trkpt lat="45.78677" lon="5.51721">
        <ele>406.104</ele>
        <time>2026-05-25T11:35:20Z</time>
      </trkpt>
      <trkpt lat="45.78673" lon="5.51724">
        <ele>405.004</ele>
        <time>2026-05-25T11:35:24Z</time>
      </trkpt>
      <trkpt lat="45.78668" lon="5.51727">
        <ele>403.804</ele>
        <time>2026-05-25T11:35:29Z</time>
      </trkpt>
      <trkpt lat="45.78664" lon="5.51729">
        <ele>402.104</ele>
        <time>2026-05-25T11:35:33Z</time>
      </trkpt>
      <trkpt lat="45.78659" lon="5.51731">
        <ele>401.004</ele>
        <time>2026-05-25T11:35:36Z</time>
      </trkpt>
      <trkpt lat="45.78655" lon="5.51734">
        <ele>399.704</ele>
        <time>2026-05-25T11:35:40Z</time>
      </trkpt>
      <trkpt lat="45.7865" lon="5.51736">
        <ele>398.504</ele>
        <time>2026-05-25T11:35:44Z</time>
      </trkpt>
      <trkpt lat="45.78646" lon="5.51736">
        <ele>397.204</ele>
        <time>2026-05-25T11:35:48Z</time>
      </trkpt>
      <trkpt lat="45.78641" lon="5.51736">
        <ele>395.304</ele>
        <time>2026-05-25T11:35:53Z</time>
      </trkpt>
      <trkpt lat="45.78637" lon="5.51738">
        <ele>393.904</ele>
        <time>2026-05-25T11:35:57Z</time>
      </trkpt>
      <trkpt lat="45.78632" lon="5.51738">
        <ele>392.804</ele>
        <time>2026-05-25T11:36:01Z</time>
      </trkpt>
      <trkpt lat="45.78626" lon="5.51738">
        <ele>390.404</ele>
        <time>2026-05-25T11:36:05Z</time>
      </trkpt>
      <trkpt lat="45.78621" lon="5.51738">
        <ele>388.304</ele>
        <time>2026-05-25T11:36:09Z</time>
      </trkpt>
      <trkpt lat="45.78616" lon="5.51739">
        <ele>386.404</ele>
        <time>2026-05-25T11:36:14Z</time>
      </trkpt>
      <trkpt lat="45.78612" lon="5.51742">
        <ele>385.204</ele>
        <time>2026-05-25T11:36:18Z</time>
      </trkpt>
      <trkpt lat="45.78607" lon="5.51744">
        <ele>383.204</ele>
        <time>2026-05-25T11:36:22Z</time>
      </trkpt>
      <trkpt lat="45.78603" lon="5.51746">
        <ele>381.704</ele>
        <time>2026-05-25T11:36:26Z</time>
      </trkpt>
      <trkpt lat="45.78598" lon="5.51747">
        <ele>379.904</ele>
        <time>2026-05-25T11:36:30Z</time>
      </trkpt>
      <trkpt lat="45.78593" lon="5.51746">
        <ele>378.204</ele>
        <time>2026-05-25T11:36:34Z</time>
      </trkpt>
      <trkpt lat="45.78589" lon="5.51746">
        <ele>376.204</ele>
        <time>2026-05-25T11:36:38Z</time>
      </trkpt>
      <trkpt lat="45.78584" lon="5.51747">
        <ele>374.604</ele>
        <time>2026-05-25T11:36:42Z</time>
      </trkpt>
      <trkpt lat="45.78579" lon="5.5175">
        <ele>374.204</ele>
        <time>2026-05-25T11:36:46Z</time>
      </trkpt>
      <trkpt lat="45.78574" lon="5.51752">
        <ele>375.204</ele>
        <time>2026-05-25T11:36:51Z</time>
      </trkpt>
      <trkpt lat="45.78569" lon="5.51752">
        <ele>375.404</ele>
        <time>2026-05-25T11:36:56Z</time>
      </trkpt>
      <trkpt lat="45.78563" lon="5.5175">
        <ele>375.204</ele>
        <time>2026-05-25T11:37:01Z</time>
      </trkpt>
      <trkpt lat="45.78559" lon="5.5175">
        <ele>375.304</ele>
        <time>2026-05-25T11:37:05Z</time>
      </trkpt>
      <trkpt lat="45.78554" lon="5.5175">
        <ele>375.104</ele>
        <time>2026-05-25T11:37:09Z</time>
      </trkpt>
      <trkpt lat="45.78549" lon="5.51749">
        <ele>374.204</ele>
        <time>2026-05-25T11:37:13Z</time>
      </trkpt>
      <trkpt lat="45.78545" lon="5.51747">
        <ele>372.204</ele>
        <time>2026-05-25T11:37:19Z</time>
      </trkpt>
      <trkpt lat="45.7854" lon="5.51747">
        <ele>371.804</ele>
        <time>2026-05-25T11:37:23Z</time>
      </trkpt>
      <trkpt lat="45.78536" lon="5.51747">
        <ele>371.104</ele>
        <time>2026-05-25T11:37:27Z</time>
      </trkpt>
      <trkpt lat="45.7853" lon="5.51749">
        <ele>371.104</ele>
        <time>2026-05-25T11:37:31Z</time>
      </trkpt>
      <trkpt lat="45.78525" lon="5.51751">
        <ele>371.204</ele>
        <time>2026-05-25T11:37:34Z</time>
      </trkpt>
      <trkpt lat="45.78519" lon="5.51755">
        <ele>371.304</ele>
        <time>2026-05-25T11:37:37Z</time>
      </trkpt>
      <trkpt lat="45.78516" lon="5.5176">
        <ele>371.304</ele>
        <time>2026-05-25T11:37:40Z</time>
      </trkpt>
      <trkpt lat="45.78512" lon="5.51766">
        <ele>371.304</ele>
        <time>2026-05-25T11:37:43Z</time>
      </trkpt>
      <trkpt lat="45.78509" lon="5.51773">
        <ele>373.304</ele>
        <time>2026-05-25T11:37:46Z</time>
      </trkpt>
      <trkpt lat="45.78505" lon="5.51777">
        <ele>374.804</ele>
        <time>2026-05-25T11:37:49Z</time>
      </trkpt>
      <trkpt lat="45.785" lon="5.51779">
        <ele>375.404</ele>
        <time>2026-05-25T11:37:52Z</time>
      </trkpt>
      <trkpt lat="45.78495" lon="5.5178">
        <ele>376.104</ele>
        <time>2026-05-25T11:37:56Z</time>
      </trkpt>
      <trkpt lat="45.7849" lon="5.5178">
        <ele>376.504</ele>
        <time>2026-05-25T11:38:01Z</time>
      </trkpt>
      <trkpt lat="45.78485" lon="5.51779">
        <ele>375.604</ele>
        <time>2026-05-25T11:38:05Z</time>
      </trkpt>
      <trkpt lat="45.7848" lon="5.51778">
        <ele>374.304</ele>
        <time>2026-05-25T11:38:09Z</time>
      </trkpt>
      <trkpt lat="45.78475" lon="5.51776">
        <ele>373.404</ele>
        <time>2026-05-25T11:38:13Z</time>
      </trkpt>
      <trkpt lat="45.78471" lon="5.51774">
        <ele>373.004</ele>
        <time>2026-05-25T11:38:17Z</time>
      </trkpt>
      <trkpt lat="45.78466" lon="5.51773">
        <ele>373.204</ele>
        <time>2026-05-25T11:38:21Z</time>
      </trkpt>
      <trkpt lat="45.78461" lon="5.51771">
        <ele>373.103</ele>
        <time>2026-05-25T11:38:25Z</time>
      </trkpt>
      <trkpt lat="45.78456" lon="5.51768">
        <ele>372.503</ele>
        <time>2026-05-25T11:38:29Z</time>
      </trkpt>
      <trkpt lat="45.78451" lon="5.51765">
        <ele>372.203</ele>
        <time>2026-05-25T11:38:33Z</time>
      </trkpt>
      <trkpt lat="45.78447" lon="5.51761">
        <ele>372.003</ele>
        <time>2026-05-25T11:38:38Z</time>
      </trkpt>
      <trkpt lat="45.78442" lon="5.51759">
        <ele>371.603</ele>
        <time>2026-05-25T11:38:42Z</time>
      </trkpt>
      <trkpt lat="45.78437" lon="5.51756">
        <ele>371.303</ele>
        <time>2026-05-25T11:38:46Z</time>
      </trkpt>
      <trkpt lat="45.78432" lon="5.51752">
        <ele>370.703</ele>
        <time>2026-05-25T11:38:50Z</time>
      </trkpt>
      <trkpt lat="45.78428" lon="5.51747">
        <ele>370.103</ele>
        <time>2026-05-25T11:38:54Z</time>
      </trkpt>
      <trkpt lat="45.78425" lon="5.51742">
        <ele>369.803</ele>
        <time>2026-05-25T11:38:58Z</time>
      </trkpt>
      <trkpt lat="45.78422" lon="5.51735">
        <ele>369.503</ele>
        <time>2026-05-25T11:39:02Z</time>
      </trkpt>
      <trkpt lat="45.78419" lon="5.51729">
        <ele>369.103</ele>
        <time>2026-05-25T11:39:06Z</time>
      </trkpt>
      <trkpt lat="45.78417" lon="5.51723">
        <ele>370.403</ele>
        <time>2026-05-25T11:39:10Z</time>
      </trkpt>
      <trkpt lat="45.78415" lon="5.51716">
        <ele>371.403</ele>
        <time>2026-05-25T11:39:14Z</time>
      </trkpt>
      <trkpt lat="45.78412" lon="5.5171">
        <ele>371.403</ele>
        <time>2026-05-25T11:39:17Z</time>
      </trkpt>
      <trkpt lat="45.7841" lon="5.51704">
        <ele>371.103</ele>
        <time>2026-05-25T11:39:21Z</time>
      </trkpt>
      <trkpt lat="45.78407" lon="5.51698">
        <ele>371.103</ele>
        <time>2026-05-25T11:39:26Z</time>
      </trkpt>
      <trkpt lat="45.78404" lon="5.51691">
        <ele>371.203</ele>
        <time>2026-05-25T11:39:30Z</time>
      </trkpt>
      <trkpt lat="45.784" lon="5.51684">
        <ele>370.903</ele>
        <time>2026-05-25T11:39:34Z</time>
      </trkpt>
      <trkpt lat="45.78398" lon="5.51679">
        <ele>370.603</ele>
        <time>2026-05-25T11:39:38Z</time>
      </trkpt>
      <trkpt lat="45.78395" lon="5.51673">
        <ele>370.303</ele>
        <time>2026-05-25T11:39:42Z</time>
      </trkpt>
      <trkpt lat="45.78392" lon="5.51666">
        <ele>370.603</ele>
        <time>2026-05-25T11:39:46Z</time>
      </trkpt>
      <trkpt lat="45.78389" lon="5.51661">
        <ele>370.603</ele>
        <time>2026-05-25T11:39:50Z</time>
      </trkpt>
      <trkpt lat="45.78386" lon="5.51655">
        <ele>370.803</ele>
        <time>2026-05-25T11:39:55Z</time>
      </trkpt>
      <trkpt lat="45.78383" lon="5.5165">
        <ele>370.803</ele>
        <time>2026-05-25T11:39:58Z</time>
      </trkpt>
      <trkpt lat="45.7838" lon="5.51643">
        <ele>371.003</ele>
        <time>2026-05-25T11:40:02Z</time>
      </trkpt>
      <trkpt lat="45.78377" lon="5.51637">
        <ele>371.303</ele>
        <time>2026-05-25T11:40:06Z</time>
      </trkpt>
      <trkpt lat="45.78374" lon="5.51632">
        <ele>371.403</ele>
        <time>2026-05-25T11:40:10Z</time>
      </trkpt>
      <trkpt lat="45.78373" lon="5.51626">
        <ele>373.503</ele>
        <time>2026-05-25T11:40:25Z</time>
      </trkpt>
      <trkpt lat="45.78369" lon="5.51622">
        <ele>373.903</ele>
        <time>2026-05-25T11:40:28Z</time>
      </trkpt>
      <trkpt lat="45.78364" lon="5.51621">
        <ele>374.303</ele>
        <time>2026-05-25T11:40:33Z</time>
      </trkpt>
      <trkpt lat="45.78359" lon="5.51618">
        <ele>374.203</ele>
        <time>2026-05-25T11:40:37Z</time>
      </trkpt>
      <trkpt lat="45.78354" lon="5.51616">
        <ele>374.003</ele>
        <time>2026-05-25T11:40:42Z</time>
      </trkpt>
      <trkpt lat="45.78349" lon="5.51615">
        <ele>373.903</ele>
        <time>2026-05-25T11:40:46Z</time>
      </trkpt>
      <trkpt lat="45.78344" lon="5.51615">
        <ele>373.603</ele>
        <time>2026-05-25T11:40:50Z</time>
      </trkpt>
      <trkpt lat="45.7834" lon="5.51611">
        <ele>373.603</ele>
        <time>2026-05-25T11:40:54Z</time>
      </trkpt>
      <trkpt lat="45.78337" lon="5.51606">
        <ele>374.203</ele>
        <time>2026-05-25T11:40:59Z</time>
      </trkpt>
      <trkpt lat="45.78333" lon="5.51602">
        <ele>374.403</ele>
        <time>2026-05-25T11:41:03Z</time>
      </trkpt>
      <trkpt lat="45.78329" lon="5.51596">
        <ele>374.203</ele>
        <time>2026-05-25T11:41:08Z</time>
      </trkpt>
      <trkpt lat="45.78326" lon="5.51591">
        <ele>374.403</ele>
        <time>2026-05-25T11:41:13Z</time>
      </trkpt>
      <trkpt lat="45.78323" lon="5.51586">
        <ele>375.303</ele>
        <time>2026-05-25T11:41:18Z</time>
      </trkpt>
      <trkpt lat="45.78319" lon="5.51581">
        <ele>375.703</ele>
        <time>2026-05-25T11:41:22Z</time>
      </trkpt>
      <trkpt lat="45.78316" lon="5.51576">
        <ele>375.703</ele>
        <time>2026-05-25T11:41:26Z</time>
      </trkpt>
      <trkpt lat="45.78311" lon="5.51571">
        <ele>376.703</ele>
        <time>2026-05-25T11:41:30Z</time>
      </trkpt>
      <trkpt lat="45.78307" lon="5.51568">
        <ele>378.103</ele>
        <time>2026-05-25T11:41:34Z</time>
      </trkpt>
      <trkpt lat="45.78301" lon="5.51565">
        <ele>378.503</ele>
        <time>2026-05-25T11:41:39Z</time>
      </trkpt>
      <trkpt lat="45.78297" lon="5.51563">
        <ele>378.103</ele>
        <time>2026-05-25T11:41:43Z</time>
      </trkpt>
      <trkpt lat="45.78292" lon="5.51559">
        <ele>377.803</ele>
        <time>2026-05-25T11:41:48Z</time>
      </trkpt>
      <trkpt lat="45.78288" lon="5.51555">
        <ele>376.503</ele>
        <time>2026-05-25T11:41:52Z</time>
      </trkpt>
      <trkpt lat="45.78283" lon="5.51552">
        <ele>375.703</ele>
        <time>2026-05-25T11:41:56Z</time>
      </trkpt>
      <trkpt lat="45.78279" lon="5.51548">
        <ele>375.103</ele>
        <time>2026-05-25T11:42:00Z</time>
      </trkpt>
      <trkpt lat="45.78275" lon="5.51543">
        <ele>374.603</ele>
        <time>2026-05-25T11:42:04Z</time>
      </trkpt>
      <trkpt lat="45.78272" lon="5.51539">
        <ele>374.203</ele>
        <time>2026-05-25T11:42:08Z</time>
      </trkpt>
      <trkpt lat="45.78269" lon="5.51534">
        <ele>374.103</ele>
        <time>2026-05-25T11:42:12Z</time>
      </trkpt>
      <trkpt lat="45.78265" lon="5.51528">
        <ele>374.403</ele>
        <time>2026-05-25T11:42:16Z</time>
      </trkpt>
      <trkpt lat="45.78262" lon="5.51522">
        <ele>374.403</ele>
        <time>2026-05-25T11:42:20Z</time>
      </trkpt>
      <trkpt lat="45.78261" lon="5.51516">
        <ele>374.303</ele>
        <time>2026-05-25T11:42:24Z</time>
      </trkpt>
      <trkpt lat="45.78259" lon="5.51508">
        <ele>373.003</ele>
        <time>2026-05-25T11:42:29Z</time>
      </trkpt>
      <trkpt lat="45.78257" lon="5.51502">
        <ele>372.503</ele>
        <time>2026-05-25T11:42:33Z</time>
      </trkpt>
      <trkpt lat="45.78254" lon="5.51495">
        <ele>371.903</ele>
        <time>2026-05-25T11:42:38Z</time>
      </trkpt>
      <trkpt lat="45.78251" lon="5.5149">
        <ele>371.003</ele>
        <time>2026-05-25T11:42:42Z</time>
      </trkpt>
      <trkpt lat="45.78248" lon="5.51483">
        <ele>370.003</ele>
        <time>2026-05-25T11:42:46Z</time>
      </trkpt>
      <trkpt lat="45.78246" lon="5.51476">
        <ele>369.403</ele>
        <time>2026-05-25T11:42:50Z</time>
      </trkpt>
      <trkpt lat="45.78244" lon="5.5147">
        <ele>368.803</ele>
        <time>2026-05-25T11:42:53Z</time>
      </trkpt>
      <trkpt lat="45.78241" lon="5.51463">
        <ele>367.603</ele>
        <time>2026-05-25T11:42:58Z</time>
      </trkpt>
      <trkpt lat="45.78238" lon="5.51457">
        <ele>367.103</ele>
        <time>2026-05-25T11:43:02Z</time>
      </trkpt>
      <trkpt lat="45.78235" lon="5.5145">
        <ele>366.603</ele>
        <time>2026-05-25T11:43:06Z</time>
      </trkpt>
      <trkpt lat="45.78233" lon="5.51443">
        <ele>366.203</ele>
        <time>2026-05-25T11:43:10Z</time>
      </trkpt>
      <trkpt lat="45.78231" lon="5.51437">
        <ele>365.503</ele>
        <time>2026-05-25T11:43:14Z</time>
      </trkpt>
      <trkpt lat="45.7823" lon="5.5143">
        <ele>365.003</ele>
        <time>2026-05-25T11:43:18Z</time>
      </trkpt>
      <trkpt lat="45.78228" lon="5.51424">
        <ele>364.703</ele>
        <time>2026-05-25T11:43:22Z</time>
      </trkpt>
      <trkpt lat="45.78226" lon="5.51418">
        <ele>364.403</ele>
        <time>2026-05-25T11:43:26Z</time>
      </trkpt>
      <trkpt lat="45.78224" lon="5.51411">
        <ele>363.503</ele>
        <time>2026-05-25T11:43:30Z</time>
      </trkpt>
      <trkpt lat="45.78222" lon="5.51405">
        <ele>362.403</ele>
        <time>2026-05-25T11:43:34Z</time>
      </trkpt>
      <trkpt lat="45.78219" lon="5.51399">
        <ele>361.103</ele>
        <time>2026-05-25T11:43:38Z</time>
      </trkpt>
      <trkpt lat="45.78217" lon="5.51393">
        <ele>359.903</ele>
        <time>2026-05-25T11:43:42Z</time>
      </trkpt>
      <trkpt lat="45.78215" lon="5.51387">
        <ele>359.203</ele>
        <time>2026-05-25T11:43:45Z</time>
      </trkpt>
      <trkpt lat="45.78213" lon="5.51381">
        <ele>357.503</ele>
        <time>2026-05-25T11:43:49Z</time>
      </trkpt>
      <trkpt lat="45.78211" lon="5.51374">
        <ele>356.002</ele>
        <time>2026-05-25T11:43:53Z</time>
      </trkpt>
      <trkpt lat="45.7821" lon="5.51368">
        <ele>357.302</ele>
        <time>2026-05-25T11:43:59Z</time>
      </trkpt>
      <trkpt lat="45.78209" lon="5.51362">
        <ele>357.102</ele>
        <time>2026-05-25T11:44:03Z</time>
      </trkpt>
      <trkpt lat="45.7821" lon="5.51355">
        <ele>356.802</ele>
        <time>2026-05-25T11:44:07Z</time>
      </trkpt>
      <trkpt lat="45.7821" lon="5.51347">
        <ele>356.502</ele>
        <time>2026-05-25T11:44:11Z</time>
      </trkpt>
      <trkpt lat="45.78211" lon="5.51339">
        <ele>356.002</ele>
        <time>2026-05-25T11:44:15Z</time>
      </trkpt>
      <trkpt lat="45.7821" lon="5.51332">
        <ele>355.802</ele>
        <time>2026-05-25T11:44:19Z</time>
      </trkpt>
      <trkpt lat="45.78208" lon="5.51325">
        <ele>355.602</ele>
        <time>2026-05-25T11:44:23Z</time>
      </trkpt>
      <trkpt lat="45.78207" lon="5.51318">
        <ele>355.702</ele>
        <time>2026-05-25T11:44:27Z</time>
      </trkpt>
      <trkpt lat="45.78207" lon="5.51311">
        <ele>355.402</ele>
        <time>2026-05-25T11:44:32Z</time>
      </trkpt>
      <trkpt lat="45.78208" lon="5.51303">
        <ele>354.802</ele>
        <time>2026-05-25T11:44:37Z</time>
      </trkpt>
      <trkpt lat="45.78208" lon="5.51296">
        <ele>354.502</ele>
        <time>2026-05-25T11:44:41Z</time>
      </trkpt>
      <trkpt lat="45.78208" lon="5.51289">
        <ele>355.002</ele>
        <time>2026-05-25T11:44:47Z</time>
      </trkpt>
      <trkpt lat="45.78206" lon="5.51284">
        <ele>357.002</ele>
        <time>2026-05-25T11:44:53Z</time>
      </trkpt>
      <trkpt lat="45.78203" lon="5.51277">
        <ele>358.302</ele>
        <time>2026-05-25T11:44:58Z</time>
      </trkpt>
      <trkpt lat="45.78201" lon="5.51272">
        <ele>359.702</ele>
        <time>2026-05-25T11:45:03Z</time>
      </trkpt>
      <trkpt lat="45.78199" lon="5.51265">
        <ele>360.202</ele>
        <time>2026-05-25T11:45:07Z</time>
      </trkpt>
      <trkpt lat="45.78198" lon="5.51258">
        <ele>360.702</ele>
        <time>2026-05-25T11:45:11Z</time>
      </trkpt>
      <trkpt lat="45.78199" lon="5.51252">
        <ele>361.102</ele>
        <time>2026-05-25T11:45:15Z</time>
      </trkpt>
      <trkpt lat="45.78199" lon="5.51244">
        <ele>361.202</ele>
        <time>2026-05-25T11:45:20Z</time>
      </trkpt>
      <trkpt lat="45.782" lon="5.51238">
        <ele>361.602</ele>
        <time>2026-05-25T11:45:25Z</time>
      </trkpt>
      <trkpt lat="45.78202" lon="5.51231">
        <ele>361.502</ele>
        <time>2026-05-25T11:45:30Z</time>
      </trkpt>
      <trkpt lat="45.78203" lon="5.51227">
        <ele>362.002</ele>
        <time>2026-05-25T11:45:51Z</time>
      </trkpt>
      <trkpt lat="45.78207" lon="5.5122">
        <ele>360.402</ele>
        <time>2026-05-25T11:46:01Z</time>
      </trkpt>
      <trkpt lat="45.78211" lon="5.51215">
        <ele>360.202</ele>
        <time>2026-05-25T11:46:05Z</time>
      </trkpt>
      <trkpt lat="45.78212" lon="5.51209">
        <ele>359.302</ele>
        <time>2026-05-25T11:46:10Z</time>
      </trkpt>
      <trkpt lat="45.78213" lon="5.51202">
        <ele>358.502</ele>
        <time>2026-05-25T11:46:15Z</time>
      </trkpt>
      <trkpt lat="45.78216" lon="5.51196">
        <ele>357.202</ele>
        <time>2026-05-25T11:46:19Z</time>
      </trkpt>
      <trkpt lat="45.78218" lon="5.5119">
        <ele>356.402</ele>
        <time>2026-05-25T11:46:23Z</time>
      </trkpt>
      <trkpt lat="45.78219" lon="5.51182">
        <ele>355.902</ele>
        <time>2026-05-25T11:46:28Z</time>
      </trkpt>
      <trkpt lat="45.78221" lon="5.51176">
        <ele>355.902</ele>
        <time>2026-05-25T11:46:33Z</time>
      </trkpt>
      <trkpt lat="45.78224" lon="5.5117">
        <ele>355.702</ele>
        <time>2026-05-25T11:46:38Z</time>
      </trkpt>
      <trkpt lat="45.78227" lon="5.51163">
        <ele>355.402</ele>
        <time>2026-05-25T11:46:43Z</time>
      </trkpt>
      <trkpt lat="45.78229" lon="5.51156">
        <ele>355.302</ele>
        <time>2026-05-25T11:46:49Z</time>
      </trkpt>
      <trkpt lat="45.78232" lon="5.5115">
        <ele>355.002</ele>
        <time>2026-05-25T11:46:54Z</time>
      </trkpt>
      <trkpt lat="45.78234" lon="5.51143">
        <ele>354.802</ele>
        <time>2026-05-25T11:46:58Z</time>
      </trkpt>
      <trkpt lat="45.78237" lon="5.51137">
        <ele>354.602</ele>
        <time>2026-05-25T11:47:03Z</time>
      </trkpt>
      <trkpt lat="45.78239" lon="5.51131">
        <ele>354.002</ele>
        <time>2026-05-25T11:47:08Z</time>
      </trkpt>
      <trkpt lat="45.78243" lon="5.51126">
        <ele>352.902</ele>
        <time>2026-05-25T11:47:13Z</time>
      </trkpt>
      <trkpt lat="45.78247" lon="5.51122">
        <ele>351.602</ele>
        <time>2026-05-25T11:47:19Z</time>
      </trkpt>
      <trkpt lat="45.7825" lon="5.51116">
        <ele>350.502</ele>
        <time>2026-05-25T11:47:24Z</time>
      </trkpt>
      <trkpt lat="45.78252" lon="5.5111">
        <ele>349.302</ele>
        <time>2026-05-25T11:47:28Z</time>
      </trkpt>
      <trkpt lat="45.78255" lon="5.51105">
        <ele>347.802</ele>
        <time>2026-05-25T11:47:32Z</time>
      </trkpt>
      <trkpt lat="45.7826" lon="5.51101">
        <ele>346.302</ele>
        <time>2026-05-25T11:47:36Z</time>
      </trkpt>
      <trkpt lat="45.78263" lon="5.51096">
        <ele>344.902</ele>
        <time>2026-05-25T11:47:40Z</time>
      </trkpt>
      <trkpt lat="45.78267" lon="5.51092">
        <ele>342.802</ele>
        <time>2026-05-25T11:47:45Z</time>
      </trkpt>
      <trkpt lat="45.7827" lon="5.51088">
        <ele>340.902</ele>
        <time>2026-05-25T11:47:55Z</time>
      </trkpt>
      <trkpt lat="45.78271" lon="5.51086">
        <ele>340.602</ele>
        <time>2026-05-25T11:48:15Z</time>
      </trkpt>
      <trkpt lat="45.78271" lon="5.51073">
        <ele>340.802</ele>
        <time>2026-05-25T11:48:29Z</time>
      </trkpt>
      <trkpt lat="45.7827" lon="5.51069">
        <ele>344.202</ele>
        <time>2026-05-25T11:48:44Z</time>
      </trkpt>
      <trkpt lat="45.78271" lon="5.51062">
        <ele>345.002</ele>
        <time>2026-05-25T11:48:50Z</time>
      </trkpt>
      <trkpt lat="45.78271" lon="5.51054">
        <ele>346.202</ele>
        <time>2026-05-25T11:48:56Z</time>
      </trkpt>
      <trkpt lat="45.7827" lon="5.51047">
        <ele>347.202</ele>
        <time>2026-05-25T11:49:01Z</time>
      </trkpt>
      <trkpt lat="45.7827" lon="5.51042">
        <ele>348.702</ele>
        <time>2026-05-25T11:49:22Z</time>
      </trkpt>
      <trkpt lat="45.78271" lon="5.51033">
        <ele>349.602</ele>
        <time>2026-05-25T11:49:24Z</time>
      </trkpt>
      <trkpt lat="45.7827" lon="5.51025">
        <ele>350.902</ele>
        <time>2026-05-25T11:49:29Z</time>
      </trkpt>
      <trkpt lat="45.78271" lon="5.51017">
        <ele>351.402</ele>
        <time>2026-05-25T11:49:34Z</time>
      </trkpt>
      <trkpt lat="45.78272" lon="5.51011">
        <ele>352.002</ele>
        <time>2026-05-25T11:49:37Z</time>
      </trkpt>
      <trkpt lat="45.78273" lon="5.51003">
        <ele>353.002</ele>
        <time>2026-05-25T11:49:42Z</time>
      </trkpt>
      <trkpt lat="45.78273" lon="5.50996">
        <ele>352.902</ele>
        <time>2026-05-25T11:49:46Z</time>
      </trkpt>
      <trkpt lat="45.78273" lon="5.50988">
        <ele>353.302</ele>
        <time>2026-05-25T11:49:51Z</time>
      </trkpt>
      <trkpt lat="45.78273" lon="5.50982">
        <ele>353.602</ele>
        <time>2026-05-25T11:49:56Z</time>
      </trkpt>
      <trkpt lat="45.78272" lon="5.50974">
        <ele>353.802</ele>
        <time>2026-05-25T11:50:01Z</time>
      </trkpt>
      <trkpt lat="45.78272" lon="5.50968">
        <ele>354.102</ele>
        <time>2026-05-25T11:50:06Z</time>
      </trkpt>
      <trkpt lat="45.78272" lon="5.5096">
        <ele>354.602</ele>
        <time>2026-05-25T11:50:11Z</time>
      </trkpt>
      <trkpt lat="45.78271" lon="5.50952">
        <ele>355.402</ele>
        <time>2026-05-25T11:50:16Z</time>
      </trkpt>
      <trkpt lat="45.7827" lon="5.50945">
        <ele>356.402</ele>
        <time>2026-05-25T11:50:20Z</time>
      </trkpt>
      <trkpt lat="45.78268" lon="5.50937">
        <ele>357.302</ele>
        <time>2026-05-25T11:50:24Z</time>
      </trkpt>
      <trkpt lat="45.78267" lon="5.50931">
        <ele>357.602</ele>
        <time>2026-05-25T11:50:27Z</time>
      </trkpt>
      <trkpt lat="45.78266" lon="5.50923">
        <ele>357.502</ele>
        <time>2026-05-25T11:50:31Z</time>
      </trkpt>
      <trkpt lat="45.78266" lon="5.50916">
        <ele>357.902</ele>
        <time>2026-05-25T11:50:36Z</time>
      </trkpt>
      <trkpt lat="45.78267" lon="5.50909">
        <ele>358.002</ele>
        <time>2026-05-25T11:50:40Z</time>
      </trkpt>
      <trkpt lat="45.78266" lon="5.50901">
        <ele>358.402</ele>
        <time>2026-05-25T11:50:44Z</time>
      </trkpt>
      <trkpt lat="45.78267" lon="5.50893">
        <ele>358.402</ele>
        <time>2026-05-25T11:50:49Z</time>
      </trkpt>
      <trkpt lat="45.78268" lon="5.50886">
        <ele>358.002</ele>
        <time>2026-05-25T11:50:53Z</time>
      </trkpt>
      <trkpt lat="45.78271" lon="5.5088">
        <ele>357.502</ele>
        <time>2026-05-25T11:50:57Z</time>
      </trkpt>
      <trkpt lat="45.78275" lon="5.50875">
        <ele>357.002</ele>
        <time>2026-05-25T11:51:01Z</time>
      </trkpt>
      <trkpt lat="45.78278" lon="5.5087">
        <ele>356.702</ele>
        <time>2026-05-25T11:51:05Z</time>
      </trkpt>
      <trkpt lat="45.78282" lon="5.50865">
        <ele>356.002</ele>
        <time>2026-05-25T11:51:10Z</time>
      </trkpt>
      <trkpt lat="45.78286" lon="5.50859">
        <ele>355.102</ele>
        <time>2026-05-25T11:51:14Z</time>
      </trkpt>
      <trkpt lat="45.78289" lon="5.50854">
        <ele>354.502</ele>
        <time>2026-05-25T11:51:18Z</time>
      </trkpt>
      <trkpt lat="45.78293" lon="5.50848">
        <ele>354.202</ele>
        <time>2026-05-25T11:51:23Z</time>
      </trkpt>
      <trkpt lat="45.78296" lon="5.50842">
        <ele>353.302</ele>
        <time>2026-05-25T11:51:27Z</time>
      </trkpt>
      <trkpt lat="45.78299" lon="5.50837">
        <ele>352.702</ele>
        <time>2026-05-25T11:51:31Z</time>
      </trkpt>
      <trkpt lat="45.78302" lon="5.50832">
        <ele>351.602</ele>
        <time>2026-05-25T11:51:36Z</time>
      </trkpt>
      <trkpt lat="45.78306" lon="5.50828">
        <ele>350.002</ele>
        <time>2026-05-25T11:51:41Z</time>
      </trkpt>
      <trkpt lat="45.78309" lon="5.50823">
        <ele>348.302</ele>
        <time>2026-05-25T11:51:45Z</time>
      </trkpt>
      <trkpt lat="45.78311" lon="5.50816">
        <ele>346.402</ele>
        <time>2026-05-25T11:51:51Z</time>
      </trkpt>
      <trkpt lat="45.78313" lon="5.5081">
        <ele>345.502</ele>
        <time>2026-05-25T11:51:58Z</time>
      </trkpt>
      <trkpt lat="45.78314" lon="5.50803">
        <ele>345.202</ele>
        <time>2026-05-25T11:52:01Z</time>
      </trkpt>
      <trkpt lat="45.78313" lon="5.50796">
        <ele>345.102</ele>
        <time>2026-05-25T11:52:05Z</time>
      </trkpt>
      <trkpt lat="45.78312" lon="5.50788">
        <ele>345.402</ele>
        <time>2026-05-25T11:52:09Z</time>
      </trkpt>
      <trkpt lat="45.78313" lon="5.50781">
        <ele>345.102</ele>
        <time>2026-05-25T11:52:13Z</time>
      </trkpt>
      <trkpt lat="45.78315" lon="5.50776">
        <ele>346.002</ele>
        <time>2026-05-25T11:52:22Z</time>
      </trkpt>
      <trkpt lat="45.78316" lon="5.50769">
        <ele>347.602</ele>
        <time>2026-05-25T11:52:32Z</time>
      </trkpt>
      <trkpt lat="45.78317" lon="5.50762">
        <ele>349.202</ele>
        <time>2026-05-25T11:52:43Z</time>
      </trkpt>
      <trkpt lat="45.78314" lon="5.50755">
        <ele>349.602</ele>
        <time>2026-05-25T11:52:47Z</time>
      </trkpt>
      <trkpt lat="45.78311" lon="5.50749">
        <ele>350.202</ele>
        <time>2026-05-25T11:52:49Z</time>
      </trkpt>
      <trkpt lat="45.78308" lon="5.50743">
        <ele>350.802</ele>
        <time>2026-05-25T11:52:52Z</time>
      </trkpt>
      <trkpt lat="45.78306" lon="5.50737">
        <ele>351.202</ele>
        <time>2026-05-25T11:52:55Z</time>
      </trkpt>
      <trkpt lat="45.78304" lon="5.50731">
        <ele>351.802</ele>
        <time>2026-05-25T11:52:58Z</time>
      </trkpt>
      <trkpt lat="45.78303" lon="5.50725">
        <ele>352.102</ele>
        <time>2026-05-25T11:53:01Z</time>
      </trkpt>
      <trkpt lat="45.783" lon="5.50718">
        <ele>351.802</ele>
        <time>2026-05-25T11:53:05Z</time>
      </trkpt>
      <trkpt lat="45.78298" lon="5.50713">
        <ele>351.502</ele>
        <time>2026-05-25T11:53:09Z</time>
      </trkpt>
      <trkpt lat="45.78297" lon="5.50706">
        <ele>351.702</ele>
        <time>2026-05-25T11:53:13Z</time>
      </trkpt>
      <trkpt lat="45.78298" lon="5.50699">
        <ele>352.202</ele>
        <time>2026-05-25T11:53:18Z</time>
      </trkpt>
      <trkpt lat="45.783" lon="5.50691">
        <ele>352.502</ele>
        <time>2026-05-25T11:53:22Z</time>
      </trkpt>
      <trkpt lat="45.78302" lon="5.50685">
        <ele>353.002</ele>
        <time>2026-05-25T11:53:25Z</time>
      </trkpt>
      <trkpt lat="45.78306" lon="5.5068">
        <ele>353.002</ele>
        <time>2026-05-25T11:53:28Z</time>
      </trkpt>
      <trkpt lat="45.7831" lon="5.50676">
        <ele>352.602</ele>
        <time>2026-05-25T11:53:31Z</time>
      </trkpt>
      <trkpt lat="45.78314" lon="5.50672">
        <ele>351.702</ele>
        <time>2026-05-25T11:53:36Z</time>
      </trkpt>
      <trkpt lat="45.78319" lon="5.50668">
        <ele>351.402</ele>
        <time>2026-05-25T11:53:40Z</time>
      </trkpt>
      <trkpt lat="45.78324" lon="5.50665">
        <ele>351.002</ele>
        <time>2026-05-25T11:53:44Z</time>
      </trkpt>
      <trkpt lat="45.78327" lon="5.5066">
        <ele>351.002</ele>
        <time>2026-05-25T11:53:49Z</time>
      </trkpt>
      <trkpt lat="45.78329" lon="5.50654">
        <ele>350.702</ele>
        <time>2026-05-25T11:53:53Z</time>
      </trkpt>
      <trkpt lat="45.78331" lon="5.50648">
        <ele>350.502</ele>
        <time>2026-05-25T11:53:57Z</time>
      </trkpt>
      <trkpt lat="45.78334" lon="5.50641">
        <ele>349.702</ele>
        <time>2026-05-25T11:54:01Z</time>
      </trkpt>
      <trkpt lat="45.78336" lon="5.50635">
        <ele>349.002</ele>
        <time>2026-05-25T11:54:05Z</time>
      </trkpt>
      <trkpt lat="45.78339" lon="5.50629">
        <ele>348.602</ele>
        <time>2026-05-25T11:54:09Z</time>
      </trkpt>
      <trkpt lat="45.78339" lon="5.50622">
        <ele>348.202</ele>
        <time>2026-05-25T11:54:13Z</time>
      </trkpt>
      <trkpt lat="45.7834" lon="5.50615">
        <ele>347.502</ele>
        <time>2026-05-25T11:54:17Z</time>
      </trkpt>
      <trkpt lat="45.78341" lon="5.50607">
        <ele>347.102</ele>
        <time>2026-05-25T11:54:21Z</time>
      </trkpt>
      <trkpt lat="45.78342" lon="5.506">
        <ele>346.702</ele>
        <time>2026-05-25T11:54:25Z</time>
      </trkpt>
      <trkpt lat="45.78344" lon="5.50592">
        <ele>346.702</ele>
        <time>2026-05-25T11:54:30Z</time>
      </trkpt>
      <trkpt lat="45.78345" lon="5.50586">
        <ele>347.102</ele>
        <time>2026-05-25T11:54:34Z</time>
      </trkpt>
      <trkpt lat="45.78348" lon="5.5058">
        <ele>347.102</ele>
        <time>2026-05-25T11:54:39Z</time>
      </trkpt>
      <trkpt lat="45.7835" lon="5.50574">
        <ele>347.402</ele>
        <time>2026-05-25T11:54:43Z</time>
      </trkpt>
      <trkpt lat="45.78352" lon="5.50566">
        <ele>347.802</ele>
        <time>2026-05-25T11:54:48Z</time>
      </trkpt>
      <trkpt lat="45.78354" lon="5.50564">
        <ele>350.402</ele>
        <time>2026-05-25T11:55:09Z</time>
      </trkpt>
      <trkpt lat="45.78359" lon="5.50557">
        <ele>352.002</ele>
        <time>2026-05-25T11:55:18Z</time>
      </trkpt>
      <trkpt lat="45.78358" lon="5.50549">
        <ele>352.702</ele>
        <time>2026-05-25T11:55:23Z</time>
      </trkpt>
      <trkpt lat="45.78359" lon="5.50543">
        <ele>353.202</ele>
        <time>2026-05-25T11:55:28Z</time>
      </trkpt>
      <trkpt lat="45.78359" lon="5.50535">
        <ele>353.702</ele>
        <time>2026-05-25T11:55:32Z</time>
      </trkpt>
      <trkpt lat="45.78359" lon="5.50528">
        <ele>354.302</ele>
        <time>2026-05-25T11:55:36Z</time>
      </trkpt>
      <trkpt lat="45.78359" lon="5.50521">
        <ele>355.102</ele>
        <time>2026-05-25T11:55:40Z</time>
      </trkpt>
      <trkpt lat="45.7836" lon="5.50514">
        <ele>355.802</ele>
        <time>2026-05-25T11:55:44Z</time>
      </trkpt>
      <trkpt lat="45.7836" lon="5.50507">
        <ele>355.702</ele>
        <time>2026-05-25T11:55:48Z</time>
      </trkpt>
      <trkpt lat="45.7836" lon="5.505">
        <ele>355.702</ele>
        <time>2026-05-25T11:55:53Z</time>
      </trkpt>
      <trkpt lat="45.7836" lon="5.50492">
        <ele>355.702</ele>
        <time>2026-05-25T11:55:58Z</time>
      </trkpt>
      <trkpt lat="45.78361" lon="5.50485">
        <ele>356.102</ele>
        <time>2026-05-25T11:56:03Z</time>
      </trkpt>
      <trkpt lat="45.78362" lon="5.50478">
        <ele>355.702</ele>
        <time>2026-05-25T11:56:08Z</time>
      </trkpt>
      <trkpt lat="45.78364" lon="5.50471">
        <ele>355.202</ele>
        <time>2026-05-25T11:56:12Z</time>
      </trkpt>
      <trkpt lat="45.78367" lon="5.50465">
        <ele>354.902</ele>
        <time>2026-05-25T11:56:16Z</time>
      </trkpt>
      <trkpt lat="45.78369" lon="5.50459">
        <ele>354.602</ele>
        <time>2026-05-25T11:56:20Z</time>
      </trkpt>
      <trkpt lat="45.78371" lon="5.50451">
        <ele>354.702</ele>
        <time>2026-05-25T11:56:24Z</time>
      </trkpt>
      <trkpt lat="45.78372" lon="5.50445">
        <ele>353.802</ele>
        <time>2026-05-25T11:56:28Z</time>
      </trkpt>
      <trkpt lat="45.78373" lon="5.50439">
        <ele>352.702</ele>
        <time>2026-05-25T11:56:32Z</time>
      </trkpt>
      <trkpt lat="45.78374" lon="5.50431">
        <ele>351.402</ele>
        <time>2026-05-25T11:56:37Z</time>
      </trkpt>
      <trkpt lat="45.78372" lon="5.50425">
        <ele>351.002</ele>
        <time>2026-05-25T11:56:46Z</time>
      </trkpt>
      <trkpt lat="45.78374" lon="5.50418">
        <ele>351.902</ele>
        <time>2026-05-25T11:56:54Z</time>
      </trkpt>
      <trkpt lat="45.78377" lon="5.50413">
        <ele>352.202</ele>
        <time>2026-05-25T11:57:00Z</time>
      </trkpt>
      <trkpt lat="45.78379" lon="5.50405">
        <ele>352.202</ele>
        <time>2026-05-25T11:57:05Z</time>
      </trkpt>
      <trkpt lat="45.78378" lon="5.50398">
        <ele>351.902</ele>
        <time>2026-05-25T11:57:08Z</time>
      </trkpt>
      <trkpt lat="45.78374" lon="5.50392">
        <ele>351.602</ele>
        <time>2026-05-25T11:57:11Z</time>
      </trkpt>
      <trkpt lat="45.78373" lon="5.50385">
        <ele>352.102</ele>
        <time>2026-05-25T11:57:15Z</time>
      </trkpt>
      <trkpt lat="45.78373" lon="5.50378">
        <ele>352.602</ele>
        <time>2026-05-25T11:57:19Z</time>
      </trkpt>
      <trkpt lat="45.78373" lon="5.5037">
        <ele>353.502</ele>
        <time>2026-05-25T11:57:23Z</time>
      </trkpt>
      <trkpt lat="45.78371" lon="5.50362">
        <ele>355.102</ele>
        <time>2026-05-25T11:57:27Z</time>
      </trkpt>
      <trkpt lat="45.7837" lon="5.50355">
        <ele>356.802</ele>
        <time>2026-05-25T11:57:31Z</time>
      </trkpt>
      <trkpt lat="45.78369" lon="5.50348">
        <ele>358.302</ele>
        <time>2026-05-25T11:57:35Z</time>
      </trkpt>
      <trkpt lat="45.78368" lon="5.5034">
        <ele>359.402</ele>
        <time>2026-05-25T11:57:39Z</time>
      </trkpt>
      <trkpt lat="45.78365" lon="5.50334">
        <ele>360.402</ele>
        <time>2026-05-25T11:57:43Z</time>
      </trkpt>
      <trkpt lat="45.78365" lon="5.50328">
        <ele>363.102</ele>
        <time>2026-05-25T11:57:49Z</time>
      </trkpt>
      <trkpt lat="45.78363" lon="5.50321">
        <ele>364.702</ele>
        <time>2026-05-25T11:57:54Z</time>
      </trkpt>
      <trkpt lat="45.78361" lon="5.50314">
        <ele>364.302</ele>
        <time>2026-05-25T11:58:00Z</time>
      </trkpt>
      <trkpt lat="45.78359" lon="5.50308">
        <ele>364.002</ele>
        <time>2026-05-25T11:58:03Z</time>
      </trkpt>
      <trkpt lat="45.78357" lon="5.50301">
        <ele>363.202</ele>
        <time>2026-05-25T11:58:07Z</time>
      </trkpt>
      <trkpt lat="45.78353" lon="5.50295">
        <ele>361.602</ele>
        <time>2026-05-25T11:58:12Z</time>
      </trkpt>
      <trkpt lat="45.78351" lon="5.50288">
        <ele>360.002</ele>
        <time>2026-05-25T11:58:17Z</time>
      </trkpt>
      <trkpt lat="45.78349" lon="5.50282">
        <ele>359.302</ele>
        <time>2026-05-25T11:58:21Z</time>
      </trkpt>
      <trkpt lat="45.78346" lon="5.50277">
        <ele>358.702</ele>
        <time>2026-05-25T11:58:24Z</time>
      </trkpt>
      <trkpt lat="45.78343" lon="5.50272">
        <ele>358.302</ele>
        <time>2026-05-25T11:58:27Z</time>
      </trkpt>
      <trkpt lat="45.7834" lon="5.50264">
        <ele>357.802</ele>
        <time>2026-05-25T11:58:31Z</time>
      </trkpt>
      <trkpt lat="45.78338" lon="5.50258">
        <ele>356.802</ele>
        <time>2026-05-25T11:58:35Z</time>
      </trkpt>
      <trkpt lat="45.78336" lon="5.50251">
        <ele>355.502</ele>
        <time>2026-05-25T11:58:40Z</time>
      </trkpt>
      <trkpt lat="45.78334" lon="5.50245">
        <ele>354.602</ele>
        <time>2026-05-25T11:58:44Z</time>
      </trkpt>
      <trkpt lat="45.78333" lon="5.50238">
        <ele>354.202</ele>
        <time>2026-05-25T11:58:48Z</time>
      </trkpt>
      <trkpt lat="45.78332" lon="5.50231">
        <ele>353.202</ele>
        <time>2026-05-25T11:58:52Z</time>
      </trkpt>
      <trkpt lat="45.78332" lon="5.50224">
        <ele>352.001</ele>
        <time>2026-05-25T11:58:56Z</time>
      </trkpt>
      <trkpt lat="45.7833" lon="5.50217">
        <ele>350.401</ele>
        <time>2026-05-25T11:59:00Z</time>
      </trkpt>
      <trkpt lat="45.7833" lon="5.50211">
        <ele>349.401</ele>
        <time>2026-05-25T11:59:05Z</time>
      </trkpt>
      <trkpt lat="45.78331" lon="5.50204">
        <ele>349.701</ele>
        <time>2026-05-25T11:59:09Z</time>
      </trkpt>
      <trkpt lat="45.78331" lon="5.50197">
        <ele>349.501</ele>
        <time>2026-05-25T11:59:13Z</time>
      </trkpt>
      <trkpt lat="45.78331" lon="5.50189">
        <ele>349.401</ele>
        <time>2026-05-25T11:59:17Z</time>
      </trkpt>
      <trkpt lat="45.78331" lon="5.50181">
        <ele>348.601</ele>
        <time>2026-05-25T11:59:21Z</time>
      </trkpt>
      <trkpt lat="45.78331" lon="5.50174">
        <ele>347.601</ele>
        <time>2026-05-25T11:59:25Z</time>
      </trkpt>
      <trkpt lat="45.78331" lon="5.50166">
        <ele>346.101</ele>
        <time>2026-05-25T11:59:29Z</time>
      </trkpt>
      <trkpt lat="45.7833" lon="5.50158">
        <ele>345.201</ele>
        <time>2026-05-25T11:59:33Z</time>
      </trkpt>
      <trkpt lat="45.7833" lon="5.50151">
        <ele>344.501</ele>
        <time>2026-05-25T11:59:37Z</time>
      </trkpt>
      <trkpt lat="45.78329" lon="5.50144">
        <ele>343.601</ele>
        <time>2026-05-25T11:59:41Z</time>
      </trkpt>
      <trkpt lat="45.78328" lon="5.50137">
        <ele>342.801</ele>
        <time>2026-05-25T11:59:46Z</time>
      </trkpt>
      <trkpt lat="45.78327" lon="5.5013">
        <ele>341.601</ele>
        <time>2026-05-25T11:59:50Z</time>
      </trkpt>
      <trkpt lat="45.78327" lon="5.50122">
        <ele>341.101</ele>
        <time>2026-05-25T11:59:54Z</time>
      </trkpt>
      <trkpt lat="45.78326" lon="5.50114">
        <ele>341.401</ele>
        <time>2026-05-25T11:59:59Z</time>
      </trkpt>
      <trkpt lat="45.78325" lon="5.50108">
        <ele>341.801</ele>
        <time>2026-05-25T12:00:06Z</time>
      </trkpt>
      <trkpt lat="45.78325" lon="5.50101">
        <ele>342.301</ele>
        <time>2026-05-25T12:00:09Z</time>
      </trkpt>
      <trkpt lat="45.78323" lon="5.50094">
        <ele>343.001</ele>
        <time>2026-05-25T12:00:13Z</time>
      </trkpt>
      <trkpt lat="45.78323" lon="5.50087">
        <ele>343.401</ele>
        <time>2026-05-25T12:00:17Z</time>
      </trkpt>
      <trkpt lat="45.78323" lon="5.50081">
        <ele>343.401</ele>
        <time>2026-05-25T12:00:20Z</time>
      </trkpt>
      <trkpt lat="45.78322" lon="5.50072">
        <ele>343.501</ele>
        <time>2026-05-25T12:00:23Z</time>
      </trkpt>
      <trkpt lat="45.78322" lon="5.50064">
        <ele>344.001</ele>
        <time>2026-05-25T12:00:26Z</time>
      </trkpt>
      <trkpt lat="45.7832" lon="5.50057">
        <ele>344.601</ele>
        <time>2026-05-25T12:00:29Z</time>
      </trkpt>
      <trkpt lat="45.78318" lon="5.5005">
        <ele>346.001</ele>
        <time>2026-05-25T12:00:33Z</time>
      </trkpt>
      <trkpt lat="45.78317" lon="5.50044">
        <ele>347.001</ele>
        <time>2026-05-25T12:00:36Z</time>
      </trkpt>
      <trkpt lat="45.78316" lon="5.50036">
        <ele>347.901</ele>
        <time>2026-05-25T12:00:40Z</time>
      </trkpt>
      <trkpt lat="45.78316" lon="5.50029">
        <ele>348.001</ele>
        <time>2026-05-25T12:00:43Z</time>
      </trkpt>
      <trkpt lat="45.78315" lon="5.50022">
        <ele>347.401</ele>
        <time>2026-05-25T12:00:47Z</time>
      </trkpt>
      <trkpt lat="45.78314" lon="5.50016">
        <ele>346.701</ele>
        <time>2026-05-25T12:00:51Z</time>
      </trkpt>
      <trkpt lat="45.78315" lon="5.50008">
        <ele>346.601</ele>
        <time>2026-05-25T12:00:56Z</time>
      </trkpt>
      <trkpt lat="45.78315" lon="5.5">
        <ele>346.901</ele>
        <time>2026-05-25T12:01:00Z</time>
      </trkpt>
      <trkpt lat="45.78315" lon="5.49993">
        <ele>346.801</ele>
        <time>2026-05-25T12:01:04Z</time>
      </trkpt>
      <trkpt lat="45.78315" lon="5.49986">
        <ele>346.001</ele>
        <time>2026-05-25T12:01:09Z</time>
      </trkpt>
      <trkpt lat="45.78315" lon="5.49979">
        <ele>345.001</ele>
        <time>2026-05-25T12:01:13Z</time>
      </trkpt>
      <trkpt lat="45.78314" lon="5.49972">
        <ele>344.901</ele>
        <time>2026-05-25T12:01:16Z</time>
      </trkpt>
      <trkpt lat="45.78313" lon="5.49965">
        <ele>344.701</ele>
        <time>2026-05-25T12:01:20Z</time>
      </trkpt>
      <trkpt lat="45.78311" lon="5.49958">
        <ele>344.501</ele>
        <time>2026-05-25T12:01:25Z</time>
      </trkpt>
      <trkpt lat="45.78311" lon="5.49951">
        <ele>344.101</ele>
        <time>2026-05-25T12:01:30Z</time>
      </trkpt>
      <trkpt lat="45.7831" lon="5.49943">
        <ele>344.301</ele>
        <time>2026-05-25T12:01:34Z</time>
      </trkpt>
      <trkpt lat="45.78309" lon="5.49935">
        <ele>344.701</ele>
        <time>2026-05-25T12:01:38Z</time>
      </trkpt>
      <trkpt lat="45.78308" lon="5.49928">
        <ele>345.201</ele>
        <time>2026-05-25T12:01:42Z</time>
      </trkpt>
      <trkpt lat="45.78306" lon="5.4992">
        <ele>346.201</ele>
        <time>2026-05-25T12:01:46Z</time>
      </trkpt>
      <trkpt lat="45.78305" lon="5.49914">
        <ele>347.101</ele>
        <time>2026-05-25T12:01:50Z</time>
      </trkpt>
      <trkpt lat="45.78304" lon="5.49906">
        <ele>347.501</ele>
        <time>2026-05-25T12:01:54Z</time>
      </trkpt>
      <trkpt lat="45.78304" lon="5.49899">
        <ele>347.901</ele>
        <time>2026-05-25T12:01:58Z</time>
      </trkpt>
      <trkpt lat="45.78304" lon="5.49892">
        <ele>347.901</ele>
        <time>2026-05-25T12:02:02Z</time>
      </trkpt>
      <trkpt lat="45.78304" lon="5.49885">
        <ele>347.901</ele>
        <time>2026-05-25T12:02:06Z</time>
      </trkpt>
      <trkpt lat="45.78304" lon="5.49878">
        <ele>348.101</ele>
        <time>2026-05-25T12:02:10Z</time>
      </trkpt>
      <trkpt lat="45.78305" lon="5.49871">
        <ele>348.401</ele>
        <time>2026-05-25T12:02:14Z</time>
      </trkpt>
      <trkpt lat="45.78305" lon="5.49864">
        <ele>348.701</ele>
        <time>2026-05-25T12:02:18Z</time>
      </trkpt>
      <trkpt lat="45.78306" lon="5.49857">
        <ele>349.001</ele>
        <time>2026-05-25T12:02:22Z</time>
      </trkpt>
      <trkpt lat="45.78308" lon="5.4985">
        <ele>349.801</ele>
        <time>2026-05-25T12:02:26Z</time>
      </trkpt>
      <trkpt lat="45.78309" lon="5.49843">
        <ele>349.801</ele>
        <time>2026-05-25T12:02:30Z</time>
      </trkpt>
      <trkpt lat="45.78311" lon="5.49835">
        <ele>350.501</ele>
        <time>2026-05-25T12:02:35Z</time>
      </trkpt>
      <trkpt lat="45.78312" lon="5.49829">
        <ele>350.901</ele>
        <time>2026-05-25T12:02:39Z</time>
      </trkpt>
      <trkpt lat="45.78315" lon="5.49822">
        <ele>351.801</ele>
        <time>2026-05-25T12:02:44Z</time>
      </trkpt>
      <trkpt lat="45.78317" lon="5.49816">
        <ele>352.401</ele>
        <time>2026-05-25T12:02:48Z</time>
      </trkpt>
      <trkpt lat="45.78319" lon="5.49809">
        <ele>353.401</ele>
        <time>2026-05-25T12:02:52Z</time>
      </trkpt>
      <trkpt lat="45.78321" lon="5.49803">
        <ele>354.601</ele>
        <time>2026-05-25T12:02:56Z</time>
      </trkpt>
      <trkpt lat="45.78322" lon="5.49796">
        <ele>355.001</ele>
        <time>2026-05-25T12:03:01Z</time>
      </trkpt>
      <trkpt lat="45.78324" lon="5.4979">
        <ele>355.501</ele>
        <time>2026-05-25T12:03:05Z</time>
      </trkpt>
      <trkpt lat="45.78327" lon="5.49783">
        <ele>355.701</ele>
        <time>2026-05-25T12:03:10Z</time>
      </trkpt>
      <trkpt lat="45.78329" lon="5.49777">
        <ele>355.801</ele>
        <time>2026-05-25T12:03:14Z</time>
      </trkpt>
      <trkpt lat="45.7833" lon="5.4977">
        <ele>356.201</ele>
        <time>2026-05-25T12:03:18Z</time>
      </trkpt>
      <trkpt lat="45.78332" lon="5.49763">
        <ele>356.801</ele>
        <time>2026-05-25T12:03:22Z</time>
      </trkpt>
      <trkpt lat="45.78334" lon="5.49756">
        <ele>357.901</ele>
        <time>2026-05-25T12:03:27Z</time>
      </trkpt>
      <trkpt lat="45.78336" lon="5.49749">
        <ele>358.401</ele>
        <time>2026-05-25T12:03:31Z</time>
      </trkpt>
      <trkpt lat="45.78339" lon="5.49743">
        <ele>358.901</ele>
        <time>2026-05-25T12:03:36Z</time>
      </trkpt>
      <trkpt lat="45.78341" lon="5.49737">
        <ele>358.901</ele>
        <time>2026-05-25T12:03:40Z</time>
      </trkpt>
      <trkpt lat="45.78343" lon="5.4973">
        <ele>359.201</ele>
        <time>2026-05-25T12:03:45Z</time>
      </trkpt>
      <trkpt lat="45.78345" lon="5.49723">
        <ele>360.001</ele>
        <time>2026-05-25T12:03:49Z</time>
      </trkpt>
      <trkpt lat="45.78346" lon="5.49717">
        <ele>360.601</ele>
        <time>2026-05-25T12:03:54Z</time>
      </trkpt>
      <trkpt lat="45.78349" lon="5.4971">
        <ele>360.701</ele>
        <time>2026-05-25T12:03:58Z</time>
      </trkpt>
      <trkpt lat="45.78352" lon="5.49704">
        <ele>360.901</ele>
        <time>2026-05-25T12:04:03Z</time>
      </trkpt>
      <trkpt lat="45.78355" lon="5.49698">
        <ele>361.401</ele>
        <time>2026-05-25T12:04:07Z</time>
      </trkpt>
      <trkpt lat="45.78357" lon="5.49692">
        <ele>362.001</ele>
        <time>2026-05-25T12:04:11Z</time>
      </trkpt>
      <trkpt lat="45.7836" lon="5.49686">
        <ele>362.801</ele>
        <time>2026-05-25T12:04:16Z</time>
      </trkpt>
      <trkpt lat="45.78363" lon="5.49682">
        <ele>363.401</ele>
        <time>2026-05-25T12:04:20Z</time>
      </trkpt>
      <trkpt lat="45.78367" lon="5.49675">
        <ele>363.501</ele>
        <time>2026-05-25T12:04:25Z</time>
      </trkpt>
      <trkpt lat="45.78371" lon="5.4967">
        <ele>363.901</ele>
        <time>2026-05-25T12:04:30Z</time>
      </trkpt>
      <trkpt lat="45.78374" lon="5.49663">
        <ele>365.201</ele>
        <time>2026-05-25T12:04:35Z</time>
      </trkpt>
      <trkpt lat="45.78377" lon="5.49658">
        <ele>365.601</ele>
        <time>2026-05-25T12:04:39Z</time>
      </trkpt>
      <trkpt lat="45.7838" lon="5.49651">
        <ele>366.601</ele>
        <time>2026-05-25T12:04:44Z</time>
      </trkpt>
      <trkpt lat="45.78382" lon="5.49645">
        <ele>367.501</ele>
        <time>2026-05-25T12:04:48Z</time>
      </trkpt>
      <trkpt lat="45.78384" lon="5.49638">
        <ele>367.901</ele>
        <time>2026-05-25T12:04:52Z</time>
      </trkpt>
      <trkpt lat="45.78386" lon="5.49631">
        <ele>368.801</ele>
        <time>2026-05-25T12:04:57Z</time>
      </trkpt>
      <trkpt lat="45.78389" lon="5.49624">
        <ele>369.201</ele>
        <time>2026-05-25T12:05:01Z</time>
      </trkpt>
      <trkpt lat="45.78392" lon="5.49618">
        <ele>369.001</ele>
        <time>2026-05-25T12:05:05Z</time>
      </trkpt>
      <trkpt lat="45.78395" lon="5.49612">
        <ele>370.001</ele>
        <time>2026-05-25T12:05:09Z</time>
      </trkpt>
      <trkpt lat="45.78397" lon="5.49607">
        <ele>370.701</ele>
        <time>2026-05-25T12:05:13Z</time>
      </trkpt>
      <trkpt lat="45.784" lon="5.49602">
        <ele>371.501</ele>
        <time>2026-05-25T12:05:17Z</time>
      </trkpt>
      <trkpt lat="45.78403" lon="5.49595">
        <ele>371.501</ele>
        <time>2026-05-25T12:05:21Z</time>
      </trkpt>
      <trkpt lat="45.78405" lon="5.49589">
        <ele>371.501</ele>
        <time>2026-05-25T12:05:26Z</time>
      </trkpt>
      <trkpt lat="45.78407" lon="5.49582">
        <ele>370.801</ele>
        <time>2026-05-25T12:05:30Z</time>
      </trkpt>
      <trkpt lat="45.78409" lon="5.49575">
        <ele>370.401</ele>
        <time>2026-05-25T12:05:35Z</time>
      </trkpt>
      <trkpt lat="45.78411" lon="5.49568">
        <ele>370.201</ele>
        <time>2026-05-25T12:05:39Z</time>
      </trkpt>
      <trkpt lat="45.78413" lon="5.49562">
        <ele>369.201</ele>
        <time>2026-05-25T12:05:43Z</time>
      </trkpt>
      <trkpt lat="45.78414" lon="5.49555">
        <ele>368.401</ele>
        <time>2026-05-25T12:05:47Z</time>
      </trkpt>
      <trkpt lat="45.78416" lon="5.49548">
        <ele>367.701</ele>
        <time>2026-05-25T12:05:51Z</time>
      </trkpt>
      <trkpt lat="45.78417" lon="5.49541">
        <ele>366.901</ele>
        <time>2026-05-25T12:05:55Z</time>
      </trkpt>
      <trkpt lat="45.78419" lon="5.49534">
        <ele>366.101</ele>
        <time>2026-05-25T12:05:59Z</time>
      </trkpt>
      <trkpt lat="45.78421" lon="5.49528">
        <ele>366.401</ele>
        <time>2026-05-25T12:06:03Z</time>
      </trkpt>
      <trkpt lat="45.78424" lon="5.49521">
        <ele>366.901</ele>
        <time>2026-05-25T12:06:07Z</time>
      </trkpt>
      <trkpt lat="45.78427" lon="5.49515">
        <ele>367.201</ele>
        <time>2026-05-25T12:06:11Z</time>
      </trkpt>
      <trkpt lat="45.7843" lon="5.49509">
        <ele>367.701</ele>
        <time>2026-05-25T12:06:16Z</time>
      </trkpt>
      <trkpt lat="45.78432" lon="5.49502">
        <ele>368.301</ele>
        <time>2026-05-25T12:06:21Z</time>
      </trkpt>
      <trkpt lat="45.78435" lon="5.49496">
        <ele>368.501</ele>
        <time>2026-05-25T12:06:25Z</time>
      </trkpt>
      <trkpt lat="45.78437" lon="5.4949">
        <ele>367.901</ele>
        <time>2026-05-25T12:06:29Z</time>
      </trkpt>
      <trkpt lat="45.78439" lon="5.49483">
        <ele>367.601</ele>
        <time>2026-05-25T12:06:33Z</time>
      </trkpt>
      <trkpt lat="45.7844" lon="5.49477">
        <ele>367.001</ele>
        <time>2026-05-25T12:06:37Z</time>
      </trkpt>
      <trkpt lat="45.78442" lon="5.4947">
        <ele>366.101</ele>
        <time>2026-05-25T12:06:41Z</time>
      </trkpt>
      <trkpt lat="45.78442" lon="5.49462">
        <ele>365.301</ele>
        <time>2026-05-25T12:06:46Z</time>
      </trkpt>
      <trkpt lat="45.78443" lon="5.49454">
        <ele>364.601</ele>
        <time>2026-05-25T12:06:50Z</time>
      </trkpt>
      <trkpt lat="45.78444" lon="5.49447">
        <ele>363.901</ele>
        <time>2026-05-25T12:06:54Z</time>
      </trkpt>
      <trkpt lat="45.78444" lon="5.4944">
        <ele>363.301</ele>
        <time>2026-05-25T12:06:58Z</time>
      </trkpt>
      <trkpt lat="45.78445" lon="5.49433">
        <ele>362.201</ele>
        <time>2026-05-25T12:07:02Z</time>
      </trkpt>
      <trkpt lat="45.78446" lon="5.49427">
        <ele>361.601</ele>
        <time>2026-05-25T12:07:06Z</time>
      </trkpt>
      <trkpt lat="45.78446" lon="5.4942">
        <ele>361.601</ele>
        <time>2026-05-25T12:07:10Z</time>
      </trkpt>
      <trkpt lat="45.78446" lon="5.49412">
        <ele>361.301</ele>
        <time>2026-05-25T12:07:14Z</time>
      </trkpt>
      <trkpt lat="45.78446" lon="5.49405">
        <ele>361.301</ele>
        <time>2026-05-25T12:07:17Z</time>
      </trkpt>
      <trkpt lat="45.78446" lon="5.49398">
        <ele>361.301</ele>
        <time>2026-05-25T12:07:21Z</time>
      </trkpt>
      <trkpt lat="45.78447" lon="5.49389">
        <ele>360.701</ele>
        <time>2026-05-25T12:07:25Z</time>
      </trkpt>
      <trkpt lat="45.78447" lon="5.49382">
        <ele>359.901</ele>
        <time>2026-05-25T12:07:29Z</time>
      </trkpt>
      <trkpt lat="45.78448" lon="5.49375">
        <ele>359.801</ele>
        <time>2026-05-25T12:07:33Z</time>
      </trkpt>
      <trkpt lat="45.78447" lon="5.49368">
        <ele>361.101</ele>
        <time>2026-05-25T12:07:37Z</time>
      </trkpt>
      <trkpt lat="45.78448" lon="5.49361">
        <ele>362.501</ele>
        <time>2026-05-25T12:07:41Z</time>
      </trkpt>
      <trkpt lat="45.78449" lon="5.49354">
        <ele>363.201</ele>
        <time>2026-05-25T12:07:45Z</time>
      </trkpt>
      <trkpt lat="45.7845" lon="5.49347">
        <ele>364.301</ele>
        <time>2026-05-25T12:07:49Z</time>
      </trkpt>
      <trkpt lat="45.78451" lon="5.49341">
        <ele>364.801</ele>
        <time>2026-05-25T12:07:53Z</time>
      </trkpt>
      <trkpt lat="45.78453" lon="5.49334">
        <ele>365.901</ele>
        <time>2026-05-25T12:07:57Z</time>
      </trkpt>
      <trkpt lat="45.78455" lon="5.49327">
        <ele>367.101</ele>
        <time>2026-05-25T12:08:01Z</time>
      </trkpt>
      <trkpt lat="45.78457" lon="5.4932">
        <ele>368.201</ele>
        <time>2026-05-25T12:08:05Z</time>
      </trkpt>
      <trkpt lat="45.7846" lon="5.49313">
        <ele>368.201</ele>
        <time>2026-05-25T12:08:09Z</time>
      </trkpt>
      <trkpt lat="45.78463" lon="5.49307">
        <ele>368.501</ele>
        <time>2026-05-25T12:08:12Z</time>
      </trkpt>
      <trkpt lat="45.78466" lon="5.49302">
        <ele>368.601</ele>
        <time>2026-05-25T12:08:15Z</time>
      </trkpt>
      <trkpt lat="45.78469" lon="5.49297">
        <ele>368.601</ele>
        <time>2026-05-25T12:08:19Z</time>
      </trkpt>
      <trkpt lat="45.78472" lon="5.49291">
        <ele>368.901</ele>
        <time>2026-05-25T12:08:24Z</time>
      </trkpt>
      <trkpt lat="45.78475" lon="5.49285">
        <ele>369.101</ele>
        <time>2026-05-25T12:08:28Z</time>
      </trkpt>
      <trkpt lat="45.78479" lon="5.4928">
        <ele>368.901</ele>
        <time>2026-05-25T12:08:32Z</time>
      </trkpt>
      <trkpt lat="45.78483" lon="5.49275">
        <ele>369.101</ele>
        <time>2026-05-25T12:08:36Z</time>
      </trkpt>
      <trkpt lat="45.78486" lon="5.49271">
        <ele>368.501</ele>
        <time>2026-05-25T12:08:41Z</time>
      </trkpt>
      <trkpt lat="45.7849" lon="5.49266">
        <ele>368.201</ele>
        <time>2026-05-25T12:08:45Z</time>
      </trkpt>
      <trkpt lat="45.78494" lon="5.4926">
        <ele>367.901</ele>
        <time>2026-05-25T12:08:49Z</time>
      </trkpt>
      <trkpt lat="45.78499" lon="5.49255">
        <ele>367.601</ele>
        <time>2026-05-25T12:08:53Z</time>
      </trkpt>
      <trkpt lat="45.78502" lon="5.4925">
        <ele>367.501</ele>
        <time>2026-05-25T12:08:58Z</time>
      </trkpt>
      <trkpt lat="45.78505" lon="5.49244">
        <ele>367.601</ele>
        <time>2026-05-25T12:09:02Z</time>
      </trkpt>
      <trkpt lat="45.78508" lon="5.49239">
        <ele>366.901</ele>
        <time>2026-05-25T12:09:06Z</time>
      </trkpt>
      <trkpt lat="45.7851" lon="5.49232">
        <ele>365.901</ele>
        <time>2026-05-25T12:09:11Z</time>
      </trkpt>
      <trkpt lat="45.78514" lon="5.49227">
        <ele>365.301</ele>
        <time>2026-05-25T12:09:15Z</time>
      </trkpt>
      <trkpt lat="45.78517" lon="5.49221">
        <ele>365.001</ele>
        <time>2026-05-25T12:09:19Z</time>
      </trkpt>
      <trkpt lat="45.78521" lon="5.49216">
        <ele>365.801</ele>
        <time>2026-05-25T12:09:24Z</time>
      </trkpt>
      <trkpt lat="45.78525" lon="5.4921">
        <ele>366.001</ele>
        <time>2026-05-25T12:09:28Z</time>
      </trkpt>
      <trkpt lat="45.78528" lon="5.49205">
        <ele>366.401</ele>
        <time>2026-05-25T12:09:32Z</time>
      </trkpt>
      <trkpt lat="45.78531" lon="5.492">
        <ele>366.701</ele>
        <time>2026-05-25T12:09:36Z</time>
      </trkpt>
      <trkpt lat="45.78534" lon="5.49194">
        <ele>366.901</ele>
        <time>2026-05-25T12:09:40Z</time>
      </trkpt>
      <trkpt lat="45.78537" lon="5.49187">
        <ele>367.201</ele>
        <time>2026-05-25T12:09:45Z</time>
      </trkpt>
      <trkpt lat="45.7854" lon="5.49183">
        <ele>367.201</ele>
        <time>2026-05-25T12:09:49Z</time>
      </trkpt>
      <trkpt lat="45.78544" lon="5.49178">
        <ele>368.001</ele>
        <time>2026-05-25T12:09:53Z</time>
      </trkpt>
      <trkpt lat="45.78547" lon="5.49172">
        <ele>368.101</ele>
        <time>2026-05-25T12:09:58Z</time>
      </trkpt>
      <trkpt lat="45.78552" lon="5.49169">
        <ele>368.501</ele>
        <time>2026-05-25T12:10:05Z</time>
      </trkpt>
      <trkpt lat="45.78551" lon="5.49174">
        <ele>368.501</ele>
        <time>2026-05-25T12:10:26Z</time>
      </trkpt>
    </trkseg>
  </trk>
</gpx>